<?xml version="1.0" encoding="UTF-8" standalone="no" ?>
<gpx xmlns="http://www.topografix.com/GPX/1/1" xmlns:xsi="http://www.w3.org/2001/XMLSchema-instance" xsi:schemaLocation="http://www.topografix.com/GPX/1/1 http://www.topografix.com/GPX/1/1/gpx.xsd" version="1.1" creator="VisuGPX - https://www.visugpx.com">
  <metadata>
    <name>Tour de Doizieux</name>
    <desc><![CDATA[Départ du village de Doizieux et en route pour une montée sèche en direction du crêt de la Perdrix. Puis l\\\'on bascule sur l\\\'autre versant en direction de Saint Sabin. Remontée sur le col du grateau puis les antennes de l\\\'Oeillon et retour sur Doizieux]]></desc>
  </metadata>
  <trk>
    <name><![CDATA[Tour de Doizieux_1]]></name>
    <trkseg>
      <trkpt lat="45.4272" lon="4.58566">
        <ele>435</ele>
        <time>2015-05-10T04:44:14Z</time>
      </trkpt>
      <trkpt lat="45.42719" lon="4.58564">
        <ele>435</ele>
        <time>2015-05-10T04:44:16Z</time>
      </trkpt>
      <trkpt lat="45.42717" lon="4.58563">
        <ele>435</ele>
        <time>2015-05-10T04:44:18Z</time>
      </trkpt>
      <trkpt lat="45.42716" lon="4.58563">
        <ele>436</ele>
        <time>2015-05-10T04:44:20Z</time>
      </trkpt>
      <trkpt lat="45.42715" lon="4.58565">
        <ele>437</ele>
        <time>2015-05-10T04:44:23Z</time>
      </trkpt>
      <trkpt lat="45.42713" lon="4.58566">
        <ele>438</ele>
        <time>2015-05-10T04:44:26Z</time>
      </trkpt>
      <trkpt lat="45.42712" lon="4.58568">
        <ele>438</ele>
        <time>2015-05-10T04:44:28Z</time>
      </trkpt>
      <trkpt lat="45.4271" lon="4.5857">
        <ele>439</ele>
        <time>2015-05-10T04:44:30Z</time>
      </trkpt>
      <trkpt lat="45.42707" lon="4.58574">
        <ele>440</ele>
        <time>2015-05-10T04:44:33Z</time>
      </trkpt>
      <trkpt lat="45.42705" lon="4.58576">
        <ele>440</ele>
        <time>2015-05-10T04:44:35Z</time>
      </trkpt>
      <trkpt lat="45.42703" lon="4.58579">
        <ele>440</ele>
        <time>2015-05-10T04:44:37Z</time>
      </trkpt>
      <trkpt lat="45.427" lon="4.58584">
        <ele>441</ele>
        <time>2015-05-10T04:44:40Z</time>
      </trkpt>
      <trkpt lat="45.42699" lon="4.58589">
        <ele>442</ele>
        <time>2015-05-10T04:44:43Z</time>
      </trkpt>
      <trkpt lat="45.42698" lon="4.58592">
        <ele>442</ele>
        <time>2015-05-10T04:44:45Z</time>
      </trkpt>
      <trkpt lat="45.42696" lon="4.58595">
        <ele>442</ele>
        <time>2015-05-10T04:44:47Z</time>
      </trkpt>
      <trkpt lat="45.42696" lon="4.58598">
        <ele>442</ele>
        <time>2015-05-10T04:44:49Z</time>
      </trkpt>
      <trkpt lat="45.42694" lon="4.58602">
        <ele>442</ele>
        <time>2015-05-10T04:44:52Z</time>
      </trkpt>
      <trkpt lat="45.42694" lon="4.58603">
        <ele>443</ele>
        <time>2015-05-10T04:44:54Z</time>
      </trkpt>
      <trkpt lat="45.42692" lon="4.58606">
        <ele>443</ele>
        <time>2015-05-10T04:44:56Z</time>
      </trkpt>
      <trkpt lat="45.4269" lon="4.5861">
        <ele>444</ele>
        <time>2015-05-10T04:44:59Z</time>
      </trkpt>
      <trkpt lat="45.42688" lon="4.58611">
        <ele>444</ele>
        <time>2015-05-10T04:45:01Z</time>
      </trkpt>
      <trkpt lat="45.42685" lon="4.5861">
        <ele>445</ele>
        <time>2015-05-10T04:45:04Z</time>
      </trkpt>
      <trkpt lat="45.42685" lon="4.58606">
        <ele>446</ele>
        <time>2015-05-10T04:45:07Z</time>
      </trkpt>
      <trkpt lat="45.42684" lon="4.58603">
        <ele>446</ele>
        <time>2015-05-10T04:45:09Z</time>
      </trkpt>
      <trkpt lat="45.42684" lon="4.58601">
        <ele>447</ele>
        <time>2015-05-10T04:45:11Z</time>
      </trkpt>
      <trkpt lat="45.42684" lon="4.58599">
        <ele>447</ele>
        <time>2015-05-10T04:45:13Z</time>
      </trkpt>
      <trkpt lat="45.42685" lon="4.58595">
        <ele>448</ele>
        <time>2015-05-10T04:45:16Z</time>
      </trkpt>
      <trkpt lat="45.42686" lon="4.58591">
        <ele>448</ele>
        <time>2015-05-10T04:45:18Z</time>
      </trkpt>
      <trkpt lat="45.42688" lon="4.58588">
        <ele>448</ele>
        <time>2015-05-10T04:45:21Z</time>
      </trkpt>
      <trkpt lat="45.42689" lon="4.58586">
        <ele>449</ele>
        <time>2015-05-10T04:45:23Z</time>
      </trkpt>
      <trkpt lat="45.4269" lon="4.58582">
        <ele>449</ele>
        <time>2015-05-10T04:45:25Z</time>
      </trkpt>
      <trkpt lat="45.4269" lon="4.58577">
        <ele>450</ele>
        <time>2015-05-10T04:45:28Z</time>
      </trkpt>
      <trkpt lat="45.4269" lon="4.58573">
        <ele>451</ele>
        <time>2015-05-10T04:45:30Z</time>
      </trkpt>
      <trkpt lat="45.4269" lon="4.58568">
        <ele>451</ele>
        <time>2015-05-10T04:45:33Z</time>
      </trkpt>
      <trkpt lat="45.42691" lon="4.58564">
        <ele>452</ele>
        <time>2015-05-10T04:45:35Z</time>
      </trkpt>
      <trkpt lat="45.42691" lon="4.58561">
        <ele>452</ele>
        <time>2015-05-10T04:45:37Z</time>
      </trkpt>
      <trkpt lat="45.42691" lon="4.58556">
        <ele>453</ele>
        <time>2015-05-10T04:45:40Z</time>
      </trkpt>
      <trkpt lat="45.42691" lon="4.58553">
        <ele>454</ele>
        <time>2015-05-10T04:45:42Z</time>
      </trkpt>
      <trkpt lat="45.42693" lon="4.58549">
        <ele>454</ele>
        <time>2015-05-10T04:45:44Z</time>
      </trkpt>
      <trkpt lat="45.42694" lon="4.58545">
        <ele>455</ele>
        <time>2015-05-10T04:45:46Z</time>
      </trkpt>
      <trkpt lat="45.42696" lon="4.58541">
        <ele>455</ele>
        <time>2015-05-10T04:45:49Z</time>
      </trkpt>
      <trkpt lat="45.42697" lon="4.58537">
        <ele>455</ele>
        <time>2015-05-10T04:45:52Z</time>
      </trkpt>
      <trkpt lat="45.42698" lon="4.58534">
        <ele>455</ele>
        <time>2015-05-10T04:45:54Z</time>
      </trkpt>
      <trkpt lat="45.427" lon="4.58529">
        <ele>456</ele>
        <time>2015-05-10T04:45:57Z</time>
      </trkpt>
      <trkpt lat="45.42701" lon="4.58525">
        <ele>456</ele>
        <time>2015-05-10T04:45:59Z</time>
      </trkpt>
      <trkpt lat="45.42703" lon="4.58521">
        <ele>457</ele>
        <time>2015-05-10T04:46:01Z</time>
      </trkpt>
      <trkpt lat="45.42707" lon="4.58515">
        <ele>457</ele>
        <time>2015-05-10T04:46:04Z</time>
      </trkpt>
      <trkpt lat="45.42712" lon="4.58512">
        <ele>457</ele>
        <time>2015-05-10T04:46:07Z</time>
      </trkpt>
      <trkpt lat="45.42715" lon="4.58511">
        <ele>457</ele>
        <time>2015-05-10T04:46:09Z</time>
      </trkpt>
      <trkpt lat="45.42721" lon="4.58506">
        <ele>457</ele>
        <time>2015-05-10T04:46:12Z</time>
      </trkpt>
      <trkpt lat="45.42723" lon="4.58503">
        <ele>457</ele>
        <time>2015-05-10T04:46:14Z</time>
      </trkpt>
      <trkpt lat="45.42725" lon="4.585">
        <ele>457</ele>
        <time>2015-05-10T04:46:16Z</time>
      </trkpt>
      <trkpt lat="45.42727" lon="4.58495">
        <ele>458</ele>
        <time>2015-05-10T04:46:18Z</time>
      </trkpt>
      <trkpt lat="45.42729" lon="4.5849">
        <ele>458</ele>
        <time>2015-05-10T04:46:20Z</time>
      </trkpt>
      <trkpt lat="45.4273" lon="4.58483">
        <ele>459</ele>
        <time>2015-05-10T04:46:23Z</time>
      </trkpt>
      <trkpt lat="45.42729" lon="4.58474">
        <ele>459</ele>
        <time>2015-05-10T04:46:26Z</time>
      </trkpt>
      <trkpt lat="45.42726" lon="4.58468">
        <ele>460</ele>
        <time>2015-05-10T04:46:28Z</time>
      </trkpt>
      <trkpt lat="45.42722" lon="4.58462">
        <ele>460</ele>
        <time>2015-05-10T04:46:31Z</time>
      </trkpt>
      <trkpt lat="45.42719" lon="4.58455">
        <ele>461</ele>
        <time>2015-05-10T04:46:34Z</time>
      </trkpt>
      <trkpt lat="45.42718" lon="4.58452">
        <ele>462</ele>
        <time>2015-05-10T04:46:36Z</time>
      </trkpt>
      <trkpt lat="45.42717" lon="4.58447">
        <ele>462</ele>
        <time>2015-05-10T04:46:38Z</time>
      </trkpt>
      <trkpt lat="45.42715" lon="4.58442">
        <ele>463</ele>
        <time>2015-05-10T04:46:41Z</time>
      </trkpt>
      <trkpt lat="45.42713" lon="4.58439">
        <ele>464</ele>
        <time>2015-05-10T04:46:44Z</time>
      </trkpt>
      <trkpt lat="45.42711" lon="4.58434">
        <ele>465</ele>
        <time>2015-05-10T04:46:47Z</time>
      </trkpt>
      <trkpt lat="45.4271" lon="4.58431">
        <ele>466</ele>
        <time>2015-05-10T04:46:49Z</time>
      </trkpt>
      <trkpt lat="45.42709" lon="4.58429">
        <ele>466</ele>
        <time>2015-05-10T04:46:51Z</time>
      </trkpt>
      <trkpt lat="45.42707" lon="4.58426">
        <ele>467</ele>
        <time>2015-05-10T04:46:54Z</time>
      </trkpt>
      <trkpt lat="45.42704" lon="4.58421">
        <ele>468</ele>
        <time>2015-05-10T04:46:57Z</time>
      </trkpt>
      <trkpt lat="45.42703" lon="4.58419">
        <ele>468</ele>
        <time>2015-05-10T04:46:59Z</time>
      </trkpt>
      <trkpt lat="45.42701" lon="4.58417">
        <ele>469</ele>
        <time>2015-05-10T04:47:02Z</time>
      </trkpt>
      <trkpt lat="45.427" lon="4.58415">
        <ele>469</ele>
        <time>2015-05-10T04:47:04Z</time>
      </trkpt>
      <trkpt lat="45.42698" lon="4.58413">
        <ele>470</ele>
        <time>2015-05-10T04:47:07Z</time>
      </trkpt>
      <trkpt lat="45.42696" lon="4.58413">
        <ele>471</ele>
        <time>2015-05-10T04:47:10Z</time>
      </trkpt>
      <trkpt lat="45.42694" lon="4.58414">
        <ele>472</ele>
        <time>2015-05-10T04:47:13Z</time>
      </trkpt>
      <trkpt lat="45.42693" lon="4.58416">
        <ele>472</ele>
        <time>2015-05-10T04:47:15Z</time>
      </trkpt>
      <trkpt lat="45.42691" lon="4.58419">
        <ele>473</ele>
        <time>2015-05-10T04:47:17Z</time>
      </trkpt>
      <trkpt lat="45.4269" lon="4.58422">
        <ele>474</ele>
        <time>2015-05-10T04:47:20Z</time>
      </trkpt>
      <trkpt lat="45.4269" lon="4.58425">
        <ele>474</ele>
        <time>2015-05-10T04:47:22Z</time>
      </trkpt>
      <trkpt lat="45.42689" lon="4.58428">
        <ele>476</ele>
        <time>2015-05-10T04:47:25Z</time>
      </trkpt>
      <trkpt lat="45.42689" lon="4.58432">
        <ele>476</ele>
        <time>2015-05-10T04:47:28Z</time>
      </trkpt>
      <trkpt lat="45.42688" lon="4.58436">
        <ele>477</ele>
        <time>2015-05-10T04:47:31Z</time>
      </trkpt>
      <trkpt lat="45.42688" lon="4.58439">
        <ele>478</ele>
        <time>2015-05-10T04:47:33Z</time>
      </trkpt>
      <trkpt lat="45.42687" lon="4.58444">
        <ele>479</ele>
        <time>2015-05-10T04:47:36Z</time>
      </trkpt>
      <trkpt lat="45.42685" lon="4.58449">
        <ele>480</ele>
        <time>2015-05-10T04:47:39Z</time>
      </trkpt>
      <trkpt lat="45.42684" lon="4.58452">
        <ele>480</ele>
        <time>2015-05-10T04:47:41Z</time>
      </trkpt>
      <trkpt lat="45.42682" lon="4.58456">
        <ele>481</ele>
        <time>2015-05-10T04:47:44Z</time>
      </trkpt>
      <trkpt lat="45.42681" lon="4.58459">
        <ele>481</ele>
        <time>2015-05-10T04:47:46Z</time>
      </trkpt>
      <trkpt lat="45.42679" lon="4.58463">
        <ele>482</ele>
        <time>2015-05-10T04:47:49Z</time>
      </trkpt>
      <trkpt lat="45.42678" lon="4.58466">
        <ele>482</ele>
        <time>2015-05-10T04:47:51Z</time>
      </trkpt>
      <trkpt lat="45.42676" lon="4.58469">
        <ele>483</ele>
        <time>2015-05-10T04:47:54Z</time>
      </trkpt>
      <trkpt lat="45.42673" lon="4.58473">
        <ele>483</ele>
        <time>2015-05-10T04:47:57Z</time>
      </trkpt>
      <trkpt lat="45.42672" lon="4.58476">
        <ele>484</ele>
        <time>2015-05-10T04:47:59Z</time>
      </trkpt>
      <trkpt lat="45.4267" lon="4.5848">
        <ele>484</ele>
        <time>2015-05-10T04:48:02Z</time>
      </trkpt>
      <trkpt lat="45.42667" lon="4.58482">
        <ele>485</ele>
        <time>2015-05-10T04:48:04Z</time>
      </trkpt>
      <trkpt lat="45.42666" lon="4.58484">
        <ele>485</ele>
        <time>2015-05-10T04:48:06Z</time>
      </trkpt>
      <trkpt lat="45.42664" lon="4.58487">
        <ele>486</ele>
        <time>2015-05-10T04:48:08Z</time>
      </trkpt>
      <trkpt lat="45.42663" lon="4.58489">
        <ele>486</ele>
        <time>2015-05-10T04:48:10Z</time>
      </trkpt>
      <trkpt lat="45.42661" lon="4.5849">
        <ele>487</ele>
        <time>2015-05-10T04:48:12Z</time>
      </trkpt>
      <trkpt lat="45.42659" lon="4.58493">
        <ele>487</ele>
        <time>2015-05-10T04:48:15Z</time>
      </trkpt>
      <trkpt lat="45.42658" lon="4.58494">
        <ele>488</ele>
        <time>2015-05-10T04:48:17Z</time>
      </trkpt>
      <trkpt lat="45.42654" lon="4.58494">
        <ele>488</ele>
        <time>2015-05-10T04:48:20Z</time>
      </trkpt>
      <trkpt lat="45.42653" lon="4.58491">
        <ele>489</ele>
        <time>2015-05-10T04:48:22Z</time>
      </trkpt>
      <trkpt lat="45.42654" lon="4.58485">
        <ele>489</ele>
        <time>2015-05-10T04:48:25Z</time>
      </trkpt>
      <trkpt lat="45.42655" lon="4.58481">
        <ele>489</ele>
        <time>2015-05-10T04:48:28Z</time>
      </trkpt>
      <trkpt lat="45.42656" lon="4.58476">
        <ele>490</ele>
        <time>2015-05-10T04:48:31Z</time>
      </trkpt>
      <trkpt lat="45.42657" lon="4.58473">
        <ele>490</ele>
        <time>2015-05-10T04:48:33Z</time>
      </trkpt>
      <trkpt lat="45.42658" lon="4.58468">
        <ele>490</ele>
        <time>2015-05-10T04:48:36Z</time>
      </trkpt>
      <trkpt lat="45.42658" lon="4.58465">
        <ele>490</ele>
        <time>2015-05-10T04:48:38Z</time>
      </trkpt>
      <trkpt lat="45.42659" lon="4.58462">
        <ele>489</ele>
        <time>2015-05-10T04:48:41Z</time>
      </trkpt>
      <trkpt lat="45.42656" lon="4.5846">
        <ele>490</ele>
        <time>2015-05-10T04:48:44Z</time>
      </trkpt>
      <trkpt lat="45.42653" lon="4.58459">
        <ele>490</ele>
        <time>2015-05-10T04:48:47Z</time>
      </trkpt>
      <trkpt lat="45.42651" lon="4.58459">
        <ele>491</ele>
        <time>2015-05-10T04:48:49Z</time>
      </trkpt>
      <trkpt lat="45.42649" lon="4.5846">
        <ele>491</ele>
        <time>2015-05-10T04:48:52Z</time>
      </trkpt>
      <trkpt lat="45.42647" lon="4.5846">
        <ele>492</ele>
        <time>2015-05-10T04:48:54Z</time>
      </trkpt>
      <trkpt lat="45.42643" lon="4.58462">
        <ele>493</ele>
        <time>2015-05-10T04:48:57Z</time>
      </trkpt>
      <trkpt lat="45.42641" lon="4.58462">
        <ele>493</ele>
        <time>2015-05-10T04:48:59Z</time>
      </trkpt>
      <trkpt lat="45.42638" lon="4.58463">
        <ele>494</ele>
        <time>2015-05-10T04:49:02Z</time>
      </trkpt>
      <trkpt lat="45.42635" lon="4.58464">
        <ele>494</ele>
        <time>2015-05-10T04:49:04Z</time>
      </trkpt>
      <trkpt lat="45.42632" lon="4.58465">
        <ele>495</ele>
        <time>2015-05-10T04:49:07Z</time>
      </trkpt>
      <trkpt lat="45.42629" lon="4.58465">
        <ele>495</ele>
        <time>2015-05-10T04:49:09Z</time>
      </trkpt>
      <trkpt lat="45.42625" lon="4.58466">
        <ele>496</ele>
        <time>2015-05-10T04:49:12Z</time>
      </trkpt>
      <trkpt lat="45.42623" lon="4.58466">
        <ele>497</ele>
        <time>2015-05-10T04:49:14Z</time>
      </trkpt>
      <trkpt lat="45.4262" lon="4.58466">
        <ele>498</ele>
        <time>2015-05-10T04:49:17Z</time>
      </trkpt>
      <trkpt lat="45.42618" lon="4.58466">
        <ele>498</ele>
        <time>2015-05-10T04:49:19Z</time>
      </trkpt>
      <trkpt lat="45.42614" lon="4.58465">
        <ele>499</ele>
        <time>2015-05-10T04:49:22Z</time>
      </trkpt>
      <trkpt lat="45.42612" lon="4.58464">
        <ele>499</ele>
        <time>2015-05-10T04:49:24Z</time>
      </trkpt>
      <trkpt lat="45.4261" lon="4.58463">
        <ele>500</ele>
        <time>2015-05-10T04:49:26Z</time>
      </trkpt>
      <trkpt lat="45.42607" lon="4.58461">
        <ele>500</ele>
        <time>2015-05-10T04:49:29Z</time>
      </trkpt>
      <trkpt lat="45.42604" lon="4.5846">
        <ele>501</ele>
        <time>2015-05-10T04:49:31Z</time>
      </trkpt>
      <trkpt lat="45.42601" lon="4.58458">
        <ele>502</ele>
        <time>2015-05-10T04:49:34Z</time>
      </trkpt>
      <trkpt lat="45.42598" lon="4.58457">
        <ele>503</ele>
        <time>2015-05-10T04:49:37Z</time>
      </trkpt>
      <trkpt lat="45.42595" lon="4.58456">
        <ele>503</ele>
        <time>2015-05-10T04:49:39Z</time>
      </trkpt>
      <trkpt lat="45.42593" lon="4.58455">
        <ele>504</ele>
        <time>2015-05-10T04:49:41Z</time>
      </trkpt>
      <trkpt lat="45.4259" lon="4.58454">
        <ele>504</ele>
        <time>2015-05-10T04:49:43Z</time>
      </trkpt>
      <trkpt lat="45.42588" lon="4.58453">
        <ele>505</ele>
        <time>2015-05-10T04:49:45Z</time>
      </trkpt>
      <trkpt lat="45.42585" lon="4.5845">
        <ele>505</ele>
        <time>2015-05-10T04:49:48Z</time>
      </trkpt>
      <trkpt lat="45.42583" lon="4.58449">
        <ele>505</ele>
        <time>2015-05-10T04:49:50Z</time>
      </trkpt>
      <trkpt lat="45.42581" lon="4.58447">
        <ele>506</ele>
        <time>2015-05-10T04:49:53Z</time>
      </trkpt>
      <trkpt lat="45.42579" lon="4.58446">
        <ele>506</ele>
        <time>2015-05-10T04:49:55Z</time>
      </trkpt>
      <trkpt lat="45.42577" lon="4.58445">
        <ele>507</ele>
        <time>2015-05-10T04:49:57Z</time>
      </trkpt>
      <trkpt lat="45.42573" lon="4.58443">
        <ele>508</ele>
        <time>2015-05-10T04:50:00Z</time>
      </trkpt>
      <trkpt lat="45.4257" lon="4.58442">
        <ele>509</ele>
        <time>2015-05-10T04:50:03Z</time>
      </trkpt>
      <trkpt lat="45.42568" lon="4.58441">
        <ele>509</ele>
        <time>2015-05-10T04:50:05Z</time>
      </trkpt>
      <trkpt lat="45.42565" lon="4.58439">
        <ele>510</ele>
        <time>2015-05-10T04:50:08Z</time>
      </trkpt>
      <trkpt lat="45.42564" lon="4.58438">
        <ele>510</ele>
        <time>2015-05-10T04:50:10Z</time>
      </trkpt>
      <trkpt lat="45.42561" lon="4.58436">
        <ele>511</ele>
        <time>2015-05-10T04:50:13Z</time>
      </trkpt>
      <trkpt lat="45.42559" lon="4.58436">
        <ele>512</ele>
        <time>2015-05-10T04:50:15Z</time>
      </trkpt>
      <trkpt lat="45.42556" lon="4.58433">
        <ele>513</ele>
        <time>2015-05-10T04:50:18Z</time>
      </trkpt>
      <trkpt lat="45.42554" lon="4.58432">
        <ele>514</ele>
        <time>2015-05-10T04:50:20Z</time>
      </trkpt>
      <trkpt lat="45.42551" lon="4.58431">
        <ele>515</ele>
        <time>2015-05-10T04:50:23Z</time>
      </trkpt>
      <trkpt lat="45.42549" lon="4.5843">
        <ele>515</ele>
        <time>2015-05-10T04:50:25Z</time>
      </trkpt>
      <trkpt lat="45.42547" lon="4.5843">
        <ele>516</ele>
        <time>2015-05-10T04:50:27Z</time>
      </trkpt>
      <trkpt lat="45.42545" lon="4.58429">
        <ele>516</ele>
        <time>2015-05-10T04:50:29Z</time>
      </trkpt>
      <trkpt lat="45.42543" lon="4.58427">
        <ele>517</ele>
        <time>2015-05-10T04:50:32Z</time>
      </trkpt>
      <trkpt lat="45.42541" lon="4.58426">
        <ele>517</ele>
        <time>2015-05-10T04:50:35Z</time>
      </trkpt>
      <trkpt lat="45.4254" lon="4.58425">
        <ele>518</ele>
        <time>2015-05-10T04:50:37Z</time>
      </trkpt>
      <trkpt lat="45.42537" lon="4.58424">
        <ele>518</ele>
        <time>2015-05-10T04:50:40Z</time>
      </trkpt>
      <trkpt lat="45.42536" lon="4.58423">
        <ele>519</ele>
        <time>2015-05-10T04:50:42Z</time>
      </trkpt>
      <trkpt lat="45.42534" lon="4.58422">
        <ele>520</ele>
        <time>2015-05-10T04:50:45Z</time>
      </trkpt>
      <trkpt lat="45.42533" lon="4.5842">
        <ele>520</ele>
        <time>2015-05-10T04:50:47Z</time>
      </trkpt>
      <trkpt lat="45.42531" lon="4.58419">
        <ele>521</ele>
        <time>2015-05-10T04:50:49Z</time>
      </trkpt>
      <trkpt lat="45.42528" lon="4.58417">
        <ele>521</ele>
        <time>2015-05-10T04:50:52Z</time>
      </trkpt>
      <trkpt lat="45.42527" lon="4.58415">
        <ele>522</ele>
        <time>2015-05-10T04:50:54Z</time>
      </trkpt>
      <trkpt lat="45.42524" lon="4.58414">
        <ele>523</ele>
        <time>2015-05-10T04:50:57Z</time>
      </trkpt>
      <trkpt lat="45.42522" lon="4.58413">
        <ele>524</ele>
        <time>2015-05-10T04:50:59Z</time>
      </trkpt>
      <trkpt lat="45.42521" lon="4.58413">
        <ele>524</ele>
        <time>2015-05-10T04:51:01Z</time>
      </trkpt>
      <trkpt lat="45.42519" lon="4.58412">
        <ele>525</ele>
        <time>2015-05-10T04:51:03Z</time>
      </trkpt>
      <trkpt lat="45.42516" lon="4.5841">
        <ele>526</ele>
        <time>2015-05-10T04:51:06Z</time>
      </trkpt>
      <trkpt lat="45.42514" lon="4.58409">
        <ele>526</ele>
        <time>2015-05-10T04:51:08Z</time>
      </trkpt>
      <trkpt lat="45.42513" lon="4.58408">
        <ele>527</ele>
        <time>2015-05-10T04:51:10Z</time>
      </trkpt>
      <trkpt lat="45.42511" lon="4.58406">
        <ele>527</ele>
        <time>2015-05-10T04:51:12Z</time>
      </trkpt>
      <trkpt lat="45.42508" lon="4.58405">
        <ele>528</ele>
        <time>2015-05-10T04:51:14Z</time>
      </trkpt>
      <trkpt lat="45.42506" lon="4.58402">
        <ele>529</ele>
        <time>2015-05-10T04:51:17Z</time>
      </trkpt>
      <trkpt lat="45.42504" lon="4.58401">
        <ele>529</ele>
        <time>2015-05-10T04:51:19Z</time>
      </trkpt>
      <trkpt lat="45.42501" lon="4.58399">
        <ele>530</ele>
        <time>2015-05-10T04:51:22Z</time>
      </trkpt>
      <trkpt lat="45.42499" lon="4.58398">
        <ele>531</ele>
        <time>2015-05-10T04:51:24Z</time>
      </trkpt>
      <trkpt lat="45.42498" lon="4.58397">
        <ele>531</ele>
        <time>2015-05-10T04:51:26Z</time>
      </trkpt>
      <trkpt lat="45.42495" lon="4.58394">
        <ele>532</ele>
        <time>2015-05-10T04:51:29Z</time>
      </trkpt>
      <trkpt lat="45.42493" lon="4.58393">
        <ele>532</ele>
        <time>2015-05-10T04:51:31Z</time>
      </trkpt>
      <trkpt lat="45.42491" lon="4.58391">
        <ele>533</ele>
        <time>2015-05-10T04:51:34Z</time>
      </trkpt>
      <trkpt lat="45.42489" lon="4.5839">
        <ele>534</ele>
        <time>2015-05-10T04:51:36Z</time>
      </trkpt>
      <trkpt lat="45.42486" lon="4.58388">
        <ele>535</ele>
        <time>2015-05-10T04:51:39Z</time>
      </trkpt>
      <trkpt lat="45.42484" lon="4.58387">
        <ele>535</ele>
        <time>2015-05-10T04:51:41Z</time>
      </trkpt>
      <trkpt lat="45.42481" lon="4.58385">
        <ele>536</ele>
        <time>2015-05-10T04:51:44Z</time>
      </trkpt>
      <trkpt lat="45.42479" lon="4.58383">
        <ele>537</ele>
        <time>2015-05-10T04:51:47Z</time>
      </trkpt>
      <trkpt lat="45.42477" lon="4.58382">
        <ele>537</ele>
        <time>2015-05-10T04:51:49Z</time>
      </trkpt>
      <trkpt lat="45.42475" lon="4.5838">
        <ele>538</ele>
        <time>2015-05-10T04:51:51Z</time>
      </trkpt>
      <trkpt lat="45.42473" lon="4.5838">
        <ele>538</ele>
        <time>2015-05-10T04:51:53Z</time>
      </trkpt>
      <trkpt lat="45.42472" lon="4.58378">
        <ele>539</ele>
        <time>2015-05-10T04:51:55Z</time>
      </trkpt>
      <trkpt lat="45.42469" lon="4.58375">
        <ele>539</ele>
        <time>2015-05-10T04:51:58Z</time>
      </trkpt>
      <trkpt lat="45.42467" lon="4.58374">
        <ele>540</ele>
        <time>2015-05-10T04:52:00Z</time>
      </trkpt>
      <trkpt lat="45.42464" lon="4.58372">
        <ele>541</ele>
        <time>2015-05-10T04:52:03Z</time>
      </trkpt>
      <trkpt lat="45.42463" lon="4.58371">
        <ele>541</ele>
        <time>2015-05-10T04:52:05Z</time>
      </trkpt>
      <trkpt lat="45.4246" lon="4.58369">
        <ele>542</ele>
        <time>2015-05-10T04:52:08Z</time>
      </trkpt>
      <trkpt lat="45.42458" lon="4.58368">
        <ele>542</ele>
        <time>2015-05-10T04:52:10Z</time>
      </trkpt>
      <trkpt lat="45.42455" lon="4.58365">
        <ele>543</ele>
        <time>2015-05-10T04:52:13Z</time>
      </trkpt>
      <trkpt lat="45.42453" lon="4.58364">
        <ele>543</ele>
        <time>2015-05-10T04:52:15Z</time>
      </trkpt>
      <trkpt lat="45.4245" lon="4.58361">
        <ele>544</ele>
        <time>2015-05-10T04:52:18Z</time>
      </trkpt>
      <trkpt lat="45.42448" lon="4.5836">
        <ele>545</ele>
        <time>2015-05-10T04:52:20Z</time>
      </trkpt>
      <trkpt lat="45.42445" lon="4.58357">
        <ele>546</ele>
        <time>2015-05-10T04:52:23Z</time>
      </trkpt>
      <trkpt lat="45.42442" lon="4.58355">
        <ele>546</ele>
        <time>2015-05-10T04:52:26Z</time>
      </trkpt>
      <trkpt lat="45.4244" lon="4.58354">
        <ele>547</ele>
        <time>2015-05-10T04:52:28Z</time>
      </trkpt>
      <trkpt lat="45.42437" lon="4.58352">
        <ele>547</ele>
        <time>2015-05-10T04:52:31Z</time>
      </trkpt>
      <trkpt lat="45.42435" lon="4.58352">
        <ele>547</ele>
        <time>2015-05-10T04:52:33Z</time>
      </trkpt>
      <trkpt lat="45.42433" lon="4.58351">
        <ele>548</ele>
        <time>2015-05-10T04:52:35Z</time>
      </trkpt>
      <trkpt lat="45.4243" lon="4.58351">
        <ele>548</ele>
        <time>2015-05-10T04:52:37Z</time>
      </trkpt>
      <trkpt lat="45.42428" lon="4.58351">
        <ele>549</ele>
        <time>2015-05-10T04:52:39Z</time>
      </trkpt>
      <trkpt lat="45.42424" lon="4.5835">
        <ele>550</ele>
        <time>2015-05-10T04:52:42Z</time>
      </trkpt>
      <trkpt lat="45.42421" lon="4.5835">
        <ele>551</ele>
        <time>2015-05-10T04:52:45Z</time>
      </trkpt>
      <trkpt lat="45.42419" lon="4.5835">
        <ele>552</ele>
        <time>2015-05-10T04:52:47Z</time>
      </trkpt>
      <trkpt lat="45.42415" lon="4.58349">
        <ele>552</ele>
        <time>2015-05-10T04:52:50Z</time>
      </trkpt>
      <trkpt lat="45.42411" lon="4.58349">
        <ele>553</ele>
        <time>2015-05-10T04:52:53Z</time>
      </trkpt>
      <trkpt lat="45.42408" lon="4.58348">
        <ele>554</ele>
        <time>2015-05-10T04:52:56Z</time>
      </trkpt>
      <trkpt lat="45.42404" lon="4.58348">
        <ele>554</ele>
        <time>2015-05-10T04:52:59Z</time>
      </trkpt>
      <trkpt lat="45.42402" lon="4.58347">
        <ele>555</ele>
        <time>2015-05-10T04:53:01Z</time>
      </trkpt>
      <trkpt lat="45.42398" lon="4.58347">
        <ele>556</ele>
        <time>2015-05-10T04:53:04Z</time>
      </trkpt>
      <trkpt lat="45.42393" lon="4.58348">
        <ele>557</ele>
        <time>2015-05-10T04:53:07Z</time>
      </trkpt>
      <trkpt lat="45.42391" lon="4.58345">
        <ele>557</ele>
        <time>2015-05-10T04:53:09Z</time>
      </trkpt>
      <trkpt lat="45.42389" lon="4.58343">
        <ele>557</ele>
        <time>2015-05-10T04:53:11Z</time>
      </trkpt>
      <trkpt lat="45.42386" lon="4.58338">
        <ele>557</ele>
        <time>2015-05-10T04:53:14Z</time>
      </trkpt>
      <trkpt lat="45.42384" lon="4.58335">
        <ele>557</ele>
        <time>2015-05-10T04:53:16Z</time>
      </trkpt>
      <trkpt lat="45.42381" lon="4.58332">
        <ele>558</ele>
        <time>2015-05-10T04:53:19Z</time>
      </trkpt>
      <trkpt lat="45.42379" lon="4.5833">
        <ele>558</ele>
        <time>2015-05-10T04:53:21Z</time>
      </trkpt>
      <trkpt lat="45.42378" lon="4.58328">
        <ele>559</ele>
        <time>2015-05-10T04:53:23Z</time>
      </trkpt>
      <trkpt lat="45.42375" lon="4.58326">
        <ele>559</ele>
        <time>2015-05-10T04:53:26Z</time>
      </trkpt>
      <trkpt lat="45.42373" lon="4.58324">
        <ele>560</ele>
        <time>2015-05-10T04:53:28Z</time>
      </trkpt>
      <trkpt lat="45.42371" lon="4.58322">
        <ele>561</ele>
        <time>2015-05-10T04:53:30Z</time>
      </trkpt>
      <trkpt lat="45.42368" lon="4.58319">
        <ele>562</ele>
        <time>2015-05-10T04:53:33Z</time>
      </trkpt>
      <trkpt lat="45.42365" lon="4.58317">
        <ele>562</ele>
        <time>2015-05-10T04:53:36Z</time>
      </trkpt>
      <trkpt lat="45.42364" lon="4.58316">
        <ele>562</ele>
        <time>2015-05-10T04:53:38Z</time>
      </trkpt>
      <trkpt lat="45.42362" lon="4.58314">
        <ele>563</ele>
        <time>2015-05-10T04:53:40Z</time>
      </trkpt>
      <trkpt lat="45.42359" lon="4.58311">
        <ele>564</ele>
        <time>2015-05-10T04:53:43Z</time>
      </trkpt>
      <trkpt lat="45.42357" lon="4.58309">
        <ele>565</ele>
        <time>2015-05-10T04:53:45Z</time>
      </trkpt>
      <trkpt lat="45.42356" lon="4.58306">
        <ele>565</ele>
        <time>2015-05-10T04:53:47Z</time>
      </trkpt>
      <trkpt lat="45.42353" lon="4.58303">
        <ele>566</ele>
        <time>2015-05-10T04:53:50Z</time>
      </trkpt>
      <trkpt lat="45.4235" lon="4.58301">
        <ele>566</ele>
        <time>2015-05-10T04:53:52Z</time>
      </trkpt>
      <trkpt lat="45.42347" lon="4.58296">
        <ele>567</ele>
        <time>2015-05-10T04:53:55Z</time>
      </trkpt>
      <trkpt lat="45.42344" lon="4.58292">
        <ele>568</ele>
        <time>2015-05-10T04:53:57Z</time>
      </trkpt>
      <trkpt lat="45.42339" lon="4.58287">
        <ele>568</ele>
        <time>2015-05-10T04:54:00Z</time>
      </trkpt>
      <trkpt lat="45.42336" lon="4.58285">
        <ele>569</ele>
        <time>2015-05-10T04:54:02Z</time>
      </trkpt>
      <trkpt lat="45.42332" lon="4.58281">
        <ele>569</ele>
        <time>2015-05-10T04:54:04Z</time>
      </trkpt>
      <trkpt lat="45.42328" lon="4.58276">
        <ele>569</ele>
        <time>2015-05-10T04:54:07Z</time>
      </trkpt>
      <trkpt lat="45.42324" lon="4.58272">
        <ele>570</ele>
        <time>2015-05-10T04:54:09Z</time>
      </trkpt>
      <trkpt lat="45.4232" lon="4.58266">
        <ele>571</ele>
        <time>2015-05-10T04:54:12Z</time>
      </trkpt>
      <trkpt lat="45.42318" lon="4.58261">
        <ele>571</ele>
        <time>2015-05-10T04:54:14Z</time>
      </trkpt>
      <trkpt lat="45.42316" lon="4.58255">
        <ele>571</ele>
        <time>2015-05-10T04:54:17Z</time>
      </trkpt>
      <trkpt lat="45.42316" lon="4.58251">
        <ele>572</ele>
        <time>2015-05-10T04:54:19Z</time>
      </trkpt>
      <trkpt lat="45.42315" lon="4.58247">
        <ele>572</ele>
        <time>2015-05-10T04:54:21Z</time>
      </trkpt>
      <trkpt lat="45.42315" lon="4.58243">
        <ele>573</ele>
        <time>2015-05-10T04:54:23Z</time>
      </trkpt>
      <trkpt lat="45.42314" lon="4.58239">
        <ele>574</ele>
        <time>2015-05-10T04:54:25Z</time>
      </trkpt>
      <trkpt lat="45.42313" lon="4.58235">
        <ele>575</ele>
        <time>2015-05-10T04:54:27Z</time>
      </trkpt>
      <trkpt lat="45.42312" lon="4.58229">
        <ele>575</ele>
        <time>2015-05-10T04:54:30Z</time>
      </trkpt>
      <trkpt lat="45.4231" lon="4.58225">
        <ele>576</ele>
        <time>2015-05-10T04:54:32Z</time>
      </trkpt>
      <trkpt lat="45.42309" lon="4.58218">
        <ele>577</ele>
        <time>2015-05-10T04:54:35Z</time>
      </trkpt>
      <trkpt lat="45.42308" lon="4.58214">
        <ele>577</ele>
        <time>2015-05-10T04:54:37Z</time>
      </trkpt>
      <trkpt lat="45.42308" lon="4.58209">
        <ele>578</ele>
        <time>2015-05-10T04:54:40Z</time>
      </trkpt>
      <trkpt lat="45.42307" lon="4.58204">
        <ele>579</ele>
        <time>2015-05-10T04:54:42Z</time>
      </trkpt>
      <trkpt lat="45.42307" lon="4.582">
        <ele>580</ele>
        <time>2015-05-10T04:54:44Z</time>
      </trkpt>
      <trkpt lat="45.42308" lon="4.58195">
        <ele>580</ele>
        <time>2015-05-10T04:54:46Z</time>
      </trkpt>
      <trkpt lat="45.42306" lon="4.5819">
        <ele>581</ele>
        <time>2015-05-10T04:54:49Z</time>
      </trkpt>
      <trkpt lat="45.42304" lon="4.58186">
        <ele>581</ele>
        <time>2015-05-10T04:54:51Z</time>
      </trkpt>
      <trkpt lat="45.42301" lon="4.58181">
        <ele>581</ele>
        <time>2015-05-10T04:54:54Z</time>
      </trkpt>
      <trkpt lat="45.42299" lon="4.58176">
        <ele>582</ele>
        <time>2015-05-10T04:54:56Z</time>
      </trkpt>
      <trkpt lat="45.42296" lon="4.5817">
        <ele>582</ele>
        <time>2015-05-10T04:54:59Z</time>
      </trkpt>
      <trkpt lat="45.42294" lon="4.58164">
        <ele>583</ele>
        <time>2015-05-10T04:55:02Z</time>
      </trkpt>
      <trkpt lat="45.42292" lon="4.58157">
        <ele>584</ele>
        <time>2015-05-10T04:55:05Z</time>
      </trkpt>
      <trkpt lat="45.4229" lon="4.58154">
        <ele>584</ele>
        <time>2015-05-10T04:55:07Z</time>
      </trkpt>
      <trkpt lat="45.42288" lon="4.58149">
        <ele>585</ele>
        <time>2015-05-10T04:55:10Z</time>
      </trkpt>
      <trkpt lat="45.42286" lon="4.58145">
        <ele>585</ele>
        <time>2015-05-10T04:55:12Z</time>
      </trkpt>
      <trkpt lat="45.42284" lon="4.58142">
        <ele>586</ele>
        <time>2015-05-10T04:55:14Z</time>
      </trkpt>
      <trkpt lat="45.42281" lon="4.58136">
        <ele>586</ele>
        <time>2015-05-10T04:55:17Z</time>
      </trkpt>
      <trkpt lat="45.42279" lon="4.58132">
        <ele>586</ele>
        <time>2015-05-10T04:55:19Z</time>
      </trkpt>
      <trkpt lat="45.42277" lon="4.58125">
        <ele>587</ele>
        <time>2015-05-10T04:55:22Z</time>
      </trkpt>
      <trkpt lat="45.42274" lon="4.58119">
        <ele>588</ele>
        <time>2015-05-10T04:55:25Z</time>
      </trkpt>
      <trkpt lat="45.42271" lon="4.58114">
        <ele>588</ele>
        <time>2015-05-10T04:55:28Z</time>
      </trkpt>
      <trkpt lat="45.42268" lon="4.5811">
        <ele>589</ele>
        <time>2015-05-10T04:55:31Z</time>
      </trkpt>
      <trkpt lat="45.42264" lon="4.58104">
        <ele>590</ele>
        <time>2015-05-10T04:55:34Z</time>
      </trkpt>
      <trkpt lat="45.42262" lon="4.58101">
        <ele>591</ele>
        <time>2015-05-10T04:55:36Z</time>
      </trkpt>
      <trkpt lat="45.42258" lon="4.58094">
        <ele>591</ele>
        <time>2015-05-10T04:55:39Z</time>
      </trkpt>
      <trkpt lat="45.42256" lon="4.58091">
        <ele>592</ele>
        <time>2015-05-10T04:55:41Z</time>
      </trkpt>
      <trkpt lat="45.42252" lon="4.58086">
        <ele>592</ele>
        <time>2015-05-10T04:55:44Z</time>
      </trkpt>
      <trkpt lat="45.42249" lon="4.58081">
        <ele>594</ele>
        <time>2015-05-10T04:55:47Z</time>
      </trkpt>
      <trkpt lat="45.42245" lon="4.58076">
        <ele>594</ele>
        <time>2015-05-10T04:55:50Z</time>
      </trkpt>
      <trkpt lat="45.42243" lon="4.5807">
        <ele>595</ele>
        <time>2015-05-10T04:55:53Z</time>
      </trkpt>
      <trkpt lat="45.42241" lon="4.58066">
        <ele>596</ele>
        <time>2015-05-10T04:55:55Z</time>
      </trkpt>
      <trkpt lat="45.42239" lon="4.58063">
        <ele>596</ele>
        <time>2015-05-10T04:55:57Z</time>
      </trkpt>
      <trkpt lat="45.42237" lon="4.58056">
        <ele>596</ele>
        <time>2015-05-10T04:56:00Z</time>
      </trkpt>
      <trkpt lat="45.42234" lon="4.58051">
        <ele>598</ele>
        <time>2015-05-10T04:56:03Z</time>
      </trkpt>
      <trkpt lat="45.42231" lon="4.58045">
        <ele>598</ele>
        <time>2015-05-10T04:56:06Z</time>
      </trkpt>
      <trkpt lat="45.42228" lon="4.5804">
        <ele>599</ele>
        <time>2015-05-10T04:56:09Z</time>
      </trkpt>
      <trkpt lat="45.42225" lon="4.58034">
        <ele>599</ele>
        <time>2015-05-10T04:56:12Z</time>
      </trkpt>
      <trkpt lat="45.42223" lon="4.58028">
        <ele>600</ele>
        <time>2015-05-10T04:56:15Z</time>
      </trkpt>
      <trkpt lat="45.4222" lon="4.58024">
        <ele>601</ele>
        <time>2015-05-10T04:56:17Z</time>
      </trkpt>
      <trkpt lat="45.42218" lon="4.5802">
        <ele>601</ele>
        <time>2015-05-10T04:56:19Z</time>
      </trkpt>
      <trkpt lat="45.42215" lon="4.58014">
        <ele>602</ele>
        <time>2015-05-10T04:56:22Z</time>
      </trkpt>
      <trkpt lat="45.42212" lon="4.58008">
        <ele>602</ele>
        <time>2015-05-10T04:56:25Z</time>
      </trkpt>
      <trkpt lat="45.42208" lon="4.58003">
        <ele>603</ele>
        <time>2015-05-10T04:56:28Z</time>
      </trkpt>
      <trkpt lat="45.42205" lon="4.57997">
        <ele>604</ele>
        <time>2015-05-10T04:56:31Z</time>
      </trkpt>
      <trkpt lat="45.42202" lon="4.57993">
        <ele>605</ele>
        <time>2015-05-10T04:56:34Z</time>
      </trkpt>
      <trkpt lat="45.422" lon="4.57989">
        <ele>605</ele>
        <time>2015-05-10T04:56:36Z</time>
      </trkpt>
      <trkpt lat="45.42198" lon="4.57985">
        <ele>605</ele>
        <time>2015-05-10T04:56:38Z</time>
      </trkpt>
      <trkpt lat="45.42196" lon="4.57982">
        <ele>606</ele>
        <time>2015-05-10T04:56:40Z</time>
      </trkpt>
      <trkpt lat="45.42192" lon="4.57977">
        <ele>606</ele>
        <time>2015-05-10T04:56:43Z</time>
      </trkpt>
      <trkpt lat="45.42189" lon="4.57972">
        <ele>607</ele>
        <time>2015-05-10T04:56:46Z</time>
      </trkpt>
      <trkpt lat="45.42186" lon="4.57968">
        <ele>607</ele>
        <time>2015-05-10T04:56:48Z</time>
      </trkpt>
      <trkpt lat="45.42184" lon="4.57964">
        <ele>608</ele>
        <time>2015-05-10T04:56:50Z</time>
      </trkpt>
      <trkpt lat="45.4218" lon="4.57958">
        <ele>609</ele>
        <time>2015-05-10T04:56:53Z</time>
      </trkpt>
      <trkpt lat="45.42177" lon="4.57952">
        <ele>609</ele>
        <time>2015-05-10T04:56:56Z</time>
      </trkpt>
      <trkpt lat="45.42174" lon="4.57946">
        <ele>610</ele>
        <time>2015-05-10T04:56:59Z</time>
      </trkpt>
      <trkpt lat="45.42172" lon="4.57942">
        <ele>610</ele>
        <time>2015-05-10T04:57:01Z</time>
      </trkpt>
      <trkpt lat="45.42168" lon="4.57936">
        <ele>611</ele>
        <time>2015-05-10T04:57:04Z</time>
      </trkpt>
      <trkpt lat="45.42165" lon="4.57929">
        <ele>612</ele>
        <time>2015-05-10T04:57:07Z</time>
      </trkpt>
      <trkpt lat="45.42162" lon="4.57922">
        <ele>613</ele>
        <time>2015-05-10T04:57:10Z</time>
      </trkpt>
      <trkpt lat="45.42158" lon="4.57916">
        <ele>613</ele>
        <time>2015-05-10T04:57:13Z</time>
      </trkpt>
      <trkpt lat="45.42155" lon="4.57913">
        <ele>613</ele>
        <time>2015-05-10T04:57:15Z</time>
      </trkpt>
      <trkpt lat="45.42152" lon="4.57909">
        <ele>614</ele>
        <time>2015-05-10T04:57:17Z</time>
      </trkpt>
      <trkpt lat="45.42149" lon="4.57903">
        <ele>614</ele>
        <time>2015-05-10T04:57:20Z</time>
      </trkpt>
      <trkpt lat="45.42147" lon="4.57899">
        <ele>615</ele>
        <time>2015-05-10T04:57:22Z</time>
      </trkpt>
      <trkpt lat="45.42145" lon="4.57896">
        <ele>615</ele>
        <time>2015-05-10T04:57:24Z</time>
      </trkpt>
      <trkpt lat="45.42141" lon="4.57891">
        <ele>616</ele>
        <time>2015-05-10T04:57:27Z</time>
      </trkpt>
      <trkpt lat="45.42138" lon="4.57885">
        <ele>616</ele>
        <time>2015-05-10T04:57:30Z</time>
      </trkpt>
      <trkpt lat="45.42134" lon="4.57879">
        <ele>617</ele>
        <time>2015-05-10T04:57:33Z</time>
      </trkpt>
      <trkpt lat="45.42131" lon="4.57874">
        <ele>618</ele>
        <time>2015-05-10T04:57:36Z</time>
      </trkpt>
      <trkpt lat="45.42126" lon="4.5787">
        <ele>619</ele>
        <time>2015-05-10T04:57:39Z</time>
      </trkpt>
      <trkpt lat="45.42124" lon="4.57867">
        <ele>619</ele>
        <time>2015-05-10T04:57:41Z</time>
      </trkpt>
      <trkpt lat="45.42121" lon="4.57863">
        <ele>619</ele>
        <time>2015-05-10T04:57:43Z</time>
      </trkpt>
      <trkpt lat="45.42118" lon="4.5786">
        <ele>620</ele>
        <time>2015-05-10T04:57:45Z</time>
      </trkpt>
      <trkpt lat="45.42116" lon="4.57856">
        <ele>620</ele>
        <time>2015-05-10T04:57:47Z</time>
      </trkpt>
      <trkpt lat="45.42112" lon="4.57852">
        <ele>621</ele>
        <time>2015-05-10T04:57:50Z</time>
      </trkpt>
      <trkpt lat="45.42108" lon="4.57848">
        <ele>621</ele>
        <time>2015-05-10T04:57:53Z</time>
      </trkpt>
      <trkpt lat="45.42105" lon="4.57844">
        <ele>622</ele>
        <time>2015-05-10T04:57:55Z</time>
      </trkpt>
      <trkpt lat="45.42103" lon="4.57841">
        <ele>622</ele>
        <time>2015-05-10T04:57:57Z</time>
      </trkpt>
      <trkpt lat="45.42099" lon="4.57836">
        <ele>623</ele>
        <time>2015-05-10T04:58:00Z</time>
      </trkpt>
      <trkpt lat="45.42095" lon="4.57831">
        <ele>624</ele>
        <time>2015-05-10T04:58:03Z</time>
      </trkpt>
      <trkpt lat="45.42093" lon="4.57828">
        <ele>624</ele>
        <time>2015-05-10T04:58:05Z</time>
      </trkpt>
      <trkpt lat="45.42091" lon="4.57824">
        <ele>625</ele>
        <time>2015-05-10T04:58:07Z</time>
      </trkpt>
      <trkpt lat="45.42087" lon="4.57819">
        <ele>625</ele>
        <time>2015-05-10T04:58:10Z</time>
      </trkpt>
      <trkpt lat="45.42084" lon="4.57814">
        <ele>626</ele>
        <time>2015-05-10T04:58:13Z</time>
      </trkpt>
      <trkpt lat="45.42081" lon="4.57808">
        <ele>627</ele>
        <time>2015-05-10T04:58:16Z</time>
      </trkpt>
      <trkpt lat="45.42078" lon="4.57802">
        <ele>628</ele>
        <time>2015-05-10T04:58:19Z</time>
      </trkpt>
      <trkpt lat="45.42076" lon="4.57798">
        <ele>628</ele>
        <time>2015-05-10T04:58:21Z</time>
      </trkpt>
      <trkpt lat="45.42074" lon="4.57795">
        <ele>629</ele>
        <time>2015-05-10T04:58:23Z</time>
      </trkpt>
      <trkpt lat="45.4207" lon="4.5779">
        <ele>630</ele>
        <time>2015-05-10T04:58:26Z</time>
      </trkpt>
      <trkpt lat="45.42068" lon="4.57786">
        <ele>630</ele>
        <time>2015-05-10T04:58:28Z</time>
      </trkpt>
      <trkpt lat="45.42065" lon="4.57781">
        <ele>631</ele>
        <time>2015-05-10T04:58:31Z</time>
      </trkpt>
      <trkpt lat="45.42062" lon="4.57776">
        <ele>631</ele>
        <time>2015-05-10T04:58:34Z</time>
      </trkpt>
      <trkpt lat="45.4206" lon="4.57772">
        <ele>632</ele>
        <time>2015-05-10T04:58:36Z</time>
      </trkpt>
      <trkpt lat="45.42057" lon="4.57767">
        <ele>633</ele>
        <time>2015-05-10T04:58:39Z</time>
      </trkpt>
      <trkpt lat="45.42053" lon="4.57761">
        <ele>634</ele>
        <time>2015-05-10T04:58:42Z</time>
      </trkpt>
      <trkpt lat="45.42051" lon="4.57755">
        <ele>634</ele>
        <time>2015-05-10T04:58:45Z</time>
      </trkpt>
      <trkpt lat="45.42049" lon="4.57752">
        <ele>635</ele>
        <time>2015-05-10T04:58:47Z</time>
      </trkpt>
      <trkpt lat="45.42046" lon="4.57748">
        <ele>635</ele>
        <time>2015-05-10T04:58:49Z</time>
      </trkpt>
      <trkpt lat="45.42042" lon="4.57743">
        <ele>636</ele>
        <time>2015-05-10T04:58:52Z</time>
      </trkpt>
      <trkpt lat="45.42038" lon="4.5774">
        <ele>636</ele>
        <time>2015-05-10T04:58:54Z</time>
      </trkpt>
      <trkpt lat="45.42035" lon="4.57737">
        <ele>637</ele>
        <time>2015-05-10T04:58:56Z</time>
      </trkpt>
      <trkpt lat="45.42031" lon="4.57731">
        <ele>638</ele>
        <time>2015-05-10T04:58:59Z</time>
      </trkpt>
      <trkpt lat="45.42029" lon="4.57728">
        <ele>638</ele>
        <time>2015-05-10T04:59:01Z</time>
      </trkpt>
      <trkpt lat="45.42027" lon="4.57725">
        <ele>638</ele>
        <time>2015-05-10T04:59:03Z</time>
      </trkpt>
      <trkpt lat="45.42024" lon="4.57719">
        <ele>639</ele>
        <time>2015-05-10T04:59:06Z</time>
      </trkpt>
      <trkpt lat="45.42022" lon="4.57715">
        <ele>640</ele>
        <time>2015-05-10T04:59:08Z</time>
      </trkpt>
      <trkpt lat="45.4202" lon="4.5771">
        <ele>640</ele>
        <time>2015-05-10T04:59:11Z</time>
      </trkpt>
      <trkpt lat="45.42017" lon="4.57704">
        <ele>642</ele>
        <time>2015-05-10T04:59:14Z</time>
      </trkpt>
      <trkpt lat="45.42015" lon="4.57701">
        <ele>642</ele>
        <time>2015-05-10T04:59:16Z</time>
      </trkpt>
      <trkpt lat="45.42013" lon="4.57697">
        <ele>644</ele>
        <time>2015-05-10T04:59:19Z</time>
      </trkpt>
      <trkpt lat="45.42012" lon="4.57694">
        <ele>644</ele>
        <time>2015-05-10T04:59:21Z</time>
      </trkpt>
      <trkpt lat="45.42011" lon="4.57689">
        <ele>646</ele>
        <time>2015-05-10T04:59:24Z</time>
      </trkpt>
      <trkpt lat="45.4201" lon="4.57684">
        <ele>646</ele>
        <time>2015-05-10T04:59:26Z</time>
      </trkpt>
      <trkpt lat="45.42008" lon="4.57676">
        <ele>647</ele>
        <time>2015-05-10T04:59:29Z</time>
      </trkpt>
      <trkpt lat="45.42008" lon="4.57672">
        <ele>647</ele>
        <time>2015-05-10T04:59:31Z</time>
      </trkpt>
      <trkpt lat="45.42006" lon="4.57665">
        <ele>648</ele>
        <time>2015-05-10T04:59:34Z</time>
      </trkpt>
      <trkpt lat="45.42006" lon="4.5766">
        <ele>649</ele>
        <time>2015-05-10T04:59:36Z</time>
      </trkpt>
      <trkpt lat="45.42004" lon="4.57656">
        <ele>649</ele>
        <time>2015-05-10T04:59:38Z</time>
      </trkpt>
      <trkpt lat="45.42003" lon="4.57652">
        <ele>650</ele>
        <time>2015-05-10T04:59:40Z</time>
      </trkpt>
      <trkpt lat="45.42" lon="4.57647">
        <ele>651</ele>
        <time>2015-05-10T04:59:43Z</time>
      </trkpt>
      <trkpt lat="45.41999" lon="4.57644">
        <ele>652</ele>
        <time>2015-05-10T04:59:45Z</time>
      </trkpt>
      <trkpt lat="45.41997" lon="4.57638">
        <ele>653</ele>
        <time>2015-05-10T04:59:48Z</time>
      </trkpt>
      <trkpt lat="45.41996" lon="4.57634">
        <ele>653</ele>
        <time>2015-05-10T04:59:50Z</time>
      </trkpt>
      <trkpt lat="45.41996" lon="4.5763">
        <ele>654</ele>
        <time>2015-05-10T04:59:52Z</time>
      </trkpt>
      <trkpt lat="45.41995" lon="4.57626">
        <ele>655</ele>
        <time>2015-05-10T04:59:54Z</time>
      </trkpt>
      <trkpt lat="45.41993" lon="4.57621">
        <ele>656</ele>
        <time>2015-05-10T04:59:57Z</time>
      </trkpt>
      <trkpt lat="45.41991" lon="4.57615">
        <ele>657</ele>
        <time>2015-05-10T05:00:00Z</time>
      </trkpt>
      <trkpt lat="45.41988" lon="4.57609">
        <ele>658</ele>
        <time>2015-05-10T05:00:03Z</time>
      </trkpt>
      <trkpt lat="45.41986" lon="4.57607">
        <ele>659</ele>
        <time>2015-05-10T05:00:05Z</time>
      </trkpt>
      <trkpt lat="45.41984" lon="4.57603">
        <ele>659</ele>
        <time>2015-05-10T05:00:07Z</time>
      </trkpt>
      <trkpt lat="45.41981" lon="4.57597">
        <ele>660</ele>
        <time>2015-05-10T05:00:10Z</time>
      </trkpt>
      <trkpt lat="45.4198" lon="4.57591">
        <ele>661</ele>
        <time>2015-05-10T05:00:13Z</time>
      </trkpt>
      <trkpt lat="45.4198" lon="4.57588">
        <ele>662</ele>
        <time>2015-05-10T05:00:15Z</time>
      </trkpt>
      <trkpt lat="45.4198" lon="4.57585">
        <ele>663</ele>
        <time>2015-05-10T05:00:17Z</time>
      </trkpt>
      <trkpt lat="45.4198" lon="4.5758">
        <ele>663</ele>
        <time>2015-05-10T05:00:20Z</time>
      </trkpt>
      <trkpt lat="45.41979" lon="4.57576">
        <ele>663</ele>
        <time>2015-05-10T05:00:22Z</time>
      </trkpt>
      <trkpt lat="45.41978" lon="4.5757">
        <ele>664</ele>
        <time>2015-05-10T05:00:25Z</time>
      </trkpt>
      <trkpt lat="45.41977" lon="4.57562">
        <ele>666</ele>
        <time>2015-05-10T05:00:28Z</time>
      </trkpt>
      <trkpt lat="45.41975" lon="4.57557">
        <ele>666</ele>
        <time>2015-05-10T05:00:31Z</time>
      </trkpt>
      <trkpt lat="45.41973" lon="4.57554">
        <ele>667</ele>
        <time>2015-05-10T05:00:33Z</time>
      </trkpt>
      <trkpt lat="45.41972" lon="4.5755">
        <ele>667</ele>
        <time>2015-05-10T05:00:35Z</time>
      </trkpt>
      <trkpt lat="45.4197" lon="4.57545">
        <ele>668</ele>
        <time>2015-05-10T05:00:38Z</time>
      </trkpt>
      <trkpt lat="45.41968" lon="4.57542">
        <ele>669</ele>
        <time>2015-05-10T05:00:40Z</time>
      </trkpt>
      <trkpt lat="45.41965" lon="4.57538">
        <ele>669</ele>
        <time>2015-05-10T05:00:43Z</time>
      </trkpt>
      <trkpt lat="45.41962" lon="4.5753">
        <ele>670</ele>
        <time>2015-05-10T05:00:46Z</time>
      </trkpt>
      <trkpt lat="45.41959" lon="4.57526">
        <ele>671</ele>
        <time>2015-05-10T05:00:48Z</time>
      </trkpt>
      <trkpt lat="45.41956" lon="4.57523">
        <ele>672</ele>
        <time>2015-05-10T05:00:50Z</time>
      </trkpt>
      <trkpt lat="45.41954" lon="4.5752">
        <ele>673</ele>
        <time>2015-05-10T05:00:52Z</time>
      </trkpt>
      <trkpt lat="45.41949" lon="4.57516">
        <ele>674</ele>
        <time>2015-05-10T05:00:55Z</time>
      </trkpt>
      <trkpt lat="45.41945" lon="4.57514">
        <ele>675</ele>
        <time>2015-05-10T05:00:58Z</time>
      </trkpt>
      <trkpt lat="45.41943" lon="4.57513">
        <ele>675</ele>
        <time>2015-05-10T05:01:00Z</time>
      </trkpt>
      <trkpt lat="45.41941" lon="4.57511">
        <ele>676</ele>
        <time>2015-05-10T05:01:02Z</time>
      </trkpt>
      <trkpt lat="45.41939" lon="4.57511">
        <ele>676</ele>
        <time>2015-05-10T05:01:04Z</time>
      </trkpt>
      <trkpt lat="45.41935" lon="4.57509">
        <ele>676</ele>
        <time>2015-05-10T05:01:07Z</time>
      </trkpt>
      <trkpt lat="45.41932" lon="4.57508">
        <ele>677</ele>
        <time>2015-05-10T05:01:09Z</time>
      </trkpt>
      <trkpt lat="45.41927" lon="4.57507">
        <ele>678</ele>
        <time>2015-05-10T05:01:12Z</time>
      </trkpt>
      <trkpt lat="45.41924" lon="4.57506">
        <ele>678</ele>
        <time>2015-05-10T05:01:14Z</time>
      </trkpt>
      <trkpt lat="45.41918" lon="4.57507">
        <ele>679</ele>
        <time>2015-05-10T05:01:17Z</time>
      </trkpt>
      <trkpt lat="45.41913" lon="4.57507">
        <ele>680</ele>
        <time>2015-05-10T05:01:20Z</time>
      </trkpt>
      <trkpt lat="45.4191" lon="4.57506">
        <ele>680</ele>
        <time>2015-05-10T05:01:22Z</time>
      </trkpt>
      <trkpt lat="45.41906" lon="4.57506">
        <ele>681</ele>
        <time>2015-05-10T05:01:24Z</time>
      </trkpt>
      <trkpt lat="45.41903" lon="4.57505">
        <ele>681</ele>
        <time>2015-05-10T05:01:26Z</time>
      </trkpt>
      <trkpt lat="45.41898" lon="4.57503">
        <ele>681</ele>
        <time>2015-05-10T05:01:29Z</time>
      </trkpt>
      <trkpt lat="45.41895" lon="4.57501">
        <ele>682</ele>
        <time>2015-05-10T05:01:32Z</time>
      </trkpt>
      <trkpt lat="45.41891" lon="4.57499">
        <ele>683</ele>
        <time>2015-05-10T05:01:35Z</time>
      </trkpt>
      <trkpt lat="45.41887" lon="4.57497">
        <ele>683</ele>
        <time>2015-05-10T05:01:38Z</time>
      </trkpt>
      <trkpt lat="45.41885" lon="4.57496">
        <ele>684</ele>
        <time>2015-05-10T05:01:40Z</time>
      </trkpt>
      <trkpt lat="45.41881" lon="4.57494">
        <ele>684</ele>
        <time>2015-05-10T05:01:43Z</time>
      </trkpt>
      <trkpt lat="45.41878" lon="4.57492">
        <ele>685</ele>
        <time>2015-05-10T05:01:46Z</time>
      </trkpt>
      <trkpt lat="45.41876" lon="4.57491">
        <ele>686</ele>
        <time>2015-05-10T05:01:48Z</time>
      </trkpt>
      <trkpt lat="45.41872" lon="4.57488">
        <ele>687</ele>
        <time>2015-05-10T05:01:51Z</time>
      </trkpt>
      <trkpt lat="45.4187" lon="4.57487">
        <ele>687</ele>
        <time>2015-05-10T05:01:53Z</time>
      </trkpt>
      <trkpt lat="45.41868" lon="4.57486">
        <ele>688</ele>
        <time>2015-05-10T05:01:55Z</time>
      </trkpt>
      <trkpt lat="45.41864" lon="4.57484">
        <ele>689</ele>
        <time>2015-05-10T05:01:58Z</time>
      </trkpt>
      <trkpt lat="45.41862" lon="4.57481">
        <ele>689</ele>
        <time>2015-05-10T05:02:01Z</time>
      </trkpt>
      <trkpt lat="45.41862" lon="4.57478">
        <ele>690</ele>
        <time>2015-05-10T05:02:03Z</time>
      </trkpt>
      <trkpt lat="45.41862" lon="4.57474">
        <ele>691</ele>
        <time>2015-05-10T05:02:06Z</time>
      </trkpt>
      <trkpt lat="45.41862" lon="4.57471">
        <ele>692</ele>
        <time>2015-05-10T05:02:08Z</time>
      </trkpt>
      <trkpt lat="45.41861" lon="4.57468">
        <ele>692</ele>
        <time>2015-05-10T05:02:10Z</time>
      </trkpt>
      <trkpt lat="45.41861" lon="4.57464">
        <ele>692</ele>
        <time>2015-05-10T05:02:12Z</time>
      </trkpt>
      <trkpt lat="45.41862" lon="4.57459">
        <ele>692</ele>
        <time>2015-05-10T05:02:15Z</time>
      </trkpt>
      <trkpt lat="45.41862" lon="4.57456">
        <ele>693</ele>
        <time>2015-05-10T05:02:17Z</time>
      </trkpt>
      <trkpt lat="45.41863" lon="4.57451">
        <ele>694</ele>
        <time>2015-05-10T05:02:20Z</time>
      </trkpt>
      <trkpt lat="45.41862" lon="4.57448">
        <ele>694</ele>
        <time>2015-05-10T05:02:22Z</time>
      </trkpt>
      <trkpt lat="45.41862" lon="4.57444">
        <ele>695</ele>
        <time>2015-05-10T05:02:25Z</time>
      </trkpt>
      <trkpt lat="45.41863" lon="4.57438">
        <ele>696</ele>
        <time>2015-05-10T05:02:28Z</time>
      </trkpt>
      <trkpt lat="45.41863" lon="4.57435">
        <ele>696</ele>
        <time>2015-05-10T05:02:30Z</time>
      </trkpt>
      <trkpt lat="45.41863" lon="4.57432">
        <ele>697</ele>
        <time>2015-05-10T05:02:32Z</time>
      </trkpt>
      <trkpt lat="45.41864" lon="4.57427">
        <ele>697</ele>
        <time>2015-05-10T05:02:35Z</time>
      </trkpt>
      <trkpt lat="45.41864" lon="4.57423">
        <ele>698</ele>
        <time>2015-05-10T05:02:37Z</time>
      </trkpt>
      <trkpt lat="45.41865" lon="4.57419">
        <ele>699</ele>
        <time>2015-05-10T05:02:40Z</time>
      </trkpt>
      <trkpt lat="45.41866" lon="4.57416">
        <ele>699</ele>
        <time>2015-05-10T05:02:42Z</time>
      </trkpt>
      <trkpt lat="45.41867" lon="4.57413">
        <ele>701</ele>
        <time>2015-05-10T05:02:45Z</time>
      </trkpt>
      <trkpt lat="45.41867" lon="4.57408">
        <ele>702</ele>
        <time>2015-05-10T05:02:48Z</time>
      </trkpt>
      <trkpt lat="45.41868" lon="4.57405">
        <ele>702</ele>
        <time>2015-05-10T05:02:50Z</time>
      </trkpt>
      <trkpt lat="45.41869" lon="4.574">
        <ele>702</ele>
        <time>2015-05-10T05:02:53Z</time>
      </trkpt>
      <trkpt lat="45.4187" lon="4.57395">
        <ele>703</ele>
        <time>2015-05-10T05:02:56Z</time>
      </trkpt>
      <trkpt lat="45.41872" lon="4.57389">
        <ele>703</ele>
        <time>2015-05-10T05:02:59Z</time>
      </trkpt>
      <trkpt lat="45.41873" lon="4.57383">
        <ele>704</ele>
        <time>2015-05-10T05:03:02Z</time>
      </trkpt>
      <trkpt lat="45.41874" lon="4.57377">
        <ele>704</ele>
        <time>2015-05-10T05:03:05Z</time>
      </trkpt>
      <trkpt lat="45.41875" lon="4.57371">
        <ele>704</ele>
        <time>2015-05-10T05:03:08Z</time>
      </trkpt>
      <trkpt lat="45.41876" lon="4.57367">
        <ele>705</ele>
        <time>2015-05-10T05:03:10Z</time>
      </trkpt>
      <trkpt lat="45.41877" lon="4.57361">
        <ele>705</ele>
        <time>2015-05-10T05:03:13Z</time>
      </trkpt>
      <trkpt lat="45.41877" lon="4.57358">
        <ele>706</ele>
        <time>2015-05-10T05:03:15Z</time>
      </trkpt>
      <trkpt lat="45.41878" lon="4.57351">
        <ele>707</ele>
        <time>2015-05-10T05:03:18Z</time>
      </trkpt>
      <trkpt lat="45.41879" lon="4.57347">
        <ele>708</ele>
        <time>2015-05-10T05:03:21Z</time>
      </trkpt>
      <trkpt lat="45.41879" lon="4.57342">
        <ele>708</ele>
        <time>2015-05-10T05:03:24Z</time>
      </trkpt>
      <trkpt lat="45.41879" lon="4.57338">
        <ele>709</ele>
        <time>2015-05-10T05:03:26Z</time>
      </trkpt>
      <trkpt lat="45.4188" lon="4.57335">
        <ele>710</ele>
        <time>2015-05-10T05:03:28Z</time>
      </trkpt>
      <trkpt lat="45.41882" lon="4.57331">
        <ele>710</ele>
        <time>2015-05-10T05:03:30Z</time>
      </trkpt>
      <trkpt lat="45.41882" lon="4.57328">
        <ele>711</ele>
        <time>2015-05-10T05:03:32Z</time>
      </trkpt>
      <trkpt lat="45.41885" lon="4.57322">
        <ele>711</ele>
        <time>2015-05-10T05:03:35Z</time>
      </trkpt>
      <trkpt lat="45.41887" lon="4.57318">
        <ele>711</ele>
        <time>2015-05-10T05:03:38Z</time>
      </trkpt>
      <trkpt lat="45.41888" lon="4.57314">
        <ele>712</ele>
        <time>2015-05-10T05:03:41Z</time>
      </trkpt>
      <trkpt lat="45.41889" lon="4.5731">
        <ele>713</ele>
        <time>2015-05-10T05:03:44Z</time>
      </trkpt>
      <trkpt lat="45.41891" lon="4.57304">
        <ele>714</ele>
        <time>2015-05-10T05:03:47Z</time>
      </trkpt>
      <trkpt lat="45.41892" lon="4.57297">
        <ele>714</ele>
        <time>2015-05-10T05:03:50Z</time>
      </trkpt>
      <trkpt lat="45.41893" lon="4.57293">
        <ele>715</ele>
        <time>2015-05-10T05:03:52Z</time>
      </trkpt>
      <trkpt lat="45.41894" lon="4.57286">
        <ele>715</ele>
        <time>2015-05-10T05:03:55Z</time>
      </trkpt>
      <trkpt lat="45.41895" lon="4.57279">
        <ele>715</ele>
        <time>2015-05-10T05:03:58Z</time>
      </trkpt>
      <trkpt lat="45.41896" lon="4.57272">
        <ele>716</ele>
        <time>2015-05-10T05:04:01Z</time>
      </trkpt>
      <trkpt lat="45.41897" lon="4.57268">
        <ele>716</ele>
        <time>2015-05-10T05:04:03Z</time>
      </trkpt>
      <trkpt lat="45.41897" lon="4.57263">
        <ele>717</ele>
        <time>2015-05-10T05:04:06Z</time>
      </trkpt>
      <trkpt lat="45.41897" lon="4.57258">
        <ele>717</ele>
        <time>2015-05-10T05:04:08Z</time>
      </trkpt>
      <trkpt lat="45.41898" lon="4.57252">
        <ele>718</ele>
        <time>2015-05-10T05:04:11Z</time>
      </trkpt>
      <trkpt lat="45.41898" lon="4.57247">
        <ele>719</ele>
        <time>2015-05-10T05:04:14Z</time>
      </trkpt>
      <trkpt lat="45.41898" lon="4.57243">
        <ele>719</ele>
        <time>2015-05-10T05:04:16Z</time>
      </trkpt>
      <trkpt lat="45.41898" lon="4.57237">
        <ele>720</ele>
        <time>2015-05-10T05:04:19Z</time>
      </trkpt>
      <trkpt lat="45.41899" lon="4.57231">
        <ele>721</ele>
        <time>2015-05-10T05:04:22Z</time>
      </trkpt>
      <trkpt lat="45.419" lon="4.57225">
        <ele>721</ele>
        <time>2015-05-10T05:04:25Z</time>
      </trkpt>
      <trkpt lat="45.41901" lon="4.57222">
        <ele>721</ele>
        <time>2015-05-10T05:04:27Z</time>
      </trkpt>
      <trkpt lat="45.41902" lon="4.57217">
        <ele>722</ele>
        <time>2015-05-10T05:04:30Z</time>
      </trkpt>
      <trkpt lat="45.41903" lon="4.57213">
        <ele>723</ele>
        <time>2015-05-10T05:04:32Z</time>
      </trkpt>
      <trkpt lat="45.41903" lon="4.57208">
        <ele>724</ele>
        <time>2015-05-10T05:04:35Z</time>
      </trkpt>
      <trkpt lat="45.41904" lon="4.57203">
        <ele>725</ele>
        <time>2015-05-10T05:04:38Z</time>
      </trkpt>
      <trkpt lat="45.41905" lon="4.57199">
        <ele>725</ele>
        <time>2015-05-10T05:04:40Z</time>
      </trkpt>
      <trkpt lat="45.41905" lon="4.57194">
        <ele>727</ele>
        <time>2015-05-10T05:04:43Z</time>
      </trkpt>
      <trkpt lat="45.41905" lon="4.57191">
        <ele>727</ele>
        <time>2015-05-10T05:04:45Z</time>
      </trkpt>
      <trkpt lat="45.41905" lon="4.57185">
        <ele>728</ele>
        <time>2015-05-10T05:04:48Z</time>
      </trkpt>
      <trkpt lat="45.41904" lon="4.5718">
        <ele>728</ele>
        <time>2015-05-10T05:04:51Z</time>
      </trkpt>
      <trkpt lat="45.41903" lon="4.57177">
        <ele>728</ele>
        <time>2015-05-10T05:04:53Z</time>
      </trkpt>
      <trkpt lat="45.41902" lon="4.57171">
        <ele>729</ele>
        <time>2015-05-10T05:04:56Z</time>
      </trkpt>
      <trkpt lat="45.41901" lon="4.57168">
        <ele>729</ele>
        <time>2015-05-10T05:04:58Z</time>
      </trkpt>
      <trkpt lat="45.41897" lon="4.57163">
        <ele>730</ele>
        <time>2015-05-10T05:05:01Z</time>
      </trkpt>
      <trkpt lat="45.41894" lon="4.57158">
        <ele>731</ele>
        <time>2015-05-10T05:05:04Z</time>
      </trkpt>
      <trkpt lat="45.41891" lon="4.57153">
        <ele>732</ele>
        <time>2015-05-10T05:05:07Z</time>
      </trkpt>
      <trkpt lat="45.41889" lon="4.57151">
        <ele>733</ele>
        <time>2015-05-10T05:05:09Z</time>
      </trkpt>
      <trkpt lat="45.41885" lon="4.57144">
        <ele>734</ele>
        <time>2015-05-10T05:05:12Z</time>
      </trkpt>
      <trkpt lat="45.41881" lon="4.5714">
        <ele>735</ele>
        <time>2015-05-10T05:05:15Z</time>
      </trkpt>
      <trkpt lat="45.41877" lon="4.57134">
        <ele>735</ele>
        <time>2015-05-10T05:05:18Z</time>
      </trkpt>
      <trkpt lat="45.41875" lon="4.5713">
        <ele>735</ele>
        <time>2015-05-10T05:05:20Z</time>
      </trkpt>
      <trkpt lat="45.41873" lon="4.57125">
        <ele>736</ele>
        <time>2015-05-10T05:05:22Z</time>
      </trkpt>
      <trkpt lat="45.41871" lon="4.57121">
        <ele>737</ele>
        <time>2015-05-10T05:05:25Z</time>
      </trkpt>
      <trkpt lat="45.41869" lon="4.57117">
        <ele>738</ele>
        <time>2015-05-10T05:05:28Z</time>
      </trkpt>
      <trkpt lat="45.41867" lon="4.57115">
        <ele>738</ele>
        <time>2015-05-10T05:05:30Z</time>
      </trkpt>
      <trkpt lat="45.41864" lon="4.57111">
        <ele>739</ele>
        <time>2015-05-10T05:05:33Z</time>
      </trkpt>
      <trkpt lat="45.4186" lon="4.57105">
        <ele>740</ele>
        <time>2015-05-10T05:05:36Z</time>
      </trkpt>
      <trkpt lat="45.41856" lon="4.571">
        <ele>741</ele>
        <time>2015-05-10T05:05:39Z</time>
      </trkpt>
      <trkpt lat="45.41853" lon="4.57096">
        <ele>742</ele>
        <time>2015-05-10T05:05:41Z</time>
      </trkpt>
      <trkpt lat="45.41849" lon="4.5709">
        <ele>743</ele>
        <time>2015-05-10T05:05:44Z</time>
      </trkpt>
      <trkpt lat="45.41844" lon="4.57085">
        <ele>743</ele>
        <time>2015-05-10T05:05:47Z</time>
      </trkpt>
      <trkpt lat="45.41841" lon="4.57082">
        <ele>743</ele>
        <time>2015-05-10T05:05:49Z</time>
      </trkpt>
      <trkpt lat="45.41836" lon="4.57077">
        <ele>744</ele>
        <time>2015-05-10T05:05:52Z</time>
      </trkpt>
      <trkpt lat="45.41832" lon="4.57072">
        <ele>745</ele>
        <time>2015-05-10T05:05:55Z</time>
      </trkpt>
      <trkpt lat="45.41829" lon="4.57068">
        <ele>745</ele>
        <time>2015-05-10T05:05:57Z</time>
      </trkpt>
      <trkpt lat="45.41824" lon="4.57064">
        <ele>746</ele>
        <time>2015-05-10T05:06:00Z</time>
      </trkpt>
      <trkpt lat="45.41821" lon="4.5706">
        <ele>746</ele>
        <time>2015-05-10T05:06:02Z</time>
      </trkpt>
      <trkpt lat="45.41816" lon="4.57054">
        <ele>747</ele>
        <time>2015-05-10T05:06:05Z</time>
      </trkpt>
      <trkpt lat="45.41811" lon="4.57049">
        <ele>748</ele>
        <time>2015-05-10T05:06:08Z</time>
      </trkpt>
      <trkpt lat="45.41808" lon="4.57046">
        <ele>748</ele>
        <time>2015-05-10T05:06:10Z</time>
      </trkpt>
      <trkpt lat="45.41803" lon="4.57041">
        <ele>749</ele>
        <time>2015-05-10T05:06:13Z</time>
      </trkpt>
      <trkpt lat="45.41799" lon="4.57038">
        <ele>749</ele>
        <time>2015-05-10T05:06:16Z</time>
      </trkpt>
      <trkpt lat="45.41796" lon="4.57034">
        <ele>750</ele>
        <time>2015-05-10T05:06:19Z</time>
      </trkpt>
      <trkpt lat="45.41793" lon="4.57033">
        <ele>750</ele>
        <time>2015-05-10T05:06:21Z</time>
      </trkpt>
      <trkpt lat="45.41789" lon="4.57033">
        <ele>751</ele>
        <time>2015-05-10T05:06:23Z</time>
      </trkpt>
      <trkpt lat="45.41784" lon="4.57031">
        <ele>751</ele>
        <time>2015-05-10T05:06:26Z</time>
      </trkpt>
      <trkpt lat="45.4178" lon="4.57031">
        <ele>752</ele>
        <time>2015-05-10T05:06:29Z</time>
      </trkpt>
      <trkpt lat="45.41776" lon="4.57031">
        <ele>753</ele>
        <time>2015-05-10T05:06:32Z</time>
      </trkpt>
      <trkpt lat="45.41773" lon="4.57031">
        <ele>754</ele>
        <time>2015-05-10T05:06:34Z</time>
      </trkpt>
      <trkpt lat="45.4177" lon="4.57031">
        <ele>754</ele>
        <time>2015-05-10T05:06:36Z</time>
      </trkpt>
      <trkpt lat="45.41766" lon="4.57031">
        <ele>755</ele>
        <time>2015-05-10T05:06:39Z</time>
      </trkpt>
      <trkpt lat="45.41761" lon="4.57032">
        <ele>756</ele>
        <time>2015-05-10T05:06:42Z</time>
      </trkpt>
      <trkpt lat="45.41758" lon="4.57032">
        <ele>756</ele>
        <time>2015-05-10T05:06:44Z</time>
      </trkpt>
      <trkpt lat="45.41753" lon="4.57032">
        <ele>757</ele>
        <time>2015-05-10T05:06:47Z</time>
      </trkpt>
      <trkpt lat="45.41748" lon="4.57032">
        <ele>757</ele>
        <time>2015-05-10T05:06:49Z</time>
      </trkpt>
      <trkpt lat="45.41745" lon="4.57032">
        <ele>758</ele>
        <time>2015-05-10T05:06:51Z</time>
      </trkpt>
      <trkpt lat="45.41739" lon="4.57031">
        <ele>758</ele>
        <time>2015-05-10T05:06:54Z</time>
      </trkpt>
      <trkpt lat="45.41733" lon="4.5703">
        <ele>759</ele>
        <time>2015-05-10T05:06:57Z</time>
      </trkpt>
      <trkpt lat="45.4173" lon="4.57029">
        <ele>759</ele>
        <time>2015-05-10T05:06:59Z</time>
      </trkpt>
      <trkpt lat="45.41725" lon="4.57029">
        <ele>760</ele>
        <time>2015-05-10T05:07:02Z</time>
      </trkpt>
      <trkpt lat="45.41721" lon="4.57028">
        <ele>761</ele>
        <time>2015-05-10T05:07:04Z</time>
      </trkpt>
      <trkpt lat="45.41716" lon="4.57027">
        <ele>761</ele>
        <time>2015-05-10T05:07:07Z</time>
      </trkpt>
      <trkpt lat="45.41711" lon="4.57026">
        <ele>761</ele>
        <time>2015-05-10T05:07:10Z</time>
      </trkpt>
      <trkpt lat="45.41706" lon="4.57024">
        <ele>762</ele>
        <time>2015-05-10T05:07:13Z</time>
      </trkpt>
      <trkpt lat="45.41703" lon="4.57024">
        <ele>762</ele>
        <time>2015-05-10T05:07:15Z</time>
      </trkpt>
      <trkpt lat="45.41697" lon="4.57023">
        <ele>763</ele>
        <time>2015-05-10T05:07:18Z</time>
      </trkpt>
      <trkpt lat="45.41692" lon="4.57022">
        <ele>763</ele>
        <time>2015-05-10T05:07:21Z</time>
      </trkpt>
      <trkpt lat="45.41687" lon="4.57023">
        <ele>765</ele>
        <time>2015-05-10T05:07:24Z</time>
      </trkpt>
      <trkpt lat="45.41682" lon="4.57023">
        <ele>766</ele>
        <time>2015-05-10T05:07:27Z</time>
      </trkpt>
      <trkpt lat="45.41679" lon="4.57024">
        <ele>766</ele>
        <time>2015-05-10T05:07:29Z</time>
      </trkpt>
      <trkpt lat="45.41676" lon="4.57026">
        <ele>766</ele>
        <time>2015-05-10T05:07:31Z</time>
      </trkpt>
      <trkpt lat="45.4167" lon="4.57028">
        <ele>767</ele>
        <time>2015-05-10T05:07:34Z</time>
      </trkpt>
      <trkpt lat="45.41667" lon="4.5703">
        <ele>767</ele>
        <time>2015-05-10T05:07:36Z</time>
      </trkpt>
      <trkpt lat="45.41661" lon="4.57031">
        <ele>768</ele>
        <time>2015-05-10T05:07:39Z</time>
      </trkpt>
      <trkpt lat="45.41655" lon="4.57031">
        <ele>769</ele>
        <time>2015-05-10T05:07:42Z</time>
      </trkpt>
      <trkpt lat="45.4165" lon="4.57032">
        <ele>769</ele>
        <time>2015-05-10T05:07:44Z</time>
      </trkpt>
      <trkpt lat="45.41646" lon="4.57034">
        <ele>769</ele>
        <time>2015-05-10T05:07:46Z</time>
      </trkpt>
      <trkpt lat="45.4164" lon="4.57036">
        <ele>770</ele>
        <time>2015-05-10T05:07:49Z</time>
      </trkpt>
      <trkpt lat="45.41636" lon="4.57038">
        <ele>770</ele>
        <time>2015-05-10T05:07:51Z</time>
      </trkpt>
      <trkpt lat="45.41629" lon="4.5704">
        <ele>770</ele>
        <time>2015-05-10T05:07:54Z</time>
      </trkpt>
      <trkpt lat="45.41626" lon="4.57042">
        <ele>770</ele>
        <time>2015-05-10T05:07:56Z</time>
      </trkpt>
      <trkpt lat="45.41622" lon="4.57044">
        <ele>771</ele>
        <time>2015-05-10T05:07:58Z</time>
      </trkpt>
      <trkpt lat="45.41618" lon="4.57049">
        <ele>771</ele>
        <time>2015-05-10T05:08:01Z</time>
      </trkpt>
      <trkpt lat="45.41616" lon="4.57053">
        <ele>772</ele>
        <time>2015-05-10T05:08:03Z</time>
      </trkpt>
      <trkpt lat="45.41611" lon="4.5706">
        <ele>771</ele>
        <time>2015-05-10T05:08:06Z</time>
      </trkpt>
      <trkpt lat="45.41607" lon="4.57069">
        <ele>771</ele>
        <time>2015-05-10T05:08:09Z</time>
      </trkpt>
      <trkpt lat="45.41604" lon="4.57074">
        <ele>771</ele>
        <time>2015-05-10T05:08:11Z</time>
      </trkpt>
      <trkpt lat="45.41599" lon="4.57083">
        <ele>771</ele>
        <time>2015-05-10T05:08:14Z</time>
      </trkpt>
      <trkpt lat="45.41594" lon="4.57092">
        <ele>772</ele>
        <time>2015-05-10T05:08:17Z</time>
      </trkpt>
      <trkpt lat="45.41588" lon="4.57097">
        <ele>773</ele>
        <time>2015-05-10T05:08:20Z</time>
      </trkpt>
      <trkpt lat="45.41582" lon="4.57102">
        <ele>773</ele>
        <time>2015-05-10T05:08:23Z</time>
      </trkpt>
      <trkpt lat="45.41578" lon="4.57106">
        <ele>773</ele>
        <time>2015-05-10T05:08:25Z</time>
      </trkpt>
      <trkpt lat="45.41572" lon="4.57108">
        <ele>773</ele>
        <time>2015-05-10T05:08:28Z</time>
      </trkpt>
      <trkpt lat="45.41569" lon="4.57109">
        <ele>773</ele>
        <time>2015-05-10T05:08:30Z</time>
      </trkpt>
      <trkpt lat="45.41564" lon="4.57111">
        <ele>773</ele>
        <time>2015-05-10T05:08:33Z</time>
      </trkpt>
      <trkpt lat="45.41559" lon="4.57112">
        <ele>773</ele>
        <time>2015-05-10T05:08:36Z</time>
      </trkpt>
      <trkpt lat="45.41555" lon="4.57114">
        <ele>774</ele>
        <time>2015-05-10T05:08:38Z</time>
      </trkpt>
      <trkpt lat="45.4155" lon="4.57117">
        <ele>774</ele>
        <time>2015-05-10T05:08:41Z</time>
      </trkpt>
      <trkpt lat="45.41543" lon="4.57117">
        <ele>775</ele>
        <time>2015-05-10T05:08:44Z</time>
      </trkpt>
      <trkpt lat="45.41539" lon="4.57117">
        <ele>775</ele>
        <time>2015-05-10T05:08:46Z</time>
      </trkpt>
      <trkpt lat="45.41533" lon="4.57117">
        <ele>776</ele>
        <time>2015-05-10T05:08:49Z</time>
      </trkpt>
      <trkpt lat="45.41528" lon="4.57117">
        <ele>777</ele>
        <time>2015-05-10T05:08:51Z</time>
      </trkpt>
      <trkpt lat="45.41524" lon="4.57116">
        <ele>777</ele>
        <time>2015-05-10T05:08:53Z</time>
      </trkpt>
      <trkpt lat="45.41517" lon="4.57116">
        <ele>778</ele>
        <time>2015-05-10T05:08:56Z</time>
      </trkpt>
      <trkpt lat="45.41513" lon="4.57116">
        <ele>778</ele>
        <time>2015-05-10T05:08:58Z</time>
      </trkpt>
      <trkpt lat="45.41506" lon="4.57116">
        <ele>778</ele>
        <time>2015-05-10T05:09:01Z</time>
      </trkpt>
      <trkpt lat="45.41502" lon="4.57116">
        <ele>779</ele>
        <time>2015-05-10T05:09:03Z</time>
      </trkpt>
      <trkpt lat="45.41498" lon="4.57116">
        <ele>780</ele>
        <time>2015-05-10T05:09:05Z</time>
      </trkpt>
      <trkpt lat="45.41492" lon="4.57117">
        <ele>780</ele>
        <time>2015-05-10T05:09:08Z</time>
      </trkpt>
      <trkpt lat="45.41485" lon="4.57116">
        <ele>782</ele>
        <time>2015-05-10T05:09:11Z</time>
      </trkpt>
      <trkpt lat="45.4148" lon="4.57117">
        <ele>782</ele>
        <time>2015-05-10T05:09:13Z</time>
      </trkpt>
      <trkpt lat="45.41473" lon="4.57116">
        <ele>783</ele>
        <time>2015-05-10T05:09:16Z</time>
      </trkpt>
      <trkpt lat="45.41466" lon="4.57114">
        <ele>784</ele>
        <time>2015-05-10T05:09:19Z</time>
      </trkpt>
      <trkpt lat="45.41459" lon="4.57112">
        <ele>785</ele>
        <time>2015-05-10T05:09:22Z</time>
      </trkpt>
      <trkpt lat="45.41452" lon="4.57109">
        <ele>786</ele>
        <time>2015-05-10T05:09:25Z</time>
      </trkpt>
      <trkpt lat="45.41448" lon="4.57106">
        <ele>785</ele>
        <time>2015-05-10T05:09:27Z</time>
      </trkpt>
      <trkpt lat="45.41444" lon="4.57103">
        <ele>785</ele>
        <time>2015-05-10T05:09:29Z</time>
      </trkpt>
      <trkpt lat="45.41438" lon="4.57099">
        <ele>786</ele>
        <time>2015-05-10T05:09:32Z</time>
      </trkpt>
      <trkpt lat="45.41433" lon="4.57097">
        <ele>786</ele>
        <time>2015-05-10T05:09:34Z</time>
      </trkpt>
      <trkpt lat="45.41427" lon="4.57093">
        <ele>786</ele>
        <time>2015-05-10T05:09:37Z</time>
      </trkpt>
      <trkpt lat="45.41422" lon="4.57089">
        <ele>786</ele>
        <time>2015-05-10T05:09:40Z</time>
      </trkpt>
      <trkpt lat="45.41418" lon="4.57086">
        <ele>786</ele>
        <time>2015-05-10T05:09:42Z</time>
      </trkpt>
      <trkpt lat="45.41415" lon="4.57082">
        <ele>787</ele>
        <time>2015-05-10T05:09:44Z</time>
      </trkpt>
      <trkpt lat="45.41411" lon="4.57077">
        <ele>788</ele>
        <time>2015-05-10T05:09:47Z</time>
      </trkpt>
      <trkpt lat="45.41406" lon="4.5707">
        <ele>790</ele>
        <time>2015-05-10T05:09:50Z</time>
      </trkpt>
      <trkpt lat="45.41402" lon="4.57069">
        <ele>790</ele>
        <time>2015-05-10T05:09:53Z</time>
      </trkpt>
      <trkpt lat="45.41398" lon="4.57066">
        <ele>790</ele>
        <time>2015-05-10T05:09:55Z</time>
      </trkpt>
      <trkpt lat="45.41395" lon="4.57063">
        <ele>790</ele>
        <time>2015-05-10T05:09:57Z</time>
      </trkpt>
      <trkpt lat="45.4139" lon="4.57057">
        <ele>791</ele>
        <time>2015-05-10T05:10:00Z</time>
      </trkpt>
      <trkpt lat="45.41386" lon="4.57054">
        <ele>792</ele>
        <time>2015-05-10T05:10:02Z</time>
      </trkpt>
      <trkpt lat="45.41381" lon="4.5705">
        <ele>792</ele>
        <time>2015-05-10T05:10:05Z</time>
      </trkpt>
      <trkpt lat="45.41375" lon="4.57044">
        <ele>792</ele>
        <time>2015-05-10T05:10:08Z</time>
      </trkpt>
      <trkpt lat="45.41371" lon="4.57036">
        <ele>792</ele>
        <time>2015-05-10T05:10:11Z</time>
      </trkpt>
      <trkpt lat="45.41366" lon="4.57029">
        <ele>793</ele>
        <time>2015-05-10T05:10:14Z</time>
      </trkpt>
      <trkpt lat="45.41362" lon="4.57025">
        <ele>794</ele>
        <time>2015-05-10T05:10:16Z</time>
      </trkpt>
      <trkpt lat="45.41357" lon="4.5702">
        <ele>794</ele>
        <time>2015-05-10T05:10:19Z</time>
      </trkpt>
      <trkpt lat="45.41354" lon="4.57015">
        <ele>794</ele>
        <time>2015-05-10T05:10:21Z</time>
      </trkpt>
      <trkpt lat="45.4135" lon="4.57008">
        <ele>795</ele>
        <time>2015-05-10T05:10:24Z</time>
      </trkpt>
      <trkpt lat="45.41345" lon="4.57003">
        <ele>795</ele>
        <time>2015-05-10T05:10:27Z</time>
      </trkpt>
      <trkpt lat="45.41341" lon="4.56998">
        <ele>795</ele>
        <time>2015-05-10T05:10:29Z</time>
      </trkpt>
      <trkpt lat="45.41337" lon="4.56992">
        <ele>795</ele>
        <time>2015-05-10T05:10:32Z</time>
      </trkpt>
      <trkpt lat="45.41333" lon="4.56989">
        <ele>795</ele>
        <time>2015-05-10T05:10:34Z</time>
      </trkpt>
      <trkpt lat="45.41331" lon="4.56989">
        <ele>796</ele>
        <time>2015-05-10T05:10:36Z</time>
      </trkpt>
      <trkpt lat="45.4133" lon="4.56991">
        <ele>797</ele>
        <time>2015-05-10T05:10:38Z</time>
      </trkpt>
      <trkpt lat="45.4133" lon="4.56999">
        <ele>797</ele>
        <time>2015-05-10T05:10:41Z</time>
      </trkpt>
      <trkpt lat="45.4133" lon="4.57005">
        <ele>798</ele>
        <time>2015-05-10T05:10:43Z</time>
      </trkpt>
      <trkpt lat="45.41331" lon="4.57013">
        <ele>799</ele>
        <time>2015-05-10T05:10:46Z</time>
      </trkpt>
      <trkpt lat="45.41331" lon="4.57021">
        <ele>800</ele>
        <time>2015-05-10T05:10:49Z</time>
      </trkpt>
      <trkpt lat="45.41333" lon="4.57026">
        <ele>801</ele>
        <time>2015-05-10T05:10:51Z</time>
      </trkpt>
      <trkpt lat="45.41333" lon="4.57032">
        <ele>802</ele>
        <time>2015-05-10T05:10:53Z</time>
      </trkpt>
      <trkpt lat="45.41334" lon="4.5704">
        <ele>802</ele>
        <time>2015-05-10T05:10:56Z</time>
      </trkpt>
      <trkpt lat="45.41334" lon="4.57046">
        <ele>803</ele>
        <time>2015-05-10T05:10:58Z</time>
      </trkpt>
      <trkpt lat="45.41333" lon="4.57054">
        <ele>804</ele>
        <time>2015-05-10T05:11:01Z</time>
      </trkpt>
      <trkpt lat="45.41333" lon="4.57059">
        <ele>804</ele>
        <time>2015-05-10T05:11:03Z</time>
      </trkpt>
      <trkpt lat="45.41333" lon="4.57067">
        <ele>806</ele>
        <time>2015-05-10T05:11:06Z</time>
      </trkpt>
      <trkpt lat="45.41333" lon="4.57072">
        <ele>807</ele>
        <time>2015-05-10T05:11:08Z</time>
      </trkpt>
      <trkpt lat="45.41332" lon="4.57078">
        <ele>808</ele>
        <time>2015-05-10T05:11:11Z</time>
      </trkpt>
      <trkpt lat="45.4133" lon="4.57083">
        <ele>809</ele>
        <time>2015-05-10T05:11:14Z</time>
      </trkpt>
      <trkpt lat="45.41329" lon="4.57086">
        <ele>809</ele>
        <time>2015-05-10T05:11:16Z</time>
      </trkpt>
      <trkpt lat="45.41328" lon="4.5709">
        <ele>810</ele>
        <time>2015-05-10T05:11:19Z</time>
      </trkpt>
      <trkpt lat="45.41327" lon="4.57094">
        <ele>810</ele>
        <time>2015-05-10T05:11:21Z</time>
      </trkpt>
      <trkpt lat="45.41325" lon="4.57097">
        <ele>811</ele>
        <time>2015-05-10T05:11:23Z</time>
      </trkpt>
      <trkpt lat="45.41323" lon="4.571">
        <ele>812</ele>
        <time>2015-05-10T05:11:26Z</time>
      </trkpt>
      <trkpt lat="45.41322" lon="4.57103">
        <ele>812</ele>
        <time>2015-05-10T05:11:28Z</time>
      </trkpt>
      <trkpt lat="45.4132" lon="4.57105">
        <ele>813</ele>
        <time>2015-05-10T05:11:31Z</time>
      </trkpt>
      <trkpt lat="45.41317" lon="4.57103">
        <ele>813</ele>
        <time>2015-05-10T05:11:34Z</time>
      </trkpt>
      <trkpt lat="45.41315" lon="4.57102">
        <ele>814</ele>
        <time>2015-05-10T05:11:36Z</time>
      </trkpt>
      <trkpt lat="45.41313" lon="4.57101">
        <ele>814</ele>
        <time>2015-05-10T05:11:38Z</time>
      </trkpt>
      <trkpt lat="45.41312" lon="4.571">
        <ele>815</ele>
        <time>2015-05-10T05:11:41Z</time>
      </trkpt>
      <trkpt lat="45.41309" lon="4.57099">
        <ele>816</ele>
        <time>2015-05-10T05:11:44Z</time>
      </trkpt>
      <trkpt lat="45.41308" lon="4.57098">
        <ele>817</ele>
        <time>2015-05-10T05:11:46Z</time>
      </trkpt>
      <trkpt lat="45.41305" lon="4.57097">
        <ele>817</ele>
        <time>2015-05-10T05:11:49Z</time>
      </trkpt>
      <trkpt lat="45.41303" lon="4.57096">
        <ele>818</ele>
        <time>2015-05-10T05:11:52Z</time>
      </trkpt>
      <trkpt lat="45.41301" lon="4.57095">
        <ele>819</ele>
        <time>2015-05-10T05:11:55Z</time>
      </trkpt>
      <trkpt lat="45.413" lon="4.57094">
        <ele>819</ele>
        <time>2015-05-10T05:11:57Z</time>
      </trkpt>
      <trkpt lat="45.41298" lon="4.57093">
        <ele>820</ele>
        <time>2015-05-10T05:12:00Z</time>
      </trkpt>
      <trkpt lat="45.41297" lon="4.57092">
        <ele>820</ele>
        <time>2015-05-10T05:12:02Z</time>
      </trkpt>
      <trkpt lat="45.41295" lon="4.57091">
        <ele>821</ele>
        <time>2015-05-10T05:12:04Z</time>
      </trkpt>
      <trkpt lat="45.41294" lon="4.5709">
        <ele>821</ele>
        <time>2015-05-10T05:12:06Z</time>
      </trkpt>
      <trkpt lat="45.41292" lon="4.57088">
        <ele>822</ele>
        <time>2015-05-10T05:12:09Z</time>
      </trkpt>
      <trkpt lat="45.4129" lon="4.57086">
        <ele>823</ele>
        <time>2015-05-10T05:12:12Z</time>
      </trkpt>
      <trkpt lat="45.41288" lon="4.57085">
        <ele>824</ele>
        <time>2015-05-10T05:12:15Z</time>
      </trkpt>
      <trkpt lat="45.41287" lon="4.57084">
        <ele>824</ele>
        <time>2015-05-10T05:12:17Z</time>
      </trkpt>
      <trkpt lat="45.41285" lon="4.57082">
        <ele>825</ele>
        <time>2015-05-10T05:12:19Z</time>
      </trkpt>
      <trkpt lat="45.41284" lon="4.5708">
        <ele>825</ele>
        <time>2015-05-10T05:12:22Z</time>
      </trkpt>
      <trkpt lat="45.41282" lon="4.57079">
        <ele>826</ele>
        <time>2015-05-10T05:12:24Z</time>
      </trkpt>
      <trkpt lat="45.4128" lon="4.57077">
        <ele>827</ele>
        <time>2015-05-10T05:12:27Z</time>
      </trkpt>
      <trkpt lat="45.41279" lon="4.57076">
        <ele>827</ele>
        <time>2015-05-10T05:12:29Z</time>
      </trkpt>
      <trkpt lat="45.41276" lon="4.57074">
        <ele>828</ele>
        <time>2015-05-10T05:12:32Z</time>
      </trkpt>
      <trkpt lat="45.41275" lon="4.57073">
        <ele>829</ele>
        <time>2015-05-10T05:12:34Z</time>
      </trkpt>
      <trkpt lat="45.41273" lon="4.57071">
        <ele>829</ele>
        <time>2015-05-10T05:12:37Z</time>
      </trkpt>
      <trkpt lat="45.41271" lon="4.5707">
        <ele>830</ele>
        <time>2015-05-10T05:12:40Z</time>
      </trkpt>
      <trkpt lat="45.4127" lon="4.57068">
        <ele>830</ele>
        <time>2015-05-10T05:12:42Z</time>
      </trkpt>
      <trkpt lat="45.41268" lon="4.57067">
        <ele>831</ele>
        <time>2015-05-10T05:12:45Z</time>
      </trkpt>
      <trkpt lat="45.41266" lon="4.57067">
        <ele>832</ele>
        <time>2015-05-10T05:12:47Z</time>
      </trkpt>
      <trkpt lat="45.41264" lon="4.57065">
        <ele>832</ele>
        <time>2015-05-10T05:12:50Z</time>
      </trkpt>
      <trkpt lat="45.41263" lon="4.57064">
        <ele>833</ele>
        <time>2015-05-10T05:12:52Z</time>
      </trkpt>
      <trkpt lat="45.41261" lon="4.57063">
        <ele>833</ele>
        <time>2015-05-10T05:12:54Z</time>
      </trkpt>
      <trkpt lat="45.41259" lon="4.57061">
        <ele>834</ele>
        <time>2015-05-10T05:12:57Z</time>
      </trkpt>
      <trkpt lat="45.41257" lon="4.5706">
        <ele>835</ele>
        <time>2015-05-10T05:13:00Z</time>
      </trkpt>
      <trkpt lat="45.41255" lon="4.57058">
        <ele>835</ele>
        <time>2015-05-10T05:13:03Z</time>
      </trkpt>
      <trkpt lat="45.41253" lon="4.57057">
        <ele>836</ele>
        <time>2015-05-10T05:13:05Z</time>
      </trkpt>
      <trkpt lat="45.41251" lon="4.57055">
        <ele>837</ele>
        <time>2015-05-10T05:13:08Z</time>
      </trkpt>
      <trkpt lat="45.41249" lon="4.57054">
        <ele>837</ele>
        <time>2015-05-10T05:13:10Z</time>
      </trkpt>
      <trkpt lat="45.41248" lon="4.57053">
        <ele>838</ele>
        <time>2015-05-10T05:13:12Z</time>
      </trkpt>
      <trkpt lat="45.41246" lon="4.57052">
        <ele>839</ele>
        <time>2015-05-10T05:13:15Z</time>
      </trkpt>
      <trkpt lat="45.41243" lon="4.57051">
        <ele>839</ele>
        <time>2015-05-10T05:13:18Z</time>
      </trkpt>
      <trkpt lat="45.41241" lon="4.57049">
        <ele>839</ele>
        <time>2015-05-10T05:13:21Z</time>
      </trkpt>
      <trkpt lat="45.41239" lon="4.57048">
        <ele>840</ele>
        <time>2015-05-10T05:13:23Z</time>
      </trkpt>
      <trkpt lat="45.41236" lon="4.57047">
        <ele>841</ele>
        <time>2015-05-10T05:13:26Z</time>
      </trkpt>
      <trkpt lat="45.41234" lon="4.57046">
        <ele>841</ele>
        <time>2015-05-10T05:13:28Z</time>
      </trkpt>
      <trkpt lat="45.41233" lon="4.57046">
        <ele>842</ele>
        <time>2015-05-10T05:13:30Z</time>
      </trkpt>
      <trkpt lat="45.4123" lon="4.57046">
        <ele>842</ele>
        <time>2015-05-10T05:13:32Z</time>
      </trkpt>
      <trkpt lat="45.41228" lon="4.57045">
        <ele>843</ele>
        <time>2015-05-10T05:13:35Z</time>
      </trkpt>
      <trkpt lat="45.41227" lon="4.57045">
        <ele>843</ele>
        <time>2015-05-10T05:13:37Z</time>
      </trkpt>
      <trkpt lat="45.41224" lon="4.57044">
        <ele>844</ele>
        <time>2015-05-10T05:13:40Z</time>
      </trkpt>
      <trkpt lat="45.41222" lon="4.57045">
        <ele>844</ele>
        <time>2015-05-10T05:13:42Z</time>
      </trkpt>
      <trkpt lat="45.4122" lon="4.57044">
        <ele>845</ele>
        <time>2015-05-10T05:13:45Z</time>
      </trkpt>
      <trkpt lat="45.41218" lon="4.57045">
        <ele>846</ele>
        <time>2015-05-10T05:13:48Z</time>
      </trkpt>
      <trkpt lat="45.41215" lon="4.57045">
        <ele>846</ele>
        <time>2015-05-10T05:13:51Z</time>
      </trkpt>
      <trkpt lat="45.41213" lon="4.57045">
        <ele>847</ele>
        <time>2015-05-10T05:13:53Z</time>
      </trkpt>
      <trkpt lat="45.41211" lon="4.57045">
        <ele>848</ele>
        <time>2015-05-10T05:13:55Z</time>
      </trkpt>
      <trkpt lat="45.41208" lon="4.57044">
        <ele>848</ele>
        <time>2015-05-10T05:13:58Z</time>
      </trkpt>
      <trkpt lat="45.41206" lon="4.57043">
        <ele>849</ele>
        <time>2015-05-10T05:14:00Z</time>
      </trkpt>
      <trkpt lat="45.41203" lon="4.57042">
        <ele>849</ele>
        <time>2015-05-10T05:14:03Z</time>
      </trkpt>
      <trkpt lat="45.41201" lon="4.57041">
        <ele>849</ele>
        <time>2015-05-10T05:14:05Z</time>
      </trkpt>
      <trkpt lat="45.41199" lon="4.5704">
        <ele>849</ele>
        <time>2015-05-10T05:14:08Z</time>
      </trkpt>
      <trkpt lat="45.41197" lon="4.57039">
        <ele>850</ele>
        <time>2015-05-10T05:14:11Z</time>
      </trkpt>
      <trkpt lat="45.41195" lon="4.57037">
        <ele>851</ele>
        <time>2015-05-10T05:14:13Z</time>
      </trkpt>
      <trkpt lat="45.41193" lon="4.57035">
        <ele>852</ele>
        <time>2015-05-10T05:14:16Z</time>
      </trkpt>
      <trkpt lat="45.4119" lon="4.57034">
        <ele>853</ele>
        <time>2015-05-10T05:14:19Z</time>
      </trkpt>
      <trkpt lat="45.41188" lon="4.57034">
        <ele>853</ele>
        <time>2015-05-10T05:14:21Z</time>
      </trkpt>
      <trkpt lat="45.41186" lon="4.57032">
        <ele>854</ele>
        <time>2015-05-10T05:14:24Z</time>
      </trkpt>
      <trkpt lat="45.41184" lon="4.57032">
        <ele>854</ele>
        <time>2015-05-10T05:14:26Z</time>
      </trkpt>
      <trkpt lat="45.41182" lon="4.57029">
        <ele>855</ele>
        <time>2015-05-10T05:14:29Z</time>
      </trkpt>
      <trkpt lat="45.4118" lon="4.57029">
        <ele>855</ele>
        <time>2015-05-10T05:14:32Z</time>
      </trkpt>
      <trkpt lat="45.41177" lon="4.57028">
        <ele>855</ele>
        <time>2015-05-10T05:14:35Z</time>
      </trkpt>
      <trkpt lat="45.41176" lon="4.57027">
        <ele>856</ele>
        <time>2015-05-10T05:14:37Z</time>
      </trkpt>
      <trkpt lat="45.41174" lon="4.57027">
        <ele>856</ele>
        <time>2015-05-10T05:14:39Z</time>
      </trkpt>
      <trkpt lat="45.41171" lon="4.57026">
        <ele>856</ele>
        <time>2015-05-10T05:14:42Z</time>
      </trkpt>
      <trkpt lat="45.4117" lon="4.57025">
        <ele>857</ele>
        <time>2015-05-10T05:14:44Z</time>
      </trkpt>
      <trkpt lat="45.41168" lon="4.57023">
        <ele>857</ele>
        <time>2015-05-10T05:14:47Z</time>
      </trkpt>
      <trkpt lat="45.41167" lon="4.57022">
        <ele>858</ele>
        <time>2015-05-10T05:14:50Z</time>
      </trkpt>
      <trkpt lat="45.41133" lon="4.57008">
        <ele>869</ele>
        <time>2015-05-10T05:14:52Z</time>
      </trkpt>
      <trkpt lat="45.41132" lon="4.57007">
        <ele>870</ele>
        <time>2015-05-10T05:14:55Z</time>
      </trkpt>
      <trkpt lat="45.41131" lon="4.57006">
        <ele>871</ele>
        <time>2015-05-10T05:14:57Z</time>
      </trkpt>
      <trkpt lat="45.41129" lon="4.57004">
        <ele>872</ele>
        <time>2015-05-10T05:14:59Z</time>
      </trkpt>
      <trkpt lat="45.41128" lon="4.57003">
        <ele>872</ele>
        <time>2015-05-10T05:15:02Z</time>
      </trkpt>
      <trkpt lat="45.41125" lon="4.57001">
        <ele>873</ele>
        <time>2015-05-10T05:15:05Z</time>
      </trkpt>
      <trkpt lat="45.41123" lon="4.57001">
        <ele>873</ele>
        <time>2015-05-10T05:15:08Z</time>
      </trkpt>
      <trkpt lat="45.41121" lon="4.57">
        <ele>874</ele>
        <time>2015-05-10T05:15:11Z</time>
      </trkpt>
      <trkpt lat="45.41119" lon="4.57">
        <ele>874</ele>
        <time>2015-05-10T05:15:13Z</time>
      </trkpt>
      <trkpt lat="45.41117" lon="4.56998">
        <ele>874</ele>
        <time>2015-05-10T05:15:16Z</time>
      </trkpt>
      <trkpt lat="45.41116" lon="4.56998">
        <ele>875</ele>
        <time>2015-05-10T05:15:18Z</time>
      </trkpt>
      <trkpt lat="45.41114" lon="4.56996">
        <ele>876</ele>
        <time>2015-05-10T05:15:21Z</time>
      </trkpt>
      <trkpt lat="45.41113" lon="4.56995">
        <ele>877</ele>
        <time>2015-05-10T05:15:23Z</time>
      </trkpt>
      <trkpt lat="45.41111" lon="4.56994">
        <ele>877</ele>
        <time>2015-05-10T05:15:26Z</time>
      </trkpt>
      <trkpt lat="45.41108" lon="4.56993">
        <ele>878</ele>
        <time>2015-05-10T05:15:29Z</time>
      </trkpt>
      <trkpt lat="45.41108" lon="4.56991">
        <ele>879</ele>
        <time>2015-05-10T05:15:31Z</time>
      </trkpt>
      <trkpt lat="45.41107" lon="4.56989">
        <ele>879</ele>
        <time>2015-05-10T05:15:34Z</time>
      </trkpt>
      <trkpt lat="45.41105" lon="4.56987">
        <ele>880</ele>
        <time>2015-05-10T05:15:37Z</time>
      </trkpt>
      <trkpt lat="45.41101" lon="4.56985">
        <ele>881</ele>
        <time>2015-05-10T05:15:40Z</time>
      </trkpt>
      <trkpt lat="45.411" lon="4.56984">
        <ele>881</ele>
        <time>2015-05-10T05:15:42Z</time>
      </trkpt>
      <trkpt lat="45.41098" lon="4.56982">
        <ele>882</ele>
        <time>2015-05-10T05:15:45Z</time>
      </trkpt>
      <trkpt lat="45.41096" lon="4.5698">
        <ele>882</ele>
        <time>2015-05-10T05:15:47Z</time>
      </trkpt>
      <trkpt lat="45.41093" lon="4.56978">
        <ele>883</ele>
        <time>2015-05-10T05:15:50Z</time>
      </trkpt>
      <trkpt lat="45.4109" lon="4.56976">
        <ele>884</ele>
        <time>2015-05-10T05:15:53Z</time>
      </trkpt>
      <trkpt lat="45.41088" lon="4.56974">
        <ele>885</ele>
        <time>2015-05-10T05:15:56Z</time>
      </trkpt>
      <trkpt lat="45.41085" lon="4.56973">
        <ele>885</ele>
        <time>2015-05-10T05:15:59Z</time>
      </trkpt>
      <trkpt lat="45.41083" lon="4.56972">
        <ele>886</ele>
        <time>2015-05-10T05:16:02Z</time>
      </trkpt>
      <trkpt lat="45.41079" lon="4.56969">
        <ele>887</ele>
        <time>2015-05-10T05:16:05Z</time>
      </trkpt>
      <trkpt lat="45.41077" lon="4.56968">
        <ele>887</ele>
        <time>2015-05-10T05:16:07Z</time>
      </trkpt>
      <trkpt lat="45.41076" lon="4.56967">
        <ele>888</ele>
        <time>2015-05-10T05:16:09Z</time>
      </trkpt>
      <trkpt lat="45.41074" lon="4.56966">
        <ele>888</ele>
        <time>2015-05-10T05:16:12Z</time>
      </trkpt>
      <trkpt lat="45.41072" lon="4.56965">
        <ele>889</ele>
        <time>2015-05-10T05:16:14Z</time>
      </trkpt>
      <trkpt lat="45.41069" lon="4.56964">
        <ele>890</ele>
        <time>2015-05-10T05:16:17Z</time>
      </trkpt>
      <trkpt lat="45.41067" lon="4.56963">
        <ele>890</ele>
        <time>2015-05-10T05:16:19Z</time>
      </trkpt>
      <trkpt lat="45.41064" lon="4.56962">
        <ele>891</ele>
        <time>2015-05-10T05:16:22Z</time>
      </trkpt>
      <trkpt lat="45.41062" lon="4.56961">
        <ele>891</ele>
        <time>2015-05-10T05:16:24Z</time>
      </trkpt>
      <trkpt lat="45.4106" lon="4.5696">
        <ele>892</ele>
        <time>2015-05-10T05:16:26Z</time>
      </trkpt>
      <trkpt lat="45.41056" lon="4.56958">
        <ele>893</ele>
        <time>2015-05-10T05:16:29Z</time>
      </trkpt>
      <trkpt lat="45.41054" lon="4.56958">
        <ele>893</ele>
        <time>2015-05-10T05:16:31Z</time>
      </trkpt>
      <trkpt lat="45.4105" lon="4.56957">
        <ele>895</ele>
        <time>2015-05-10T05:16:34Z</time>
      </trkpt>
      <trkpt lat="45.41048" lon="4.56956">
        <ele>895</ele>
        <time>2015-05-10T05:16:36Z</time>
      </trkpt>
      <trkpt lat="45.41045" lon="4.56955">
        <ele>896</ele>
        <time>2015-05-10T05:16:39Z</time>
      </trkpt>
      <trkpt lat="45.41043" lon="4.56954">
        <ele>896</ele>
        <time>2015-05-10T05:16:41Z</time>
      </trkpt>
      <trkpt lat="45.4104" lon="4.56953">
        <ele>897</ele>
        <time>2015-05-10T05:16:44Z</time>
      </trkpt>
      <trkpt lat="45.41037" lon="4.56953">
        <ele>897</ele>
        <time>2015-05-10T05:16:47Z</time>
      </trkpt>
      <trkpt lat="45.41035" lon="4.56953">
        <ele>898</ele>
        <time>2015-05-10T05:16:49Z</time>
      </trkpt>
      <trkpt lat="45.41032" lon="4.56952">
        <ele>898</ele>
        <time>2015-05-10T05:16:52Z</time>
      </trkpt>
      <trkpt lat="45.4103" lon="4.56952">
        <ele>899</ele>
        <time>2015-05-10T05:16:54Z</time>
      </trkpt>
      <trkpt lat="45.41027" lon="4.56951">
        <ele>900</ele>
        <time>2015-05-10T05:16:56Z</time>
      </trkpt>
      <trkpt lat="45.41024" lon="4.56951">
        <ele>900</ele>
        <time>2015-05-10T05:16:59Z</time>
      </trkpt>
      <trkpt lat="45.41022" lon="4.5695">
        <ele>901</ele>
        <time>2015-05-10T05:17:01Z</time>
      </trkpt>
      <trkpt lat="45.41019" lon="4.56949">
        <ele>902</ele>
        <time>2015-05-10T05:17:04Z</time>
      </trkpt>
      <trkpt lat="45.41015" lon="4.56949">
        <ele>902</ele>
        <time>2015-05-10T05:17:07Z</time>
      </trkpt>
      <trkpt lat="45.41011" lon="4.56949">
        <ele>903</ele>
        <time>2015-05-10T05:17:10Z</time>
      </trkpt>
      <trkpt lat="45.41007" lon="4.56949">
        <ele>904</ele>
        <time>2015-05-10T05:17:13Z</time>
      </trkpt>
      <trkpt lat="45.41003" lon="4.56947">
        <ele>904</ele>
        <time>2015-05-10T05:17:16Z</time>
      </trkpt>
      <trkpt lat="45.41" lon="4.56948">
        <ele>905</ele>
        <time>2015-05-10T05:17:18Z</time>
      </trkpt>
      <trkpt lat="45.40996" lon="4.56948">
        <ele>905</ele>
        <time>2015-05-10T05:17:21Z</time>
      </trkpt>
      <trkpt lat="45.40993" lon="4.56948">
        <ele>906</ele>
        <time>2015-05-10T05:17:23Z</time>
      </trkpt>
      <trkpt lat="45.4099" lon="4.5695">
        <ele>906</ele>
        <time>2015-05-10T05:17:26Z</time>
      </trkpt>
      <trkpt lat="45.40987" lon="4.56952">
        <ele>907</ele>
        <time>2015-05-10T05:17:29Z</time>
      </trkpt>
      <trkpt lat="45.40985" lon="4.56952">
        <ele>908</ele>
        <time>2015-05-10T05:17:31Z</time>
      </trkpt>
      <trkpt lat="45.40983" lon="4.56952">
        <ele>909</ele>
        <time>2015-05-10T05:17:34Z</time>
      </trkpt>
      <trkpt lat="45.40982" lon="4.56953">
        <ele>909</ele>
        <time>2015-05-10T05:17:36Z</time>
      </trkpt>
      <trkpt lat="45.40979" lon="4.56953">
        <ele>910</ele>
        <time>2015-05-10T05:17:39Z</time>
      </trkpt>
      <trkpt lat="45.40977" lon="4.56953">
        <ele>910</ele>
        <time>2015-05-10T05:17:41Z</time>
      </trkpt>
      <trkpt lat="45.40973" lon="4.56954">
        <ele>910</ele>
        <time>2015-05-10T05:17:44Z</time>
      </trkpt>
      <trkpt lat="45.4097" lon="4.56954">
        <ele>911</ele>
        <time>2015-05-10T05:17:46Z</time>
      </trkpt>
      <trkpt lat="45.40967" lon="4.56955">
        <ele>911</ele>
        <time>2015-05-10T05:17:49Z</time>
      </trkpt>
      <trkpt lat="45.40964" lon="4.56955">
        <ele>912</ele>
        <time>2015-05-10T05:17:52Z</time>
      </trkpt>
      <trkpt lat="45.4096" lon="4.56956">
        <ele>913</ele>
        <time>2015-05-10T05:17:55Z</time>
      </trkpt>
      <trkpt lat="45.40958" lon="4.56956">
        <ele>914</ele>
        <time>2015-05-10T05:17:57Z</time>
      </trkpt>
      <trkpt lat="45.40954" lon="4.56956">
        <ele>915</ele>
        <time>2015-05-10T05:18:00Z</time>
      </trkpt>
      <trkpt lat="45.40951" lon="4.56956">
        <ele>915</ele>
        <time>2015-05-10T05:18:02Z</time>
      </trkpt>
      <trkpt lat="45.40948" lon="4.56956">
        <ele>916</ele>
        <time>2015-05-10T05:18:05Z</time>
      </trkpt>
      <trkpt lat="45.40945" lon="4.56956">
        <ele>916</ele>
        <time>2015-05-10T05:18:08Z</time>
      </trkpt>
      <trkpt lat="45.40943" lon="4.56955">
        <ele>917</ele>
        <time>2015-05-10T05:18:10Z</time>
      </trkpt>
      <trkpt lat="45.40939" lon="4.56956">
        <ele>918</ele>
        <time>2015-05-10T05:18:13Z</time>
      </trkpt>
      <trkpt lat="45.40937" lon="4.56956">
        <ele>919</ele>
        <time>2015-05-10T05:18:16Z</time>
      </trkpt>
      <trkpt lat="45.40935" lon="4.56957">
        <ele>919</ele>
        <time>2015-05-10T05:18:18Z</time>
      </trkpt>
      <trkpt lat="45.40932" lon="4.56957">
        <ele>920</ele>
        <time>2015-05-10T05:18:21Z</time>
      </trkpt>
      <trkpt lat="45.40928" lon="4.56957">
        <ele>921</ele>
        <time>2015-05-10T05:18:24Z</time>
      </trkpt>
      <trkpt lat="45.40925" lon="4.56957">
        <ele>921</ele>
        <time>2015-05-10T05:18:26Z</time>
      </trkpt>
      <trkpt lat="45.40921" lon="4.56957">
        <ele>922</ele>
        <time>2015-05-10T05:18:29Z</time>
      </trkpt>
      <trkpt lat="45.40918" lon="4.56957">
        <ele>923</ele>
        <time>2015-05-10T05:18:32Z</time>
      </trkpt>
      <trkpt lat="45.40915" lon="4.56956">
        <ele>923</ele>
        <time>2015-05-10T05:18:35Z</time>
      </trkpt>
      <trkpt lat="45.40912" lon="4.56957">
        <ele>923</ele>
        <time>2015-05-10T05:18:37Z</time>
      </trkpt>
      <trkpt lat="45.4091" lon="4.56955">
        <ele>924</ele>
        <time>2015-05-10T05:18:40Z</time>
      </trkpt>
      <trkpt lat="45.40906" lon="4.56954">
        <ele>925</ele>
        <time>2015-05-10T05:18:43Z</time>
      </trkpt>
      <trkpt lat="45.40904" lon="4.56954">
        <ele>925</ele>
        <time>2015-05-10T05:18:45Z</time>
      </trkpt>
      <trkpt lat="45.40901" lon="4.56953">
        <ele>926</ele>
        <time>2015-05-10T05:18:48Z</time>
      </trkpt>
      <trkpt lat="45.40899" lon="4.56953">
        <ele>926</ele>
        <time>2015-05-10T05:18:50Z</time>
      </trkpt>
      <trkpt lat="45.40896" lon="4.56952">
        <ele>927</ele>
        <time>2015-05-10T05:18:53Z</time>
      </trkpt>
      <trkpt lat="45.40892" lon="4.56952">
        <ele>928</ele>
        <time>2015-05-10T05:18:56Z</time>
      </trkpt>
      <trkpt lat="45.40889" lon="4.56952">
        <ele>929</ele>
        <time>2015-05-10T05:18:58Z</time>
      </trkpt>
      <trkpt lat="45.40886" lon="4.56952">
        <ele>929</ele>
        <time>2015-05-10T05:19:01Z</time>
      </trkpt>
      <trkpt lat="45.40884" lon="4.56952">
        <ele>929</ele>
        <time>2015-05-10T05:19:03Z</time>
      </trkpt>
      <trkpt lat="45.4088" lon="4.56951">
        <ele>930</ele>
        <time>2015-05-10T05:19:06Z</time>
      </trkpt>
      <trkpt lat="45.40878" lon="4.56951">
        <ele>931</ele>
        <time>2015-05-10T05:19:08Z</time>
      </trkpt>
      <trkpt lat="45.40875" lon="4.5695">
        <ele>931</ele>
        <time>2015-05-10T05:19:11Z</time>
      </trkpt>
      <trkpt lat="45.40873" lon="4.56951">
        <ele>932</ele>
        <time>2015-05-10T05:19:13Z</time>
      </trkpt>
      <trkpt lat="45.4087" lon="4.56951">
        <ele>932</ele>
        <time>2015-05-10T05:19:16Z</time>
      </trkpt>
      <trkpt lat="45.40868" lon="4.56951">
        <ele>933</ele>
        <time>2015-05-10T05:19:18Z</time>
      </trkpt>
      <trkpt lat="45.40865" lon="4.5695">
        <ele>933</ele>
        <time>2015-05-10T05:19:20Z</time>
      </trkpt>
      <trkpt lat="45.40863" lon="4.56951">
        <ele>934</ele>
        <time>2015-05-10T05:19:22Z</time>
      </trkpt>
      <trkpt lat="45.4086" lon="4.56951">
        <ele>934</ele>
        <time>2015-05-10T05:19:25Z</time>
      </trkpt>
      <trkpt lat="45.40858" lon="4.56952">
        <ele>935</ele>
        <time>2015-05-10T05:19:27Z</time>
      </trkpt>
      <trkpt lat="45.40856" lon="4.56952">
        <ele>936</ele>
        <time>2015-05-10T05:19:30Z</time>
      </trkpt>
      <trkpt lat="45.40855" lon="4.56951">
        <ele>937</ele>
        <time>2015-05-10T05:19:32Z</time>
      </trkpt>
      <trkpt lat="45.40853" lon="4.56951">
        <ele>937</ele>
        <time>2015-05-10T05:19:34Z</time>
      </trkpt>
      <trkpt lat="45.4085" lon="4.56952">
        <ele>937</ele>
        <time>2015-05-10T05:19:37Z</time>
      </trkpt>
      <trkpt lat="45.40848" lon="4.56952">
        <ele>938</ele>
        <time>2015-05-10T05:19:39Z</time>
      </trkpt>
      <trkpt lat="45.40846" lon="4.56952">
        <ele>938</ele>
        <time>2015-05-10T05:19:41Z</time>
      </trkpt>
      <trkpt lat="45.40844" lon="4.56953">
        <ele>939</ele>
        <time>2015-05-10T05:19:43Z</time>
      </trkpt>
      <trkpt lat="45.40841" lon="4.56952">
        <ele>940</ele>
        <time>2015-05-10T05:19:46Z</time>
      </trkpt>
      <trkpt lat="45.40839" lon="4.56953">
        <ele>941</ele>
        <time>2015-05-10T05:19:48Z</time>
      </trkpt>
      <trkpt lat="45.40837" lon="4.56954">
        <ele>941</ele>
        <time>2015-05-10T05:19:51Z</time>
      </trkpt>
      <trkpt lat="45.40835" lon="4.56955">
        <ele>942</ele>
        <time>2015-05-10T05:19:54Z</time>
      </trkpt>
      <trkpt lat="45.40834" lon="4.56956">
        <ele>943</ele>
        <time>2015-05-10T05:19:56Z</time>
      </trkpt>
      <trkpt lat="45.40832" lon="4.56956">
        <ele>943</ele>
        <time>2015-05-10T05:19:58Z</time>
      </trkpt>
      <trkpt lat="45.4083" lon="4.56957">
        <ele>943</ele>
        <time>2015-05-10T05:20:00Z</time>
      </trkpt>
      <trkpt lat="45.40828" lon="4.56959">
        <ele>944</ele>
        <time>2015-05-10T05:20:03Z</time>
      </trkpt>
      <trkpt lat="45.40826" lon="4.56961">
        <ele>944</ele>
        <time>2015-05-10T05:20:05Z</time>
      </trkpt>
      <trkpt lat="45.40823" lon="4.56962">
        <ele>945</ele>
        <time>2015-05-10T05:20:08Z</time>
      </trkpt>
      <trkpt lat="45.40822" lon="4.56964">
        <ele>946</ele>
        <time>2015-05-10T05:20:10Z</time>
      </trkpt>
      <trkpt lat="45.40818" lon="4.56966">
        <ele>947</ele>
        <time>2015-05-10T05:20:13Z</time>
      </trkpt>
      <trkpt lat="45.40816" lon="4.56968">
        <ele>947</ele>
        <time>2015-05-10T05:20:16Z</time>
      </trkpt>
      <trkpt lat="45.40815" lon="4.5697">
        <ele>947</ele>
        <time>2015-05-10T05:20:18Z</time>
      </trkpt>
      <trkpt lat="45.40813" lon="4.56972">
        <ele>948</ele>
        <time>2015-05-10T05:20:21Z</time>
      </trkpt>
      <trkpt lat="45.40812" lon="4.56974">
        <ele>949</ele>
        <time>2015-05-10T05:20:23Z</time>
      </trkpt>
      <trkpt lat="45.40809" lon="4.56977">
        <ele>950</ele>
        <time>2015-05-10T05:20:26Z</time>
      </trkpt>
      <trkpt lat="45.40806" lon="4.5698">
        <ele>950</ele>
        <time>2015-05-10T05:20:29Z</time>
      </trkpt>
      <trkpt lat="45.40804" lon="4.56982">
        <ele>950</ele>
        <time>2015-05-10T05:20:31Z</time>
      </trkpt>
      <trkpt lat="45.40801" lon="4.56985">
        <ele>951</ele>
        <time>2015-05-10T05:20:34Z</time>
      </trkpt>
      <trkpt lat="45.40799" lon="4.56987">
        <ele>952</ele>
        <time>2015-05-10T05:20:37Z</time>
      </trkpt>
      <trkpt lat="45.40798" lon="4.56992">
        <ele>953</ele>
        <time>2015-05-10T05:20:40Z</time>
      </trkpt>
      <trkpt lat="45.40797" lon="4.56994">
        <ele>953</ele>
        <time>2015-05-10T05:20:42Z</time>
      </trkpt>
      <trkpt lat="45.40796" lon="4.56998">
        <ele>954</ele>
        <time>2015-05-10T05:20:45Z</time>
      </trkpt>
      <trkpt lat="45.40795" lon="4.57">
        <ele>954</ele>
        <time>2015-05-10T05:20:47Z</time>
      </trkpt>
      <trkpt lat="45.40793" lon="4.57002">
        <ele>956</ele>
        <time>2015-05-10T05:20:50Z</time>
      </trkpt>
      <trkpt lat="45.40792" lon="4.57004">
        <ele>956</ele>
        <time>2015-05-10T05:20:52Z</time>
      </trkpt>
      <trkpt lat="45.4079" lon="4.57007">
        <ele>956</ele>
        <time>2015-05-10T05:20:55Z</time>
      </trkpt>
      <trkpt lat="45.40789" lon="4.5701">
        <ele>956</ele>
        <time>2015-05-10T05:20:58Z</time>
      </trkpt>
      <trkpt lat="45.40786" lon="4.57011">
        <ele>957</ele>
        <time>2015-05-10T05:21:00Z</time>
      </trkpt>
      <trkpt lat="45.40784" lon="4.57013">
        <ele>958</ele>
        <time>2015-05-10T05:21:02Z</time>
      </trkpt>
      <trkpt lat="45.40782" lon="4.57014">
        <ele>958</ele>
        <time>2015-05-10T05:21:04Z</time>
      </trkpt>
      <trkpt lat="45.4078" lon="4.57015">
        <ele>959</ele>
        <time>2015-05-10T05:21:07Z</time>
      </trkpt>
      <trkpt lat="45.40777" lon="4.57017">
        <ele>959</ele>
        <time>2015-05-10T05:21:10Z</time>
      </trkpt>
      <trkpt lat="45.40775" lon="4.57018">
        <ele>960</ele>
        <time>2015-05-10T05:21:12Z</time>
      </trkpt>
      <trkpt lat="45.40772" lon="4.5702">
        <ele>961</ele>
        <time>2015-05-10T05:21:15Z</time>
      </trkpt>
      <trkpt lat="45.4077" lon="4.57023">
        <ele>961</ele>
        <time>2015-05-10T05:21:18Z</time>
      </trkpt>
      <trkpt lat="45.40767" lon="4.57025">
        <ele>962</ele>
        <time>2015-05-10T05:21:21Z</time>
      </trkpt>
      <trkpt lat="45.40765" lon="4.57027">
        <ele>962</ele>
        <time>2015-05-10T05:21:24Z</time>
      </trkpt>
      <trkpt lat="45.40764" lon="4.57029">
        <ele>963</ele>
        <time>2015-05-10T05:21:26Z</time>
      </trkpt>
      <trkpt lat="45.40761" lon="4.57032">
        <ele>964</ele>
        <time>2015-05-10T05:21:29Z</time>
      </trkpt>
      <trkpt lat="45.40759" lon="4.57034">
        <ele>964</ele>
        <time>2015-05-10T05:21:31Z</time>
      </trkpt>
      <trkpt lat="45.40756" lon="4.57037">
        <ele>964</ele>
        <time>2015-05-10T05:21:34Z</time>
      </trkpt>
      <trkpt lat="45.40754" lon="4.5704">
        <ele>965</ele>
        <time>2015-05-10T05:21:37Z</time>
      </trkpt>
      <trkpt lat="45.40753" lon="4.57041">
        <ele>965</ele>
        <time>2015-05-10T05:21:39Z</time>
      </trkpt>
      <trkpt lat="45.40749" lon="4.57043">
        <ele>966</ele>
        <time>2015-05-10T05:21:42Z</time>
      </trkpt>
      <trkpt lat="45.40746" lon="4.57044">
        <ele>967</ele>
        <time>2015-05-10T05:21:45Z</time>
      </trkpt>
      <trkpt lat="45.40743" lon="4.57045">
        <ele>968</ele>
        <time>2015-05-10T05:21:48Z</time>
      </trkpt>
      <trkpt lat="45.40739" lon="4.57047">
        <ele>969</ele>
        <time>2015-05-10T05:21:51Z</time>
      </trkpt>
      <trkpt lat="45.40737" lon="4.57047">
        <ele>969</ele>
        <time>2015-05-10T05:21:53Z</time>
      </trkpt>
      <trkpt lat="45.40734" lon="4.57049">
        <ele>970</ele>
        <time>2015-05-10T05:21:56Z</time>
      </trkpt>
      <trkpt lat="45.40731" lon="4.5705">
        <ele>970</ele>
        <time>2015-05-10T05:21:58Z</time>
      </trkpt>
      <trkpt lat="45.40728" lon="4.57052">
        <ele>971</ele>
        <time>2015-05-10T05:22:01Z</time>
      </trkpt>
      <trkpt lat="45.40726" lon="4.57053">
        <ele>971</ele>
        <time>2015-05-10T05:22:03Z</time>
      </trkpt>
      <trkpt lat="45.40723" lon="4.57053">
        <ele>972</ele>
        <time>2015-05-10T05:22:06Z</time>
      </trkpt>
      <trkpt lat="45.40721" lon="4.57054">
        <ele>973</ele>
        <time>2015-05-10T05:22:08Z</time>
      </trkpt>
      <trkpt lat="45.40719" lon="4.57056">
        <ele>973</ele>
        <time>2015-05-10T05:22:10Z</time>
      </trkpt>
      <trkpt lat="45.40714" lon="4.57056">
        <ele>974</ele>
        <time>2015-05-10T05:22:13Z</time>
      </trkpt>
      <trkpt lat="45.40711" lon="4.57057">
        <ele>974</ele>
        <time>2015-05-10T05:22:16Z</time>
      </trkpt>
      <trkpt lat="45.40709" lon="4.57057">
        <ele>975</ele>
        <time>2015-05-10T05:22:18Z</time>
      </trkpt>
      <trkpt lat="45.40706" lon="4.57058">
        <ele>976</ele>
        <time>2015-05-10T05:22:21Z</time>
      </trkpt>
      <trkpt lat="45.40704" lon="4.57058">
        <ele>976</ele>
        <time>2015-05-10T05:22:23Z</time>
      </trkpt>
      <trkpt lat="45.40702" lon="4.57059">
        <ele>977</ele>
        <time>2015-05-10T05:22:26Z</time>
      </trkpt>
      <trkpt lat="45.40699" lon="4.5706">
        <ele>977</ele>
        <time>2015-05-10T05:22:28Z</time>
      </trkpt>
      <trkpt lat="45.40697" lon="4.57061">
        <ele>977</ele>
        <time>2015-05-10T05:22:31Z</time>
      </trkpt>
      <trkpt lat="45.40695" lon="4.57061">
        <ele>978</ele>
        <time>2015-05-10T05:22:34Z</time>
      </trkpt>
      <trkpt lat="45.40694" lon="4.57062">
        <ele>978</ele>
        <time>2015-05-10T05:22:36Z</time>
      </trkpt>
      <trkpt lat="45.40692" lon="4.57063">
        <ele>979</ele>
        <time>2015-05-10T05:22:38Z</time>
      </trkpt>
      <trkpt lat="45.40689" lon="4.57063">
        <ele>980</ele>
        <time>2015-05-10T05:22:41Z</time>
      </trkpt>
      <trkpt lat="45.40686" lon="4.57063">
        <ele>980</ele>
        <time>2015-05-10T05:22:43Z</time>
      </trkpt>
      <trkpt lat="45.40683" lon="4.57064">
        <ele>981</ele>
        <time>2015-05-10T05:22:46Z</time>
      </trkpt>
      <trkpt lat="45.4068" lon="4.57066">
        <ele>982</ele>
        <time>2015-05-10T05:22:49Z</time>
      </trkpt>
      <trkpt lat="45.40677" lon="4.57067">
        <ele>982</ele>
        <time>2015-05-10T05:22:52Z</time>
      </trkpt>
      <trkpt lat="45.40673" lon="4.57069">
        <ele>983</ele>
        <time>2015-05-10T05:22:55Z</time>
      </trkpt>
      <trkpt lat="45.4067" lon="4.57069">
        <ele>983</ele>
        <time>2015-05-10T05:22:57Z</time>
      </trkpt>
      <trkpt lat="45.40666" lon="4.57071">
        <ele>983</ele>
        <time>2015-05-10T05:23:00Z</time>
      </trkpt>
      <trkpt lat="45.40662" lon="4.57073">
        <ele>984</ele>
        <time>2015-05-10T05:23:02Z</time>
      </trkpt>
      <trkpt lat="45.40659" lon="4.57075">
        <ele>985</ele>
        <time>2015-05-10T05:23:04Z</time>
      </trkpt>
      <trkpt lat="45.40655" lon="4.57077">
        <ele>986</ele>
        <time>2015-05-10T05:23:07Z</time>
      </trkpt>
      <trkpt lat="45.40652" lon="4.57077">
        <ele>986</ele>
        <time>2015-05-10T05:23:09Z</time>
      </trkpt>
      <trkpt lat="45.40649" lon="4.57078">
        <ele>987</ele>
        <time>2015-05-10T05:23:12Z</time>
      </trkpt>
      <trkpt lat="45.40644" lon="4.57078">
        <ele>988</ele>
        <time>2015-05-10T05:23:15Z</time>
      </trkpt>
      <trkpt lat="45.4064" lon="4.57079">
        <ele>988</ele>
        <time>2015-05-10T05:23:17Z</time>
      </trkpt>
      <trkpt lat="45.40635" lon="4.57079">
        <ele>989</ele>
        <time>2015-05-10T05:23:20Z</time>
      </trkpt>
      <trkpt lat="45.40631" lon="4.5708">
        <ele>989</ele>
        <time>2015-05-10T05:23:22Z</time>
      </trkpt>
      <trkpt lat="45.40625" lon="4.57082">
        <ele>990</ele>
        <time>2015-05-10T05:23:25Z</time>
      </trkpt>
      <trkpt lat="45.40621" lon="4.57084">
        <ele>990</ele>
        <time>2015-05-10T05:23:27Z</time>
      </trkpt>
      <trkpt lat="45.40615" lon="4.57084">
        <ele>991</ele>
        <time>2015-05-10T05:23:30Z</time>
      </trkpt>
      <trkpt lat="45.40609" lon="4.57085">
        <ele>992</ele>
        <time>2015-05-10T05:23:33Z</time>
      </trkpt>
      <trkpt lat="45.40602" lon="4.57088">
        <ele>993</ele>
        <time>2015-05-10T05:23:36Z</time>
      </trkpt>
      <trkpt lat="45.40599" lon="4.57089">
        <ele>993</ele>
        <time>2015-05-10T05:23:38Z</time>
      </trkpt>
      <trkpt lat="45.40593" lon="4.5709">
        <ele>994</ele>
        <time>2015-05-10T05:23:41Z</time>
      </trkpt>
      <trkpt lat="45.4059" lon="4.5709">
        <ele>994</ele>
        <time>2015-05-10T05:23:43Z</time>
      </trkpt>
      <trkpt lat="45.40585" lon="4.57091">
        <ele>995</ele>
        <time>2015-05-10T05:23:46Z</time>
      </trkpt>
      <trkpt lat="45.40581" lon="4.57091">
        <ele>995</ele>
        <time>2015-05-10T05:23:49Z</time>
      </trkpt>
      <trkpt lat="45.40577" lon="4.57092">
        <ele>996</ele>
        <time>2015-05-10T05:23:52Z</time>
      </trkpt>
      <trkpt lat="45.40574" lon="4.57093">
        <ele>996</ele>
        <time>2015-05-10T05:23:54Z</time>
      </trkpt>
      <trkpt lat="45.4057" lon="4.57093">
        <ele>997</ele>
        <time>2015-05-10T05:23:57Z</time>
      </trkpt>
      <trkpt lat="45.40568" lon="4.57094">
        <ele>998</ele>
        <time>2015-05-10T05:23:59Z</time>
      </trkpt>
      <trkpt lat="45.40565" lon="4.57094">
        <ele>998</ele>
        <time>2015-05-10T05:24:02Z</time>
      </trkpt>
      <trkpt lat="45.40562" lon="4.57095">
        <ele>998</ele>
        <time>2015-05-10T05:24:04Z</time>
      </trkpt>
      <trkpt lat="45.40558" lon="4.57096">
        <ele>999</ele>
        <time>2015-05-10T05:24:07Z</time>
      </trkpt>
      <trkpt lat="45.40555" lon="4.57098">
        <ele>999</ele>
        <time>2015-05-10T05:24:09Z</time>
      </trkpt>
      <trkpt lat="45.40549" lon="4.571">
        <ele>1000</ele>
        <time>2015-05-10T05:24:12Z</time>
      </trkpt>
      <trkpt lat="45.40543" lon="4.57102">
        <ele>1000</ele>
        <time>2015-05-10T05:24:15Z</time>
      </trkpt>
      <trkpt lat="45.40538" lon="4.57105">
        <ele>1001</ele>
        <time>2015-05-10T05:24:18Z</time>
      </trkpt>
      <trkpt lat="45.40534" lon="4.57105">
        <ele>1001</ele>
        <time>2015-05-10T05:24:20Z</time>
      </trkpt>
      <trkpt lat="45.40528" lon="4.57108">
        <ele>1002</ele>
        <time>2015-05-10T05:24:23Z</time>
      </trkpt>
      <trkpt lat="45.40525" lon="4.5711">
        <ele>1002</ele>
        <time>2015-05-10T05:24:25Z</time>
      </trkpt>
      <trkpt lat="45.40521" lon="4.57111">
        <ele>1003</ele>
        <time>2015-05-10T05:24:27Z</time>
      </trkpt>
      <trkpt lat="45.40516" lon="4.57113">
        <ele>1003</ele>
        <time>2015-05-10T05:24:30Z</time>
      </trkpt>
      <trkpt lat="45.4051" lon="4.57114">
        <ele>1004</ele>
        <time>2015-05-10T05:24:33Z</time>
      </trkpt>
      <trkpt lat="45.40506" lon="4.57116">
        <ele>1005</ele>
        <time>2015-05-10T05:24:35Z</time>
      </trkpt>
      <trkpt lat="45.405" lon="4.57117">
        <ele>1006</ele>
        <time>2015-05-10T05:24:38Z</time>
      </trkpt>
      <trkpt lat="45.40497" lon="4.57117">
        <ele>1007</ele>
        <time>2015-05-10T05:24:40Z</time>
      </trkpt>
      <trkpt lat="45.40492" lon="4.57119">
        <ele>1008</ele>
        <time>2015-05-10T05:24:43Z</time>
      </trkpt>
      <trkpt lat="45.40487" lon="4.5712">
        <ele>1008</ele>
        <time>2015-05-10T05:24:46Z</time>
      </trkpt>
      <trkpt lat="45.40484" lon="4.5712">
        <ele>1009</ele>
        <time>2015-05-10T05:24:48Z</time>
      </trkpt>
      <trkpt lat="45.40479" lon="4.5712">
        <ele>1010</ele>
        <time>2015-05-10T05:24:51Z</time>
      </trkpt>
      <trkpt lat="45.40474" lon="4.5712">
        <ele>1011</ele>
        <time>2015-05-10T05:24:54Z</time>
      </trkpt>
      <trkpt lat="45.4047" lon="4.57121">
        <ele>1012</ele>
        <time>2015-05-10T05:24:57Z</time>
      </trkpt>
      <trkpt lat="45.40467" lon="4.57122">
        <ele>1013</ele>
        <time>2015-05-10T05:25:00Z</time>
      </trkpt>
      <trkpt lat="45.40464" lon="4.57122">
        <ele>1013</ele>
        <time>2015-05-10T05:25:02Z</time>
      </trkpt>
      <trkpt lat="45.4046" lon="4.57123">
        <ele>1014</ele>
        <time>2015-05-10T05:25:05Z</time>
      </trkpt>
      <trkpt lat="45.40456" lon="4.57122">
        <ele>1014</ele>
        <time>2015-05-10T05:25:08Z</time>
      </trkpt>
      <trkpt lat="45.40453" lon="4.57123">
        <ele>1015</ele>
        <time>2015-05-10T05:25:11Z</time>
      </trkpt>
      <trkpt lat="45.40449" lon="4.57122">
        <ele>1015</ele>
        <time>2015-05-10T05:25:14Z</time>
      </trkpt>
      <trkpt lat="45.40446" lon="4.5712">
        <ele>1016</ele>
        <time>2015-05-10T05:25:17Z</time>
      </trkpt>
      <trkpt lat="45.40443" lon="4.57119">
        <ele>1016</ele>
        <time>2015-05-10T05:25:19Z</time>
      </trkpt>
      <trkpt lat="45.4044" lon="4.57118">
        <ele>1017</ele>
        <time>2015-05-10T05:25:22Z</time>
      </trkpt>
      <trkpt lat="45.40437" lon="4.57116">
        <ele>1018</ele>
        <time>2015-05-10T05:25:25Z</time>
      </trkpt>
      <trkpt lat="45.40434" lon="4.57115">
        <ele>1019</ele>
        <time>2015-05-10T05:25:28Z</time>
      </trkpt>
      <trkpt lat="45.40432" lon="4.57114">
        <ele>1019</ele>
        <time>2015-05-10T05:25:30Z</time>
      </trkpt>
      <trkpt lat="45.40429" lon="4.57114">
        <ele>1020</ele>
        <time>2015-05-10T05:25:33Z</time>
      </trkpt>
      <trkpt lat="45.40426" lon="4.57114">
        <ele>1020</ele>
        <time>2015-05-10T05:25:35Z</time>
      </trkpt>
      <trkpt lat="45.40424" lon="4.57114">
        <ele>1021</ele>
        <time>2015-05-10T05:25:37Z</time>
      </trkpt>
      <trkpt lat="45.4042" lon="4.57114">
        <ele>1021</ele>
        <time>2015-05-10T05:25:40Z</time>
      </trkpt>
      <trkpt lat="45.40416" lon="4.57114">
        <ele>1021</ele>
        <time>2015-05-10T05:25:43Z</time>
      </trkpt>
      <trkpt lat="45.40413" lon="4.57114">
        <ele>1021</ele>
        <time>2015-05-10T05:25:46Z</time>
      </trkpt>
      <trkpt lat="45.4041" lon="4.57115">
        <ele>1022</ele>
        <time>2015-05-10T05:25:49Z</time>
      </trkpt>
      <trkpt lat="45.40408" lon="4.57114">
        <ele>1023</ele>
        <time>2015-05-10T05:25:51Z</time>
      </trkpt>
      <trkpt lat="45.40405" lon="4.57115">
        <ele>1023</ele>
        <time>2015-05-10T05:25:53Z</time>
      </trkpt>
      <trkpt lat="45.40401" lon="4.57116">
        <ele>1024</ele>
        <time>2015-05-10T05:25:56Z</time>
      </trkpt>
      <trkpt lat="45.40398" lon="4.57116">
        <ele>1024</ele>
        <time>2015-05-10T05:25:59Z</time>
      </trkpt>
      <trkpt lat="45.40395" lon="4.57115">
        <ele>1024</ele>
        <time>2015-05-10T05:26:02Z</time>
      </trkpt>
      <trkpt lat="45.40391" lon="4.57116">
        <ele>1025</ele>
        <time>2015-05-10T05:26:04Z</time>
      </trkpt>
      <trkpt lat="45.40389" lon="4.57116">
        <ele>1025</ele>
        <time>2015-05-10T05:26:06Z</time>
      </trkpt>
      <trkpt lat="45.40386" lon="4.57116">
        <ele>1026</ele>
        <time>2015-05-10T05:26:09Z</time>
      </trkpt>
      <trkpt lat="45.40384" lon="4.57116">
        <ele>1026</ele>
        <time>2015-05-10T05:26:11Z</time>
      </trkpt>
      <trkpt lat="45.40379" lon="4.57115">
        <ele>1026</ele>
        <time>2015-05-10T05:26:14Z</time>
      </trkpt>
      <trkpt lat="45.40373" lon="4.57115">
        <ele>1027</ele>
        <time>2015-05-10T05:26:17Z</time>
      </trkpt>
      <trkpt lat="45.40369" lon="4.57114">
        <ele>1027</ele>
        <time>2015-05-10T05:26:19Z</time>
      </trkpt>
      <trkpt lat="45.40366" lon="4.57114">
        <ele>1028</ele>
        <time>2015-05-10T05:26:21Z</time>
      </trkpt>
      <trkpt lat="45.40363" lon="4.57115">
        <ele>1028</ele>
        <time>2015-05-10T05:26:23Z</time>
      </trkpt>
      <trkpt lat="45.40359" lon="4.57116">
        <ele>1029</ele>
        <time>2015-05-10T05:26:26Z</time>
      </trkpt>
      <trkpt lat="45.40356" lon="4.57115">
        <ele>1030</ele>
        <time>2015-05-10T05:26:28Z</time>
      </trkpt>
      <trkpt lat="45.40351" lon="4.57116">
        <ele>1031</ele>
        <time>2015-05-10T05:26:31Z</time>
      </trkpt>
      <trkpt lat="45.40346" lon="4.57116">
        <ele>1031</ele>
        <time>2015-05-10T05:26:34Z</time>
      </trkpt>
      <trkpt lat="45.4034" lon="4.57117">
        <ele>1032</ele>
        <time>2015-05-10T05:26:37Z</time>
      </trkpt>
      <trkpt lat="45.40335" lon="4.57117">
        <ele>1032</ele>
        <time>2015-05-10T05:26:40Z</time>
      </trkpt>
      <trkpt lat="45.40332" lon="4.57118">
        <ele>1032</ele>
        <time>2015-05-10T05:26:42Z</time>
      </trkpt>
      <trkpt lat="45.40326" lon="4.57118">
        <ele>1032</ele>
        <time>2015-05-10T05:26:45Z</time>
      </trkpt>
      <trkpt lat="45.40321" lon="4.57119">
        <ele>1033</ele>
        <time>2015-05-10T05:26:47Z</time>
      </trkpt>
      <trkpt lat="45.40315" lon="4.5712">
        <ele>1033</ele>
        <time>2015-05-10T05:26:50Z</time>
      </trkpt>
      <trkpt lat="45.40308" lon="4.5712">
        <ele>1034</ele>
        <time>2015-05-10T05:26:53Z</time>
      </trkpt>
      <trkpt lat="45.40303" lon="4.57119">
        <ele>1035</ele>
        <time>2015-05-10T05:26:55Z</time>
      </trkpt>
      <trkpt lat="45.40296" lon="4.57119">
        <ele>1035</ele>
        <time>2015-05-10T05:26:58Z</time>
      </trkpt>
      <trkpt lat="45.40292" lon="4.57118">
        <ele>1035</ele>
        <time>2015-05-10T05:27:00Z</time>
      </trkpt>
      <trkpt lat="45.40287" lon="4.57117">
        <ele>1035</ele>
        <time>2015-05-10T05:27:02Z</time>
      </trkpt>
      <trkpt lat="45.40279" lon="4.57115">
        <ele>1035</ele>
        <time>2015-05-10T05:27:05Z</time>
      </trkpt>
      <trkpt lat="45.40272" lon="4.57114">
        <ele>1035</ele>
        <time>2015-05-10T05:27:08Z</time>
      </trkpt>
      <trkpt lat="45.40268" lon="4.57112">
        <ele>1035</ele>
        <time>2015-05-10T05:27:10Z</time>
      </trkpt>
      <trkpt lat="45.40261" lon="4.5711">
        <ele>1036</ele>
        <time>2015-05-10T05:27:13Z</time>
      </trkpt>
      <trkpt lat="45.40255" lon="4.57107">
        <ele>1036</ele>
        <time>2015-05-10T05:27:16Z</time>
      </trkpt>
      <trkpt lat="45.40249" lon="4.57104">
        <ele>1038</ele>
        <time>2015-05-10T05:27:19Z</time>
      </trkpt>
      <trkpt lat="45.40243" lon="4.57104">
        <ele>1038</ele>
        <time>2015-05-10T05:27:22Z</time>
      </trkpt>
      <trkpt lat="45.40237" lon="4.57102">
        <ele>1038</ele>
        <time>2015-05-10T05:27:25Z</time>
      </trkpt>
      <trkpt lat="45.40232" lon="4.57101">
        <ele>1038</ele>
        <time>2015-05-10T05:27:28Z</time>
      </trkpt>
      <trkpt lat="45.40229" lon="4.571">
        <ele>1039</ele>
        <time>2015-05-10T05:27:30Z</time>
      </trkpt>
      <trkpt lat="45.40222" lon="4.57099">
        <ele>1040</ele>
        <time>2015-05-10T05:27:33Z</time>
      </trkpt>
      <trkpt lat="45.40218" lon="4.57098">
        <ele>1041</ele>
        <time>2015-05-10T05:27:35Z</time>
      </trkpt>
      <trkpt lat="45.40214" lon="4.57098">
        <ele>1041</ele>
        <time>2015-05-10T05:27:37Z</time>
      </trkpt>
      <trkpt lat="45.40209" lon="4.57096">
        <ele>1041</ele>
        <time>2015-05-10T05:27:40Z</time>
      </trkpt>
      <trkpt lat="45.40205" lon="4.57094">
        <ele>1043</ele>
        <time>2015-05-10T05:27:43Z</time>
      </trkpt>
      <trkpt lat="45.40201" lon="4.57093">
        <ele>1043</ele>
        <time>2015-05-10T05:27:46Z</time>
      </trkpt>
      <trkpt lat="45.40197" lon="4.57092">
        <ele>1044</ele>
        <time>2015-05-10T05:27:49Z</time>
      </trkpt>
      <trkpt lat="45.40194" lon="4.57091">
        <ele>1044</ele>
        <time>2015-05-10T05:27:51Z</time>
      </trkpt>
      <trkpt lat="45.4019" lon="4.57092">
        <ele>1045</ele>
        <time>2015-05-10T05:27:54Z</time>
      </trkpt>
      <trkpt lat="45.40186" lon="4.57092">
        <ele>1045</ele>
        <time>2015-05-10T05:27:57Z</time>
      </trkpt>
      <trkpt lat="45.40183" lon="4.57092">
        <ele>1046</ele>
        <time>2015-05-10T05:27:59Z</time>
      </trkpt>
      <trkpt lat="45.40178" lon="4.57093">
        <ele>1047</ele>
        <time>2015-05-10T05:28:02Z</time>
      </trkpt>
      <trkpt lat="45.40174" lon="4.57093">
        <ele>1047</ele>
        <time>2015-05-10T05:28:04Z</time>
      </trkpt>
      <trkpt lat="45.40169" lon="4.57093">
        <ele>1048</ele>
        <time>2015-05-10T05:28:07Z</time>
      </trkpt>
      <trkpt lat="45.40165" lon="4.57093">
        <ele>1049</ele>
        <time>2015-05-10T05:28:09Z</time>
      </trkpt>
      <trkpt lat="45.40163" lon="4.57094">
        <ele>1050</ele>
        <time>2015-05-10T05:28:11Z</time>
      </trkpt>
      <trkpt lat="45.40158" lon="4.57094">
        <ele>1050</ele>
        <time>2015-05-10T05:28:14Z</time>
      </trkpt>
      <trkpt lat="45.40155" lon="4.57094">
        <ele>1051</ele>
        <time>2015-05-10T05:28:16Z</time>
      </trkpt>
      <trkpt lat="45.40151" lon="4.57094">
        <ele>1052</ele>
        <time>2015-05-10T05:28:19Z</time>
      </trkpt>
      <trkpt lat="45.40148" lon="4.57094">
        <ele>1052</ele>
        <time>2015-05-10T05:28:21Z</time>
      </trkpt>
      <trkpt lat="45.40145" lon="4.57093">
        <ele>1053</ele>
        <time>2015-05-10T05:28:23Z</time>
      </trkpt>
      <trkpt lat="45.40142" lon="4.57093">
        <ele>1053</ele>
        <time>2015-05-10T05:28:26Z</time>
      </trkpt>
      <trkpt lat="45.40139" lon="4.57094">
        <ele>1054</ele>
        <time>2015-05-10T05:28:28Z</time>
      </trkpt>
      <trkpt lat="45.40135" lon="4.57094">
        <ele>1055</ele>
        <time>2015-05-10T05:28:31Z</time>
      </trkpt>
      <trkpt lat="45.4013" lon="4.57094">
        <ele>1056</ele>
        <time>2015-05-10T05:28:34Z</time>
      </trkpt>
      <trkpt lat="45.40126" lon="4.57093">
        <ele>1056</ele>
        <time>2015-05-10T05:28:37Z</time>
      </trkpt>
      <trkpt lat="45.40124" lon="4.57093">
        <ele>1057</ele>
        <time>2015-05-10T05:28:39Z</time>
      </trkpt>
      <trkpt lat="45.40121" lon="4.57095">
        <ele>1058</ele>
        <time>2015-05-10T05:28:42Z</time>
      </trkpt>
      <trkpt lat="45.40118" lon="4.57095">
        <ele>1059</ele>
        <time>2015-05-10T05:28:45Z</time>
      </trkpt>
      <trkpt lat="45.40113" lon="4.57096">
        <ele>1060</ele>
        <time>2015-05-10T05:28:48Z</time>
      </trkpt>
      <trkpt lat="45.4011" lon="4.57096">
        <ele>1060</ele>
        <time>2015-05-10T05:28:50Z</time>
      </trkpt>
      <trkpt lat="45.40106" lon="4.57097">
        <ele>1062</ele>
        <time>2015-05-10T05:28:53Z</time>
      </trkpt>
      <trkpt lat="45.40103" lon="4.57098">
        <ele>1063</ele>
        <time>2015-05-10T05:28:55Z</time>
      </trkpt>
      <trkpt lat="45.40101" lon="4.57098">
        <ele>1063</ele>
        <time>2015-05-10T05:28:57Z</time>
      </trkpt>
      <trkpt lat="45.40097" lon="4.57099">
        <ele>1063</ele>
        <time>2015-05-10T05:29:00Z</time>
      </trkpt>
      <trkpt lat="45.40094" lon="4.571">
        <ele>1064</ele>
        <time>2015-05-10T05:29:03Z</time>
      </trkpt>
      <trkpt lat="45.40091" lon="4.571">
        <ele>1064</ele>
        <time>2015-05-10T05:29:06Z</time>
      </trkpt>
      <trkpt lat="45.40088" lon="4.57101">
        <ele>1065</ele>
        <time>2015-05-10T05:29:09Z</time>
      </trkpt>
      <trkpt lat="45.40086" lon="4.57102">
        <ele>1066</ele>
        <time>2015-05-10T05:29:11Z</time>
      </trkpt>
      <trkpt lat="45.40084" lon="4.57102">
        <ele>1066</ele>
        <time>2015-05-10T05:29:13Z</time>
      </trkpt>
      <trkpt lat="45.40081" lon="4.57103">
        <ele>1066</ele>
        <time>2015-05-10T05:29:16Z</time>
      </trkpt>
      <trkpt lat="45.40078" lon="4.57103">
        <ele>1066</ele>
        <time>2015-05-10T05:29:18Z</time>
      </trkpt>
      <trkpt lat="45.40075" lon="4.57102">
        <ele>1067</ele>
        <time>2015-05-10T05:29:21Z</time>
      </trkpt>
      <trkpt lat="45.40072" lon="4.57103">
        <ele>1068</ele>
        <time>2015-05-10T05:29:24Z</time>
      </trkpt>
      <trkpt lat="45.4007" lon="4.57104">
        <ele>1068</ele>
        <time>2015-05-10T05:29:26Z</time>
      </trkpt>
      <trkpt lat="45.40067" lon="4.57105">
        <ele>1069</ele>
        <time>2015-05-10T05:29:29Z</time>
      </trkpt>
      <trkpt lat="45.40063" lon="4.57105">
        <ele>1069</ele>
        <time>2015-05-10T05:29:32Z</time>
      </trkpt>
      <trkpt lat="45.4006" lon="4.57105">
        <ele>1070</ele>
        <time>2015-05-10T05:29:34Z</time>
      </trkpt>
      <trkpt lat="45.40058" lon="4.57104">
        <ele>1070</ele>
        <time>2015-05-10T05:29:37Z</time>
      </trkpt>
      <trkpt lat="45.40055" lon="4.57104">
        <ele>1071</ele>
        <time>2015-05-10T05:29:40Z</time>
      </trkpt>
      <trkpt lat="45.40051" lon="4.57105">
        <ele>1071</ele>
        <time>2015-05-10T05:29:43Z</time>
      </trkpt>
      <trkpt lat="45.40048" lon="4.57104">
        <ele>1072</ele>
        <time>2015-05-10T05:29:46Z</time>
      </trkpt>
      <trkpt lat="45.40045" lon="4.57104">
        <ele>1073</ele>
        <time>2015-05-10T05:29:49Z</time>
      </trkpt>
      <trkpt lat="45.40042" lon="4.57103">
        <ele>1073</ele>
        <time>2015-05-10T05:29:51Z</time>
      </trkpt>
      <trkpt lat="45.4004" lon="4.57102">
        <ele>1073</ele>
        <time>2015-05-10T05:29:53Z</time>
      </trkpt>
      <trkpt lat="45.40038" lon="4.57101">
        <ele>1074</ele>
        <time>2015-05-10T05:29:55Z</time>
      </trkpt>
      <trkpt lat="45.40035" lon="4.571">
        <ele>1074</ele>
        <time>2015-05-10T05:29:58Z</time>
      </trkpt>
      <trkpt lat="45.40033" lon="4.571">
        <ele>1074</ele>
        <time>2015-05-10T05:30:00Z</time>
      </trkpt>
      <trkpt lat="45.4003" lon="4.57099">
        <ele>1075</ele>
        <time>2015-05-10T05:30:03Z</time>
      </trkpt>
      <trkpt lat="45.40028" lon="4.57099">
        <ele>1076</ele>
        <time>2015-05-10T05:30:05Z</time>
      </trkpt>
      <trkpt lat="45.40023" lon="4.57097">
        <ele>1077</ele>
        <time>2015-05-10T05:30:08Z</time>
      </trkpt>
      <trkpt lat="45.4002" lon="4.57096">
        <ele>1077</ele>
        <time>2015-05-10T05:30:11Z</time>
      </trkpt>
      <trkpt lat="45.40017" lon="4.57095">
        <ele>1078</ele>
        <time>2015-05-10T05:30:14Z</time>
      </trkpt>
      <trkpt lat="45.40015" lon="4.57094">
        <ele>1078</ele>
        <time>2015-05-10T05:30:16Z</time>
      </trkpt>
      <trkpt lat="45.40011" lon="4.57093">
        <ele>1079</ele>
        <time>2015-05-10T05:30:19Z</time>
      </trkpt>
      <trkpt lat="45.40008" lon="4.57093">
        <ele>1079</ele>
        <time>2015-05-10T05:30:22Z</time>
      </trkpt>
      <trkpt lat="45.40005" lon="4.57093">
        <ele>1080</ele>
        <time>2015-05-10T05:30:25Z</time>
      </trkpt>
      <trkpt lat="45.40002" lon="4.57092">
        <ele>1080</ele>
        <time>2015-05-10T05:30:28Z</time>
      </trkpt>
      <trkpt lat="45.39999" lon="4.57091">
        <ele>1082</ele>
        <time>2015-05-10T05:30:31Z</time>
      </trkpt>
      <trkpt lat="45.39995" lon="4.57091">
        <ele>1082</ele>
        <time>2015-05-10T05:30:34Z</time>
      </trkpt>
      <trkpt lat="45.39993" lon="4.57091">
        <ele>1082</ele>
        <time>2015-05-10T05:30:36Z</time>
      </trkpt>
      <trkpt lat="45.39991" lon="4.57091">
        <ele>1083</ele>
        <time>2015-05-10T05:30:38Z</time>
      </trkpt>
      <trkpt lat="45.39988" lon="4.57091">
        <ele>1083</ele>
        <time>2015-05-10T05:30:41Z</time>
      </trkpt>
      <trkpt lat="45.39985" lon="4.57091">
        <ele>1083</ele>
        <time>2015-05-10T05:30:43Z</time>
      </trkpt>
      <trkpt lat="45.39983" lon="4.57091">
        <ele>1084</ele>
        <time>2015-05-10T05:30:45Z</time>
      </trkpt>
      <trkpt lat="45.39978" lon="4.57092">
        <ele>1084</ele>
        <time>2015-05-10T05:30:48Z</time>
      </trkpt>
      <trkpt lat="45.39977" lon="4.57093">
        <ele>1085</ele>
        <time>2015-05-10T05:30:50Z</time>
      </trkpt>
      <trkpt lat="45.39974" lon="4.57093">
        <ele>1085</ele>
        <time>2015-05-10T05:30:52Z</time>
      </trkpt>
      <trkpt lat="45.39972" lon="4.57093">
        <ele>1086</ele>
        <time>2015-05-10T05:30:55Z</time>
      </trkpt>
      <trkpt lat="45.39969" lon="4.57094">
        <ele>1086</ele>
        <time>2015-05-10T05:30:57Z</time>
      </trkpt>
      <trkpt lat="45.39965" lon="4.57095">
        <ele>1087</ele>
        <time>2015-05-10T05:31:00Z</time>
      </trkpt>
      <trkpt lat="45.39961" lon="4.57095">
        <ele>1087</ele>
        <time>2015-05-10T05:31:03Z</time>
      </trkpt>
      <trkpt lat="45.39958" lon="4.57096">
        <ele>1088</ele>
        <time>2015-05-10T05:31:05Z</time>
      </trkpt>
      <trkpt lat="45.39954" lon="4.57098">
        <ele>1088</ele>
        <time>2015-05-10T05:31:08Z</time>
      </trkpt>
      <trkpt lat="45.39952" lon="4.57099">
        <ele>1088</ele>
        <time>2015-05-10T05:31:10Z</time>
      </trkpt>
      <trkpt lat="45.39949" lon="4.571">
        <ele>1089</ele>
        <time>2015-05-10T05:31:13Z</time>
      </trkpt>
      <trkpt lat="45.39946" lon="4.571">
        <ele>1089</ele>
        <time>2015-05-10T05:31:15Z</time>
      </trkpt>
      <trkpt lat="45.39942" lon="4.571">
        <ele>1090</ele>
        <time>2015-05-10T05:31:18Z</time>
      </trkpt>
      <trkpt lat="45.39938" lon="4.571">
        <ele>1091</ele>
        <time>2015-05-10T05:31:21Z</time>
      </trkpt>
      <trkpt lat="45.39934" lon="4.57101">
        <ele>1091</ele>
        <time>2015-05-10T05:31:23Z</time>
      </trkpt>
      <trkpt lat="45.39931" lon="4.57102">
        <ele>1091</ele>
        <time>2015-05-10T05:31:25Z</time>
      </trkpt>
      <trkpt lat="45.39927" lon="4.57104">
        <ele>1091</ele>
        <time>2015-05-10T05:31:28Z</time>
      </trkpt>
      <trkpt lat="45.39924" lon="4.57105">
        <ele>1092</ele>
        <time>2015-05-10T05:31:30Z</time>
      </trkpt>
      <trkpt lat="45.39919" lon="4.57107">
        <ele>1093</ele>
        <time>2015-05-10T05:31:33Z</time>
      </trkpt>
      <trkpt lat="45.39916" lon="4.57109">
        <ele>1094</ele>
        <time>2015-05-10T05:31:35Z</time>
      </trkpt>
      <trkpt lat="45.39913" lon="4.5711">
        <ele>1094</ele>
        <time>2015-05-10T05:31:37Z</time>
      </trkpt>
      <trkpt lat="45.39908" lon="4.5711">
        <ele>1095</ele>
        <time>2015-05-10T05:31:40Z</time>
      </trkpt>
      <trkpt lat="45.39903" lon="4.57112">
        <ele>1096</ele>
        <time>2015-05-10T05:31:43Z</time>
      </trkpt>
      <trkpt lat="45.39898" lon="4.57113">
        <ele>1097</ele>
        <time>2015-05-10T05:31:46Z</time>
      </trkpt>
      <trkpt lat="45.39895" lon="4.57114">
        <ele>1098</ele>
        <time>2015-05-10T05:31:48Z</time>
      </trkpt>
      <trkpt lat="45.39889" lon="4.57116">
        <ele>1098</ele>
        <time>2015-05-10T05:31:51Z</time>
      </trkpt>
      <trkpt lat="45.39886" lon="4.57117">
        <ele>1099</ele>
        <time>2015-05-10T05:31:53Z</time>
      </trkpt>
      <trkpt lat="45.39883" lon="4.57118">
        <ele>1099</ele>
        <time>2015-05-10T05:31:55Z</time>
      </trkpt>
      <trkpt lat="45.39877" lon="4.57119">
        <ele>1100</ele>
        <time>2015-05-10T05:31:58Z</time>
      </trkpt>
      <trkpt lat="45.39872" lon="4.57121">
        <ele>1101</ele>
        <time>2015-05-10T05:32:01Z</time>
      </trkpt>
      <trkpt lat="45.39868" lon="4.57121">
        <ele>1101</ele>
        <time>2015-05-10T05:32:04Z</time>
      </trkpt>
      <trkpt lat="45.39865" lon="4.57121">
        <ele>1102</ele>
        <time>2015-05-10T05:32:06Z</time>
      </trkpt>
      <trkpt lat="45.39862" lon="4.57121">
        <ele>1103</ele>
        <time>2015-05-10T05:32:08Z</time>
      </trkpt>
      <trkpt lat="45.39857" lon="4.57122">
        <ele>1104</ele>
        <time>2015-05-10T05:32:11Z</time>
      </trkpt>
      <trkpt lat="45.39854" lon="4.57123">
        <ele>1104</ele>
        <time>2015-05-10T05:32:13Z</time>
      </trkpt>
      <trkpt lat="45.3985" lon="4.57124">
        <ele>1105</ele>
        <time>2015-05-10T05:32:16Z</time>
      </trkpt>
      <trkpt lat="45.39847" lon="4.57124">
        <ele>1105</ele>
        <time>2015-05-10T05:32:18Z</time>
      </trkpt>
      <trkpt lat="45.39843" lon="4.57125">
        <ele>1106</ele>
        <time>2015-05-10T05:32:21Z</time>
      </trkpt>
      <trkpt lat="45.39838" lon="4.57127">
        <ele>1107</ele>
        <time>2015-05-10T05:32:24Z</time>
      </trkpt>
      <trkpt lat="45.39835" lon="4.57128">
        <ele>1107</ele>
        <time>2015-05-10T05:32:26Z</time>
      </trkpt>
      <trkpt lat="45.39832" lon="4.57129">
        <ele>1108</ele>
        <time>2015-05-10T05:32:28Z</time>
      </trkpt>
      <trkpt lat="45.39827" lon="4.5713">
        <ele>1108</ele>
        <time>2015-05-10T05:32:31Z</time>
      </trkpt>
      <trkpt lat="45.39823" lon="4.57131">
        <ele>1109</ele>
        <time>2015-05-10T05:32:34Z</time>
      </trkpt>
      <trkpt lat="45.3982" lon="4.57132">
        <ele>1110</ele>
        <time>2015-05-10T05:32:36Z</time>
      </trkpt>
      <trkpt lat="45.39815" lon="4.57133">
        <ele>1111</ele>
        <time>2015-05-10T05:32:39Z</time>
      </trkpt>
      <trkpt lat="45.39812" lon="4.57133">
        <ele>1111</ele>
        <time>2015-05-10T05:32:41Z</time>
      </trkpt>
      <trkpt lat="45.39808" lon="4.57134">
        <ele>1111</ele>
        <time>2015-05-10T05:32:43Z</time>
      </trkpt>
      <trkpt lat="45.39803" lon="4.57134">
        <ele>1112</ele>
        <time>2015-05-10T05:32:46Z</time>
      </trkpt>
      <trkpt lat="45.39799" lon="4.57134">
        <ele>1113</ele>
        <time>2015-05-10T05:32:48Z</time>
      </trkpt>
      <trkpt lat="45.39796" lon="4.57135">
        <ele>1113</ele>
        <time>2015-05-10T05:32:50Z</time>
      </trkpt>
      <trkpt lat="45.39793" lon="4.57134">
        <ele>1114</ele>
        <time>2015-05-10T05:32:53Z</time>
      </trkpt>
      <trkpt lat="45.3979" lon="4.57135">
        <ele>1115</ele>
        <time>2015-05-10T05:32:55Z</time>
      </trkpt>
      <trkpt lat="45.39787" lon="4.57134">
        <ele>1115</ele>
        <time>2015-05-10T05:32:57Z</time>
      </trkpt>
      <trkpt lat="45.39783" lon="4.57134">
        <ele>1116</ele>
        <time>2015-05-10T05:33:00Z</time>
      </trkpt>
      <trkpt lat="45.3978" lon="4.57134">
        <ele>1117</ele>
        <time>2015-05-10T05:33:03Z</time>
      </trkpt>
      <trkpt lat="45.39777" lon="4.57134">
        <ele>1117</ele>
        <time>2015-05-10T05:33:05Z</time>
      </trkpt>
      <trkpt lat="45.39774" lon="4.57135">
        <ele>1118</ele>
        <time>2015-05-10T05:33:07Z</time>
      </trkpt>
      <trkpt lat="45.3977" lon="4.57136">
        <ele>1118</ele>
        <time>2015-05-10T05:33:10Z</time>
      </trkpt>
      <trkpt lat="45.39766" lon="4.57138">
        <ele>1119</ele>
        <time>2015-05-10T05:33:13Z</time>
      </trkpt>
      <trkpt lat="45.39762" lon="4.5714">
        <ele>1119</ele>
        <time>2015-05-10T05:33:16Z</time>
      </trkpt>
      <trkpt lat="45.39759" lon="4.57141">
        <ele>1119</ele>
        <time>2015-05-10T05:33:19Z</time>
      </trkpt>
      <trkpt lat="45.39755" lon="4.57144">
        <ele>1119</ele>
        <time>2015-05-10T05:33:22Z</time>
      </trkpt>
      <trkpt lat="45.3975" lon="4.57147">
        <ele>1119</ele>
        <time>2015-05-10T05:33:25Z</time>
      </trkpt>
      <trkpt lat="45.39745" lon="4.57151">
        <ele>1120</ele>
        <time>2015-05-10T05:33:28Z</time>
      </trkpt>
      <trkpt lat="45.39743" lon="4.57153">
        <ele>1120</ele>
        <time>2015-05-10T05:33:30Z</time>
      </trkpt>
      <trkpt lat="45.39738" lon="4.57155">
        <ele>1121</ele>
        <time>2015-05-10T05:33:33Z</time>
      </trkpt>
      <trkpt lat="45.39734" lon="4.57157">
        <ele>1121</ele>
        <time>2015-05-10T05:33:36Z</time>
      </trkpt>
      <trkpt lat="45.39729" lon="4.57158">
        <ele>1122</ele>
        <time>2015-05-10T05:33:39Z</time>
      </trkpt>
      <trkpt lat="45.39726" lon="4.57158">
        <ele>1122</ele>
        <time>2015-05-10T05:33:41Z</time>
      </trkpt>
      <trkpt lat="45.3972" lon="4.57159">
        <ele>1123</ele>
        <time>2015-05-10T05:33:44Z</time>
      </trkpt>
      <trkpt lat="45.39716" lon="4.57159">
        <ele>1124</ele>
        <time>2015-05-10T05:33:46Z</time>
      </trkpt>
      <trkpt lat="45.39712" lon="4.5716">
        <ele>1124</ele>
        <time>2015-05-10T05:33:48Z</time>
      </trkpt>
      <trkpt lat="45.39708" lon="4.57159">
        <ele>1125</ele>
        <time>2015-05-10T05:33:50Z</time>
      </trkpt>
      <trkpt lat="45.39703" lon="4.57158">
        <ele>1125</ele>
        <time>2015-05-10T05:33:53Z</time>
      </trkpt>
      <trkpt lat="45.39699" lon="4.57158">
        <ele>1126</ele>
        <time>2015-05-10T05:33:55Z</time>
      </trkpt>
      <trkpt lat="45.39693" lon="4.57158">
        <ele>1126</ele>
        <time>2015-05-10T05:33:58Z</time>
      </trkpt>
      <trkpt lat="45.39689" lon="4.57158">
        <ele>1126</ele>
        <time>2015-05-10T05:34:00Z</time>
      </trkpt>
      <trkpt lat="45.39685" lon="4.57157">
        <ele>1126</ele>
        <time>2015-05-10T05:34:02Z</time>
      </trkpt>
      <trkpt lat="45.39678" lon="4.57155">
        <ele>1127</ele>
        <time>2015-05-10T05:34:05Z</time>
      </trkpt>
      <trkpt lat="45.39672" lon="4.57154">
        <ele>1127</ele>
        <time>2015-05-10T05:34:08Z</time>
      </trkpt>
      <trkpt lat="45.39667" lon="4.57153">
        <ele>1128</ele>
        <time>2015-05-10T05:34:11Z</time>
      </trkpt>
      <trkpt lat="45.39663" lon="4.57152">
        <ele>1128</ele>
        <time>2015-05-10T05:34:13Z</time>
      </trkpt>
      <trkpt lat="45.39655" lon="4.57153">
        <ele>1129</ele>
        <time>2015-05-10T05:34:16Z</time>
      </trkpt>
      <trkpt lat="45.39649" lon="4.57152">
        <ele>1129</ele>
        <time>2015-05-10T05:34:19Z</time>
      </trkpt>
      <trkpt lat="45.39642" lon="4.57153">
        <ele>1130</ele>
        <time>2015-05-10T05:34:22Z</time>
      </trkpt>
      <trkpt lat="45.39635" lon="4.57153">
        <ele>1130</ele>
        <time>2015-05-10T05:34:25Z</time>
      </trkpt>
      <trkpt lat="45.39632" lon="4.57152">
        <ele>1131</ele>
        <time>2015-05-10T05:34:27Z</time>
      </trkpt>
      <trkpt lat="45.39627" lon="4.57151">
        <ele>1131</ele>
        <time>2015-05-10T05:34:29Z</time>
      </trkpt>
      <trkpt lat="45.39621" lon="4.57151">
        <ele>1131</ele>
        <time>2015-05-10T05:34:32Z</time>
      </trkpt>
      <trkpt lat="45.39616" lon="4.5715">
        <ele>1131</ele>
        <time>2015-05-10T05:34:34Z</time>
      </trkpt>
      <trkpt lat="45.39612" lon="4.5715">
        <ele>1132</ele>
        <time>2015-05-10T05:34:36Z</time>
      </trkpt>
      <trkpt lat="45.39606" lon="4.5715">
        <ele>1132</ele>
        <time>2015-05-10T05:34:39Z</time>
      </trkpt>
      <trkpt lat="45.39603" lon="4.57148">
        <ele>1132</ele>
        <time>2015-05-10T05:34:41Z</time>
      </trkpt>
      <trkpt lat="45.39599" lon="4.57148">
        <ele>1132</ele>
        <time>2015-05-10T05:34:43Z</time>
      </trkpt>
      <trkpt lat="45.39592" lon="4.57148">
        <ele>1132</ele>
        <time>2015-05-10T05:34:46Z</time>
      </trkpt>
      <trkpt lat="45.39587" lon="4.57148">
        <ele>1133</ele>
        <time>2015-05-10T05:34:49Z</time>
      </trkpt>
      <trkpt lat="45.39581" lon="4.57147">
        <ele>1133</ele>
        <time>2015-05-10T05:34:52Z</time>
      </trkpt>
      <trkpt lat="45.39575" lon="4.57146">
        <ele>1134</ele>
        <time>2015-05-10T05:34:55Z</time>
      </trkpt>
      <trkpt lat="45.39569" lon="4.57145">
        <ele>1134</ele>
        <time>2015-05-10T05:34:58Z</time>
      </trkpt>
      <trkpt lat="45.39564" lon="4.57145">
        <ele>1135</ele>
        <time>2015-05-10T05:35:01Z</time>
      </trkpt>
      <trkpt lat="45.39559" lon="4.57145">
        <ele>1135</ele>
        <time>2015-05-10T05:35:04Z</time>
      </trkpt>
      <trkpt lat="45.39553" lon="4.57146">
        <ele>1135</ele>
        <time>2015-05-10T05:35:07Z</time>
      </trkpt>
      <trkpt lat="45.39549" lon="4.57147">
        <ele>1136</ele>
        <time>2015-05-10T05:35:09Z</time>
      </trkpt>
      <trkpt lat="45.39544" lon="4.57148">
        <ele>1136</ele>
        <time>2015-05-10T05:35:12Z</time>
      </trkpt>
      <trkpt lat="45.39539" lon="4.57149">
        <ele>1137</ele>
        <time>2015-05-10T05:35:15Z</time>
      </trkpt>
      <trkpt lat="45.39537" lon="4.5715">
        <ele>1136</ele>
        <time>2015-05-10T05:35:17Z</time>
      </trkpt>
      <trkpt lat="45.39532" lon="4.57153">
        <ele>1137</ele>
        <time>2015-05-10T05:35:20Z</time>
      </trkpt>
      <trkpt lat="45.39528" lon="4.57154">
        <ele>1137</ele>
        <time>2015-05-10T05:35:22Z</time>
      </trkpt>
      <trkpt lat="45.39523" lon="4.57156">
        <ele>1138</ele>
        <time>2015-05-10T05:35:25Z</time>
      </trkpt>
      <trkpt lat="45.39516" lon="4.57156">
        <ele>1138</ele>
        <time>2015-05-10T05:35:28Z</time>
      </trkpt>
      <trkpt lat="45.39511" lon="4.57157">
        <ele>1138</ele>
        <time>2015-05-10T05:35:31Z</time>
      </trkpt>
      <trkpt lat="45.39505" lon="4.57158">
        <ele>1139</ele>
        <time>2015-05-10T05:35:34Z</time>
      </trkpt>
      <trkpt lat="45.395" lon="4.57159">
        <ele>1139</ele>
        <time>2015-05-10T05:35:36Z</time>
      </trkpt>
      <trkpt lat="45.39494" lon="4.5716">
        <ele>1140</ele>
        <time>2015-05-10T05:35:39Z</time>
      </trkpt>
      <trkpt lat="45.39489" lon="4.57161">
        <ele>1141</ele>
        <time>2015-05-10T05:35:41Z</time>
      </trkpt>
      <trkpt lat="45.39482" lon="4.57163">
        <ele>1142</ele>
        <time>2015-05-10T05:35:44Z</time>
      </trkpt>
      <trkpt lat="45.39475" lon="4.57165">
        <ele>1143</ele>
        <time>2015-05-10T05:35:47Z</time>
      </trkpt>
      <trkpt lat="45.39469" lon="4.57167">
        <ele>1143</ele>
        <time>2015-05-10T05:35:50Z</time>
      </trkpt>
      <trkpt lat="45.39464" lon="4.57168">
        <ele>1143</ele>
        <time>2015-05-10T05:35:52Z</time>
      </trkpt>
      <trkpt lat="45.39457" lon="4.57169">
        <ele>1144</ele>
        <time>2015-05-10T05:35:55Z</time>
      </trkpt>
      <trkpt lat="45.39453" lon="4.5717">
        <ele>1144</ele>
        <time>2015-05-10T05:35:57Z</time>
      </trkpt>
      <trkpt lat="45.39449" lon="4.57171">
        <ele>1144</ele>
        <time>2015-05-10T05:35:59Z</time>
      </trkpt>
      <trkpt lat="45.39443" lon="4.57173">
        <ele>1145</ele>
        <time>2015-05-10T05:36:02Z</time>
      </trkpt>
      <trkpt lat="45.39439" lon="4.57175">
        <ele>1145</ele>
        <time>2015-05-10T05:36:04Z</time>
      </trkpt>
      <trkpt lat="45.39432" lon="4.57176">
        <ele>1145</ele>
        <time>2015-05-10T05:36:07Z</time>
      </trkpt>
      <trkpt lat="45.39428" lon="4.57176">
        <ele>1146</ele>
        <time>2015-05-10T05:36:09Z</time>
      </trkpt>
      <trkpt lat="45.39424" lon="4.57177">
        <ele>1146</ele>
        <time>2015-05-10T05:36:11Z</time>
      </trkpt>
      <trkpt lat="45.3942" lon="4.57178">
        <ele>1147</ele>
        <time>2015-05-10T05:36:13Z</time>
      </trkpt>
      <trkpt lat="45.39417" lon="4.57181">
        <ele>1147</ele>
        <time>2015-05-10T05:36:16Z</time>
      </trkpt>
      <trkpt lat="45.39412" lon="4.57183">
        <ele>1148</ele>
        <time>2015-05-10T05:36:19Z</time>
      </trkpt>
      <trkpt lat="45.39409" lon="4.57189">
        <ele>1149</ele>
        <time>2015-05-10T05:36:22Z</time>
      </trkpt>
      <trkpt lat="45.39406" lon="4.57192">
        <ele>1150</ele>
        <time>2015-05-10T05:36:24Z</time>
      </trkpt>
      <trkpt lat="45.39401" lon="4.57196">
        <ele>1150</ele>
        <time>2015-05-10T05:36:27Z</time>
      </trkpt>
      <trkpt lat="45.39399" lon="4.57198">
        <ele>1150</ele>
        <time>2015-05-10T05:36:29Z</time>
      </trkpt>
      <trkpt lat="45.39393" lon="4.57202">
        <ele>1150</ele>
        <time>2015-05-10T05:36:32Z</time>
      </trkpt>
      <trkpt lat="45.39388" lon="4.57205">
        <ele>1151</ele>
        <time>2015-05-10T05:36:34Z</time>
      </trkpt>
      <trkpt lat="45.39384" lon="4.57207">
        <ele>1151</ele>
        <time>2015-05-10T05:36:36Z</time>
      </trkpt>
      <trkpt lat="45.39377" lon="4.57212">
        <ele>1152</ele>
        <time>2015-05-10T05:36:39Z</time>
      </trkpt>
      <trkpt lat="45.3937" lon="4.57217">
        <ele>1153</ele>
        <time>2015-05-10T05:36:42Z</time>
      </trkpt>
      <trkpt lat="45.39366" lon="4.5722">
        <ele>1153</ele>
        <time>2015-05-10T05:36:44Z</time>
      </trkpt>
      <trkpt lat="45.39361" lon="4.57223">
        <ele>1154</ele>
        <time>2015-05-10T05:36:46Z</time>
      </trkpt>
      <trkpt lat="45.39355" lon="4.57228">
        <ele>1154</ele>
        <time>2015-05-10T05:36:49Z</time>
      </trkpt>
      <trkpt lat="45.39349" lon="4.57234">
        <ele>1155</ele>
        <time>2015-05-10T05:36:52Z</time>
      </trkpt>
      <trkpt lat="45.39343" lon="4.57239">
        <ele>1155</ele>
        <time>2015-05-10T05:36:55Z</time>
      </trkpt>
      <trkpt lat="45.39339" lon="4.57242">
        <ele>1155</ele>
        <time>2015-05-10T05:36:57Z</time>
      </trkpt>
      <trkpt lat="45.39332" lon="4.57247">
        <ele>1155</ele>
        <time>2015-05-10T05:37:00Z</time>
      </trkpt>
      <trkpt lat="45.39325" lon="4.57252">
        <ele>1155</ele>
        <time>2015-05-10T05:37:03Z</time>
      </trkpt>
      <trkpt lat="45.39318" lon="4.57256">
        <ele>1156</ele>
        <time>2015-05-10T05:37:06Z</time>
      </trkpt>
      <trkpt lat="45.39314" lon="4.57258">
        <ele>1156</ele>
        <time>2015-05-10T05:37:08Z</time>
      </trkpt>
      <trkpt lat="45.3931" lon="4.57261">
        <ele>1156</ele>
        <time>2015-05-10T05:37:10Z</time>
      </trkpt>
      <trkpt lat="45.39305" lon="4.57264">
        <ele>1156</ele>
        <time>2015-05-10T05:37:12Z</time>
      </trkpt>
      <trkpt lat="45.39298" lon="4.57268">
        <ele>1156</ele>
        <time>2015-05-10T05:37:15Z</time>
      </trkpt>
      <trkpt lat="45.39294" lon="4.5727">
        <ele>1156</ele>
        <time>2015-05-10T05:37:17Z</time>
      </trkpt>
      <trkpt lat="45.39289" lon="4.57273">
        <ele>1155</ele>
        <time>2015-05-10T05:37:19Z</time>
      </trkpt>
      <trkpt lat="45.39283" lon="4.57277">
        <ele>1155</ele>
        <time>2015-05-10T05:37:22Z</time>
      </trkpt>
      <trkpt lat="45.39276" lon="4.57281">
        <ele>1155</ele>
        <time>2015-05-10T05:37:25Z</time>
      </trkpt>
      <trkpt lat="45.39271" lon="4.57283">
        <ele>1156</ele>
        <time>2015-05-10T05:37:27Z</time>
      </trkpt>
      <trkpt lat="45.39265" lon="4.57287">
        <ele>1157</ele>
        <time>2015-05-10T05:37:30Z</time>
      </trkpt>
      <trkpt lat="45.3926" lon="4.5729">
        <ele>1157</ele>
        <time>2015-05-10T05:37:32Z</time>
      </trkpt>
      <trkpt lat="45.39254" lon="4.57293">
        <ele>1158</ele>
        <time>2015-05-10T05:37:35Z</time>
      </trkpt>
      <trkpt lat="45.39249" lon="4.57296">
        <ele>1159</ele>
        <time>2015-05-10T05:37:37Z</time>
      </trkpt>
      <trkpt lat="45.39243" lon="4.573">
        <ele>1159</ele>
        <time>2015-05-10T05:37:40Z</time>
      </trkpt>
      <trkpt lat="45.39239" lon="4.57303">
        <ele>1158</ele>
        <time>2015-05-10T05:37:42Z</time>
      </trkpt>
      <trkpt lat="45.39232" lon="4.57307">
        <ele>1159</ele>
        <time>2015-05-10T05:37:45Z</time>
      </trkpt>
      <trkpt lat="45.39225" lon="4.57311">
        <ele>1158</ele>
        <time>2015-05-10T05:37:48Z</time>
      </trkpt>
      <trkpt lat="45.39221" lon="4.57314">
        <ele>1158</ele>
        <time>2015-05-10T05:37:50Z</time>
      </trkpt>
      <trkpt lat="45.39214" lon="4.5732">
        <ele>1158</ele>
        <time>2015-05-10T05:37:53Z</time>
      </trkpt>
      <trkpt lat="45.3921" lon="4.57323">
        <ele>1159</ele>
        <time>2015-05-10T05:37:55Z</time>
      </trkpt>
      <trkpt lat="45.39204" lon="4.57328">
        <ele>1159</ele>
        <time>2015-05-10T05:37:58Z</time>
      </trkpt>
      <trkpt lat="45.39198" lon="4.57332">
        <ele>1159</ele>
        <time>2015-05-10T05:38:01Z</time>
      </trkpt>
      <trkpt lat="45.39191" lon="4.57335">
        <ele>1159</ele>
        <time>2015-05-10T05:38:04Z</time>
      </trkpt>
      <trkpt lat="45.39185" lon="4.5734">
        <ele>1159</ele>
        <time>2015-05-10T05:38:07Z</time>
      </trkpt>
      <trkpt lat="45.39177" lon="4.57343">
        <ele>1159</ele>
        <time>2015-05-10T05:38:10Z</time>
      </trkpt>
      <trkpt lat="45.3917" lon="4.57347">
        <ele>1159</ele>
        <time>2015-05-10T05:38:13Z</time>
      </trkpt>
      <trkpt lat="45.39162" lon="4.57351">
        <ele>1159</ele>
        <time>2015-05-10T05:38:16Z</time>
      </trkpt>
      <trkpt lat="45.39158" lon="4.57353">
        <ele>1160</ele>
        <time>2015-05-10T05:38:18Z</time>
      </trkpt>
      <trkpt lat="45.39151" lon="4.57358">
        <ele>1160</ele>
        <time>2015-05-10T05:38:21Z</time>
      </trkpt>
      <trkpt lat="45.39146" lon="4.57362">
        <ele>1160</ele>
        <time>2015-05-10T05:38:23Z</time>
      </trkpt>
      <trkpt lat="45.39139" lon="4.57366">
        <ele>1160</ele>
        <time>2015-05-10T05:38:26Z</time>
      </trkpt>
      <trkpt lat="45.39135" lon="4.57368">
        <ele>1160</ele>
        <time>2015-05-10T05:38:28Z</time>
      </trkpt>
      <trkpt lat="45.39128" lon="4.57372">
        <ele>1160</ele>
        <time>2015-05-10T05:38:31Z</time>
      </trkpt>
      <trkpt lat="45.39121" lon="4.57376">
        <ele>1160</ele>
        <time>2015-05-10T05:38:34Z</time>
      </trkpt>
      <trkpt lat="45.39117" lon="4.57378">
        <ele>1160</ele>
        <time>2015-05-10T05:38:36Z</time>
      </trkpt>
      <trkpt lat="45.39111" lon="4.57381">
        <ele>1161</ele>
        <time>2015-05-10T05:38:39Z</time>
      </trkpt>
      <trkpt lat="45.39105" lon="4.57385">
        <ele>1160</ele>
        <time>2015-05-10T05:38:42Z</time>
      </trkpt>
      <trkpt lat="45.39101" lon="4.57387">
        <ele>1160</ele>
        <time>2015-05-10T05:38:44Z</time>
      </trkpt>
      <trkpt lat="45.39097" lon="4.5739">
        <ele>1160</ele>
        <time>2015-05-10T05:38:46Z</time>
      </trkpt>
      <trkpt lat="45.39091" lon="4.57393">
        <ele>1160</ele>
        <time>2015-05-10T05:38:49Z</time>
      </trkpt>
      <trkpt lat="45.39084" lon="4.57397">
        <ele>1161</ele>
        <time>2015-05-10T05:38:52Z</time>
      </trkpt>
      <trkpt lat="45.39079" lon="4.57399">
        <ele>1161</ele>
        <time>2015-05-10T05:38:54Z</time>
      </trkpt>
      <trkpt lat="45.39071" lon="4.57403">
        <ele>1161</ele>
        <time>2015-05-10T05:38:57Z</time>
      </trkpt>
      <trkpt lat="45.39066" lon="4.57406">
        <ele>1162</ele>
        <time>2015-05-10T05:38:59Z</time>
      </trkpt>
      <trkpt lat="45.39061" lon="4.57408">
        <ele>1162</ele>
        <time>2015-05-10T05:39:01Z</time>
      </trkpt>
      <trkpt lat="45.39054" lon="4.5741">
        <ele>1161</ele>
        <time>2015-05-10T05:39:04Z</time>
      </trkpt>
      <trkpt lat="45.39049" lon="4.57411">
        <ele>1161</ele>
        <time>2015-05-10T05:39:06Z</time>
      </trkpt>
      <trkpt lat="45.39043" lon="4.57412">
        <ele>1161</ele>
        <time>2015-05-10T05:39:08Z</time>
      </trkpt>
      <trkpt lat="45.39038" lon="4.57412">
        <ele>1160</ele>
        <time>2015-05-10T05:39:10Z</time>
      </trkpt>
      <trkpt lat="45.39034" lon="4.57413">
        <ele>1160</ele>
        <time>2015-05-10T05:39:12Z</time>
      </trkpt>
      <trkpt lat="45.39026" lon="4.57414">
        <ele>1160</ele>
        <time>2015-05-10T05:39:15Z</time>
      </trkpt>
      <trkpt lat="45.39021" lon="4.57414">
        <ele>1159</ele>
        <time>2015-05-10T05:39:17Z</time>
      </trkpt>
      <trkpt lat="45.39016" lon="4.57414">
        <ele>1159</ele>
        <time>2015-05-10T05:39:19Z</time>
      </trkpt>
      <trkpt lat="45.39011" lon="4.57414">
        <ele>1160</ele>
        <time>2015-05-10T05:39:21Z</time>
      </trkpt>
      <trkpt lat="45.39004" lon="4.57415">
        <ele>1159</ele>
        <time>2015-05-10T05:39:24Z</time>
      </trkpt>
      <trkpt lat="45.38998" lon="4.57414">
        <ele>1159</ele>
        <time>2015-05-10T05:39:27Z</time>
      </trkpt>
      <trkpt lat="45.38991" lon="4.57414">
        <ele>1160</ele>
        <time>2015-05-10T05:39:30Z</time>
      </trkpt>
      <trkpt lat="45.38984" lon="4.57413">
        <ele>1160</ele>
        <time>2015-05-10T05:39:33Z</time>
      </trkpt>
      <trkpt lat="45.3898" lon="4.57412">
        <ele>1161</ele>
        <time>2015-05-10T05:39:35Z</time>
      </trkpt>
      <trkpt lat="45.38975" lon="4.57412">
        <ele>1161</ele>
        <time>2015-05-10T05:39:37Z</time>
      </trkpt>
      <trkpt lat="45.38968" lon="4.57413">
        <ele>1161</ele>
        <time>2015-05-10T05:39:40Z</time>
      </trkpt>
      <trkpt lat="45.3896" lon="4.57413">
        <ele>1161</ele>
        <time>2015-05-10T05:39:43Z</time>
      </trkpt>
      <trkpt lat="45.38955" lon="4.57413">
        <ele>1161</ele>
        <time>2015-05-10T05:39:45Z</time>
      </trkpt>
      <trkpt lat="45.38951" lon="4.57415">
        <ele>1161</ele>
        <time>2015-05-10T05:39:47Z</time>
      </trkpt>
      <trkpt lat="45.38947" lon="4.57417">
        <ele>1162</ele>
        <time>2015-05-10T05:39:49Z</time>
      </trkpt>
      <trkpt lat="45.38942" lon="4.57417">
        <ele>1162</ele>
        <time>2015-05-10T05:39:52Z</time>
      </trkpt>
      <trkpt lat="45.3894" lon="4.57418">
        <ele>1163</ele>
        <time>2015-05-10T05:39:54Z</time>
      </trkpt>
      <trkpt lat="45.38935" lon="4.57421">
        <ele>1164</ele>
        <time>2015-05-10T05:39:57Z</time>
      </trkpt>
      <trkpt lat="45.38929" lon="4.57424">
        <ele>1164</ele>
        <time>2015-05-10T05:40:00Z</time>
      </trkpt>
      <trkpt lat="45.38926" lon="4.57425">
        <ele>1164</ele>
        <time>2015-05-10T05:40:02Z</time>
      </trkpt>
      <trkpt lat="45.3892" lon="4.57427">
        <ele>1165</ele>
        <time>2015-05-10T05:40:05Z</time>
      </trkpt>
      <trkpt lat="45.38916" lon="4.57428">
        <ele>1165</ele>
        <time>2015-05-10T05:40:07Z</time>
      </trkpt>
      <trkpt lat="45.38911" lon="4.5743">
        <ele>1167</ele>
        <time>2015-05-10T05:40:10Z</time>
      </trkpt>
      <trkpt lat="45.38907" lon="4.57432">
        <ele>1167</ele>
        <time>2015-05-10T05:40:12Z</time>
      </trkpt>
      <trkpt lat="45.38904" lon="4.57433">
        <ele>1167</ele>
        <time>2015-05-10T05:40:14Z</time>
      </trkpt>
      <trkpt lat="45.38898" lon="4.57436">
        <ele>1167</ele>
        <time>2015-05-10T05:40:17Z</time>
      </trkpt>
      <trkpt lat="45.38893" lon="4.57438">
        <ele>1168</ele>
        <time>2015-05-10T05:40:20Z</time>
      </trkpt>
      <trkpt lat="45.38887" lon="4.5744">
        <ele>1169</ele>
        <time>2015-05-10T05:40:23Z</time>
      </trkpt>
      <trkpt lat="45.38882" lon="4.57443">
        <ele>1169</ele>
        <time>2015-05-10T05:40:26Z</time>
      </trkpt>
      <trkpt lat="45.38879" lon="4.57445">
        <ele>1169</ele>
        <time>2015-05-10T05:40:28Z</time>
      </trkpt>
      <trkpt lat="45.38875" lon="4.57447">
        <ele>1170</ele>
        <time>2015-05-10T05:40:30Z</time>
      </trkpt>
      <trkpt lat="45.38869" lon="4.57449">
        <ele>1171</ele>
        <time>2015-05-10T05:40:33Z</time>
      </trkpt>
      <trkpt lat="45.38864" lon="4.57451">
        <ele>1172</ele>
        <time>2015-05-10T05:40:36Z</time>
      </trkpt>
      <trkpt lat="45.3886" lon="4.57453">
        <ele>1172</ele>
        <time>2015-05-10T05:40:38Z</time>
      </trkpt>
      <trkpt lat="45.38855" lon="4.57456">
        <ele>1173</ele>
        <time>2015-05-10T05:40:41Z</time>
      </trkpt>
      <trkpt lat="45.38849" lon="4.57458">
        <ele>1173</ele>
        <time>2015-05-10T05:40:44Z</time>
      </trkpt>
      <trkpt lat="45.38844" lon="4.5746">
        <ele>1174</ele>
        <time>2015-05-10T05:40:47Z</time>
      </trkpt>
      <trkpt lat="45.3884" lon="4.57462">
        <ele>1175</ele>
        <time>2015-05-10T05:40:49Z</time>
      </trkpt>
      <trkpt lat="45.38835" lon="4.57464">
        <ele>1176</ele>
        <time>2015-05-10T05:40:52Z</time>
      </trkpt>
      <trkpt lat="45.38829" lon="4.57466">
        <ele>1176</ele>
        <time>2015-05-10T05:40:55Z</time>
      </trkpt>
      <trkpt lat="45.38824" lon="4.57467">
        <ele>1176</ele>
        <time>2015-05-10T05:40:57Z</time>
      </trkpt>
      <trkpt lat="45.38817" lon="4.57469">
        <ele>1176</ele>
        <time>2015-05-10T05:41:00Z</time>
      </trkpt>
      <trkpt lat="45.38812" lon="4.57471">
        <ele>1178</ele>
        <time>2015-05-10T05:41:03Z</time>
      </trkpt>
      <trkpt lat="45.38806" lon="4.57474">
        <ele>1178</ele>
        <time>2015-05-10T05:41:06Z</time>
      </trkpt>
      <trkpt lat="45.38801" lon="4.57475">
        <ele>1178</ele>
        <time>2015-05-10T05:41:08Z</time>
      </trkpt>
      <trkpt lat="45.38796" lon="4.57475">
        <ele>1179</ele>
        <time>2015-05-10T05:41:10Z</time>
      </trkpt>
      <trkpt lat="45.3879" lon="4.57475">
        <ele>1179</ele>
        <time>2015-05-10T05:41:13Z</time>
      </trkpt>
      <trkpt lat="45.38785" lon="4.57476">
        <ele>1180</ele>
        <time>2015-05-10T05:41:16Z</time>
      </trkpt>
      <trkpt lat="45.3878" lon="4.57477">
        <ele>1181</ele>
        <time>2015-05-10T05:41:19Z</time>
      </trkpt>
      <trkpt lat="45.38776" lon="4.57478">
        <ele>1182</ele>
        <time>2015-05-10T05:41:21Z</time>
      </trkpt>
      <trkpt lat="45.38774" lon="4.57478">
        <ele>1182</ele>
        <time>2015-05-10T05:41:23Z</time>
      </trkpt>
      <trkpt lat="45.3877" lon="4.57478">
        <ele>1183</ele>
        <time>2015-05-10T05:41:26Z</time>
      </trkpt>
      <trkpt lat="45.38766" lon="4.57479">
        <ele>1184</ele>
        <time>2015-05-10T05:41:29Z</time>
      </trkpt>
      <trkpt lat="45.38763" lon="4.5748">
        <ele>1184</ele>
        <time>2015-05-10T05:41:31Z</time>
      </trkpt>
      <trkpt lat="45.38759" lon="4.5748">
        <ele>1185</ele>
        <time>2015-05-10T05:41:34Z</time>
      </trkpt>
      <trkpt lat="45.38757" lon="4.57481">
        <ele>1185</ele>
        <time>2015-05-10T05:41:36Z</time>
      </trkpt>
      <trkpt lat="45.38753" lon="4.57482">
        <ele>1185</ele>
        <time>2015-05-10T05:41:39Z</time>
      </trkpt>
      <trkpt lat="45.38751" lon="4.57483">
        <ele>1186</ele>
        <time>2015-05-10T05:41:41Z</time>
      </trkpt>
      <trkpt lat="45.38747" lon="4.57484">
        <ele>1187</ele>
        <time>2015-05-10T05:41:44Z</time>
      </trkpt>
      <trkpt lat="45.38744" lon="4.57486">
        <ele>1188</ele>
        <time>2015-05-10T05:41:47Z</time>
      </trkpt>
      <trkpt lat="45.38742" lon="4.57487">
        <ele>1188</ele>
        <time>2015-05-10T05:41:49Z</time>
      </trkpt>
      <trkpt lat="45.38739" lon="4.57489">
        <ele>1188</ele>
        <time>2015-05-10T05:41:52Z</time>
      </trkpt>
      <trkpt lat="45.38736" lon="4.5749">
        <ele>1189</ele>
        <time>2015-05-10T05:41:54Z</time>
      </trkpt>
      <trkpt lat="45.38733" lon="4.57492">
        <ele>1189</ele>
        <time>2015-05-10T05:41:57Z</time>
      </trkpt>
      <trkpt lat="45.38729" lon="4.57494">
        <ele>1190</ele>
        <time>2015-05-10T05:42:00Z</time>
      </trkpt>
      <trkpt lat="45.38726" lon="4.57495">
        <ele>1190</ele>
        <time>2015-05-10T05:42:03Z</time>
      </trkpt>
      <trkpt lat="45.38723" lon="4.57496">
        <ele>1190</ele>
        <time>2015-05-10T05:42:05Z</time>
      </trkpt>
      <trkpt lat="45.38721" lon="4.57495">
        <ele>1191</ele>
        <time>2015-05-10T05:42:07Z</time>
      </trkpt>
      <trkpt lat="45.38718" lon="4.57496">
        <ele>1192</ele>
        <time>2015-05-10T05:42:10Z</time>
      </trkpt>
      <trkpt lat="45.38714" lon="4.57497">
        <ele>1193</ele>
        <time>2015-05-10T05:42:13Z</time>
      </trkpt>
      <trkpt lat="45.38711" lon="4.57498">
        <ele>1193</ele>
        <time>2015-05-10T05:42:16Z</time>
      </trkpt>
      <trkpt lat="45.38708" lon="4.575">
        <ele>1194</ele>
        <time>2015-05-10T05:42:19Z</time>
      </trkpt>
      <trkpt lat="45.38706" lon="4.57501">
        <ele>1194</ele>
        <time>2015-05-10T05:42:21Z</time>
      </trkpt>
      <trkpt lat="45.38705" lon="4.57502">
        <ele>1195</ele>
        <time>2015-05-10T05:42:23Z</time>
      </trkpt>
      <trkpt lat="45.38702" lon="4.57505">
        <ele>1195</ele>
        <time>2015-05-10T05:42:26Z</time>
      </trkpt>
      <trkpt lat="45.387" lon="4.57506">
        <ele>1195</ele>
        <time>2015-05-10T05:42:28Z</time>
      </trkpt>
      <trkpt lat="45.38697" lon="4.57508">
        <ele>1196</ele>
        <time>2015-05-10T05:42:31Z</time>
      </trkpt>
      <trkpt lat="45.38695" lon="4.57509">
        <ele>1197</ele>
        <time>2015-05-10T05:42:33Z</time>
      </trkpt>
      <trkpt lat="45.38693" lon="4.5751">
        <ele>1197</ele>
        <time>2015-05-10T05:42:35Z</time>
      </trkpt>
      <trkpt lat="45.38689" lon="4.57513">
        <ele>1198</ele>
        <time>2015-05-10T05:42:38Z</time>
      </trkpt>
      <trkpt lat="45.38687" lon="4.57515">
        <ele>1198</ele>
        <time>2015-05-10T05:42:41Z</time>
      </trkpt>
      <trkpt lat="45.38684" lon="4.57517">
        <ele>1199</ele>
        <time>2015-05-10T05:42:44Z</time>
      </trkpt>
      <trkpt lat="45.38681" lon="4.57519">
        <ele>1200</ele>
        <time>2015-05-10T05:42:47Z</time>
      </trkpt>
      <trkpt lat="45.38678" lon="4.5752">
        <ele>1201</ele>
        <time>2015-05-10T05:42:50Z</time>
      </trkpt>
      <trkpt lat="45.38675" lon="4.57522">
        <ele>1201</ele>
        <time>2015-05-10T05:42:53Z</time>
      </trkpt>
      <trkpt lat="45.38673" lon="4.57523">
        <ele>1201</ele>
        <time>2015-05-10T05:42:55Z</time>
      </trkpt>
      <trkpt lat="45.38671" lon="4.57526">
        <ele>1202</ele>
        <time>2015-05-10T05:42:58Z</time>
      </trkpt>
      <trkpt lat="45.38668" lon="4.57528">
        <ele>1202</ele>
        <time>2015-05-10T05:43:01Z</time>
      </trkpt>
      <trkpt lat="45.38666" lon="4.57528">
        <ele>1203</ele>
        <time>2015-05-10T05:43:03Z</time>
      </trkpt>
      <trkpt lat="45.38663" lon="4.57529">
        <ele>1203</ele>
        <time>2015-05-10T05:43:06Z</time>
      </trkpt>
      <trkpt lat="45.38661" lon="4.57532">
        <ele>1204</ele>
        <time>2015-05-10T05:43:09Z</time>
      </trkpt>
      <trkpt lat="45.38659" lon="4.57535">
        <ele>1204</ele>
        <time>2015-05-10T05:43:12Z</time>
      </trkpt>
      <trkpt lat="45.38658" lon="4.57537">
        <ele>1205</ele>
        <time>2015-05-10T05:43:14Z</time>
      </trkpt>
      <trkpt lat="45.38655" lon="4.5754">
        <ele>1206</ele>
        <time>2015-05-10T05:43:17Z</time>
      </trkpt>
      <trkpt lat="45.38652" lon="4.57543">
        <ele>1207</ele>
        <time>2015-05-10T05:43:20Z</time>
      </trkpt>
      <trkpt lat="45.38649" lon="4.57547">
        <ele>1208</ele>
        <time>2015-05-10T05:43:23Z</time>
      </trkpt>
      <trkpt lat="45.38646" lon="4.5755">
        <ele>1209</ele>
        <time>2015-05-10T05:43:26Z</time>
      </trkpt>
      <trkpt lat="45.38643" lon="4.57553">
        <ele>1209</ele>
        <time>2015-05-10T05:43:29Z</time>
      </trkpt>
      <trkpt lat="45.3864" lon="4.57556">
        <ele>1209</ele>
        <time>2015-05-10T05:43:31Z</time>
      </trkpt>
      <trkpt lat="45.38637" lon="4.57559">
        <ele>1208</ele>
        <time>2015-05-10T05:43:34Z</time>
      </trkpt>
      <trkpt lat="45.38634" lon="4.5756">
        <ele>1209</ele>
        <time>2015-05-10T05:43:36Z</time>
      </trkpt>
      <trkpt lat="45.3863" lon="4.57563">
        <ele>1209</ele>
        <time>2015-05-10T05:43:39Z</time>
      </trkpt>
      <trkpt lat="45.38626" lon="4.57563">
        <ele>1210</ele>
        <time>2015-05-10T05:43:42Z</time>
      </trkpt>
      <trkpt lat="45.38623" lon="4.57563">
        <ele>1211</ele>
        <time>2015-05-10T05:43:45Z</time>
      </trkpt>
      <trkpt lat="45.3862" lon="4.57565">
        <ele>1212</ele>
        <time>2015-05-10T05:43:48Z</time>
      </trkpt>
      <trkpt lat="45.38616" lon="4.57567">
        <ele>1213</ele>
        <time>2015-05-10T05:43:51Z</time>
      </trkpt>
      <trkpt lat="45.38612" lon="4.57569">
        <ele>1214</ele>
        <time>2015-05-10T05:43:54Z</time>
      </trkpt>
      <trkpt lat="45.38608" lon="4.57571">
        <ele>1215</ele>
        <time>2015-05-10T05:43:57Z</time>
      </trkpt>
      <trkpt lat="45.38606" lon="4.57572">
        <ele>1215</ele>
        <time>2015-05-10T05:43:59Z</time>
      </trkpt>
      <trkpt lat="45.38604" lon="4.57572">
        <ele>1215</ele>
        <time>2015-05-10T05:44:01Z</time>
      </trkpt>
      <trkpt lat="45.38601" lon="4.57572">
        <ele>1216</ele>
        <time>2015-05-10T05:44:03Z</time>
      </trkpt>
      <trkpt lat="45.38597" lon="4.57572">
        <ele>1216</ele>
        <time>2015-05-10T05:44:06Z</time>
      </trkpt>
      <trkpt lat="45.38593" lon="4.57571">
        <ele>1217</ele>
        <time>2015-05-10T05:44:09Z</time>
      </trkpt>
      <trkpt lat="45.38588" lon="4.57571">
        <ele>1217</ele>
        <time>2015-05-10T05:44:12Z</time>
      </trkpt>
      <trkpt lat="45.38585" lon="4.57573">
        <ele>1218</ele>
        <time>2015-05-10T05:44:15Z</time>
      </trkpt>
      <trkpt lat="45.38581" lon="4.57574">
        <ele>1218</ele>
        <time>2015-05-10T05:44:18Z</time>
      </trkpt>
      <trkpt lat="45.38578" lon="4.57574">
        <ele>1219</ele>
        <time>2015-05-10T05:44:20Z</time>
      </trkpt>
      <trkpt lat="45.38575" lon="4.57576">
        <ele>1219</ele>
        <time>2015-05-10T05:44:23Z</time>
      </trkpt>
      <trkpt lat="45.38571" lon="4.57577">
        <ele>1220</ele>
        <time>2015-05-10T05:44:26Z</time>
      </trkpt>
      <trkpt lat="45.38569" lon="4.57578">
        <ele>1220</ele>
        <time>2015-05-10T05:44:28Z</time>
      </trkpt>
      <trkpt lat="45.38565" lon="4.5758">
        <ele>1221</ele>
        <time>2015-05-10T05:44:31Z</time>
      </trkpt>
      <trkpt lat="45.38562" lon="4.57582">
        <ele>1222</ele>
        <time>2015-05-10T05:44:34Z</time>
      </trkpt>
      <trkpt lat="45.38559" lon="4.57583">
        <ele>1222</ele>
        <time>2015-05-10T05:44:37Z</time>
      </trkpt>
      <trkpt lat="45.38555" lon="4.57584">
        <ele>1223</ele>
        <time>2015-05-10T05:44:40Z</time>
      </trkpt>
      <trkpt lat="45.38552" lon="4.57586">
        <ele>1223</ele>
        <time>2015-05-10T05:44:43Z</time>
      </trkpt>
      <trkpt lat="45.3855" lon="4.57587">
        <ele>1224</ele>
        <time>2015-05-10T05:44:45Z</time>
      </trkpt>
      <trkpt lat="45.38547" lon="4.57588">
        <ele>1224</ele>
        <time>2015-05-10T05:44:47Z</time>
      </trkpt>
      <trkpt lat="45.38543" lon="4.5759">
        <ele>1225</ele>
        <time>2015-05-10T05:44:50Z</time>
      </trkpt>
      <trkpt lat="45.38541" lon="4.57592">
        <ele>1225</ele>
        <time>2015-05-10T05:44:52Z</time>
      </trkpt>
      <trkpt lat="45.38538" lon="4.57593">
        <ele>1225</ele>
        <time>2015-05-10T05:44:55Z</time>
      </trkpt>
      <trkpt lat="45.38533" lon="4.57595">
        <ele>1226</ele>
        <time>2015-05-10T05:44:58Z</time>
      </trkpt>
      <trkpt lat="45.38531" lon="4.57596">
        <ele>1226</ele>
        <time>2015-05-10T05:45:00Z</time>
      </trkpt>
      <trkpt lat="45.38528" lon="4.57597">
        <ele>1227</ele>
        <time>2015-05-10T05:45:02Z</time>
      </trkpt>
      <trkpt lat="45.38524" lon="4.57598">
        <ele>1227</ele>
        <time>2015-05-10T05:45:05Z</time>
      </trkpt>
      <trkpt lat="45.38521" lon="4.57599">
        <ele>1228</ele>
        <time>2015-05-10T05:45:08Z</time>
      </trkpt>
      <trkpt lat="45.38517" lon="4.57599">
        <ele>1229</ele>
        <time>2015-05-10T05:45:11Z</time>
      </trkpt>
      <trkpt lat="45.38513" lon="4.57599">
        <ele>1229</ele>
        <time>2015-05-10T05:45:14Z</time>
      </trkpt>
      <trkpt lat="45.3851" lon="4.57601">
        <ele>1229</ele>
        <time>2015-05-10T05:45:16Z</time>
      </trkpt>
      <trkpt lat="45.38507" lon="4.57601">
        <ele>1230</ele>
        <time>2015-05-10T05:45:18Z</time>
      </trkpt>
      <trkpt lat="45.38504" lon="4.57602">
        <ele>1230</ele>
        <time>2015-05-10T05:45:21Z</time>
      </trkpt>
      <trkpt lat="45.385" lon="4.57602">
        <ele>1231</ele>
        <time>2015-05-10T05:45:24Z</time>
      </trkpt>
      <trkpt lat="45.38496" lon="4.57602">
        <ele>1231</ele>
        <time>2015-05-10T05:45:27Z</time>
      </trkpt>
      <trkpt lat="45.38493" lon="4.57602">
        <ele>1232</ele>
        <time>2015-05-10T05:45:29Z</time>
      </trkpt>
      <trkpt lat="45.38491" lon="4.57602">
        <ele>1233</ele>
        <time>2015-05-10T05:45:31Z</time>
      </trkpt>
      <trkpt lat="45.38488" lon="4.57602">
        <ele>1233</ele>
        <time>2015-05-10T05:45:34Z</time>
      </trkpt>
      <trkpt lat="45.38484" lon="4.57602">
        <ele>1234</ele>
        <time>2015-05-10T05:45:37Z</time>
      </trkpt>
      <trkpt lat="45.38482" lon="4.57603">
        <ele>1234</ele>
        <time>2015-05-10T05:45:39Z</time>
      </trkpt>
      <trkpt lat="45.38479" lon="4.57603">
        <ele>1234</ele>
        <time>2015-05-10T05:45:41Z</time>
      </trkpt>
      <trkpt lat="45.38475" lon="4.57603">
        <ele>1234</ele>
        <time>2015-05-10T05:45:44Z</time>
      </trkpt>
      <trkpt lat="45.38473" lon="4.57604">
        <ele>1235</ele>
        <time>2015-05-10T05:45:46Z</time>
      </trkpt>
      <trkpt lat="45.38471" lon="4.57604">
        <ele>1236</ele>
        <time>2015-05-10T05:45:48Z</time>
      </trkpt>
      <trkpt lat="45.38467" lon="4.57605">
        <ele>1236</ele>
        <time>2015-05-10T05:45:51Z</time>
      </trkpt>
      <trkpt lat="45.38465" lon="4.57605">
        <ele>1237</ele>
        <time>2015-05-10T05:45:53Z</time>
      </trkpt>
      <trkpt lat="45.38461" lon="4.57605">
        <ele>1237</ele>
        <time>2015-05-10T05:45:56Z</time>
      </trkpt>
      <trkpt lat="45.38458" lon="4.57605">
        <ele>1238</ele>
        <time>2015-05-10T05:45:59Z</time>
      </trkpt>
      <trkpt lat="45.38455" lon="4.57605">
        <ele>1238</ele>
        <time>2015-05-10T05:46:01Z</time>
      </trkpt>
      <trkpt lat="45.38453" lon="4.57605">
        <ele>1239</ele>
        <time>2015-05-10T05:46:03Z</time>
      </trkpt>
      <trkpt lat="45.38449" lon="4.57606">
        <ele>1239</ele>
        <time>2015-05-10T05:46:06Z</time>
      </trkpt>
      <trkpt lat="45.38443" lon="4.57606">
        <ele>1240</ele>
        <time>2015-05-10T05:46:09Z</time>
      </trkpt>
      <trkpt lat="45.38438" lon="4.57607">
        <ele>1240</ele>
        <time>2015-05-10T05:46:11Z</time>
      </trkpt>
      <trkpt lat="45.38432" lon="4.57608">
        <ele>1241</ele>
        <time>2015-05-10T05:46:14Z</time>
      </trkpt>
      <trkpt lat="45.38429" lon="4.57609">
        <ele>1241</ele>
        <time>2015-05-10T05:46:16Z</time>
      </trkpt>
      <trkpt lat="45.38424" lon="4.5761">
        <ele>1242</ele>
        <time>2015-05-10T05:46:19Z</time>
      </trkpt>
      <trkpt lat="45.3842" lon="4.57611">
        <ele>1243</ele>
        <time>2015-05-10T05:46:21Z</time>
      </trkpt>
      <trkpt lat="45.38414" lon="4.57611">
        <ele>1243</ele>
        <time>2015-05-10T05:46:24Z</time>
      </trkpt>
      <trkpt lat="45.38408" lon="4.57612">
        <ele>1244</ele>
        <time>2015-05-10T05:46:27Z</time>
      </trkpt>
      <trkpt lat="45.38405" lon="4.57613">
        <ele>1244</ele>
        <time>2015-05-10T05:46:29Z</time>
      </trkpt>
      <trkpt lat="45.38399" lon="4.57614">
        <ele>1245</ele>
        <time>2015-05-10T05:46:32Z</time>
      </trkpt>
      <trkpt lat="45.38396" lon="4.57615">
        <ele>1245</ele>
        <time>2015-05-10T05:46:34Z</time>
      </trkpt>
      <trkpt lat="45.3839" lon="4.57616">
        <ele>1246</ele>
        <time>2015-05-10T05:46:37Z</time>
      </trkpt>
      <trkpt lat="45.38387" lon="4.57618">
        <ele>1247</ele>
        <time>2015-05-10T05:46:39Z</time>
      </trkpt>
      <trkpt lat="45.38382" lon="4.57619">
        <ele>1248</ele>
        <time>2015-05-10T05:46:42Z</time>
      </trkpt>
      <trkpt lat="45.38378" lon="4.5762">
        <ele>1249</ele>
        <time>2015-05-10T05:46:44Z</time>
      </trkpt>
      <trkpt lat="45.38372" lon="4.57621">
        <ele>1249</ele>
        <time>2015-05-10T05:46:47Z</time>
      </trkpt>
      <trkpt lat="45.38365" lon="4.57622">
        <ele>1250</ele>
        <time>2015-05-10T05:46:50Z</time>
      </trkpt>
      <trkpt lat="45.38358" lon="4.57624">
        <ele>1250</ele>
        <time>2015-05-10T05:46:53Z</time>
      </trkpt>
      <trkpt lat="45.38352" lon="4.57625">
        <ele>1250</ele>
        <time>2015-05-10T05:46:56Z</time>
      </trkpt>
      <trkpt lat="45.38345" lon="4.57627">
        <ele>1250</ele>
        <time>2015-05-10T05:46:59Z</time>
      </trkpt>
      <trkpt lat="45.38339" lon="4.57627">
        <ele>1250</ele>
        <time>2015-05-10T05:47:02Z</time>
      </trkpt>
      <trkpt lat="45.38334" lon="4.57629">
        <ele>1251</ele>
        <time>2015-05-10T05:47:04Z</time>
      </trkpt>
      <trkpt lat="45.3833" lon="4.57629">
        <ele>1251</ele>
        <time>2015-05-10T05:47:06Z</time>
      </trkpt>
      <trkpt lat="45.38326" lon="4.5763">
        <ele>1252</ele>
        <time>2015-05-10T05:47:08Z</time>
      </trkpt>
      <trkpt lat="45.38319" lon="4.57631">
        <ele>1253</ele>
        <time>2015-05-10T05:47:11Z</time>
      </trkpt>
      <trkpt lat="45.38315" lon="4.57631">
        <ele>1253</ele>
        <time>2015-05-10T05:47:13Z</time>
      </trkpt>
      <trkpt lat="45.38311" lon="4.57632">
        <ele>1253</ele>
        <time>2015-05-10T05:47:15Z</time>
      </trkpt>
      <trkpt lat="45.38308" lon="4.57632">
        <ele>1254</ele>
        <time>2015-05-10T05:47:17Z</time>
      </trkpt>
      <trkpt lat="45.38303" lon="4.57633">
        <ele>1254</ele>
        <time>2015-05-10T05:47:19Z</time>
      </trkpt>
      <trkpt lat="45.38295" lon="4.57636">
        <ele>1253</ele>
        <time>2015-05-10T05:47:22Z</time>
      </trkpt>
      <trkpt lat="45.38289" lon="4.57634">
        <ele>1252</ele>
        <time>2015-05-10T05:47:25Z</time>
      </trkpt>
      <trkpt lat="45.38286" lon="4.57625">
        <ele>1252</ele>
        <time>2015-05-10T05:47:28Z</time>
      </trkpt>
      <trkpt lat="45.38284" lon="4.57615">
        <ele>1253</ele>
        <time>2015-05-10T05:47:31Z</time>
      </trkpt>
      <trkpt lat="45.38281" lon="4.57606">
        <ele>1254</ele>
        <time>2015-05-10T05:47:34Z</time>
      </trkpt>
      <trkpt lat="45.38279" lon="4.57597">
        <ele>1254</ele>
        <time>2015-05-10T05:47:37Z</time>
      </trkpt>
      <trkpt lat="45.38276" lon="4.57588">
        <ele>1254</ele>
        <time>2015-05-10T05:47:40Z</time>
      </trkpt>
      <trkpt lat="45.38273" lon="4.57579">
        <ele>1254</ele>
        <time>2015-05-10T05:47:43Z</time>
      </trkpt>
      <trkpt lat="45.38272" lon="4.57573">
        <ele>1253</ele>
        <time>2015-05-10T05:47:45Z</time>
      </trkpt>
      <trkpt lat="45.38271" lon="4.57566">
        <ele>1253</ele>
        <time>2015-05-10T05:47:47Z</time>
      </trkpt>
      <trkpt lat="45.3827" lon="4.5756">
        <ele>1254</ele>
        <time>2015-05-10T05:47:49Z</time>
      </trkpt>
      <trkpt lat="45.38269" lon="4.57551">
        <ele>1255</ele>
        <time>2015-05-10T05:47:52Z</time>
      </trkpt>
      <trkpt lat="45.38267" lon="4.57545">
        <ele>1257</ele>
        <time>2015-05-10T05:47:54Z</time>
      </trkpt>
      <trkpt lat="45.38265" lon="4.57536">
        <ele>1257</ele>
        <time>2015-05-10T05:47:57Z</time>
      </trkpt>
      <trkpt lat="45.38263" lon="4.57527">
        <ele>1257</ele>
        <time>2015-05-10T05:48:00Z</time>
      </trkpt>
      <trkpt lat="45.38263" lon="4.5752">
        <ele>1257</ele>
        <time>2015-05-10T05:48:02Z</time>
      </trkpt>
      <trkpt lat="45.38261" lon="4.57511">
        <ele>1258</ele>
        <time>2015-05-10T05:48:05Z</time>
      </trkpt>
      <trkpt lat="45.3826" lon="4.57506">
        <ele>1258</ele>
        <time>2015-05-10T05:48:07Z</time>
      </trkpt>
      <trkpt lat="45.3826" lon="4.575">
        <ele>1258</ele>
        <time>2015-05-10T05:48:09Z</time>
      </trkpt>
      <trkpt lat="45.38259" lon="4.57491">
        <ele>1260</ele>
        <time>2015-05-10T05:48:12Z</time>
      </trkpt>
      <trkpt lat="45.38258" lon="4.57482">
        <ele>1260</ele>
        <time>2015-05-10T05:48:15Z</time>
      </trkpt>
      <trkpt lat="45.38257" lon="4.57473">
        <ele>1261</ele>
        <time>2015-05-10T05:48:18Z</time>
      </trkpt>
      <trkpt lat="45.38256" lon="4.57464">
        <ele>1261</ele>
        <time>2015-05-10T05:48:21Z</time>
      </trkpt>
      <trkpt lat="45.38255" lon="4.57454">
        <ele>1261</ele>
        <time>2015-05-10T05:48:24Z</time>
      </trkpt>
      <trkpt lat="45.38255" lon="4.57448">
        <ele>1262</ele>
        <time>2015-05-10T05:48:26Z</time>
      </trkpt>
      <trkpt lat="45.38255" lon="4.57442">
        <ele>1262</ele>
        <time>2015-05-10T05:48:28Z</time>
      </trkpt>
      <trkpt lat="45.38255" lon="4.57435">
        <ele>1262</ele>
        <time>2015-05-10T05:48:30Z</time>
      </trkpt>
      <trkpt lat="45.38254" lon="4.57425">
        <ele>1262</ele>
        <time>2015-05-10T05:48:33Z</time>
      </trkpt>
      <trkpt lat="45.38255" lon="4.57419">
        <ele>1262</ele>
        <time>2015-05-10T05:48:35Z</time>
      </trkpt>
      <trkpt lat="45.38255" lon="4.57413">
        <ele>1263</ele>
        <time>2015-05-10T05:48:37Z</time>
      </trkpt>
      <trkpt lat="45.38257" lon="4.57407">
        <ele>1263</ele>
        <time>2015-05-10T05:48:39Z</time>
      </trkpt>
      <trkpt lat="45.38259" lon="4.57399">
        <ele>1264</ele>
        <time>2015-05-10T05:48:42Z</time>
      </trkpt>
      <trkpt lat="45.3826" lon="4.57391">
        <ele>1264</ele>
        <time>2015-05-10T05:48:45Z</time>
      </trkpt>
      <trkpt lat="45.38261" lon="4.57386">
        <ele>1265</ele>
        <time>2015-05-10T05:48:47Z</time>
      </trkpt>
      <trkpt lat="45.38261" lon="4.57381">
        <ele>1265</ele>
        <time>2015-05-10T05:48:49Z</time>
      </trkpt>
      <trkpt lat="45.3826" lon="4.57376">
        <ele>1266</ele>
        <time>2015-05-10T05:48:52Z</time>
      </trkpt>
      <trkpt lat="45.38258" lon="4.57373">
        <ele>1267</ele>
        <time>2015-05-10T05:48:54Z</time>
      </trkpt>
      <trkpt lat="45.38257" lon="4.57371">
        <ele>1267</ele>
        <time>2015-05-10T05:48:56Z</time>
      </trkpt>
      <trkpt lat="45.38254" lon="4.57369">
        <ele>1268</ele>
        <time>2015-05-10T05:48:59Z</time>
      </trkpt>
      <trkpt lat="45.38252" lon="4.57366">
        <ele>1268</ele>
        <time>2015-05-10T05:49:01Z</time>
      </trkpt>
      <trkpt lat="45.3825" lon="4.57363">
        <ele>1269</ele>
        <time>2015-05-10T05:49:04Z</time>
      </trkpt>
      <trkpt lat="45.38248" lon="4.5736">
        <ele>1269</ele>
        <time>2015-05-10T05:49:07Z</time>
      </trkpt>
      <trkpt lat="45.38248" lon="4.57355">
        <ele>1270</ele>
        <time>2015-05-10T05:49:10Z</time>
      </trkpt>
      <trkpt lat="45.38248" lon="4.57353">
        <ele>1270</ele>
        <time>2015-05-10T05:49:12Z</time>
      </trkpt>
      <trkpt lat="45.38248" lon="4.57351">
        <ele>1271</ele>
        <time>2015-05-10T05:49:14Z</time>
      </trkpt>
      <trkpt lat="45.38249" lon="4.57349">
        <ele>1271</ele>
        <time>2015-05-10T05:49:16Z</time>
      </trkpt>
      <trkpt lat="45.38249" lon="4.57346">
        <ele>1272</ele>
        <time>2015-05-10T05:49:19Z</time>
      </trkpt>
      <trkpt lat="45.3825" lon="4.57344">
        <ele>1273</ele>
        <time>2015-05-10T05:49:21Z</time>
      </trkpt>
      <trkpt lat="45.3825" lon="4.5734">
        <ele>1274</ele>
        <time>2015-05-10T05:49:24Z</time>
      </trkpt>
      <trkpt lat="45.3825" lon="4.57338">
        <ele>1274</ele>
        <time>2015-05-10T05:49:26Z</time>
      </trkpt>
      <trkpt lat="45.3825" lon="4.57335">
        <ele>1275</ele>
        <time>2015-05-10T05:49:28Z</time>
      </trkpt>
      <trkpt lat="45.38251" lon="4.5733">
        <ele>1275</ele>
        <time>2015-05-10T05:49:31Z</time>
      </trkpt>
      <trkpt lat="45.38252" lon="4.57327">
        <ele>1275</ele>
        <time>2015-05-10T05:49:34Z</time>
      </trkpt>
      <trkpt lat="45.38251" lon="4.57323">
        <ele>1276</ele>
        <time>2015-05-10T05:49:37Z</time>
      </trkpt>
      <trkpt lat="45.38251" lon="4.5732">
        <ele>1276</ele>
        <time>2015-05-10T05:49:39Z</time>
      </trkpt>
      <trkpt lat="45.38252" lon="4.57316">
        <ele>1276</ele>
        <time>2015-05-10T05:49:42Z</time>
      </trkpt>
      <trkpt lat="45.38252" lon="4.57314">
        <ele>1276</ele>
        <time>2015-05-10T05:49:44Z</time>
      </trkpt>
      <trkpt lat="45.38251" lon="4.57311">
        <ele>1277</ele>
        <time>2015-05-10T05:49:46Z</time>
      </trkpt>
      <trkpt lat="45.3825" lon="4.57307">
        <ele>1277</ele>
        <time>2015-05-10T05:49:49Z</time>
      </trkpt>
      <trkpt lat="45.3825" lon="4.57305">
        <ele>1277</ele>
        <time>2015-05-10T05:49:51Z</time>
      </trkpt>
      <trkpt lat="45.38251" lon="4.57302">
        <ele>1278</ele>
        <time>2015-05-10T05:49:54Z</time>
      </trkpt>
      <trkpt lat="45.38251" lon="4.57299">
        <ele>1279</ele>
        <time>2015-05-10T05:49:57Z</time>
      </trkpt>
      <trkpt lat="45.38252" lon="4.57297">
        <ele>1279</ele>
        <time>2015-05-10T05:49:59Z</time>
      </trkpt>
      <trkpt lat="45.38252" lon="4.57293">
        <ele>1280</ele>
        <time>2015-05-10T05:50:02Z</time>
      </trkpt>
      <trkpt lat="45.38252" lon="4.57291">
        <ele>1281</ele>
        <time>2015-05-10T05:50:04Z</time>
      </trkpt>
      <trkpt lat="45.38252" lon="4.57289">
        <ele>1282</ele>
        <time>2015-05-10T05:50:06Z</time>
      </trkpt>
      <trkpt lat="45.38251" lon="4.57286">
        <ele>1282</ele>
        <time>2015-05-10T05:50:09Z</time>
      </trkpt>
      <trkpt lat="45.38252" lon="4.57307">
        <ele>1278</ele>
        <time>2015-05-10T05:50:11Z</time>
      </trkpt>
      <trkpt lat="45.38253" lon="4.57309">
        <ele>1278</ele>
        <time>2015-05-10T05:50:13Z</time>
      </trkpt>
      <trkpt lat="45.38254" lon="4.57312">
        <ele>1277</ele>
        <time>2015-05-10T05:50:16Z</time>
      </trkpt>
      <trkpt lat="45.38254" lon="4.57315">
        <ele>1277</ele>
        <time>2015-05-10T05:50:18Z</time>
      </trkpt>
      <trkpt lat="45.38254" lon="4.57318">
        <ele>1276</ele>
        <time>2015-05-10T05:50:20Z</time>
      </trkpt>
      <trkpt lat="45.38253" lon="4.57321">
        <ele>1276</ele>
        <time>2015-05-10T05:50:23Z</time>
      </trkpt>
      <trkpt lat="45.38251" lon="4.57322">
        <ele>1276</ele>
        <time>2015-05-10T05:50:25Z</time>
      </trkpt>
      <trkpt lat="45.38249" lon="4.57324">
        <ele>1276</ele>
        <time>2015-05-10T05:50:27Z</time>
      </trkpt>
      <trkpt lat="45.38248" lon="4.57326">
        <ele>1275</ele>
        <time>2015-05-10T05:50:30Z</time>
      </trkpt>
      <trkpt lat="45.38245" lon="4.57331">
        <ele>1275</ele>
        <time>2015-05-10T05:50:33Z</time>
      </trkpt>
      <trkpt lat="45.38245" lon="4.57334">
        <ele>1275</ele>
        <time>2015-05-10T05:50:35Z</time>
      </trkpt>
      <trkpt lat="45.38248" lon="4.57336">
        <ele>1274</ele>
        <time>2015-05-10T05:50:37Z</time>
      </trkpt>
      <trkpt lat="45.3825" lon="4.5734">
        <ele>1274</ele>
        <time>2015-05-10T05:50:40Z</time>
      </trkpt>
      <trkpt lat="45.3825" lon="4.57343">
        <ele>1274</ele>
        <time>2015-05-10T05:50:42Z</time>
      </trkpt>
      <trkpt lat="45.3825" lon="4.57349">
        <ele>1273</ele>
        <time>2015-05-10T05:50:45Z</time>
      </trkpt>
      <trkpt lat="45.38248" lon="4.57353">
        <ele>1272</ele>
        <time>2015-05-10T05:50:48Z</time>
      </trkpt>
      <trkpt lat="45.3825" lon="4.57359">
        <ele>1272</ele>
        <time>2015-05-10T05:50:51Z</time>
      </trkpt>
      <trkpt lat="45.38253" lon="4.57362">
        <ele>1270</ele>
        <time>2015-05-10T05:50:53Z</time>
      </trkpt>
      <trkpt lat="45.38256" lon="4.57364">
        <ele>1269</ele>
        <time>2015-05-10T05:50:55Z</time>
      </trkpt>
      <trkpt lat="45.3826" lon="4.57369">
        <ele>1268</ele>
        <time>2015-05-10T05:50:57Z</time>
      </trkpt>
      <trkpt lat="45.38261" lon="4.57374">
        <ele>1267</ele>
        <time>2015-05-10T05:50:59Z</time>
      </trkpt>
      <trkpt lat="45.38263" lon="4.57383">
        <ele>1267</ele>
        <time>2015-05-10T05:51:02Z</time>
      </trkpt>
      <trkpt lat="45.38262" lon="4.57393">
        <ele>1266</ele>
        <time>2015-05-10T05:51:05Z</time>
      </trkpt>
      <trkpt lat="45.38261" lon="4.57399">
        <ele>1265</ele>
        <time>2015-05-10T05:51:07Z</time>
      </trkpt>
      <trkpt lat="45.3826" lon="4.57407">
        <ele>1264</ele>
        <time>2015-05-10T05:51:09Z</time>
      </trkpt>
      <trkpt lat="45.3826" lon="4.57417">
        <ele>1262</ele>
        <time>2015-05-10T05:51:12Z</time>
      </trkpt>
      <trkpt lat="45.38261" lon="4.57424">
        <ele>1261</ele>
        <time>2015-05-10T05:51:14Z</time>
      </trkpt>
      <trkpt lat="45.38261" lon="4.57434">
        <ele>1261</ele>
        <time>2015-05-10T05:51:17Z</time>
      </trkpt>
      <trkpt lat="45.38263" lon="4.57444">
        <ele>1261</ele>
        <time>2015-05-10T05:51:20Z</time>
      </trkpt>
      <trkpt lat="45.38263" lon="4.57454">
        <ele>1261</ele>
        <time>2015-05-10T05:51:23Z</time>
      </trkpt>
      <trkpt lat="45.38263" lon="4.57462">
        <ele>1260</ele>
        <time>2015-05-10T05:51:25Z</time>
      </trkpt>
      <trkpt lat="45.38264" lon="4.57473">
        <ele>1260</ele>
        <time>2015-05-10T05:51:28Z</time>
      </trkpt>
      <trkpt lat="45.38265" lon="4.5748">
        <ele>1260</ele>
        <time>2015-05-10T05:51:30Z</time>
      </trkpt>
      <trkpt lat="45.38266" lon="4.57491">
        <ele>1259</ele>
        <time>2015-05-10T05:51:33Z</time>
      </trkpt>
      <trkpt lat="45.38267" lon="4.57498">
        <ele>1258</ele>
        <time>2015-05-10T05:51:35Z</time>
      </trkpt>
      <trkpt lat="45.38268" lon="4.57505">
        <ele>1258</ele>
        <time>2015-05-10T05:51:37Z</time>
      </trkpt>
      <trkpt lat="45.3827" lon="4.57516">
        <ele>1258</ele>
        <time>2015-05-10T05:51:40Z</time>
      </trkpt>
      <trkpt lat="45.38271" lon="4.57523">
        <ele>1257</ele>
        <time>2015-05-10T05:51:42Z</time>
      </trkpt>
      <trkpt lat="45.38273" lon="4.5753">
        <ele>1257</ele>
        <time>2015-05-10T05:51:44Z</time>
      </trkpt>
      <trkpt lat="45.38276" lon="4.57541">
        <ele>1256</ele>
        <time>2015-05-10T05:51:47Z</time>
      </trkpt>
      <trkpt lat="45.38278" lon="4.57551">
        <ele>1255</ele>
        <time>2015-05-10T05:51:50Z</time>
      </trkpt>
      <trkpt lat="45.38279" lon="4.57562">
        <ele>1254</ele>
        <time>2015-05-10T05:51:53Z</time>
      </trkpt>
      <trkpt lat="45.38281" lon="4.57574">
        <ele>1253</ele>
        <time>2015-05-10T05:51:56Z</time>
      </trkpt>
      <trkpt lat="45.38282" lon="4.57581">
        <ele>1253</ele>
        <time>2015-05-10T05:51:58Z</time>
      </trkpt>
      <trkpt lat="45.38286" lon="4.57592">
        <ele>1253</ele>
        <time>2015-05-10T05:52:01Z</time>
      </trkpt>
      <trkpt lat="45.38287" lon="4.57599">
        <ele>1253</ele>
        <time>2015-05-10T05:52:03Z</time>
      </trkpt>
      <trkpt lat="45.38287" lon="4.57607">
        <ele>1252</ele>
        <time>2015-05-10T05:52:05Z</time>
      </trkpt>
      <trkpt lat="45.3829" lon="4.57617">
        <ele>1252</ele>
        <time>2015-05-10T05:52:08Z</time>
      </trkpt>
      <trkpt lat="45.38291" lon="4.57625">
        <ele>1252</ele>
        <time>2015-05-10T05:52:10Z</time>
      </trkpt>
      <trkpt lat="45.38287" lon="4.57633">
        <ele>1252</ele>
        <time>2015-05-10T05:52:13Z</time>
      </trkpt>
      <trkpt lat="45.38283" lon="4.57636">
        <ele>1252</ele>
        <time>2015-05-10T05:52:15Z</time>
      </trkpt>
      <trkpt lat="45.38278" lon="4.57636">
        <ele>1252</ele>
        <time>2015-05-10T05:52:17Z</time>
      </trkpt>
      <trkpt lat="45.38273" lon="4.57635">
        <ele>1252</ele>
        <time>2015-05-10T05:52:19Z</time>
      </trkpt>
      <trkpt lat="45.38267" lon="4.57635">
        <ele>1252</ele>
        <time>2015-05-10T05:52:21Z</time>
      </trkpt>
      <trkpt lat="45.3826" lon="4.57636">
        <ele>1251</ele>
        <time>2015-05-10T05:52:24Z</time>
      </trkpt>
      <trkpt lat="45.38253" lon="4.57636">
        <ele>1251</ele>
        <time>2015-05-10T05:52:27Z</time>
      </trkpt>
      <trkpt lat="45.38247" lon="4.57635">
        <ele>1250</ele>
        <time>2015-05-10T05:52:29Z</time>
      </trkpt>
      <trkpt lat="45.38242" lon="4.57634">
        <ele>1249</ele>
        <time>2015-05-10T05:52:31Z</time>
      </trkpt>
      <trkpt lat="45.38236" lon="4.57634">
        <ele>1249</ele>
        <time>2015-05-10T05:52:33Z</time>
      </trkpt>
      <trkpt lat="45.38228" lon="4.57632">
        <ele>1249</ele>
        <time>2015-05-10T05:52:36Z</time>
      </trkpt>
      <trkpt lat="45.38222" lon="4.57631">
        <ele>1248</ele>
        <time>2015-05-10T05:52:38Z</time>
      </trkpt>
      <trkpt lat="45.38213" lon="4.57631">
        <ele>1247</ele>
        <time>2015-05-10T05:52:41Z</time>
      </trkpt>
      <trkpt lat="45.38205" lon="4.57629">
        <ele>1245</ele>
        <time>2015-05-10T05:52:44Z</time>
      </trkpt>
      <trkpt lat="45.38199" lon="4.57629">
        <ele>1244</ele>
        <time>2015-05-10T05:52:46Z</time>
      </trkpt>
      <trkpt lat="45.3819" lon="4.57627">
        <ele>1243</ele>
        <time>2015-05-10T05:52:49Z</time>
      </trkpt>
      <trkpt lat="45.38184" lon="4.57627">
        <ele>1241</ele>
        <time>2015-05-10T05:52:51Z</time>
      </trkpt>
      <trkpt lat="45.38179" lon="4.57628">
        <ele>1240</ele>
        <time>2015-05-10T05:52:53Z</time>
      </trkpt>
      <trkpt lat="45.38174" lon="4.57629">
        <ele>1240</ele>
        <time>2015-05-10T05:52:55Z</time>
      </trkpt>
      <trkpt lat="45.38169" lon="4.57631">
        <ele>1238</ele>
        <time>2015-05-10T05:52:57Z</time>
      </trkpt>
      <trkpt lat="45.38162" lon="4.57634">
        <ele>1237</ele>
        <time>2015-05-10T05:53:00Z</time>
      </trkpt>
      <trkpt lat="45.38155" lon="4.57637">
        <ele>1235</ele>
        <time>2015-05-10T05:53:03Z</time>
      </trkpt>
      <trkpt lat="45.3815" lon="4.57639">
        <ele>1234</ele>
        <time>2015-05-10T05:53:05Z</time>
      </trkpt>
      <trkpt lat="45.38143" lon="4.57638">
        <ele>1233</ele>
        <time>2015-05-10T05:53:08Z</time>
      </trkpt>
      <trkpt lat="45.38137" lon="4.57634">
        <ele>1231</ele>
        <time>2015-05-10T05:53:11Z</time>
      </trkpt>
      <trkpt lat="45.38131" lon="4.57628">
        <ele>1229</ele>
        <time>2015-05-10T05:53:14Z</time>
      </trkpt>
      <trkpt lat="45.38128" lon="4.57624">
        <ele>1228</ele>
        <time>2015-05-10T05:53:16Z</time>
      </trkpt>
      <trkpt lat="45.38122" lon="4.57616">
        <ele>1227</ele>
        <time>2015-05-10T05:53:19Z</time>
      </trkpt>
      <trkpt lat="45.38116" lon="4.57606">
        <ele>1226</ele>
        <time>2015-05-10T05:53:22Z</time>
      </trkpt>
      <trkpt lat="45.38111" lon="4.57598">
        <ele>1224</ele>
        <time>2015-05-10T05:53:25Z</time>
      </trkpt>
      <trkpt lat="45.38106" lon="4.57591">
        <ele>1222</ele>
        <time>2015-05-10T05:53:28Z</time>
      </trkpt>
      <trkpt lat="45.38101" lon="4.57585">
        <ele>1221</ele>
        <time>2015-05-10T05:53:31Z</time>
      </trkpt>
      <trkpt lat="45.38097" lon="4.5758">
        <ele>1220</ele>
        <time>2015-05-10T05:53:33Z</time>
      </trkpt>
      <trkpt lat="45.38092" lon="4.57574">
        <ele>1219</ele>
        <time>2015-05-10T05:53:36Z</time>
      </trkpt>
      <trkpt lat="45.38086" lon="4.57569">
        <ele>1216</ele>
        <time>2015-05-10T05:53:39Z</time>
      </trkpt>
      <trkpt lat="45.38082" lon="4.57564">
        <ele>1215</ele>
        <time>2015-05-10T05:53:41Z</time>
      </trkpt>
      <trkpt lat="45.38076" lon="4.57559">
        <ele>1214</ele>
        <time>2015-05-10T05:53:44Z</time>
      </trkpt>
      <trkpt lat="45.38069" lon="4.57554">
        <ele>1213</ele>
        <time>2015-05-10T05:53:47Z</time>
      </trkpt>
      <trkpt lat="45.38065" lon="4.57551">
        <ele>1212</ele>
        <time>2015-05-10T05:53:49Z</time>
      </trkpt>
      <trkpt lat="45.38062" lon="4.57553">
        <ele>1212</ele>
        <time>2015-05-10T05:53:51Z</time>
      </trkpt>
      <trkpt lat="45.38057" lon="4.57552">
        <ele>1210</ele>
        <time>2015-05-10T05:53:54Z</time>
      </trkpt>
      <trkpt lat="45.38055" lon="4.5755">
        <ele>1209</ele>
        <time>2015-05-10T05:53:56Z</time>
      </trkpt>
      <trkpt lat="45.38054" lon="4.5755">
        <ele>1208</ele>
        <time>2015-05-10T05:53:58Z</time>
      </trkpt>
      <trkpt lat="45.3805" lon="4.57551">
        <ele>1207</ele>
        <time>2015-05-10T05:54:00Z</time>
      </trkpt>
      <trkpt lat="45.38045" lon="4.57555">
        <ele>1206</ele>
        <time>2015-05-10T05:54:03Z</time>
      </trkpt>
      <trkpt lat="45.38042" lon="4.57557">
        <ele>1204</ele>
        <time>2015-05-10T05:54:05Z</time>
      </trkpt>
      <trkpt lat="45.38034" lon="4.57559">
        <ele>1203</ele>
        <time>2015-05-10T05:54:08Z</time>
      </trkpt>
      <trkpt lat="45.3803" lon="4.57562">
        <ele>1202</ele>
        <time>2015-05-10T05:54:10Z</time>
      </trkpt>
      <trkpt lat="45.38024" lon="4.57566">
        <ele>1201</ele>
        <time>2015-05-10T05:54:13Z</time>
      </trkpt>
      <trkpt lat="45.38017" lon="4.57569">
        <ele>1199</ele>
        <time>2015-05-10T05:54:16Z</time>
      </trkpt>
      <trkpt lat="45.3801" lon="4.57574">
        <ele>1198</ele>
        <time>2015-05-10T05:54:19Z</time>
      </trkpt>
      <trkpt lat="45.38005" lon="4.57578">
        <ele>1197</ele>
        <time>2015-05-10T05:54:21Z</time>
      </trkpt>
      <trkpt lat="45.38" lon="4.5758">
        <ele>1197</ele>
        <time>2015-05-10T05:54:23Z</time>
      </trkpt>
      <trkpt lat="45.37995" lon="4.57582">
        <ele>1196</ele>
        <time>2015-05-10T05:54:25Z</time>
      </trkpt>
      <trkpt lat="45.37987" lon="4.57583">
        <ele>1195</ele>
        <time>2015-05-10T05:54:28Z</time>
      </trkpt>
      <trkpt lat="45.37982" lon="4.57586">
        <ele>1194</ele>
        <time>2015-05-10T05:54:30Z</time>
      </trkpt>
      <trkpt lat="45.37975" lon="4.57591">
        <ele>1193</ele>
        <time>2015-05-10T05:54:33Z</time>
      </trkpt>
      <trkpt lat="45.3797" lon="4.57595">
        <ele>1192</ele>
        <time>2015-05-10T05:54:35Z</time>
      </trkpt>
      <trkpt lat="45.37964" lon="4.57601">
        <ele>1190</ele>
        <time>2015-05-10T05:54:38Z</time>
      </trkpt>
      <trkpt lat="45.3796" lon="4.57606">
        <ele>1190</ele>
        <time>2015-05-10T05:54:40Z</time>
      </trkpt>
      <trkpt lat="45.37956" lon="4.57609">
        <ele>1189</ele>
        <time>2015-05-10T05:54:42Z</time>
      </trkpt>
      <trkpt lat="45.37952" lon="4.57614">
        <ele>1190</ele>
        <time>2015-05-10T05:54:45Z</time>
      </trkpt>
      <trkpt lat="45.37948" lon="4.57618">
        <ele>1190</ele>
        <time>2015-05-10T05:54:47Z</time>
      </trkpt>
      <trkpt lat="45.37944" lon="4.57621">
        <ele>1188</ele>
        <time>2015-05-10T05:54:49Z</time>
      </trkpt>
      <trkpt lat="45.37939" lon="4.57625">
        <ele>1187</ele>
        <time>2015-05-10T05:54:52Z</time>
      </trkpt>
      <trkpt lat="45.37934" lon="4.57627">
        <ele>1186</ele>
        <time>2015-05-10T05:54:54Z</time>
      </trkpt>
      <trkpt lat="45.37929" lon="4.57627">
        <ele>1185</ele>
        <time>2015-05-10T05:54:56Z</time>
      </trkpt>
      <trkpt lat="45.37926" lon="4.57628">
        <ele>1185</ele>
        <time>2015-05-10T05:54:58Z</time>
      </trkpt>
      <trkpt lat="45.37922" lon="4.57631">
        <ele>1184</ele>
        <time>2015-05-10T05:55:00Z</time>
      </trkpt>
      <trkpt lat="45.37916" lon="4.57633">
        <ele>1183</ele>
        <time>2015-05-10T05:55:03Z</time>
      </trkpt>
      <trkpt lat="45.37911" lon="4.57634">
        <ele>1183</ele>
        <time>2015-05-10T05:55:05Z</time>
      </trkpt>
      <trkpt lat="45.37907" lon="4.57636">
        <ele>1182</ele>
        <time>2015-05-10T05:55:07Z</time>
      </trkpt>
      <trkpt lat="45.37902" lon="4.57637">
        <ele>1181</ele>
        <time>2015-05-10T05:55:09Z</time>
      </trkpt>
      <trkpt lat="45.37896" lon="4.5764">
        <ele>1180</ele>
        <time>2015-05-10T05:55:12Z</time>
      </trkpt>
      <trkpt lat="45.37892" lon="4.57642">
        <ele>1180</ele>
        <time>2015-05-10T05:55:14Z</time>
      </trkpt>
      <trkpt lat="45.37888" lon="4.57644">
        <ele>1179</ele>
        <time>2015-05-10T05:55:16Z</time>
      </trkpt>
      <trkpt lat="45.37883" lon="4.57646">
        <ele>1178</ele>
        <time>2015-05-10T05:55:18Z</time>
      </trkpt>
      <trkpt lat="45.37876" lon="4.57646">
        <ele>1177</ele>
        <time>2015-05-10T05:55:21Z</time>
      </trkpt>
      <trkpt lat="45.37872" lon="4.57646">
        <ele>1177</ele>
        <time>2015-05-10T05:55:23Z</time>
      </trkpt>
      <trkpt lat="45.37865" lon="4.57649">
        <ele>1176</ele>
        <time>2015-05-10T05:55:26Z</time>
      </trkpt>
      <trkpt lat="45.37861" lon="4.57651">
        <ele>1175</ele>
        <time>2015-05-10T05:55:28Z</time>
      </trkpt>
      <trkpt lat="45.37857" lon="4.57654">
        <ele>1175</ele>
        <time>2015-05-10T05:55:30Z</time>
      </trkpt>
      <trkpt lat="45.37854" lon="4.57657">
        <ele>1174</ele>
        <time>2015-05-10T05:55:32Z</time>
      </trkpt>
      <trkpt lat="45.37849" lon="4.57665">
        <ele>1174</ele>
        <time>2015-05-10T05:55:35Z</time>
      </trkpt>
      <trkpt lat="45.37843" lon="4.5767">
        <ele>1173</ele>
        <time>2015-05-10T05:55:38Z</time>
      </trkpt>
      <trkpt lat="45.37838" lon="4.57673">
        <ele>1173</ele>
        <time>2015-05-10T05:55:40Z</time>
      </trkpt>
      <trkpt lat="45.37831" lon="4.57681">
        <ele>1173</ele>
        <time>2015-05-10T05:55:43Z</time>
      </trkpt>
      <trkpt lat="45.37826" lon="4.57688">
        <ele>1172</ele>
        <time>2015-05-10T05:55:46Z</time>
      </trkpt>
      <trkpt lat="45.3782" lon="4.57691">
        <ele>1172</ele>
        <time>2015-05-10T05:55:49Z</time>
      </trkpt>
      <trkpt lat="45.37815" lon="4.57697">
        <ele>1171</ele>
        <time>2015-05-10T05:55:52Z</time>
      </trkpt>
      <trkpt lat="45.37811" lon="4.57699">
        <ele>1171</ele>
        <time>2015-05-10T05:55:54Z</time>
      </trkpt>
      <trkpt lat="45.37806" lon="4.57701">
        <ele>1171</ele>
        <time>2015-05-10T05:55:56Z</time>
      </trkpt>
      <trkpt lat="45.378" lon="4.57705">
        <ele>1170</ele>
        <time>2015-05-10T05:55:59Z</time>
      </trkpt>
      <trkpt lat="45.37796" lon="4.57706">
        <ele>1169</ele>
        <time>2015-05-10T05:56:01Z</time>
      </trkpt>
      <trkpt lat="45.3779" lon="4.5771">
        <ele>1168</ele>
        <time>2015-05-10T05:56:04Z</time>
      </trkpt>
      <trkpt lat="45.37785" lon="4.57711">
        <ele>1167</ele>
        <time>2015-05-10T05:56:06Z</time>
      </trkpt>
      <trkpt lat="45.37778" lon="4.57714">
        <ele>1166</ele>
        <time>2015-05-10T05:56:09Z</time>
      </trkpt>
      <trkpt lat="45.37775" lon="4.57717">
        <ele>1166</ele>
        <time>2015-05-10T05:56:11Z</time>
      </trkpt>
      <trkpt lat="45.37768" lon="4.57722">
        <ele>1165</ele>
        <time>2015-05-10T05:56:14Z</time>
      </trkpt>
      <trkpt lat="45.37761" lon="4.57726">
        <ele>1164</ele>
        <time>2015-05-10T05:56:17Z</time>
      </trkpt>
      <trkpt lat="45.37756" lon="4.57728">
        <ele>1163</ele>
        <time>2015-05-10T05:56:19Z</time>
      </trkpt>
      <trkpt lat="45.3775" lon="4.57732">
        <ele>1163</ele>
        <time>2015-05-10T05:56:21Z</time>
      </trkpt>
      <trkpt lat="45.37745" lon="4.57738">
        <ele>1163</ele>
        <time>2015-05-10T05:56:23Z</time>
      </trkpt>
      <trkpt lat="45.37738" lon="4.57743">
        <ele>1163</ele>
        <time>2015-05-10T05:56:26Z</time>
      </trkpt>
      <trkpt lat="45.37732" lon="4.57746">
        <ele>1163</ele>
        <time>2015-05-10T05:56:29Z</time>
      </trkpt>
      <trkpt lat="45.37727" lon="4.57749">
        <ele>1161</ele>
        <time>2015-05-10T05:56:31Z</time>
      </trkpt>
      <trkpt lat="45.37722" lon="4.57754">
        <ele>1161</ele>
        <time>2015-05-10T05:56:33Z</time>
      </trkpt>
      <trkpt lat="45.37715" lon="4.5776">
        <ele>1160</ele>
        <time>2015-05-10T05:56:36Z</time>
      </trkpt>
      <trkpt lat="45.3771" lon="4.57764">
        <ele>1160</ele>
        <time>2015-05-10T05:56:38Z</time>
      </trkpt>
      <trkpt lat="45.37704" lon="4.5777">
        <ele>1159</ele>
        <time>2015-05-10T05:56:41Z</time>
      </trkpt>
      <trkpt lat="45.37701" lon="4.57774">
        <ele>1159</ele>
        <time>2015-05-10T05:56:43Z</time>
      </trkpt>
      <trkpt lat="45.37697" lon="4.57778">
        <ele>1159</ele>
        <time>2015-05-10T05:56:45Z</time>
      </trkpt>
      <trkpt lat="45.37694" lon="4.57783">
        <ele>1158</ele>
        <time>2015-05-10T05:56:47Z</time>
      </trkpt>
      <trkpt lat="45.37688" lon="4.5779">
        <ele>1158</ele>
        <time>2015-05-10T05:56:50Z</time>
      </trkpt>
      <trkpt lat="45.37685" lon="4.57794">
        <ele>1158</ele>
        <time>2015-05-10T05:56:52Z</time>
      </trkpt>
      <trkpt lat="45.37678" lon="4.57798">
        <ele>1157</ele>
        <time>2015-05-10T05:56:55Z</time>
      </trkpt>
      <trkpt lat="45.37672" lon="4.57803">
        <ele>1156</ele>
        <time>2015-05-10T05:56:58Z</time>
      </trkpt>
      <trkpt lat="45.37667" lon="4.57808">
        <ele>1155</ele>
        <time>2015-05-10T05:57:01Z</time>
      </trkpt>
      <trkpt lat="45.37664" lon="4.57811">
        <ele>1155</ele>
        <time>2015-05-10T05:57:03Z</time>
      </trkpt>
      <trkpt lat="45.37659" lon="4.57819">
        <ele>1154</ele>
        <time>2015-05-10T05:57:06Z</time>
      </trkpt>
      <trkpt lat="45.37654" lon="4.57826">
        <ele>1152</ele>
        <time>2015-05-10T05:57:09Z</time>
      </trkpt>
      <trkpt lat="45.3765" lon="4.5783">
        <ele>1152</ele>
        <time>2015-05-10T05:57:11Z</time>
      </trkpt>
      <trkpt lat="45.37645" lon="4.57833">
        <ele>1151</ele>
        <time>2015-05-10T05:57:13Z</time>
      </trkpt>
      <trkpt lat="45.37638" lon="4.57841">
        <ele>1151</ele>
        <time>2015-05-10T05:57:16Z</time>
      </trkpt>
      <trkpt lat="45.3763" lon="4.57846">
        <ele>1150</ele>
        <time>2015-05-10T05:57:19Z</time>
      </trkpt>
      <trkpt lat="45.37626" lon="4.57849">
        <ele>1149</ele>
        <time>2015-05-10T05:57:21Z</time>
      </trkpt>
      <trkpt lat="45.37622" lon="4.57852">
        <ele>1149</ele>
        <time>2015-05-10T05:57:23Z</time>
      </trkpt>
      <trkpt lat="45.37616" lon="4.57858">
        <ele>1148</ele>
        <time>2015-05-10T05:57:26Z</time>
      </trkpt>
      <trkpt lat="45.37611" lon="4.57862">
        <ele>1148</ele>
        <time>2015-05-10T05:57:28Z</time>
      </trkpt>
      <trkpt lat="45.37608" lon="4.57866">
        <ele>1147</ele>
        <time>2015-05-10T05:57:30Z</time>
      </trkpt>
      <trkpt lat="45.37604" lon="4.57869">
        <ele>1146</ele>
        <time>2015-05-10T05:57:32Z</time>
      </trkpt>
      <trkpt lat="45.37598" lon="4.57875">
        <ele>1146</ele>
        <time>2015-05-10T05:57:35Z</time>
      </trkpt>
      <trkpt lat="45.37594" lon="4.57879">
        <ele>1146</ele>
        <time>2015-05-10T05:57:37Z</time>
      </trkpt>
      <trkpt lat="45.37589" lon="4.57885">
        <ele>1146</ele>
        <time>2015-05-10T05:57:39Z</time>
      </trkpt>
      <trkpt lat="45.37586" lon="4.57888">
        <ele>1145</ele>
        <time>2015-05-10T05:57:41Z</time>
      </trkpt>
      <trkpt lat="45.37583" lon="4.57892">
        <ele>1145</ele>
        <time>2015-05-10T05:57:43Z</time>
      </trkpt>
      <trkpt lat="45.37577" lon="4.57898">
        <ele>1145</ele>
        <time>2015-05-10T05:57:46Z</time>
      </trkpt>
      <trkpt lat="45.37571" lon="4.57903">
        <ele>1145</ele>
        <time>2015-05-10T05:57:49Z</time>
      </trkpt>
      <trkpt lat="45.37564" lon="4.5791">
        <ele>1144</ele>
        <time>2015-05-10T05:57:52Z</time>
      </trkpt>
      <trkpt lat="45.37557" lon="4.57915">
        <ele>1144</ele>
        <time>2015-05-10T05:57:55Z</time>
      </trkpt>
      <trkpt lat="45.37551" lon="4.57918">
        <ele>1143</ele>
        <time>2015-05-10T05:57:57Z</time>
      </trkpt>
      <trkpt lat="45.37545" lon="4.57919">
        <ele>1143</ele>
        <time>2015-05-10T05:57:59Z</time>
      </trkpt>
      <trkpt lat="45.3754" lon="4.57923">
        <ele>1142</ele>
        <time>2015-05-10T05:58:01Z</time>
      </trkpt>
      <trkpt lat="45.37533" lon="4.57928">
        <ele>1141</ele>
        <time>2015-05-10T05:58:04Z</time>
      </trkpt>
      <trkpt lat="45.37528" lon="4.57931">
        <ele>1141</ele>
        <time>2015-05-10T05:58:06Z</time>
      </trkpt>
      <trkpt lat="45.37523" lon="4.57934">
        <ele>1141</ele>
        <time>2015-05-10T05:58:08Z</time>
      </trkpt>
      <trkpt lat="45.37515" lon="4.57938">
        <ele>1140</ele>
        <time>2015-05-10T05:58:11Z</time>
      </trkpt>
      <trkpt lat="45.37508" lon="4.57944">
        <ele>1140</ele>
        <time>2015-05-10T05:58:14Z</time>
      </trkpt>
      <trkpt lat="45.37503" lon="4.57946">
        <ele>1139</ele>
        <time>2015-05-10T05:58:16Z</time>
      </trkpt>
      <trkpt lat="45.37497" lon="4.57947">
        <ele>1138</ele>
        <time>2015-05-10T05:58:18Z</time>
      </trkpt>
      <trkpt lat="45.37492" lon="4.57951">
        <ele>1138</ele>
        <time>2015-05-10T05:58:20Z</time>
      </trkpt>
      <trkpt lat="45.37488" lon="4.57956">
        <ele>1137</ele>
        <time>2015-05-10T05:58:22Z</time>
      </trkpt>
      <trkpt lat="45.37481" lon="4.5796">
        <ele>1137</ele>
        <time>2015-05-10T05:58:25Z</time>
      </trkpt>
      <trkpt lat="45.37477" lon="4.57964">
        <ele>1136</ele>
        <time>2015-05-10T05:58:27Z</time>
      </trkpt>
      <trkpt lat="45.37474" lon="4.57968">
        <ele>1136</ele>
        <time>2015-05-10T05:58:29Z</time>
      </trkpt>
      <trkpt lat="45.37469" lon="4.57971">
        <ele>1135</ele>
        <time>2015-05-10T05:58:31Z</time>
      </trkpt>
      <trkpt lat="45.37465" lon="4.57974">
        <ele>1134</ele>
        <time>2015-05-10T05:58:33Z</time>
      </trkpt>
      <trkpt lat="45.37459" lon="4.57978">
        <ele>1134</ele>
        <time>2015-05-10T05:58:36Z</time>
      </trkpt>
      <trkpt lat="45.37453" lon="4.57983">
        <ele>1133</ele>
        <time>2015-05-10T05:58:39Z</time>
      </trkpt>
      <trkpt lat="45.37448" lon="4.5799">
        <ele>1132</ele>
        <time>2015-05-10T05:58:42Z</time>
      </trkpt>
      <trkpt lat="45.37441" lon="4.57996">
        <ele>1131</ele>
        <time>2015-05-10T05:58:45Z</time>
      </trkpt>
      <trkpt lat="45.37438" lon="4.58">
        <ele>1130</ele>
        <time>2015-05-10T05:58:47Z</time>
      </trkpt>
      <trkpt lat="45.37433" lon="4.58004">
        <ele>1129</ele>
        <time>2015-05-10T05:58:49Z</time>
      </trkpt>
      <trkpt lat="45.37429" lon="4.58011">
        <ele>1128</ele>
        <time>2015-05-10T05:58:51Z</time>
      </trkpt>
      <trkpt lat="45.37424" lon="4.58016">
        <ele>1127</ele>
        <time>2015-05-10T05:58:53Z</time>
      </trkpt>
      <trkpt lat="45.37418" lon="4.58022">
        <ele>1126</ele>
        <time>2015-05-10T05:58:56Z</time>
      </trkpt>
      <trkpt lat="45.37413" lon="4.58025">
        <ele>1126</ele>
        <time>2015-05-10T05:58:58Z</time>
      </trkpt>
      <trkpt lat="45.37408" lon="4.58027">
        <ele>1124</ele>
        <time>2015-05-10T05:59:00Z</time>
      </trkpt>
      <trkpt lat="45.37401" lon="4.58032">
        <ele>1124</ele>
        <time>2015-05-10T05:59:03Z</time>
      </trkpt>
      <trkpt lat="45.37397" lon="4.58036">
        <ele>1123</ele>
        <time>2015-05-10T05:59:05Z</time>
      </trkpt>
      <trkpt lat="45.37391" lon="4.58042">
        <ele>1122</ele>
        <time>2015-05-10T05:59:08Z</time>
      </trkpt>
      <trkpt lat="45.37387" lon="4.58046">
        <ele>1121</ele>
        <time>2015-05-10T05:59:10Z</time>
      </trkpt>
      <trkpt lat="45.3738" lon="4.58053">
        <ele>1120</ele>
        <time>2015-05-10T05:59:13Z</time>
      </trkpt>
      <trkpt lat="45.37375" lon="4.58059">
        <ele>1119</ele>
        <time>2015-05-10T05:59:15Z</time>
      </trkpt>
      <trkpt lat="45.3737" lon="4.58066">
        <ele>1118</ele>
        <time>2015-05-10T05:59:18Z</time>
      </trkpt>
      <trkpt lat="45.37366" lon="4.58071">
        <ele>1116</ele>
        <time>2015-05-10T05:59:20Z</time>
      </trkpt>
      <trkpt lat="45.37363" lon="4.58076">
        <ele>1115</ele>
        <time>2015-05-10T05:59:22Z</time>
      </trkpt>
      <trkpt lat="45.37359" lon="4.58083">
        <ele>1114</ele>
        <time>2015-05-10T05:59:24Z</time>
      </trkpt>
      <trkpt lat="45.37353" lon="4.58094">
        <ele>1113</ele>
        <time>2015-05-10T05:59:27Z</time>
      </trkpt>
      <trkpt lat="45.37349" lon="4.58102">
        <ele>1113</ele>
        <time>2015-05-10T05:59:29Z</time>
      </trkpt>
      <trkpt lat="45.37344" lon="4.58113">
        <ele>1111</ele>
        <time>2015-05-10T05:59:32Z</time>
      </trkpt>
      <trkpt lat="45.3734" lon="4.58119">
        <ele>1111</ele>
        <time>2015-05-10T05:59:34Z</time>
      </trkpt>
      <trkpt lat="45.37336" lon="4.58126">
        <ele>1110</ele>
        <time>2015-05-10T05:59:36Z</time>
      </trkpt>
      <trkpt lat="45.37333" lon="4.58133">
        <ele>1109</ele>
        <time>2015-05-10T05:59:38Z</time>
      </trkpt>
      <trkpt lat="45.37329" lon="4.58141">
        <ele>1108</ele>
        <time>2015-05-10T05:59:40Z</time>
      </trkpt>
      <trkpt lat="45.37324" lon="4.5815">
        <ele>1106</ele>
        <time>2015-05-10T05:59:43Z</time>
      </trkpt>
      <trkpt lat="45.3732" lon="4.58156">
        <ele>1105</ele>
        <time>2015-05-10T05:59:45Z</time>
      </trkpt>
      <trkpt lat="45.37317" lon="4.58162">
        <ele>1104</ele>
        <time>2015-05-10T05:59:47Z</time>
      </trkpt>
      <trkpt lat="45.37312" lon="4.5817">
        <ele>1103</ele>
        <time>2015-05-10T05:59:50Z</time>
      </trkpt>
      <trkpt lat="45.37309" lon="4.58174">
        <ele>1102</ele>
        <time>2015-05-10T05:59:52Z</time>
      </trkpt>
      <trkpt lat="45.37304" lon="4.58182">
        <ele>1101</ele>
        <time>2015-05-10T05:59:55Z</time>
      </trkpt>
      <trkpt lat="45.373" lon="4.58186">
        <ele>1100</ele>
        <time>2015-05-10T05:59:57Z</time>
      </trkpt>
      <trkpt lat="45.37296" lon="4.5819">
        <ele>1099</ele>
        <time>2015-05-10T05:59:59Z</time>
      </trkpt>
      <trkpt lat="45.37292" lon="4.58197">
        <ele>1098</ele>
        <time>2015-05-10T06:00:02Z</time>
      </trkpt>
      <trkpt lat="45.37287" lon="4.58201">
        <ele>1096</ele>
        <time>2015-05-10T06:00:05Z</time>
      </trkpt>
      <trkpt lat="45.37284" lon="4.58207">
        <ele>1094</ele>
        <time>2015-05-10T06:00:08Z</time>
      </trkpt>
      <trkpt lat="45.37279" lon="4.58212">
        <ele>1093</ele>
        <time>2015-05-10T06:00:10Z</time>
      </trkpt>
      <trkpt lat="45.37275" lon="4.58216">
        <ele>1093</ele>
        <time>2015-05-10T06:00:12Z</time>
      </trkpt>
      <trkpt lat="45.37271" lon="4.58221">
        <ele>1092</ele>
        <time>2015-05-10T06:00:14Z</time>
      </trkpt>
      <trkpt lat="45.37265" lon="4.58229">
        <ele>1091</ele>
        <time>2015-05-10T06:00:17Z</time>
      </trkpt>
      <trkpt lat="45.37261" lon="4.58234">
        <ele>1090</ele>
        <time>2015-05-10T06:00:19Z</time>
      </trkpt>
      <trkpt lat="45.37255" lon="4.58243">
        <ele>1089</ele>
        <time>2015-05-10T06:00:22Z</time>
      </trkpt>
      <trkpt lat="45.37251" lon="4.58247">
        <ele>1089</ele>
        <time>2015-05-10T06:00:24Z</time>
      </trkpt>
      <trkpt lat="45.37246" lon="4.58254">
        <ele>1088</ele>
        <time>2015-05-10T06:00:27Z</time>
      </trkpt>
      <trkpt lat="45.3724" lon="4.5826">
        <ele>1088</ele>
        <time>2015-05-10T06:00:30Z</time>
      </trkpt>
      <trkpt lat="45.37237" lon="4.58264">
        <ele>1087</ele>
        <time>2015-05-10T06:00:32Z</time>
      </trkpt>
      <trkpt lat="45.37233" lon="4.58268">
        <ele>1086</ele>
        <time>2015-05-10T06:00:34Z</time>
      </trkpt>
      <trkpt lat="45.37228" lon="4.58273">
        <ele>1086</ele>
        <time>2015-05-10T06:00:37Z</time>
      </trkpt>
      <trkpt lat="45.37225" lon="4.58279">
        <ele>1085</ele>
        <time>2015-05-10T06:00:39Z</time>
      </trkpt>
      <trkpt lat="45.37222" lon="4.58285">
        <ele>1084</ele>
        <time>2015-05-10T06:00:41Z</time>
      </trkpt>
      <trkpt lat="45.37218" lon="4.58289">
        <ele>1083</ele>
        <time>2015-05-10T06:00:43Z</time>
      </trkpt>
      <trkpt lat="45.37216" lon="4.58292">
        <ele>1083</ele>
        <time>2015-05-10T06:00:45Z</time>
      </trkpt>
      <trkpt lat="45.37212" lon="4.58296">
        <ele>1082</ele>
        <time>2015-05-10T06:00:47Z</time>
      </trkpt>
      <trkpt lat="45.37206" lon="4.58302">
        <ele>1082</ele>
        <time>2015-05-10T06:00:50Z</time>
      </trkpt>
      <trkpt lat="45.37202" lon="4.58305">
        <ele>1081</ele>
        <time>2015-05-10T06:00:52Z</time>
      </trkpt>
      <trkpt lat="45.37198" lon="4.58309">
        <ele>1081</ele>
        <time>2015-05-10T06:00:54Z</time>
      </trkpt>
      <trkpt lat="45.37192" lon="4.58316">
        <ele>1080</ele>
        <time>2015-05-10T06:00:57Z</time>
      </trkpt>
      <trkpt lat="45.37185" lon="4.58325">
        <ele>1078</ele>
        <time>2015-05-10T06:01:00Z</time>
      </trkpt>
      <trkpt lat="45.37179" lon="4.58335">
        <ele>1078</ele>
        <time>2015-05-10T06:01:03Z</time>
      </trkpt>
      <trkpt lat="45.37173" lon="4.58341">
        <ele>1077</ele>
        <time>2015-05-10T06:01:06Z</time>
      </trkpt>
      <trkpt lat="45.37169" lon="4.58348">
        <ele>1075</ele>
        <time>2015-05-10T06:01:09Z</time>
      </trkpt>
      <trkpt lat="45.37165" lon="4.58352">
        <ele>1074</ele>
        <time>2015-05-10T06:01:11Z</time>
      </trkpt>
      <trkpt lat="45.37159" lon="4.58358">
        <ele>1073</ele>
        <time>2015-05-10T06:01:14Z</time>
      </trkpt>
      <trkpt lat="45.37155" lon="4.58362">
        <ele>1073</ele>
        <time>2015-05-10T06:01:16Z</time>
      </trkpt>
      <trkpt lat="45.37151" lon="4.58366">
        <ele>1072</ele>
        <time>2015-05-10T06:01:18Z</time>
      </trkpt>
      <trkpt lat="45.37145" lon="4.58373">
        <ele>1071</ele>
        <time>2015-05-10T06:01:21Z</time>
      </trkpt>
      <trkpt lat="45.37142" lon="4.58378">
        <ele>1070</ele>
        <time>2015-05-10T06:01:23Z</time>
      </trkpt>
      <trkpt lat="45.37138" lon="4.58383">
        <ele>1070</ele>
        <time>2015-05-10T06:01:25Z</time>
      </trkpt>
      <trkpt lat="45.37133" lon="4.58392">
        <ele>1070</ele>
        <time>2015-05-10T06:01:28Z</time>
      </trkpt>
      <trkpt lat="45.3713" lon="4.58398">
        <ele>1068</ele>
        <time>2015-05-10T06:01:30Z</time>
      </trkpt>
      <trkpt lat="45.37123" lon="4.58409">
        <ele>1068</ele>
        <time>2015-05-10T06:01:33Z</time>
      </trkpt>
      <trkpt lat="45.37118" lon="4.58416">
        <ele>1067</ele>
        <time>2015-05-10T06:01:35Z</time>
      </trkpt>
      <trkpt lat="45.37112" lon="4.58421">
        <ele>1067</ele>
        <time>2015-05-10T06:01:37Z</time>
      </trkpt>
      <trkpt lat="45.37103" lon="4.5843">
        <ele>1066</ele>
        <time>2015-05-10T06:01:40Z</time>
      </trkpt>
      <trkpt lat="45.37098" lon="4.58436">
        <ele>1065</ele>
        <time>2015-05-10T06:01:42Z</time>
      </trkpt>
      <trkpt lat="45.37092" lon="4.58441">
        <ele>1064</ele>
        <time>2015-05-10T06:01:44Z</time>
      </trkpt>
      <trkpt lat="45.37085" lon="4.58445">
        <ele>1064</ele>
        <time>2015-05-10T06:01:46Z</time>
      </trkpt>
      <trkpt lat="45.37077" lon="4.58452">
        <ele>1063</ele>
        <time>2015-05-10T06:01:49Z</time>
      </trkpt>
      <trkpt lat="45.37072" lon="4.58457">
        <ele>1063</ele>
        <time>2015-05-10T06:01:51Z</time>
      </trkpt>
      <trkpt lat="45.37065" lon="4.58462">
        <ele>1062</ele>
        <time>2015-05-10T06:01:53Z</time>
      </trkpt>
      <trkpt lat="45.37059" lon="4.58467">
        <ele>1062</ele>
        <time>2015-05-10T06:01:55Z</time>
      </trkpt>
      <trkpt lat="45.37052" lon="4.58475">
        <ele>1062</ele>
        <time>2015-05-10T06:01:58Z</time>
      </trkpt>
      <trkpt lat="45.37046" lon="4.58481">
        <ele>1061</ele>
        <time>2015-05-10T06:02:00Z</time>
      </trkpt>
      <trkpt lat="45.37039" lon="4.58493">
        <ele>1060</ele>
        <time>2015-05-10T06:02:03Z</time>
      </trkpt>
      <trkpt lat="45.37035" lon="4.58498">
        <ele>1060</ele>
        <time>2015-05-10T06:02:05Z</time>
      </trkpt>
      <trkpt lat="45.37031" lon="4.58506">
        <ele>1060</ele>
        <time>2015-05-10T06:02:07Z</time>
      </trkpt>
      <trkpt lat="45.37026" lon="4.5851">
        <ele>1060</ele>
        <time>2015-05-10T06:02:09Z</time>
      </trkpt>
      <trkpt lat="45.37021" lon="4.58519">
        <ele>1060</ele>
        <time>2015-05-10T06:02:12Z</time>
      </trkpt>
      <trkpt lat="45.37018" lon="4.58525">
        <ele>1060</ele>
        <time>2015-05-10T06:02:14Z</time>
      </trkpt>
      <trkpt lat="45.37013" lon="4.58531">
        <ele>1060</ele>
        <time>2015-05-10T06:02:16Z</time>
      </trkpt>
      <trkpt lat="45.37009" lon="4.58535">
        <ele>1060</ele>
        <time>2015-05-10T06:02:18Z</time>
      </trkpt>
      <trkpt lat="45.37001" lon="4.5854">
        <ele>1059</ele>
        <time>2015-05-10T06:02:21Z</time>
      </trkpt>
      <trkpt lat="45.36995" lon="4.58545">
        <ele>1059</ele>
        <time>2015-05-10T06:02:23Z</time>
      </trkpt>
      <trkpt lat="45.3699" lon="4.58548">
        <ele>1059</ele>
        <time>2015-05-10T06:02:25Z</time>
      </trkpt>
      <trkpt lat="45.36983" lon="4.58552">
        <ele>1058</ele>
        <time>2015-05-10T06:02:28Z</time>
      </trkpt>
      <trkpt lat="45.36978" lon="4.58554">
        <ele>1057</ele>
        <time>2015-05-10T06:02:30Z</time>
      </trkpt>
      <trkpt lat="45.36973" lon="4.58557">
        <ele>1057</ele>
        <time>2015-05-10T06:02:32Z</time>
      </trkpt>
      <trkpt lat="45.36967" lon="4.58561">
        <ele>1057</ele>
        <time>2015-05-10T06:02:35Z</time>
      </trkpt>
      <trkpt lat="45.36961" lon="4.58563">
        <ele>1057</ele>
        <time>2015-05-10T06:02:37Z</time>
      </trkpt>
      <trkpt lat="45.36956" lon="4.58567">
        <ele>1057</ele>
        <time>2015-05-10T06:02:39Z</time>
      </trkpt>
      <trkpt lat="45.36951" lon="4.5857">
        <ele>1057</ele>
        <time>2015-05-10T06:02:41Z</time>
      </trkpt>
      <trkpt lat="45.36948" lon="4.58573">
        <ele>1057</ele>
        <time>2015-05-10T06:02:43Z</time>
      </trkpt>
      <trkpt lat="45.36944" lon="4.58576">
        <ele>1057</ele>
        <time>2015-05-10T06:02:45Z</time>
      </trkpt>
      <trkpt lat="45.36938" lon="4.5858">
        <ele>1057</ele>
        <time>2015-05-10T06:02:48Z</time>
      </trkpt>
      <trkpt lat="45.36931" lon="4.58582">
        <ele>1057</ele>
        <time>2015-05-10T06:02:51Z</time>
      </trkpt>
      <trkpt lat="45.36925" lon="4.58587">
        <ele>1056</ele>
        <time>2015-05-10T06:02:54Z</time>
      </trkpt>
      <trkpt lat="45.36922" lon="4.5859">
        <ele>1056</ele>
        <time>2015-05-10T06:02:56Z</time>
      </trkpt>
      <trkpt lat="45.36918" lon="4.58591">
        <ele>1056</ele>
        <time>2015-05-10T06:02:58Z</time>
      </trkpt>
      <trkpt lat="45.36911" lon="4.58596">
        <ele>1056</ele>
        <time>2015-05-10T06:03:01Z</time>
      </trkpt>
      <trkpt lat="45.36906" lon="4.58601">
        <ele>1056</ele>
        <time>2015-05-10T06:03:04Z</time>
      </trkpt>
      <trkpt lat="45.36901" lon="4.58605">
        <ele>1057</ele>
        <time>2015-05-10T06:03:06Z</time>
      </trkpt>
      <trkpt lat="45.36898" lon="4.58607">
        <ele>1056</ele>
        <time>2015-05-10T06:03:08Z</time>
      </trkpt>
      <trkpt lat="45.36893" lon="4.58611">
        <ele>1056</ele>
        <time>2015-05-10T06:03:11Z</time>
      </trkpt>
      <trkpt lat="45.36887" lon="4.58614">
        <ele>1056</ele>
        <time>2015-05-10T06:03:14Z</time>
      </trkpt>
      <trkpt lat="45.3688" lon="4.58617">
        <ele>1056</ele>
        <time>2015-05-10T06:03:17Z</time>
      </trkpt>
      <trkpt lat="45.36876" lon="4.58619">
        <ele>1056</ele>
        <time>2015-05-10T06:03:19Z</time>
      </trkpt>
      <trkpt lat="45.36871" lon="4.58623">
        <ele>1056</ele>
        <time>2015-05-10T06:03:22Z</time>
      </trkpt>
      <trkpt lat="45.36866" lon="4.58625">
        <ele>1056</ele>
        <time>2015-05-10T06:03:24Z</time>
      </trkpt>
      <trkpt lat="45.36862" lon="4.58628">
        <ele>1057</ele>
        <time>2015-05-10T06:03:26Z</time>
      </trkpt>
      <trkpt lat="45.36855" lon="4.58632">
        <ele>1057</ele>
        <time>2015-05-10T06:03:29Z</time>
      </trkpt>
      <trkpt lat="45.36849" lon="4.58635">
        <ele>1057</ele>
        <time>2015-05-10T06:03:31Z</time>
      </trkpt>
      <trkpt lat="45.36844" lon="4.58638">
        <ele>1058</ele>
        <time>2015-05-10T06:03:33Z</time>
      </trkpt>
      <trkpt lat="45.36836" lon="4.58643">
        <ele>1058</ele>
        <time>2015-05-10T06:03:36Z</time>
      </trkpt>
      <trkpt lat="45.36831" lon="4.58645">
        <ele>1058</ele>
        <time>2015-05-10T06:03:38Z</time>
      </trkpt>
      <trkpt lat="45.36824" lon="4.58649">
        <ele>1058</ele>
        <time>2015-05-10T06:03:41Z</time>
      </trkpt>
      <trkpt lat="45.36818" lon="4.58652">
        <ele>1059</ele>
        <time>2015-05-10T06:03:44Z</time>
      </trkpt>
      <trkpt lat="45.36813" lon="4.58654">
        <ele>1059</ele>
        <time>2015-05-10T06:03:46Z</time>
      </trkpt>
      <trkpt lat="45.36807" lon="4.58656">
        <ele>1059</ele>
        <time>2015-05-10T06:03:48Z</time>
      </trkpt>
      <trkpt lat="45.36801" lon="4.58658">
        <ele>1060</ele>
        <time>2015-05-10T06:03:50Z</time>
      </trkpt>
      <trkpt lat="45.36795" lon="4.5866">
        <ele>1060</ele>
        <time>2015-05-10T06:03:52Z</time>
      </trkpt>
      <trkpt lat="45.3679" lon="4.58663">
        <ele>1059</ele>
        <time>2015-05-10T06:03:54Z</time>
      </trkpt>
      <trkpt lat="45.36782" lon="4.58666">
        <ele>1059</ele>
        <time>2015-05-10T06:03:57Z</time>
      </trkpt>
      <trkpt lat="45.36776" lon="4.58669">
        <ele>1059</ele>
        <time>2015-05-10T06:03:59Z</time>
      </trkpt>
      <trkpt lat="45.36769" lon="4.58673">
        <ele>1059</ele>
        <time>2015-05-10T06:04:02Z</time>
      </trkpt>
      <trkpt lat="45.36762" lon="4.58677">
        <ele>1059</ele>
        <time>2015-05-10T06:04:05Z</time>
      </trkpt>
      <trkpt lat="45.36756" lon="4.58681">
        <ele>1058</ele>
        <time>2015-05-10T06:04:08Z</time>
      </trkpt>
      <trkpt lat="45.36749" lon="4.58686">
        <ele>1058</ele>
        <time>2015-05-10T06:04:11Z</time>
      </trkpt>
      <trkpt lat="45.36743" lon="4.58688">
        <ele>1058</ele>
        <time>2015-05-10T06:04:13Z</time>
      </trkpt>
      <trkpt lat="45.36737" lon="4.58691">
        <ele>1058</ele>
        <time>2015-05-10T06:04:15Z</time>
      </trkpt>
      <trkpt lat="45.36731" lon="4.58693">
        <ele>1057</ele>
        <time>2015-05-10T06:04:17Z</time>
      </trkpt>
      <trkpt lat="45.36726" lon="4.58696">
        <ele>1056</ele>
        <time>2015-05-10T06:04:19Z</time>
      </trkpt>
      <trkpt lat="45.36721" lon="4.58702">
        <ele>1056</ele>
        <time>2015-05-10T06:04:21Z</time>
      </trkpt>
      <trkpt lat="45.36715" lon="4.58708">
        <ele>1056</ele>
        <time>2015-05-10T06:04:24Z</time>
      </trkpt>
      <trkpt lat="45.3671" lon="4.58713">
        <ele>1056</ele>
        <time>2015-05-10T06:04:26Z</time>
      </trkpt>
      <trkpt lat="45.36705" lon="4.58719">
        <ele>1055</ele>
        <time>2015-05-10T06:04:29Z</time>
      </trkpt>
      <trkpt lat="45.367" lon="4.58723">
        <ele>1055</ele>
        <time>2015-05-10T06:04:31Z</time>
      </trkpt>
      <trkpt lat="45.36697" lon="4.58726">
        <ele>1054</ele>
        <time>2015-05-10T06:04:33Z</time>
      </trkpt>
      <trkpt lat="45.36692" lon="4.58732">
        <ele>1053</ele>
        <time>2015-05-10T06:04:36Z</time>
      </trkpt>
      <trkpt lat="45.3669" lon="4.58738">
        <ele>1053</ele>
        <time>2015-05-10T06:04:38Z</time>
      </trkpt>
      <trkpt lat="45.36686" lon="4.58747">
        <ele>1052</ele>
        <time>2015-05-10T06:04:41Z</time>
      </trkpt>
      <trkpt lat="45.36681" lon="4.58755">
        <ele>1051</ele>
        <time>2015-05-10T06:04:43Z</time>
      </trkpt>
      <trkpt lat="45.36676" lon="4.58769">
        <ele>1050</ele>
        <time>2015-05-10T06:04:46Z</time>
      </trkpt>
      <trkpt lat="45.36673" lon="4.58777">
        <ele>1050</ele>
        <time>2015-05-10T06:04:48Z</time>
      </trkpt>
      <trkpt lat="45.36668" lon="4.58788">
        <ele>1049</ele>
        <time>2015-05-10T06:04:51Z</time>
      </trkpt>
      <trkpt lat="45.36665" lon="4.58796">
        <ele>1049</ele>
        <time>2015-05-10T06:04:53Z</time>
      </trkpt>
      <trkpt lat="45.36663" lon="4.58804">
        <ele>1048</ele>
        <time>2015-05-10T06:04:55Z</time>
      </trkpt>
      <trkpt lat="45.3666" lon="4.58809">
        <ele>1047</ele>
        <time>2015-05-10T06:04:57Z</time>
      </trkpt>
      <trkpt lat="45.36657" lon="4.58814">
        <ele>1046</ele>
        <time>2015-05-10T06:04:59Z</time>
      </trkpt>
      <trkpt lat="45.36655" lon="4.5882">
        <ele>1045</ele>
        <time>2015-05-10T06:05:01Z</time>
      </trkpt>
      <trkpt lat="45.36649" lon="4.58827">
        <ele>1044</ele>
        <time>2015-05-10T06:05:04Z</time>
      </trkpt>
      <trkpt lat="45.36647" lon="4.58833">
        <ele>1043</ele>
        <time>2015-05-10T06:05:06Z</time>
      </trkpt>
      <trkpt lat="45.36644" lon="4.58841">
        <ele>1042</ele>
        <time>2015-05-10T06:05:08Z</time>
      </trkpt>
      <trkpt lat="45.36641" lon="4.5885">
        <ele>1042</ele>
        <time>2015-05-10T06:05:10Z</time>
      </trkpt>
      <trkpt lat="45.36639" lon="4.58858">
        <ele>1041</ele>
        <time>2015-05-10T06:05:12Z</time>
      </trkpt>
      <trkpt lat="45.36639" lon="4.5887">
        <ele>1040</ele>
        <time>2015-05-10T06:05:15Z</time>
      </trkpt>
      <trkpt lat="45.36637" lon="4.58884">
        <ele>1039</ele>
        <time>2015-05-10T06:05:18Z</time>
      </trkpt>
      <trkpt lat="45.36635" lon="4.58892">
        <ele>1039</ele>
        <time>2015-05-10T06:05:20Z</time>
      </trkpt>
      <trkpt lat="45.36632" lon="4.58901">
        <ele>1038</ele>
        <time>2015-05-10T06:05:22Z</time>
      </trkpt>
      <trkpt lat="45.3663" lon="4.58909">
        <ele>1038</ele>
        <time>2015-05-10T06:05:24Z</time>
      </trkpt>
      <trkpt lat="45.36629" lon="4.5892">
        <ele>1036</ele>
        <time>2015-05-10T06:05:27Z</time>
      </trkpt>
      <trkpt lat="45.36628" lon="4.58928">
        <ele>1035</ele>
        <time>2015-05-10T06:05:29Z</time>
      </trkpt>
      <trkpt lat="45.36626" lon="4.58936">
        <ele>1035</ele>
        <time>2015-05-10T06:05:31Z</time>
      </trkpt>
      <trkpt lat="45.36625" lon="4.58948">
        <ele>1034</ele>
        <time>2015-05-10T06:05:34Z</time>
      </trkpt>
      <trkpt lat="45.36625" lon="4.58954">
        <ele>1034</ele>
        <time>2015-05-10T06:05:36Z</time>
      </trkpt>
      <trkpt lat="45.36625" lon="4.58964">
        <ele>1033</ele>
        <time>2015-05-10T06:05:39Z</time>
      </trkpt>
      <trkpt lat="45.36627" lon="4.58972">
        <ele>1033</ele>
        <time>2015-05-10T06:05:41Z</time>
      </trkpt>
      <trkpt lat="45.36628" lon="4.58983">
        <ele>1032</ele>
        <time>2015-05-10T06:05:44Z</time>
      </trkpt>
      <trkpt lat="45.36629" lon="4.58989">
        <ele>1031</ele>
        <time>2015-05-10T06:05:46Z</time>
      </trkpt>
      <trkpt lat="45.3663" lon="4.58997">
        <ele>1031</ele>
        <time>2015-05-10T06:05:48Z</time>
      </trkpt>
      <trkpt lat="45.36631" lon="4.59004">
        <ele>1030</ele>
        <time>2015-05-10T06:05:50Z</time>
      </trkpt>
      <trkpt lat="45.36632" lon="4.5901">
        <ele>1029</ele>
        <time>2015-05-10T06:05:52Z</time>
      </trkpt>
      <trkpt lat="45.36632" lon="4.59022">
        <ele>1029</ele>
        <time>2015-05-10T06:05:55Z</time>
      </trkpt>
      <trkpt lat="45.36633" lon="4.59031">
        <ele>1027</ele>
        <time>2015-05-10T06:05:58Z</time>
      </trkpt>
      <trkpt lat="45.36634" lon="4.59042">
        <ele>1026</ele>
        <time>2015-05-10T06:06:01Z</time>
      </trkpt>
      <trkpt lat="45.36636" lon="4.59052">
        <ele>1024</ele>
        <time>2015-05-10T06:06:04Z</time>
      </trkpt>
      <trkpt lat="45.36636" lon="4.59059">
        <ele>1024</ele>
        <time>2015-05-10T06:06:06Z</time>
      </trkpt>
      <trkpt lat="45.36638" lon="4.59068">
        <ele>1023</ele>
        <time>2015-05-10T06:06:09Z</time>
      </trkpt>
      <trkpt lat="45.36641" lon="4.59077">
        <ele>1023</ele>
        <time>2015-05-10T06:06:11Z</time>
      </trkpt>
      <trkpt lat="45.36643" lon="4.59088">
        <ele>1022</ele>
        <time>2015-05-10T06:06:14Z</time>
      </trkpt>
      <trkpt lat="45.36644" lon="4.59095">
        <ele>1021</ele>
        <time>2015-05-10T06:06:16Z</time>
      </trkpt>
      <trkpt lat="45.36647" lon="4.59104">
        <ele>1020</ele>
        <time>2015-05-10T06:06:18Z</time>
      </trkpt>
      <trkpt lat="45.3665" lon="4.59111">
        <ele>1019</ele>
        <time>2015-05-10T06:06:20Z</time>
      </trkpt>
      <trkpt lat="45.36651" lon="4.59119">
        <ele>1019</ele>
        <time>2015-05-10T06:06:22Z</time>
      </trkpt>
      <trkpt lat="45.36653" lon="4.5913">
        <ele>1017</ele>
        <time>2015-05-10T06:06:25Z</time>
      </trkpt>
      <trkpt lat="45.36656" lon="4.59137">
        <ele>1017</ele>
        <time>2015-05-10T06:06:27Z</time>
      </trkpt>
      <trkpt lat="45.36659" lon="4.59145">
        <ele>1016</ele>
        <time>2015-05-10T06:06:29Z</time>
      </trkpt>
      <trkpt lat="45.36661" lon="4.59154">
        <ele>1015</ele>
        <time>2015-05-10T06:06:31Z</time>
      </trkpt>
      <trkpt lat="45.36663" lon="4.59166">
        <ele>1014</ele>
        <time>2015-05-10T06:06:34Z</time>
      </trkpt>
      <trkpt lat="45.36664" lon="4.59174">
        <ele>1012</ele>
        <time>2015-05-10T06:06:36Z</time>
      </trkpt>
      <trkpt lat="45.36667" lon="4.59186">
        <ele>1011</ele>
        <time>2015-05-10T06:06:39Z</time>
      </trkpt>
      <trkpt lat="45.36668" lon="4.59194">
        <ele>1010</ele>
        <time>2015-05-10T06:06:41Z</time>
      </trkpt>
      <trkpt lat="45.36669" lon="4.59203">
        <ele>1009</ele>
        <time>2015-05-10T06:06:43Z</time>
      </trkpt>
      <trkpt lat="45.36671" lon="4.59211">
        <ele>1009</ele>
        <time>2015-05-10T06:06:45Z</time>
      </trkpt>
      <trkpt lat="45.36673" lon="4.59226">
        <ele>1007</ele>
        <time>2015-05-10T06:06:48Z</time>
      </trkpt>
      <trkpt lat="45.36677" lon="4.59237">
        <ele>1006</ele>
        <time>2015-05-10T06:06:51Z</time>
      </trkpt>
      <trkpt lat="45.36678" lon="4.59246">
        <ele>1006</ele>
        <time>2015-05-10T06:06:53Z</time>
      </trkpt>
      <trkpt lat="45.3668" lon="4.59255">
        <ele>1005</ele>
        <time>2015-05-10T06:06:55Z</time>
      </trkpt>
      <trkpt lat="45.36683" lon="4.59264">
        <ele>1004</ele>
        <time>2015-05-10T06:06:57Z</time>
      </trkpt>
      <trkpt lat="45.36684" lon="4.59272">
        <ele>1004</ele>
        <time>2015-05-10T06:06:59Z</time>
      </trkpt>
      <trkpt lat="45.36684" lon="4.59284">
        <ele>1004</ele>
        <time>2015-05-10T06:07:02Z</time>
      </trkpt>
      <trkpt lat="45.36687" lon="4.59292">
        <ele>1003</ele>
        <time>2015-05-10T06:07:04Z</time>
      </trkpt>
      <trkpt lat="45.36688" lon="4.593">
        <ele>1003</ele>
        <time>2015-05-10T06:07:07Z</time>
      </trkpt>
      <trkpt lat="45.3669" lon="4.59308">
        <ele>1002</ele>
        <time>2015-05-10T06:07:10Z</time>
      </trkpt>
      <trkpt lat="45.3669" lon="4.59313">
        <ele>1002</ele>
        <time>2015-05-10T06:07:12Z</time>
      </trkpt>
      <trkpt lat="45.3669" lon="4.5932">
        <ele>1002</ele>
        <time>2015-05-10T06:07:14Z</time>
      </trkpt>
      <trkpt lat="45.3669" lon="4.59325">
        <ele>1001</ele>
        <time>2015-05-10T06:07:16Z</time>
      </trkpt>
      <trkpt lat="45.36691" lon="4.59333">
        <ele>1001</ele>
        <time>2015-05-10T06:07:18Z</time>
      </trkpt>
      <trkpt lat="45.3669" lon="4.5934">
        <ele>1000</ele>
        <time>2015-05-10T06:07:20Z</time>
      </trkpt>
      <trkpt lat="45.3669" lon="4.59349">
        <ele>1000</ele>
        <time>2015-05-10T06:07:22Z</time>
      </trkpt>
      <trkpt lat="45.36692" lon="4.59356">
        <ele>1000</ele>
        <time>2015-05-10T06:07:24Z</time>
      </trkpt>
      <trkpt lat="45.36694" lon="4.59369">
        <ele>1000</ele>
        <time>2015-05-10T06:07:27Z</time>
      </trkpt>
      <trkpt lat="45.36696" lon="4.59377">
        <ele>1000</ele>
        <time>2015-05-10T06:07:29Z</time>
      </trkpt>
      <trkpt lat="45.36702" lon="4.59387">
        <ele>999</ele>
        <time>2015-05-10T06:07:32Z</time>
      </trkpt>
      <trkpt lat="45.36708" lon="4.59393">
        <ele>999</ele>
        <time>2015-05-10T06:07:35Z</time>
      </trkpt>
      <trkpt lat="45.36713" lon="4.59396">
        <ele>999</ele>
        <time>2015-05-10T06:07:37Z</time>
      </trkpt>
      <trkpt lat="45.36717" lon="4.59399">
        <ele>1000</ele>
        <time>2015-05-10T06:07:39Z</time>
      </trkpt>
      <trkpt lat="45.36722" lon="4.59401">
        <ele>999</ele>
        <time>2015-05-10T06:07:41Z</time>
      </trkpt>
      <trkpt lat="45.36729" lon="4.59402">
        <ele>999</ele>
        <time>2015-05-10T06:07:44Z</time>
      </trkpt>
      <trkpt lat="45.36734" lon="4.59403">
        <ele>999</ele>
        <time>2015-05-10T06:07:46Z</time>
      </trkpt>
      <trkpt lat="45.36741" lon="4.59404">
        <ele>999</ele>
        <time>2015-05-10T06:07:49Z</time>
      </trkpt>
      <trkpt lat="45.36746" lon="4.59405">
        <ele>1000</ele>
        <time>2015-05-10T06:07:51Z</time>
      </trkpt>
      <trkpt lat="45.36751" lon="4.59406">
        <ele>999</ele>
        <time>2015-05-10T06:07:53Z</time>
      </trkpt>
      <trkpt lat="45.3676" lon="4.59409">
        <ele>999</ele>
        <time>2015-05-10T06:07:56Z</time>
      </trkpt>
      <trkpt lat="45.36768" lon="4.59409">
        <ele>998</ele>
        <time>2015-05-10T06:07:59Z</time>
      </trkpt>
      <trkpt lat="45.36774" lon="4.59408">
        <ele>998</ele>
        <time>2015-05-10T06:08:01Z</time>
      </trkpt>
      <trkpt lat="45.36779" lon="4.59408">
        <ele>997</ele>
        <time>2015-05-10T06:08:03Z</time>
      </trkpt>
      <trkpt lat="45.36787" lon="4.59408">
        <ele>997</ele>
        <time>2015-05-10T06:08:06Z</time>
      </trkpt>
      <trkpt lat="45.36796" lon="4.59409">
        <ele>997</ele>
        <time>2015-05-10T06:08:09Z</time>
      </trkpt>
      <trkpt lat="45.36805" lon="4.59408">
        <ele>996</ele>
        <time>2015-05-10T06:08:12Z</time>
      </trkpt>
      <trkpt lat="45.36814" lon="4.59407">
        <ele>995</ele>
        <time>2015-05-10T06:08:15Z</time>
      </trkpt>
      <trkpt lat="45.36822" lon="4.59406">
        <ele>994</ele>
        <time>2015-05-10T06:08:18Z</time>
      </trkpt>
      <trkpt lat="45.36828" lon="4.59405">
        <ele>993</ele>
        <time>2015-05-10T06:08:20Z</time>
      </trkpt>
      <trkpt lat="45.36836" lon="4.59404">
        <ele>993</ele>
        <time>2015-05-10T06:08:23Z</time>
      </trkpt>
      <trkpt lat="45.36845" lon="4.59402">
        <ele>993</ele>
        <time>2015-05-10T06:08:26Z</time>
      </trkpt>
      <trkpt lat="45.3685" lon="4.594">
        <ele>992</ele>
        <time>2015-05-10T06:08:28Z</time>
      </trkpt>
      <trkpt lat="45.36858" lon="4.59397">
        <ele>991</ele>
        <time>2015-05-10T06:08:31Z</time>
      </trkpt>
      <trkpt lat="45.36866" lon="4.59394">
        <ele>991</ele>
        <time>2015-05-10T06:08:34Z</time>
      </trkpt>
      <trkpt lat="45.36872" lon="4.59391">
        <ele>991</ele>
        <time>2015-05-10T06:08:36Z</time>
      </trkpt>
      <trkpt lat="45.3688" lon="4.59387">
        <ele>991</ele>
        <time>2015-05-10T06:08:39Z</time>
      </trkpt>
      <trkpt lat="45.36889" lon="4.59383">
        <ele>991</ele>
        <time>2015-05-10T06:08:42Z</time>
      </trkpt>
      <trkpt lat="45.36895" lon="4.5938">
        <ele>991</ele>
        <time>2015-05-10T06:08:44Z</time>
      </trkpt>
      <trkpt lat="45.369" lon="4.59376">
        <ele>990</ele>
        <time>2015-05-10T06:08:46Z</time>
      </trkpt>
      <trkpt lat="45.36906" lon="4.59373">
        <ele>990</ele>
        <time>2015-05-10T06:08:48Z</time>
      </trkpt>
      <trkpt lat="45.36913" lon="4.59369">
        <ele>989</ele>
        <time>2015-05-10T06:08:51Z</time>
      </trkpt>
      <trkpt lat="45.36918" lon="4.59368">
        <ele>989</ele>
        <time>2015-05-10T06:08:53Z</time>
      </trkpt>
      <trkpt lat="45.36923" lon="4.59367">
        <ele>990</ele>
        <time>2015-05-10T06:08:55Z</time>
      </trkpt>
      <trkpt lat="45.36931" lon="4.5937">
        <ele>990</ele>
        <time>2015-05-10T06:08:58Z</time>
      </trkpt>
      <trkpt lat="45.36935" lon="4.59372">
        <ele>989</ele>
        <time>2015-05-10T06:09:00Z</time>
      </trkpt>
      <trkpt lat="45.36942" lon="4.59371">
        <ele>988</ele>
        <time>2015-05-10T06:09:03Z</time>
      </trkpt>
      <trkpt lat="45.36946" lon="4.59371">
        <ele>987</ele>
        <time>2015-05-10T06:09:05Z</time>
      </trkpt>
      <trkpt lat="45.36951" lon="4.59369">
        <ele>987</ele>
        <time>2015-05-10T06:09:08Z</time>
      </trkpt>
      <trkpt lat="45.36956" lon="4.59367">
        <ele>987</ele>
        <time>2015-05-10T06:09:10Z</time>
      </trkpt>
      <trkpt lat="45.36962" lon="4.59365">
        <ele>987</ele>
        <time>2015-05-10T06:09:13Z</time>
      </trkpt>
      <trkpt lat="45.36967" lon="4.59363">
        <ele>986</ele>
        <time>2015-05-10T06:09:15Z</time>
      </trkpt>
      <trkpt lat="45.36972" lon="4.59361">
        <ele>986</ele>
        <time>2015-05-10T06:09:17Z</time>
      </trkpt>
      <trkpt lat="45.36975" lon="4.59356">
        <ele>987</ele>
        <time>2015-05-10T06:09:20Z</time>
      </trkpt>
      <trkpt lat="45.36982" lon="4.59352">
        <ele>988</ele>
        <time>2015-05-10T06:09:23Z</time>
      </trkpt>
      <trkpt lat="45.36988" lon="4.59349">
        <ele>988</ele>
        <time>2015-05-10T06:09:26Z</time>
      </trkpt>
      <trkpt lat="45.36992" lon="4.59348">
        <ele>988</ele>
        <time>2015-05-10T06:09:28Z</time>
      </trkpt>
      <trkpt lat="45.36997" lon="4.59348">
        <ele>988</ele>
        <time>2015-05-10T06:09:30Z</time>
      </trkpt>
      <trkpt lat="45.37005" lon="4.59346">
        <ele>988</ele>
        <time>2015-05-10T06:09:33Z</time>
      </trkpt>
      <trkpt lat="45.3701" lon="4.59344">
        <ele>989</ele>
        <time>2015-05-10T06:09:35Z</time>
      </trkpt>
      <trkpt lat="45.37015" lon="4.59342">
        <ele>990</ele>
        <time>2015-05-10T06:09:37Z</time>
      </trkpt>
      <trkpt lat="45.37022" lon="4.59341">
        <ele>991</ele>
        <time>2015-05-10T06:09:40Z</time>
      </trkpt>
      <trkpt lat="45.37028" lon="4.59341">
        <ele>991</ele>
        <time>2015-05-10T06:09:42Z</time>
      </trkpt>
      <trkpt lat="45.37033" lon="4.59339">
        <ele>992</ele>
        <time>2015-05-10T06:09:45Z</time>
      </trkpt>
      <trkpt lat="45.37038" lon="4.59338">
        <ele>992</ele>
        <time>2015-05-10T06:09:47Z</time>
      </trkpt>
      <trkpt lat="45.37045" lon="4.59338">
        <ele>992</ele>
        <time>2015-05-10T06:09:49Z</time>
      </trkpt>
      <trkpt lat="45.37053" lon="4.59338">
        <ele>992</ele>
        <time>2015-05-10T06:09:52Z</time>
      </trkpt>
      <trkpt lat="45.37059" lon="4.59337">
        <ele>992</ele>
        <time>2015-05-10T06:09:55Z</time>
      </trkpt>
      <trkpt lat="45.37063" lon="4.59336">
        <ele>992</ele>
        <time>2015-05-10T06:09:57Z</time>
      </trkpt>
      <trkpt lat="45.37069" lon="4.59335">
        <ele>992</ele>
        <time>2015-05-10T06:09:59Z</time>
      </trkpt>
      <trkpt lat="45.37074" lon="4.59335">
        <ele>992</ele>
        <time>2015-05-10T06:10:01Z</time>
      </trkpt>
      <trkpt lat="45.3708" lon="4.59335">
        <ele>992</ele>
        <time>2015-05-10T06:10:03Z</time>
      </trkpt>
      <trkpt lat="45.37085" lon="4.59334">
        <ele>993</ele>
        <time>2015-05-10T06:10:05Z</time>
      </trkpt>
      <trkpt lat="45.37091" lon="4.59332">
        <ele>993</ele>
        <time>2015-05-10T06:10:08Z</time>
      </trkpt>
      <trkpt lat="45.37096" lon="4.5933">
        <ele>994</ele>
        <time>2015-05-10T06:10:10Z</time>
      </trkpt>
      <trkpt lat="45.37102" lon="4.59329">
        <ele>993</ele>
        <time>2015-05-10T06:10:13Z</time>
      </trkpt>
      <trkpt lat="45.37106" lon="4.59329">
        <ele>993</ele>
        <time>2015-05-10T06:10:15Z</time>
      </trkpt>
      <trkpt lat="45.37112" lon="4.59329">
        <ele>993</ele>
        <time>2015-05-10T06:10:18Z</time>
      </trkpt>
      <trkpt lat="45.37117" lon="4.59331">
        <ele>993</ele>
        <time>2015-05-10T06:10:20Z</time>
      </trkpt>
      <trkpt lat="45.37124" lon="4.59334">
        <ele>993</ele>
        <time>2015-05-10T06:10:23Z</time>
      </trkpt>
      <trkpt lat="45.37129" lon="4.59336">
        <ele>993</ele>
        <time>2015-05-10T06:10:25Z</time>
      </trkpt>
      <trkpt lat="45.37139" lon="4.59339">
        <ele>993</ele>
        <time>2015-05-10T06:10:28Z</time>
      </trkpt>
      <trkpt lat="45.37145" lon="4.5934">
        <ele>993</ele>
        <time>2015-05-10T06:10:30Z</time>
      </trkpt>
      <trkpt lat="45.37151" lon="4.59342">
        <ele>993</ele>
        <time>2015-05-10T06:10:32Z</time>
      </trkpt>
      <trkpt lat="45.37158" lon="4.59344">
        <ele>993</ele>
        <time>2015-05-10T06:10:34Z</time>
      </trkpt>
      <trkpt lat="45.37166" lon="4.59348">
        <ele>992</ele>
        <time>2015-05-10T06:10:37Z</time>
      </trkpt>
      <trkpt lat="45.37173" lon="4.59351">
        <ele>992</ele>
        <time>2015-05-10T06:10:40Z</time>
      </trkpt>
      <trkpt lat="45.37181" lon="4.59355">
        <ele>992</ele>
        <time>2015-05-10T06:10:43Z</time>
      </trkpt>
      <trkpt lat="45.37187" lon="4.5936">
        <ele>992</ele>
        <time>2015-05-10T06:10:46Z</time>
      </trkpt>
      <trkpt lat="45.37193" lon="4.59365">
        <ele>991</ele>
        <time>2015-05-10T06:10:48Z</time>
      </trkpt>
      <trkpt lat="45.37203" lon="4.59371">
        <ele>991</ele>
        <time>2015-05-10T06:10:51Z</time>
      </trkpt>
      <trkpt lat="45.37209" lon="4.59376">
        <ele>990</ele>
        <time>2015-05-10T06:10:53Z</time>
      </trkpt>
      <trkpt lat="45.37215" lon="4.5938">
        <ele>990</ele>
        <time>2015-05-10T06:10:55Z</time>
      </trkpt>
      <trkpt lat="45.37222" lon="4.59384">
        <ele>990</ele>
        <time>2015-05-10T06:10:57Z</time>
      </trkpt>
      <trkpt lat="45.3723" lon="4.59391">
        <ele>989</ele>
        <time>2015-05-10T06:11:00Z</time>
      </trkpt>
      <trkpt lat="45.37234" lon="4.59395">
        <ele>988</ele>
        <time>2015-05-10T06:11:02Z</time>
      </trkpt>
      <trkpt lat="45.37242" lon="4.59401">
        <ele>987</ele>
        <time>2015-05-10T06:11:05Z</time>
      </trkpt>
      <trkpt lat="45.3725" lon="4.5941">
        <ele>986</ele>
        <time>2015-05-10T06:11:08Z</time>
      </trkpt>
      <trkpt lat="45.37255" lon="4.59414">
        <ele>985</ele>
        <time>2015-05-10T06:11:10Z</time>
      </trkpt>
      <trkpt lat="45.37262" lon="4.59421">
        <ele>984</ele>
        <time>2015-05-10T06:11:13Z</time>
      </trkpt>
      <trkpt lat="45.37271" lon="4.59427">
        <ele>982</ele>
        <time>2015-05-10T06:11:16Z</time>
      </trkpt>
      <trkpt lat="45.37277" lon="4.59431">
        <ele>981</ele>
        <time>2015-05-10T06:11:18Z</time>
      </trkpt>
      <trkpt lat="45.37281" lon="4.59434">
        <ele>980</ele>
        <time>2015-05-10T06:11:20Z</time>
      </trkpt>
      <trkpt lat="45.37287" lon="4.59439">
        <ele>979</ele>
        <time>2015-05-10T06:11:23Z</time>
      </trkpt>
      <trkpt lat="45.37292" lon="4.59441">
        <ele>978</ele>
        <time>2015-05-10T06:11:25Z</time>
      </trkpt>
      <trkpt lat="45.37299" lon="4.59445">
        <ele>978</ele>
        <time>2015-05-10T06:11:28Z</time>
      </trkpt>
      <trkpt lat="45.37304" lon="4.59449">
        <ele>978</ele>
        <time>2015-05-10T06:11:30Z</time>
      </trkpt>
      <trkpt lat="45.37313" lon="4.59453">
        <ele>977</ele>
        <time>2015-05-10T06:11:33Z</time>
      </trkpt>
      <trkpt lat="45.3732" lon="4.59459">
        <ele>977</ele>
        <time>2015-05-10T06:11:36Z</time>
      </trkpt>
      <trkpt lat="45.37326" lon="4.59466">
        <ele>976</ele>
        <time>2015-05-10T06:11:39Z</time>
      </trkpt>
      <trkpt lat="45.37331" lon="4.59473">
        <ele>975</ele>
        <time>2015-05-10T06:11:42Z</time>
      </trkpt>
      <trkpt lat="45.37335" lon="4.59478">
        <ele>974</ele>
        <time>2015-05-10T06:11:44Z</time>
      </trkpt>
      <trkpt lat="45.37338" lon="4.59485">
        <ele>972</ele>
        <time>2015-05-10T06:11:47Z</time>
      </trkpt>
      <trkpt lat="45.37343" lon="4.59489">
        <ele>971</ele>
        <time>2015-05-10T06:11:49Z</time>
      </trkpt>
      <trkpt lat="45.3735" lon="4.59495">
        <ele>969</ele>
        <time>2015-05-10T06:11:52Z</time>
      </trkpt>
      <trkpt lat="45.37356" lon="4.59498">
        <ele>968</ele>
        <time>2015-05-10T06:11:55Z</time>
      </trkpt>
      <trkpt lat="45.3736" lon="4.59501">
        <ele>967</ele>
        <time>2015-05-10T06:11:57Z</time>
      </trkpt>
      <trkpt lat="45.37363" lon="4.59504">
        <ele>966</ele>
        <time>2015-05-10T06:11:59Z</time>
      </trkpt>
      <trkpt lat="45.37371" lon="4.59509">
        <ele>965</ele>
        <time>2015-05-10T06:12:02Z</time>
      </trkpt>
      <trkpt lat="45.37376" lon="4.59512">
        <ele>963</ele>
        <time>2015-05-10T06:12:04Z</time>
      </trkpt>
      <trkpt lat="45.37384" lon="4.59518">
        <ele>962</ele>
        <time>2015-05-10T06:12:07Z</time>
      </trkpt>
      <trkpt lat="45.3739" lon="4.59522">
        <ele>961</ele>
        <time>2015-05-10T06:12:10Z</time>
      </trkpt>
      <trkpt lat="45.37397" lon="4.59528">
        <ele>959</ele>
        <time>2015-05-10T06:12:13Z</time>
      </trkpt>
      <trkpt lat="45.37403" lon="4.59533">
        <ele>958</ele>
        <time>2015-05-10T06:12:15Z</time>
      </trkpt>
      <trkpt lat="45.37408" lon="4.59535">
        <ele>957</ele>
        <time>2015-05-10T06:12:17Z</time>
      </trkpt>
      <trkpt lat="45.37416" lon="4.59538">
        <ele>956</ele>
        <time>2015-05-10T06:12:20Z</time>
      </trkpt>
      <trkpt lat="45.37421" lon="4.5954">
        <ele>955</ele>
        <time>2015-05-10T06:12:22Z</time>
      </trkpt>
      <trkpt lat="45.37425" lon="4.59541">
        <ele>954</ele>
        <time>2015-05-10T06:12:24Z</time>
      </trkpt>
      <trkpt lat="45.37431" lon="4.59542">
        <ele>953</ele>
        <time>2015-05-10T06:12:27Z</time>
      </trkpt>
      <trkpt lat="45.37436" lon="4.59543">
        <ele>952</ele>
        <time>2015-05-10T06:12:29Z</time>
      </trkpt>
      <trkpt lat="45.37443" lon="4.59546">
        <ele>951</ele>
        <time>2015-05-10T06:12:32Z</time>
      </trkpt>
      <trkpt lat="45.3745" lon="4.59546">
        <ele>950</ele>
        <time>2015-05-10T06:12:34Z</time>
      </trkpt>
      <trkpt lat="45.37456" lon="4.59546">
        <ele>950</ele>
        <time>2015-05-10T06:12:36Z</time>
      </trkpt>
      <trkpt lat="45.37466" lon="4.59548">
        <ele>949</ele>
        <time>2015-05-10T06:12:39Z</time>
      </trkpt>
      <trkpt lat="45.37473" lon="4.59551">
        <ele>948</ele>
        <time>2015-05-10T06:12:41Z</time>
      </trkpt>
      <trkpt lat="45.3748" lon="4.59553">
        <ele>947</ele>
        <time>2015-05-10T06:12:44Z</time>
      </trkpt>
      <trkpt lat="45.37489" lon="4.59556">
        <ele>946</ele>
        <time>2015-05-10T06:12:47Z</time>
      </trkpt>
      <trkpt lat="45.37495" lon="4.59559">
        <ele>945</ele>
        <time>2015-05-10T06:12:49Z</time>
      </trkpt>
      <trkpt lat="45.37503" lon="4.59563">
        <ele>942</ele>
        <time>2015-05-10T06:12:52Z</time>
      </trkpt>
      <trkpt lat="45.37508" lon="4.59569">
        <ele>941</ele>
        <time>2015-05-10T06:12:54Z</time>
      </trkpt>
      <trkpt lat="45.37514" lon="4.59574">
        <ele>940</ele>
        <time>2015-05-10T06:12:57Z</time>
      </trkpt>
      <trkpt lat="45.37519" lon="4.59576">
        <ele>939</ele>
        <time>2015-05-10T06:12:59Z</time>
      </trkpt>
      <trkpt lat="45.37524" lon="4.59577">
        <ele>938</ele>
        <time>2015-05-10T06:13:01Z</time>
      </trkpt>
      <trkpt lat="45.37528" lon="4.59582">
        <ele>937</ele>
        <time>2015-05-10T06:13:04Z</time>
      </trkpt>
      <trkpt lat="45.37536" lon="4.59584">
        <ele>936</ele>
        <time>2015-05-10T06:13:07Z</time>
      </trkpt>
      <trkpt lat="45.37545" lon="4.59586">
        <ele>935</ele>
        <time>2015-05-10T06:13:10Z</time>
      </trkpt>
      <trkpt lat="45.37555" lon="4.59587">
        <ele>934</ele>
        <time>2015-05-10T06:13:13Z</time>
      </trkpt>
      <trkpt lat="45.37561" lon="4.59588">
        <ele>934</ele>
        <time>2015-05-10T06:13:15Z</time>
      </trkpt>
      <trkpt lat="45.37571" lon="4.59589">
        <ele>933</ele>
        <time>2015-05-10T06:13:18Z</time>
      </trkpt>
      <trkpt lat="45.37577" lon="4.5959">
        <ele>933</ele>
        <time>2015-05-10T06:13:20Z</time>
      </trkpt>
      <trkpt lat="45.37584" lon="4.59593">
        <ele>933</ele>
        <time>2015-05-10T06:13:23Z</time>
      </trkpt>
      <trkpt lat="45.3759" lon="4.59592">
        <ele>932</ele>
        <time>2015-05-10T06:13:25Z</time>
      </trkpt>
      <trkpt lat="45.37595" lon="4.59593">
        <ele>932</ele>
        <time>2015-05-10T06:13:27Z</time>
      </trkpt>
      <trkpt lat="45.37601" lon="4.59595">
        <ele>931</ele>
        <time>2015-05-10T06:13:30Z</time>
      </trkpt>
      <trkpt lat="45.37603" lon="4.59604">
        <ele>930</ele>
        <time>2015-05-10T06:13:33Z</time>
      </trkpt>
      <trkpt lat="45.376" lon="4.59608">
        <ele>930</ele>
        <time>2015-05-10T06:13:35Z</time>
      </trkpt>
      <trkpt lat="45.37597" lon="4.59614">
        <ele>929</ele>
        <time>2015-05-10T06:13:38Z</time>
      </trkpt>
      <trkpt lat="45.37595" lon="4.59619">
        <ele>928</ele>
        <time>2015-05-10T06:13:40Z</time>
      </trkpt>
      <trkpt lat="45.37597" lon="4.59629">
        <ele>928</ele>
        <time>2015-05-10T06:13:43Z</time>
      </trkpt>
      <trkpt lat="45.376" lon="4.59638">
        <ele>927</ele>
        <time>2015-05-10T06:13:46Z</time>
      </trkpt>
      <trkpt lat="45.37604" lon="4.59644">
        <ele>927</ele>
        <time>2015-05-10T06:13:49Z</time>
      </trkpt>
      <trkpt lat="45.37606" lon="4.59652">
        <ele>928</ele>
        <time>2015-05-10T06:13:52Z</time>
      </trkpt>
      <trkpt lat="45.37606" lon="4.59661">
        <ele>928</ele>
        <time>2015-05-10T06:13:55Z</time>
      </trkpt>
      <trkpt lat="45.37606" lon="4.5967">
        <ele>928</ele>
        <time>2015-05-10T06:13:58Z</time>
      </trkpt>
      <trkpt lat="45.37605" lon="4.59675">
        <ele>929</ele>
        <time>2015-05-10T06:14:00Z</time>
      </trkpt>
      <trkpt lat="45.37606" lon="4.59679">
        <ele>929</ele>
        <time>2015-05-10T06:14:03Z</time>
      </trkpt>
      <trkpt lat="45.37606" lon="4.59683">
        <ele>929</ele>
        <time>2015-05-10T06:14:05Z</time>
      </trkpt>
      <trkpt lat="45.37606" lon="4.59688">
        <ele>929</ele>
        <time>2015-05-10T06:14:07Z</time>
      </trkpt>
      <trkpt lat="45.37605" lon="4.59695">
        <ele>929</ele>
        <time>2015-05-10T06:14:10Z</time>
      </trkpt>
      <trkpt lat="45.37604" lon="4.59701">
        <ele>929</ele>
        <time>2015-05-10T06:14:12Z</time>
      </trkpt>
      <trkpt lat="45.37603" lon="4.59709">
        <ele>930</ele>
        <time>2015-05-10T06:14:15Z</time>
      </trkpt>
      <trkpt lat="45.37603" lon="4.59715">
        <ele>930</ele>
        <time>2015-05-10T06:14:17Z</time>
      </trkpt>
      <trkpt lat="45.37603" lon="4.59724">
        <ele>931</ele>
        <time>2015-05-10T06:14:20Z</time>
      </trkpt>
      <trkpt lat="45.37603" lon="4.59726">
        <ele>931</ele>
        <time>2015-05-10T06:14:22Z</time>
      </trkpt>
      <trkpt lat="45.37603" lon="4.59729">
        <ele>931</ele>
        <time>2015-05-10T06:14:24Z</time>
      </trkpt>
      <trkpt lat="45.37603" lon="4.59737">
        <ele>931</ele>
        <time>2015-05-10T06:14:27Z</time>
      </trkpt>
      <trkpt lat="45.37603" lon="4.59746">
        <ele>932</ele>
        <time>2015-05-10T06:14:30Z</time>
      </trkpt>
      <trkpt lat="45.37604" lon="4.59751">
        <ele>932</ele>
        <time>2015-05-10T06:14:32Z</time>
      </trkpt>
      <trkpt lat="45.37604" lon="4.59759">
        <ele>933</ele>
        <time>2015-05-10T06:14:35Z</time>
      </trkpt>
      <trkpt lat="45.37603" lon="4.59768">
        <ele>933</ele>
        <time>2015-05-10T06:14:38Z</time>
      </trkpt>
      <trkpt lat="45.37603" lon="4.59774">
        <ele>933</ele>
        <time>2015-05-10T06:14:40Z</time>
      </trkpt>
      <trkpt lat="45.37602" lon="4.59781">
        <ele>934</ele>
        <time>2015-05-10T06:14:42Z</time>
      </trkpt>
      <trkpt lat="45.37601" lon="4.59787">
        <ele>934</ele>
        <time>2015-05-10T06:14:44Z</time>
      </trkpt>
      <trkpt lat="45.37599" lon="4.59796">
        <ele>934</ele>
        <time>2015-05-10T06:14:47Z</time>
      </trkpt>
      <trkpt lat="45.37597" lon="4.59803">
        <ele>934</ele>
        <time>2015-05-10T06:14:49Z</time>
      </trkpt>
      <trkpt lat="45.37594" lon="4.59811">
        <ele>934</ele>
        <time>2015-05-10T06:14:51Z</time>
      </trkpt>
      <trkpt lat="45.37591" lon="4.59817">
        <ele>934</ele>
        <time>2015-05-10T06:14:53Z</time>
      </trkpt>
      <trkpt lat="45.37587" lon="4.59826">
        <ele>933</ele>
        <time>2015-05-10T06:14:56Z</time>
      </trkpt>
      <trkpt lat="45.37584" lon="4.59834">
        <ele>932</ele>
        <time>2015-05-10T06:14:59Z</time>
      </trkpt>
      <trkpt lat="45.37581" lon="4.59843">
        <ele>931</ele>
        <time>2015-05-10T06:15:02Z</time>
      </trkpt>
      <trkpt lat="45.37579" lon="4.59849">
        <ele>930</ele>
        <time>2015-05-10T06:15:04Z</time>
      </trkpt>
      <trkpt lat="45.37576" lon="4.59855">
        <ele>930</ele>
        <time>2015-05-10T06:15:06Z</time>
      </trkpt>
      <trkpt lat="45.37572" lon="4.59861">
        <ele>929</ele>
        <time>2015-05-10T06:15:08Z</time>
      </trkpt>
      <trkpt lat="45.37569" lon="4.5987">
        <ele>929</ele>
        <time>2015-05-10T06:15:11Z</time>
      </trkpt>
      <trkpt lat="45.37565" lon="4.59879">
        <ele>928</ele>
        <time>2015-05-10T06:15:14Z</time>
      </trkpt>
      <trkpt lat="45.37563" lon="4.59886">
        <ele>928</ele>
        <time>2015-05-10T06:15:16Z</time>
      </trkpt>
      <trkpt lat="45.37561" lon="4.59892">
        <ele>928</ele>
        <time>2015-05-10T06:15:18Z</time>
      </trkpt>
      <trkpt lat="45.37559" lon="4.59898">
        <ele>927</ele>
        <time>2015-05-10T06:15:20Z</time>
      </trkpt>
      <trkpt lat="45.37555" lon="4.59907">
        <ele>927</ele>
        <time>2015-05-10T06:15:23Z</time>
      </trkpt>
      <trkpt lat="45.37552" lon="4.59917">
        <ele>926</ele>
        <time>2015-05-10T06:15:26Z</time>
      </trkpt>
      <trkpt lat="45.37548" lon="4.59927">
        <ele>926</ele>
        <time>2015-05-10T06:15:29Z</time>
      </trkpt>
      <trkpt lat="45.37546" lon="4.59934">
        <ele>926</ele>
        <time>2015-05-10T06:15:31Z</time>
      </trkpt>
      <trkpt lat="45.37545" lon="4.59941">
        <ele>926</ele>
        <time>2015-05-10T06:15:33Z</time>
      </trkpt>
      <trkpt lat="45.37543" lon="4.59948">
        <ele>926</ele>
        <time>2015-05-10T06:15:35Z</time>
      </trkpt>
      <trkpt lat="45.37541" lon="4.59959">
        <ele>925</ele>
        <time>2015-05-10T06:15:38Z</time>
      </trkpt>
      <trkpt lat="45.37538" lon="4.59969">
        <ele>924</ele>
        <time>2015-05-10T06:15:41Z</time>
      </trkpt>
      <trkpt lat="45.37533" lon="4.59977">
        <ele>923</ele>
        <time>2015-05-10T06:15:44Z</time>
      </trkpt>
      <trkpt lat="45.37529" lon="4.59987">
        <ele>922</ele>
        <time>2015-05-10T06:15:47Z</time>
      </trkpt>
      <trkpt lat="45.37528" lon="4.59994">
        <ele>922</ele>
        <time>2015-05-10T06:15:49Z</time>
      </trkpt>
      <trkpt lat="45.37526" lon="4.60002">
        <ele>921</ele>
        <time>2015-05-10T06:15:52Z</time>
      </trkpt>
      <trkpt lat="45.37523" lon="4.60005">
        <ele>920</ele>
        <time>2015-05-10T06:15:54Z</time>
      </trkpt>
      <trkpt lat="45.37519" lon="4.60009">
        <ele>919</ele>
        <time>2015-05-10T06:15:56Z</time>
      </trkpt>
      <trkpt lat="45.37513" lon="4.60011">
        <ele>918</ele>
        <time>2015-05-10T06:15:59Z</time>
      </trkpt>
      <trkpt lat="45.37509" lon="4.60012">
        <ele>917</ele>
        <time>2015-05-10T06:16:01Z</time>
      </trkpt>
      <trkpt lat="45.37504" lon="4.60012">
        <ele>915</ele>
        <time>2015-05-10T06:16:03Z</time>
      </trkpt>
      <trkpt lat="45.37497" lon="4.60012">
        <ele>914</ele>
        <time>2015-05-10T06:16:06Z</time>
      </trkpt>
      <trkpt lat="45.37492" lon="4.60011">
        <ele>914</ele>
        <time>2015-05-10T06:16:08Z</time>
      </trkpt>
      <trkpt lat="45.37485" lon="4.60011">
        <ele>912</ele>
        <time>2015-05-10T06:16:11Z</time>
      </trkpt>
      <trkpt lat="45.37481" lon="4.6001">
        <ele>911</ele>
        <time>2015-05-10T06:16:13Z</time>
      </trkpt>
      <trkpt lat="45.37476" lon="4.6001">
        <ele>910</ele>
        <time>2015-05-10T06:16:15Z</time>
      </trkpt>
      <trkpt lat="45.37468" lon="4.6001">
        <ele>908</ele>
        <time>2015-05-10T06:16:18Z</time>
      </trkpt>
      <trkpt lat="45.37463" lon="4.6001">
        <ele>907</ele>
        <time>2015-05-10T06:16:20Z</time>
      </trkpt>
      <trkpt lat="45.37457" lon="4.6001">
        <ele>907</ele>
        <time>2015-05-10T06:16:23Z</time>
      </trkpt>
      <trkpt lat="45.3745" lon="4.6001">
        <ele>906</ele>
        <time>2015-05-10T06:16:26Z</time>
      </trkpt>
      <trkpt lat="45.37443" lon="4.6001">
        <ele>905</ele>
        <time>2015-05-10T06:16:29Z</time>
      </trkpt>
      <trkpt lat="45.37437" lon="4.60011">
        <ele>904</ele>
        <time>2015-05-10T06:16:32Z</time>
      </trkpt>
      <trkpt lat="45.37429" lon="4.60012">
        <ele>903</ele>
        <time>2015-05-10T06:16:35Z</time>
      </trkpt>
      <trkpt lat="45.37423" lon="4.60012">
        <ele>901</ele>
        <time>2015-05-10T06:16:37Z</time>
      </trkpt>
      <trkpt lat="45.37416" lon="4.60013">
        <ele>900</ele>
        <time>2015-05-10T06:16:40Z</time>
      </trkpt>
      <trkpt lat="45.3741" lon="4.60015">
        <ele>899</ele>
        <time>2015-05-10T06:16:42Z</time>
      </trkpt>
      <trkpt lat="45.37405" lon="4.60015">
        <ele>899</ele>
        <time>2015-05-10T06:16:44Z</time>
      </trkpt>
      <trkpt lat="45.37397" lon="4.60018">
        <ele>897</ele>
        <time>2015-05-10T06:16:47Z</time>
      </trkpt>
      <trkpt lat="45.37391" lon="4.60021">
        <ele>897</ele>
        <time>2015-05-10T06:16:50Z</time>
      </trkpt>
      <trkpt lat="45.37385" lon="4.60024">
        <ele>895</ele>
        <time>2015-05-10T06:16:53Z</time>
      </trkpt>
      <trkpt lat="45.37381" lon="4.60026">
        <ele>895</ele>
        <time>2015-05-10T06:16:55Z</time>
      </trkpt>
      <trkpt lat="45.37378" lon="4.60027">
        <ele>894</ele>
        <time>2015-05-10T06:16:57Z</time>
      </trkpt>
      <trkpt lat="45.37374" lon="4.60028">
        <ele>893</ele>
        <time>2015-05-10T06:16:59Z</time>
      </trkpt>
      <trkpt lat="45.37368" lon="4.60027">
        <ele>893</ele>
        <time>2015-05-10T06:17:02Z</time>
      </trkpt>
      <trkpt lat="45.37363" lon="4.60027">
        <ele>892</ele>
        <time>2015-05-10T06:17:04Z</time>
      </trkpt>
      <trkpt lat="45.37359" lon="4.60026">
        <ele>891</ele>
        <time>2015-05-10T06:17:06Z</time>
      </trkpt>
      <trkpt lat="45.37355" lon="4.60027">
        <ele>891</ele>
        <time>2015-05-10T06:17:08Z</time>
      </trkpt>
      <trkpt lat="45.3735" lon="4.60028">
        <ele>889</ele>
        <time>2015-05-10T06:17:11Z</time>
      </trkpt>
      <trkpt lat="45.37346" lon="4.60029">
        <ele>889</ele>
        <time>2015-05-10T06:17:13Z</time>
      </trkpt>
      <trkpt lat="45.37341" lon="4.60032">
        <ele>889</ele>
        <time>2015-05-10T06:17:16Z</time>
      </trkpt>
      <trkpt lat="45.37335" lon="4.60035">
        <ele>887</ele>
        <time>2015-05-10T06:17:19Z</time>
      </trkpt>
      <trkpt lat="45.37331" lon="4.60037">
        <ele>886</ele>
        <time>2015-05-10T06:17:21Z</time>
      </trkpt>
      <trkpt lat="45.37325" lon="4.6004">
        <ele>886</ele>
        <time>2015-05-10T06:17:24Z</time>
      </trkpt>
      <trkpt lat="45.37319" lon="4.60043">
        <ele>885</ele>
        <time>2015-05-10T06:17:27Z</time>
      </trkpt>
      <trkpt lat="45.37312" lon="4.60044">
        <ele>883</ele>
        <time>2015-05-10T06:17:30Z</time>
      </trkpt>
      <trkpt lat="45.37304" lon="4.60044">
        <ele>882</ele>
        <time>2015-05-10T06:17:33Z</time>
      </trkpt>
      <trkpt lat="45.37299" lon="4.60045">
        <ele>881</ele>
        <time>2015-05-10T06:17:35Z</time>
      </trkpt>
      <trkpt lat="45.37294" lon="4.60046">
        <ele>881</ele>
        <time>2015-05-10T06:17:37Z</time>
      </trkpt>
      <trkpt lat="45.37288" lon="4.60043">
        <ele>880</ele>
        <time>2015-05-10T06:17:40Z</time>
      </trkpt>
      <trkpt lat="45.37283" lon="4.60044">
        <ele>879</ele>
        <time>2015-05-10T06:17:42Z</time>
      </trkpt>
      <trkpt lat="45.37278" lon="4.60045">
        <ele>878</ele>
        <time>2015-05-10T06:17:44Z</time>
      </trkpt>
      <trkpt lat="45.3727" lon="4.60044">
        <ele>877</ele>
        <time>2015-05-10T06:17:47Z</time>
      </trkpt>
      <trkpt lat="45.37265" lon="4.60044">
        <ele>876</ele>
        <time>2015-05-10T06:17:49Z</time>
      </trkpt>
      <trkpt lat="45.3726" lon="4.60042">
        <ele>875</ele>
        <time>2015-05-10T06:17:51Z</time>
      </trkpt>
      <trkpt lat="45.37254" lon="4.60041">
        <ele>874</ele>
        <time>2015-05-10T06:17:53Z</time>
      </trkpt>
      <trkpt lat="45.37245" lon="4.60038">
        <ele>873</ele>
        <time>2015-05-10T06:17:56Z</time>
      </trkpt>
      <trkpt lat="45.37239" lon="4.60036">
        <ele>872</ele>
        <time>2015-05-10T06:17:59Z</time>
      </trkpt>
      <trkpt lat="45.37233" lon="4.60034">
        <ele>871</ele>
        <time>2015-05-10T06:18:02Z</time>
      </trkpt>
      <trkpt lat="45.37229" lon="4.60034">
        <ele>870</ele>
        <time>2015-05-10T06:18:04Z</time>
      </trkpt>
      <trkpt lat="45.37225" lon="4.60032">
        <ele>869</ele>
        <time>2015-05-10T06:18:06Z</time>
      </trkpt>
      <trkpt lat="45.37217" lon="4.6003">
        <ele>868</ele>
        <time>2015-05-10T06:18:09Z</time>
      </trkpt>
      <trkpt lat="45.37207" lon="4.60029">
        <ele>867</ele>
        <time>2015-05-10T06:18:12Z</time>
      </trkpt>
      <trkpt lat="45.37199" lon="4.60024">
        <ele>866</ele>
        <time>2015-05-10T06:18:15Z</time>
      </trkpt>
      <trkpt lat="45.37194" lon="4.60021">
        <ele>865</ele>
        <time>2015-05-10T06:18:17Z</time>
      </trkpt>
      <trkpt lat="45.37186" lon="4.60015">
        <ele>866</ele>
        <time>2015-05-10T06:18:20Z</time>
      </trkpt>
      <trkpt lat="45.37177" lon="4.6001">
        <ele>865</ele>
        <time>2015-05-10T06:18:23Z</time>
      </trkpt>
      <trkpt lat="45.37169" lon="4.60008">
        <ele>864</ele>
        <time>2015-05-10T06:18:26Z</time>
      </trkpt>
      <trkpt lat="45.37163" lon="4.60006">
        <ele>863</ele>
        <time>2015-05-10T06:18:28Z</time>
      </trkpt>
      <trkpt lat="45.37156" lon="4.60007">
        <ele>863</ele>
        <time>2015-05-10T06:18:31Z</time>
      </trkpt>
      <trkpt lat="45.37153" lon="4.60007">
        <ele>864</ele>
        <time>2015-05-10T06:18:34Z</time>
      </trkpt>
      <trkpt lat="45.3715" lon="4.60008">
        <ele>864</ele>
        <time>2015-05-10T06:18:36Z</time>
      </trkpt>
      <trkpt lat="45.37145" lon="4.60008">
        <ele>863</ele>
        <time>2015-05-10T06:18:38Z</time>
      </trkpt>
      <trkpt lat="45.37139" lon="4.60011">
        <ele>863</ele>
        <time>2015-05-10T06:18:41Z</time>
      </trkpt>
      <trkpt lat="45.37131" lon="4.60015">
        <ele>864</ele>
        <time>2015-05-10T06:18:44Z</time>
      </trkpt>
      <trkpt lat="45.37127" lon="4.60016">
        <ele>864</ele>
        <time>2015-05-10T06:18:46Z</time>
      </trkpt>
      <trkpt lat="45.37119" lon="4.60017">
        <ele>863</ele>
        <time>2015-05-10T06:18:49Z</time>
      </trkpt>
      <trkpt lat="45.37114" lon="4.60018">
        <ele>863</ele>
        <time>2015-05-10T06:18:51Z</time>
      </trkpt>
      <trkpt lat="45.37109" lon="4.6002">
        <ele>863</ele>
        <time>2015-05-10T06:18:53Z</time>
      </trkpt>
      <trkpt lat="45.37104" lon="4.60021">
        <ele>863</ele>
        <time>2015-05-10T06:18:55Z</time>
      </trkpt>
      <trkpt lat="45.371" lon="4.60026">
        <ele>863</ele>
        <time>2015-05-10T06:18:57Z</time>
      </trkpt>
      <trkpt lat="45.37101" lon="4.60033">
        <ele>862</ele>
        <time>2015-05-10T06:19:00Z</time>
      </trkpt>
      <trkpt lat="45.37106" lon="4.60034">
        <ele>862</ele>
        <time>2015-05-10T06:19:02Z</time>
      </trkpt>
      <trkpt lat="45.37112" lon="4.60037">
        <ele>861</ele>
        <time>2015-05-10T06:19:05Z</time>
      </trkpt>
      <trkpt lat="45.37115" lon="4.60039">
        <ele>861</ele>
        <time>2015-05-10T06:19:07Z</time>
      </trkpt>
      <trkpt lat="45.3712" lon="4.60044">
        <ele>861</ele>
        <time>2015-05-10T06:19:10Z</time>
      </trkpt>
      <trkpt lat="45.37124" lon="4.60049">
        <ele>861</ele>
        <time>2015-05-10T06:19:12Z</time>
      </trkpt>
      <trkpt lat="45.37128" lon="4.60052">
        <ele>862</ele>
        <time>2015-05-10T06:19:14Z</time>
      </trkpt>
      <trkpt lat="45.37132" lon="4.60056">
        <ele>861</ele>
        <time>2015-05-10T06:19:16Z</time>
      </trkpt>
      <trkpt lat="45.37136" lon="4.60059">
        <ele>861</ele>
        <time>2015-05-10T06:19:18Z</time>
      </trkpt>
      <trkpt lat="45.37141" lon="4.60066">
        <ele>860</ele>
        <time>2015-05-10T06:19:21Z</time>
      </trkpt>
      <trkpt lat="45.37144" lon="4.60071">
        <ele>860</ele>
        <time>2015-05-10T06:19:23Z</time>
      </trkpt>
      <trkpt lat="45.37148" lon="4.6008">
        <ele>860</ele>
        <time>2015-05-10T06:19:26Z</time>
      </trkpt>
      <trkpt lat="45.37149" lon="4.60087">
        <ele>860</ele>
        <time>2015-05-10T06:19:28Z</time>
      </trkpt>
      <trkpt lat="45.37152" lon="4.60097">
        <ele>859</ele>
        <time>2015-05-10T06:19:31Z</time>
      </trkpt>
      <trkpt lat="45.37153" lon="4.60104">
        <ele>859</ele>
        <time>2015-05-10T06:19:33Z</time>
      </trkpt>
      <trkpt lat="45.37154" lon="4.60111">
        <ele>858</ele>
        <time>2015-05-10T06:19:35Z</time>
      </trkpt>
      <trkpt lat="45.37153" lon="4.60118">
        <ele>858</ele>
        <time>2015-05-10T06:19:37Z</time>
      </trkpt>
      <trkpt lat="45.37152" lon="4.60127">
        <ele>858</ele>
        <time>2015-05-10T06:19:40Z</time>
      </trkpt>
      <trkpt lat="45.37151" lon="4.60133">
        <ele>857</ele>
        <time>2015-05-10T06:19:42Z</time>
      </trkpt>
      <trkpt lat="45.37148" lon="4.60141">
        <ele>857</ele>
        <time>2015-05-10T06:19:45Z</time>
      </trkpt>
      <trkpt lat="45.37145" lon="4.60145">
        <ele>857</ele>
        <time>2015-05-10T06:19:47Z</time>
      </trkpt>
      <trkpt lat="45.3714" lon="4.6015">
        <ele>857</ele>
        <time>2015-05-10T06:19:50Z</time>
      </trkpt>
      <trkpt lat="45.37136" lon="4.60153">
        <ele>856</ele>
        <time>2015-05-10T06:19:52Z</time>
      </trkpt>
      <trkpt lat="45.37132" lon="4.60155">
        <ele>856</ele>
        <time>2015-05-10T06:19:54Z</time>
      </trkpt>
      <trkpt lat="45.37126" lon="4.60159">
        <ele>855</ele>
        <time>2015-05-10T06:19:57Z</time>
      </trkpt>
      <trkpt lat="45.3712" lon="4.60161">
        <ele>855</ele>
        <time>2015-05-10T06:20:00Z</time>
      </trkpt>
      <trkpt lat="45.37115" lon="4.60163">
        <ele>855</ele>
        <time>2015-05-10T06:20:02Z</time>
      </trkpt>
      <trkpt lat="45.3711" lon="4.60164">
        <ele>854</ele>
        <time>2015-05-10T06:20:04Z</time>
      </trkpt>
      <trkpt lat="45.37102" lon="4.60166">
        <ele>854</ele>
        <time>2015-05-10T06:20:07Z</time>
      </trkpt>
      <trkpt lat="45.37094" lon="4.60166">
        <ele>854</ele>
        <time>2015-05-10T06:20:10Z</time>
      </trkpt>
      <trkpt lat="45.37089" lon="4.60167">
        <ele>854</ele>
        <time>2015-05-10T06:20:12Z</time>
      </trkpt>
      <trkpt lat="45.37082" lon="4.60168">
        <ele>852</ele>
        <time>2015-05-10T06:20:15Z</time>
      </trkpt>
      <trkpt lat="45.37077" lon="4.60168">
        <ele>852</ele>
        <time>2015-05-10T06:20:17Z</time>
      </trkpt>
      <trkpt lat="45.3707" lon="4.60171">
        <ele>851</ele>
        <time>2015-05-10T06:20:20Z</time>
      </trkpt>
      <trkpt lat="45.37062" lon="4.60172">
        <ele>851</ele>
        <time>2015-05-10T06:20:23Z</time>
      </trkpt>
      <trkpt lat="45.37056" lon="4.60175">
        <ele>851</ele>
        <time>2015-05-10T06:20:26Z</time>
      </trkpt>
      <trkpt lat="45.37051" lon="4.60177">
        <ele>850</ele>
        <time>2015-05-10T06:20:28Z</time>
      </trkpt>
      <trkpt lat="45.37044" lon="4.60179">
        <ele>850</ele>
        <time>2015-05-10T06:20:31Z</time>
      </trkpt>
      <trkpt lat="45.37037" lon="4.6018">
        <ele>850</ele>
        <time>2015-05-10T06:20:34Z</time>
      </trkpt>
      <trkpt lat="45.37033" lon="4.60183">
        <ele>850</ele>
        <time>2015-05-10T06:20:36Z</time>
      </trkpt>
      <trkpt lat="45.37029" lon="4.60187">
        <ele>850</ele>
        <time>2015-05-10T06:20:38Z</time>
      </trkpt>
      <trkpt lat="45.37025" lon="4.60191">
        <ele>850</ele>
        <time>2015-05-10T06:20:40Z</time>
      </trkpt>
      <trkpt lat="45.3702" lon="4.602">
        <ele>849</ele>
        <time>2015-05-10T06:20:43Z</time>
      </trkpt>
      <trkpt lat="45.37017" lon="4.60206">
        <ele>849</ele>
        <time>2015-05-10T06:20:45Z</time>
      </trkpt>
      <trkpt lat="45.37014" lon="4.60212">
        <ele>848</ele>
        <time>2015-05-10T06:20:47Z</time>
      </trkpt>
      <trkpt lat="45.37009" lon="4.6022">
        <ele>847</ele>
        <time>2015-05-10T06:20:50Z</time>
      </trkpt>
      <trkpt lat="45.37003" lon="4.60228">
        <ele>847</ele>
        <time>2015-05-10T06:20:53Z</time>
      </trkpt>
      <trkpt lat="45.36999" lon="4.60232">
        <ele>848</ele>
        <time>2015-05-10T06:20:55Z</time>
      </trkpt>
      <trkpt lat="45.36996" lon="4.60236">
        <ele>848</ele>
        <time>2015-05-10T06:20:57Z</time>
      </trkpt>
      <trkpt lat="45.36991" lon="4.60244">
        <ele>848</ele>
        <time>2015-05-10T06:21:00Z</time>
      </trkpt>
      <trkpt lat="45.36986" lon="4.60248">
        <ele>847</ele>
        <time>2015-05-10T06:21:02Z</time>
      </trkpt>
      <trkpt lat="45.36983" lon="4.60253">
        <ele>847</ele>
        <time>2015-05-10T06:21:04Z</time>
      </trkpt>
      <trkpt lat="45.36979" lon="4.60259">
        <ele>846</ele>
        <time>2015-05-10T06:21:07Z</time>
      </trkpt>
      <trkpt lat="45.36976" lon="4.60262">
        <ele>847</ele>
        <time>2015-05-10T06:21:09Z</time>
      </trkpt>
      <trkpt lat="45.36974" lon="4.60266">
        <ele>847</ele>
        <time>2015-05-10T06:21:11Z</time>
      </trkpt>
      <trkpt lat="45.36971" lon="4.6027">
        <ele>848</ele>
        <time>2015-05-10T06:21:13Z</time>
      </trkpt>
      <trkpt lat="45.36968" lon="4.60273">
        <ele>848</ele>
        <time>2015-05-10T06:21:15Z</time>
      </trkpt>
      <trkpt lat="45.36964" lon="4.60277">
        <ele>848</ele>
        <time>2015-05-10T06:21:17Z</time>
      </trkpt>
      <trkpt lat="45.3696" lon="4.60283">
        <ele>848</ele>
        <time>2015-05-10T06:21:20Z</time>
      </trkpt>
      <trkpt lat="45.36955" lon="4.60292">
        <ele>849</ele>
        <time>2015-05-10T06:21:23Z</time>
      </trkpt>
      <trkpt lat="45.36951" lon="4.60298">
        <ele>849</ele>
        <time>2015-05-10T06:21:25Z</time>
      </trkpt>
      <trkpt lat="45.36948" lon="4.60305">
        <ele>850</ele>
        <time>2015-05-10T06:21:28Z</time>
      </trkpt>
      <trkpt lat="45.36946" lon="4.6031">
        <ele>850</ele>
        <time>2015-05-10T06:21:30Z</time>
      </trkpt>
      <trkpt lat="45.36944" lon="4.60318">
        <ele>850</ele>
        <time>2015-05-10T06:21:33Z</time>
      </trkpt>
      <trkpt lat="45.3694" lon="4.60325">
        <ele>851</ele>
        <time>2015-05-10T06:21:36Z</time>
      </trkpt>
      <trkpt lat="45.36938" lon="4.6033">
        <ele>851</ele>
        <time>2015-05-10T06:21:38Z</time>
      </trkpt>
      <trkpt lat="45.36935" lon="4.60335">
        <ele>851</ele>
        <time>2015-05-10T06:21:40Z</time>
      </trkpt>
      <trkpt lat="45.36932" lon="4.60342">
        <ele>852</ele>
        <time>2015-05-10T06:21:42Z</time>
      </trkpt>
      <trkpt lat="45.3693" lon="4.60347">
        <ele>852</ele>
        <time>2015-05-10T06:21:44Z</time>
      </trkpt>
      <trkpt lat="45.36925" lon="4.60356">
        <ele>853</ele>
        <time>2015-05-10T06:21:47Z</time>
      </trkpt>
      <trkpt lat="45.36922" lon="4.60361">
        <ele>852</ele>
        <time>2015-05-10T06:21:49Z</time>
      </trkpt>
      <trkpt lat="45.36919" lon="4.60366">
        <ele>853</ele>
        <time>2015-05-10T06:21:51Z</time>
      </trkpt>
      <trkpt lat="45.36916" lon="4.60372">
        <ele>853</ele>
        <time>2015-05-10T06:21:53Z</time>
      </trkpt>
      <trkpt lat="45.3691" lon="4.60378">
        <ele>853</ele>
        <time>2015-05-10T06:21:56Z</time>
      </trkpt>
      <trkpt lat="45.36903" lon="4.60385">
        <ele>853</ele>
        <time>2015-05-10T06:21:59Z</time>
      </trkpt>
      <trkpt lat="45.36898" lon="4.60389">
        <ele>853</ele>
        <time>2015-05-10T06:22:01Z</time>
      </trkpt>
      <trkpt lat="45.36895" lon="4.60394">
        <ele>853</ele>
        <time>2015-05-10T06:22:03Z</time>
      </trkpt>
      <trkpt lat="45.3689" lon="4.60399">
        <ele>853</ele>
        <time>2015-05-10T06:22:05Z</time>
      </trkpt>
      <trkpt lat="45.36887" lon="4.60404">
        <ele>853</ele>
        <time>2015-05-10T06:22:07Z</time>
      </trkpt>
      <trkpt lat="45.36882" lon="4.60414">
        <ele>853</ele>
        <time>2015-05-10T06:22:10Z</time>
      </trkpt>
      <trkpt lat="45.36878" lon="4.60421">
        <ele>853</ele>
        <time>2015-05-10T06:22:12Z</time>
      </trkpt>
      <trkpt lat="45.36875" lon="4.60427">
        <ele>853</ele>
        <time>2015-05-10T06:22:14Z</time>
      </trkpt>
      <trkpt lat="45.3687" lon="4.60436">
        <ele>853</ele>
        <time>2015-05-10T06:22:17Z</time>
      </trkpt>
      <trkpt lat="45.36866" lon="4.60445">
        <ele>853</ele>
        <time>2015-05-10T06:22:20Z</time>
      </trkpt>
      <trkpt lat="45.36863" lon="4.60452">
        <ele>853</ele>
        <time>2015-05-10T06:22:22Z</time>
      </trkpt>
      <trkpt lat="45.3686" lon="4.60459">
        <ele>853</ele>
        <time>2015-05-10T06:22:24Z</time>
      </trkpt>
      <trkpt lat="45.36857" lon="4.60468">
        <ele>853</ele>
        <time>2015-05-10T06:22:27Z</time>
      </trkpt>
      <trkpt lat="45.36854" lon="4.6048">
        <ele>854</ele>
        <time>2015-05-10T06:22:30Z</time>
      </trkpt>
      <trkpt lat="45.36853" lon="4.60487">
        <ele>855</ele>
        <time>2015-05-10T06:22:32Z</time>
      </trkpt>
      <trkpt lat="45.3685" lon="4.60494">
        <ele>855</ele>
        <time>2015-05-10T06:22:34Z</time>
      </trkpt>
      <trkpt lat="45.36848" lon="4.60502">
        <ele>855</ele>
        <time>2015-05-10T06:22:36Z</time>
      </trkpt>
      <trkpt lat="45.36846" lon="4.60513">
        <ele>855</ele>
        <time>2015-05-10T06:22:39Z</time>
      </trkpt>
      <trkpt lat="45.36843" lon="4.60525">
        <ele>855</ele>
        <time>2015-05-10T06:22:42Z</time>
      </trkpt>
      <trkpt lat="45.36842" lon="4.60536">
        <ele>855</ele>
        <time>2015-05-10T06:22:45Z</time>
      </trkpt>
      <trkpt lat="45.36841" lon="4.60544">
        <ele>855</ele>
        <time>2015-05-10T06:22:47Z</time>
      </trkpt>
      <trkpt lat="45.36841" lon="4.60552">
        <ele>854</ele>
        <time>2015-05-10T06:22:49Z</time>
      </trkpt>
      <trkpt lat="45.36838" lon="4.60563">
        <ele>853</ele>
        <time>2015-05-10T06:22:52Z</time>
      </trkpt>
      <trkpt lat="45.36836" lon="4.6057">
        <ele>853</ele>
        <time>2015-05-10T06:22:54Z</time>
      </trkpt>
      <trkpt lat="45.36834" lon="4.60577">
        <ele>853</ele>
        <time>2015-05-10T06:22:56Z</time>
      </trkpt>
      <trkpt lat="45.3683" lon="4.60586">
        <ele>853</ele>
        <time>2015-05-10T06:22:59Z</time>
      </trkpt>
      <trkpt lat="45.36826" lon="4.60592">
        <ele>854</ele>
        <time>2015-05-10T06:23:01Z</time>
      </trkpt>
      <trkpt lat="45.36821" lon="4.60599">
        <ele>855</ele>
        <time>2015-05-10T06:23:04Z</time>
      </trkpt>
      <trkpt lat="45.36815" lon="4.60608">
        <ele>855</ele>
        <time>2015-05-10T06:23:07Z</time>
      </trkpt>
      <trkpt lat="45.36808" lon="4.60616">
        <ele>856</ele>
        <time>2015-05-10T06:23:10Z</time>
      </trkpt>
      <trkpt lat="45.36803" lon="4.6062">
        <ele>856</ele>
        <time>2015-05-10T06:23:12Z</time>
      </trkpt>
      <trkpt lat="45.36795" lon="4.60626">
        <ele>856</ele>
        <time>2015-05-10T06:23:15Z</time>
      </trkpt>
      <trkpt lat="45.36791" lon="4.6063">
        <ele>855</ele>
        <time>2015-05-10T06:23:17Z</time>
      </trkpt>
      <trkpt lat="45.36787" lon="4.60634">
        <ele>855</ele>
        <time>2015-05-10T06:23:19Z</time>
      </trkpt>
      <trkpt lat="45.36779" lon="4.6064">
        <ele>855</ele>
        <time>2015-05-10T06:23:22Z</time>
      </trkpt>
      <trkpt lat="45.36772" lon="4.60645">
        <ele>854</ele>
        <time>2015-05-10T06:23:25Z</time>
      </trkpt>
      <trkpt lat="45.36765" lon="4.60651">
        <ele>854</ele>
        <time>2015-05-10T06:23:28Z</time>
      </trkpt>
      <trkpt lat="45.3676" lon="4.60655">
        <ele>854</ele>
        <time>2015-05-10T06:23:30Z</time>
      </trkpt>
      <trkpt lat="45.36752" lon="4.60661">
        <ele>854</ele>
        <time>2015-05-10T06:23:33Z</time>
      </trkpt>
      <trkpt lat="45.36745" lon="4.60665">
        <ele>854</ele>
        <time>2015-05-10T06:23:36Z</time>
      </trkpt>
      <trkpt lat="45.3674" lon="4.60667">
        <ele>853</ele>
        <time>2015-05-10T06:23:38Z</time>
      </trkpt>
      <trkpt lat="45.36736" lon="4.60669">
        <ele>853</ele>
        <time>2015-05-10T06:23:40Z</time>
      </trkpt>
      <trkpt lat="45.36729" lon="4.60672">
        <ele>852</ele>
        <time>2015-05-10T06:23:43Z</time>
      </trkpt>
      <trkpt lat="45.36722" lon="4.60678">
        <ele>852</ele>
        <time>2015-05-10T06:23:46Z</time>
      </trkpt>
      <trkpt lat="45.36716" lon="4.6068">
        <ele>851</ele>
        <time>2015-05-10T06:23:49Z</time>
      </trkpt>
      <trkpt lat="45.36712" lon="4.60683">
        <ele>851</ele>
        <time>2015-05-10T06:23:51Z</time>
      </trkpt>
      <trkpt lat="45.36706" lon="4.60686">
        <ele>850</ele>
        <time>2015-05-10T06:23:53Z</time>
      </trkpt>
      <trkpt lat="45.367" lon="4.6069">
        <ele>850</ele>
        <time>2015-05-10T06:23:56Z</time>
      </trkpt>
      <trkpt lat="45.36694" lon="4.60696">
        <ele>850</ele>
        <time>2015-05-10T06:23:59Z</time>
      </trkpt>
      <trkpt lat="45.3669" lon="4.607">
        <ele>849</ele>
        <time>2015-05-10T06:24:01Z</time>
      </trkpt>
      <trkpt lat="45.36685" lon="4.60704">
        <ele>848</ele>
        <time>2015-05-10T06:24:03Z</time>
      </trkpt>
      <trkpt lat="45.36678" lon="4.60711">
        <ele>847</ele>
        <time>2015-05-10T06:24:06Z</time>
      </trkpt>
      <trkpt lat="45.36673" lon="4.60716">
        <ele>847</ele>
        <time>2015-05-10T06:24:08Z</time>
      </trkpt>
      <trkpt lat="45.36666" lon="4.60725">
        <ele>846</ele>
        <time>2015-05-10T06:24:11Z</time>
      </trkpt>
      <trkpt lat="45.36663" lon="4.60731">
        <ele>845</ele>
        <time>2015-05-10T06:24:13Z</time>
      </trkpt>
      <trkpt lat="45.36658" lon="4.60738">
        <ele>845</ele>
        <time>2015-05-10T06:24:16Z</time>
      </trkpt>
      <trkpt lat="45.36655" lon="4.60742">
        <ele>844</ele>
        <time>2015-05-10T06:24:18Z</time>
      </trkpt>
      <trkpt lat="45.36652" lon="4.60748">
        <ele>844</ele>
        <time>2015-05-10T06:24:20Z</time>
      </trkpt>
      <trkpt lat="45.36647" lon="4.60755">
        <ele>844</ele>
        <time>2015-05-10T06:24:23Z</time>
      </trkpt>
      <trkpt lat="45.36643" lon="4.60762">
        <ele>844</ele>
        <time>2015-05-10T06:24:26Z</time>
      </trkpt>
      <trkpt lat="45.3664" lon="4.60767">
        <ele>843</ele>
        <time>2015-05-10T06:24:28Z</time>
      </trkpt>
      <trkpt lat="45.36637" lon="4.60772">
        <ele>843</ele>
        <time>2015-05-10T06:24:30Z</time>
      </trkpt>
      <trkpt lat="45.36633" lon="4.60779">
        <ele>843</ele>
        <time>2015-05-10T06:24:32Z</time>
      </trkpt>
      <trkpt lat="45.36629" lon="4.60788">
        <ele>842</ele>
        <time>2015-05-10T06:24:35Z</time>
      </trkpt>
      <trkpt lat="45.36626" lon="4.60793">
        <ele>842</ele>
        <time>2015-05-10T06:24:37Z</time>
      </trkpt>
      <trkpt lat="45.36623" lon="4.60801">
        <ele>841</ele>
        <time>2015-05-10T06:24:39Z</time>
      </trkpt>
      <trkpt lat="45.36619" lon="4.60812">
        <ele>840</ele>
        <time>2015-05-10T06:24:42Z</time>
      </trkpt>
      <trkpt lat="45.36617" lon="4.60821">
        <ele>840</ele>
        <time>2015-05-10T06:24:44Z</time>
      </trkpt>
      <trkpt lat="45.36614" lon="4.60833">
        <ele>839</ele>
        <time>2015-05-10T06:24:47Z</time>
      </trkpt>
      <trkpt lat="45.36612" lon="4.60847">
        <ele>839</ele>
        <time>2015-05-10T06:24:50Z</time>
      </trkpt>
      <trkpt lat="45.36611" lon="4.60856">
        <ele>837</ele>
        <time>2015-05-10T06:24:52Z</time>
      </trkpt>
      <trkpt lat="45.36611" lon="4.60869">
        <ele>837</ele>
        <time>2015-05-10T06:24:55Z</time>
      </trkpt>
      <trkpt lat="45.3661" lon="4.60878">
        <ele>837</ele>
        <time>2015-05-10T06:24:57Z</time>
      </trkpt>
      <trkpt lat="45.3661" lon="4.60886">
        <ele>835</ele>
        <time>2015-05-10T06:24:59Z</time>
      </trkpt>
      <trkpt lat="45.36609" lon="4.60894">
        <ele>835</ele>
        <time>2015-05-10T06:25:01Z</time>
      </trkpt>
      <trkpt lat="45.36609" lon="4.60901">
        <ele>834</ele>
        <time>2015-05-10T06:25:03Z</time>
      </trkpt>
      <trkpt lat="45.36607" lon="4.60913">
        <ele>834</ele>
        <time>2015-05-10T06:25:06Z</time>
      </trkpt>
      <trkpt lat="45.36605" lon="4.60924">
        <ele>834</ele>
        <time>2015-05-10T06:25:09Z</time>
      </trkpt>
      <trkpt lat="45.36604" lon="4.60931">
        <ele>833</ele>
        <time>2015-05-10T06:25:12Z</time>
      </trkpt>
      <trkpt lat="45.366" lon="4.60938">
        <ele>833</ele>
        <time>2015-05-10T06:25:14Z</time>
      </trkpt>
      <trkpt lat="45.36596" lon="4.60941">
        <ele>833</ele>
        <time>2015-05-10T06:25:16Z</time>
      </trkpt>
      <trkpt lat="45.36589" lon="4.60945">
        <ele>833</ele>
        <time>2015-05-10T06:25:19Z</time>
      </trkpt>
      <trkpt lat="45.36584" lon="4.60948">
        <ele>832</ele>
        <time>2015-05-10T06:25:21Z</time>
      </trkpt>
      <trkpt lat="45.36579" lon="4.6095">
        <ele>831</ele>
        <time>2015-05-10T06:25:23Z</time>
      </trkpt>
      <trkpt lat="45.36572" lon="4.60955">
        <ele>831</ele>
        <time>2015-05-10T06:25:26Z</time>
      </trkpt>
      <trkpt lat="45.36568" lon="4.6096">
        <ele>830</ele>
        <time>2015-05-10T06:25:28Z</time>
      </trkpt>
      <trkpt lat="45.36565" lon="4.60968">
        <ele>830</ele>
        <time>2015-05-10T06:25:31Z</time>
      </trkpt>
      <trkpt lat="45.36564" lon="4.60974">
        <ele>831</ele>
        <time>2015-05-10T06:25:33Z</time>
      </trkpt>
      <trkpt lat="45.36561" lon="4.60981">
        <ele>832</ele>
        <time>2015-05-10T06:25:36Z</time>
      </trkpt>
      <trkpt lat="45.36559" lon="4.60987">
        <ele>833</ele>
        <time>2015-05-10T06:25:38Z</time>
      </trkpt>
      <trkpt lat="45.36557" lon="4.60992">
        <ele>834</ele>
        <time>2015-05-10T06:25:41Z</time>
      </trkpt>
      <trkpt lat="45.36556" lon="4.60996">
        <ele>834</ele>
        <time>2015-05-10T06:25:43Z</time>
      </trkpt>
      <trkpt lat="45.36555" lon="4.60999">
        <ele>835</ele>
        <time>2015-05-10T06:25:45Z</time>
      </trkpt>
      <trkpt lat="45.36553" lon="4.61003">
        <ele>836</ele>
        <time>2015-05-10T06:25:47Z</time>
      </trkpt>
      <trkpt lat="45.36551" lon="4.61008">
        <ele>837</ele>
        <time>2015-05-10T06:25:50Z</time>
      </trkpt>
      <trkpt lat="45.3655" lon="4.61011">
        <ele>838</ele>
        <time>2015-05-10T06:25:52Z</time>
      </trkpt>
      <trkpt lat="45.36548" lon="4.61015">
        <ele>839</ele>
        <time>2015-05-10T06:25:54Z</time>
      </trkpt>
      <trkpt lat="45.36547" lon="4.6102">
        <ele>839</ele>
        <time>2015-05-10T06:25:56Z</time>
      </trkpt>
      <trkpt lat="45.36545" lon="4.61026">
        <ele>840</ele>
        <time>2015-05-10T06:25:59Z</time>
      </trkpt>
      <trkpt lat="45.36544" lon="4.61033">
        <ele>841</ele>
        <time>2015-05-10T06:26:02Z</time>
      </trkpt>
      <trkpt lat="45.36545" lon="4.61039">
        <ele>843</ele>
        <time>2015-05-10T06:26:05Z</time>
      </trkpt>
      <trkpt lat="45.36545" lon="4.61041">
        <ele>843</ele>
        <time>2015-05-10T06:26:07Z</time>
      </trkpt>
      <trkpt lat="45.36545" lon="4.61046">
        <ele>844</ele>
        <time>2015-05-10T06:26:10Z</time>
      </trkpt>
      <trkpt lat="45.36545" lon="4.6105">
        <ele>844</ele>
        <time>2015-05-10T06:26:12Z</time>
      </trkpt>
      <trkpt lat="45.36547" lon="4.61056">
        <ele>845</ele>
        <time>2015-05-10T06:26:15Z</time>
      </trkpt>
      <trkpt lat="45.36548" lon="4.6106">
        <ele>845</ele>
        <time>2015-05-10T06:26:17Z</time>
      </trkpt>
      <trkpt lat="45.36547" lon="4.61064">
        <ele>846</ele>
        <time>2015-05-10T06:26:19Z</time>
      </trkpt>
      <trkpt lat="45.36547" lon="4.61068">
        <ele>847</ele>
        <time>2015-05-10T06:26:21Z</time>
      </trkpt>
      <trkpt lat="45.36547" lon="4.61071">
        <ele>848</ele>
        <time>2015-05-10T06:26:23Z</time>
      </trkpt>
      <trkpt lat="45.36549" lon="4.61077">
        <ele>848</ele>
        <time>2015-05-10T06:26:26Z</time>
      </trkpt>
      <trkpt lat="45.36548" lon="4.61081">
        <ele>849</ele>
        <time>2015-05-10T06:26:28Z</time>
      </trkpt>
      <trkpt lat="45.36548" lon="4.61086">
        <ele>849</ele>
        <time>2015-05-10T06:26:30Z</time>
      </trkpt>
      <trkpt lat="45.36548" lon="4.61089">
        <ele>849</ele>
        <time>2015-05-10T06:26:32Z</time>
      </trkpt>
      <trkpt lat="45.36548" lon="4.61095">
        <ele>850</ele>
        <time>2015-05-10T06:26:35Z</time>
      </trkpt>
      <trkpt lat="45.36547" lon="4.61098">
        <ele>851</ele>
        <time>2015-05-10T06:26:37Z</time>
      </trkpt>
      <trkpt lat="45.36546" lon="4.61102">
        <ele>852</ele>
        <time>2015-05-10T06:26:39Z</time>
      </trkpt>
      <trkpt lat="45.36545" lon="4.61111">
        <ele>852</ele>
        <time>2015-05-10T06:26:42Z</time>
      </trkpt>
      <trkpt lat="45.36545" lon="4.61116">
        <ele>853</ele>
        <time>2015-05-10T06:26:44Z</time>
      </trkpt>
      <trkpt lat="45.36546" lon="4.61121">
        <ele>853</ele>
        <time>2015-05-10T06:26:46Z</time>
      </trkpt>
      <trkpt lat="45.36549" lon="4.61127">
        <ele>854</ele>
        <time>2015-05-10T06:26:49Z</time>
      </trkpt>
      <trkpt lat="45.3655" lon="4.61131">
        <ele>854</ele>
        <time>2015-05-10T06:26:51Z</time>
      </trkpt>
      <trkpt lat="45.36551" lon="4.61137">
        <ele>855</ele>
        <time>2015-05-10T06:26:54Z</time>
      </trkpt>
      <trkpt lat="45.36553" lon="4.61143">
        <ele>856</ele>
        <time>2015-05-10T06:26:57Z</time>
      </trkpt>
      <trkpt lat="45.36554" lon="4.61149">
        <ele>857</ele>
        <time>2015-05-10T06:27:00Z</time>
      </trkpt>
      <trkpt lat="45.36552" lon="4.61155">
        <ele>858</ele>
        <time>2015-05-10T06:27:03Z</time>
      </trkpt>
      <trkpt lat="45.36553" lon="4.61162">
        <ele>859</ele>
        <time>2015-05-10T06:27:06Z</time>
      </trkpt>
      <trkpt lat="45.36555" lon="4.61168">
        <ele>859</ele>
        <time>2015-05-10T06:27:09Z</time>
      </trkpt>
      <trkpt lat="45.36557" lon="4.61172">
        <ele>860</ele>
        <time>2015-05-10T06:27:11Z</time>
      </trkpt>
      <trkpt lat="45.36559" lon="4.61175">
        <ele>861</ele>
        <time>2015-05-10T06:27:13Z</time>
      </trkpt>
      <trkpt lat="45.36563" lon="4.61181">
        <ele>861</ele>
        <time>2015-05-10T06:27:16Z</time>
      </trkpt>
      <trkpt lat="45.36566" lon="4.61186">
        <ele>862</ele>
        <time>2015-05-10T06:27:19Z</time>
      </trkpt>
      <trkpt lat="45.36569" lon="4.61189">
        <ele>863</ele>
        <time>2015-05-10T06:27:21Z</time>
      </trkpt>
      <trkpt lat="45.36572" lon="4.61195">
        <ele>864</ele>
        <time>2015-05-10T06:27:24Z</time>
      </trkpt>
      <trkpt lat="45.36575" lon="4.61198">
        <ele>864</ele>
        <time>2015-05-10T06:27:26Z</time>
      </trkpt>
      <trkpt lat="45.36577" lon="4.61204">
        <ele>865</ele>
        <time>2015-05-10T06:27:29Z</time>
      </trkpt>
      <trkpt lat="45.36578" lon="4.61208">
        <ele>865</ele>
        <time>2015-05-10T06:27:31Z</time>
      </trkpt>
      <trkpt lat="45.3658" lon="4.61212">
        <ele>866</ele>
        <time>2015-05-10T06:27:33Z</time>
      </trkpt>
      <trkpt lat="45.3658" lon="4.61217">
        <ele>867</ele>
        <time>2015-05-10T06:27:35Z</time>
      </trkpt>
      <trkpt lat="45.36582" lon="4.61223">
        <ele>867</ele>
        <time>2015-05-10T06:27:38Z</time>
      </trkpt>
      <trkpt lat="45.36584" lon="4.61226">
        <ele>867</ele>
        <time>2015-05-10T06:27:40Z</time>
      </trkpt>
      <trkpt lat="45.36587" lon="4.61231">
        <ele>868</ele>
        <time>2015-05-10T06:27:43Z</time>
      </trkpt>
      <trkpt lat="45.36588" lon="4.61236">
        <ele>869</ele>
        <time>2015-05-10T06:27:45Z</time>
      </trkpt>
      <trkpt lat="45.36591" lon="4.61241">
        <ele>870</ele>
        <time>2015-05-10T06:27:48Z</time>
      </trkpt>
      <trkpt lat="45.36594" lon="4.61243">
        <ele>870</ele>
        <time>2015-05-10T06:27:50Z</time>
      </trkpt>
      <trkpt lat="45.36596" lon="4.61247">
        <ele>870</ele>
        <time>2015-05-10T06:27:52Z</time>
      </trkpt>
      <trkpt lat="45.36599" lon="4.61252">
        <ele>871</ele>
        <time>2015-05-10T06:27:55Z</time>
      </trkpt>
      <trkpt lat="45.36602" lon="4.61256">
        <ele>872</ele>
        <time>2015-05-10T06:27:57Z</time>
      </trkpt>
      <trkpt lat="45.36604" lon="4.61261">
        <ele>872</ele>
        <time>2015-05-10T06:27:59Z</time>
      </trkpt>
      <trkpt lat="45.36607" lon="4.61267">
        <ele>873</ele>
        <time>2015-05-10T06:28:02Z</time>
      </trkpt>
      <trkpt lat="45.36608" lon="4.61271">
        <ele>873</ele>
        <time>2015-05-10T06:28:04Z</time>
      </trkpt>
      <trkpt lat="45.3661" lon="4.61274">
        <ele>873</ele>
        <time>2015-05-10T06:28:06Z</time>
      </trkpt>
      <trkpt lat="45.36613" lon="4.61278">
        <ele>874</ele>
        <time>2015-05-10T06:28:09Z</time>
      </trkpt>
      <trkpt lat="45.36615" lon="4.61282">
        <ele>875</ele>
        <time>2015-05-10T06:28:11Z</time>
      </trkpt>
      <trkpt lat="45.36618" lon="4.61288">
        <ele>876</ele>
        <time>2015-05-10T06:28:14Z</time>
      </trkpt>
      <trkpt lat="45.36621" lon="4.61291">
        <ele>876</ele>
        <time>2015-05-10T06:28:16Z</time>
      </trkpt>
      <trkpt lat="45.36623" lon="4.61296">
        <ele>877</ele>
        <time>2015-05-10T06:28:19Z</time>
      </trkpt>
      <trkpt lat="45.36624" lon="4.613">
        <ele>877</ele>
        <time>2015-05-10T06:28:21Z</time>
      </trkpt>
      <trkpt lat="45.36627" lon="4.61303">
        <ele>878</ele>
        <time>2015-05-10T06:28:23Z</time>
      </trkpt>
      <trkpt lat="45.36633" lon="4.61307">
        <ele>878</ele>
        <time>2015-05-10T06:28:26Z</time>
      </trkpt>
      <trkpt lat="45.36635" lon="4.61309">
        <ele>879</ele>
        <time>2015-05-10T06:28:28Z</time>
      </trkpt>
      <trkpt lat="45.36638" lon="4.61314">
        <ele>879</ele>
        <time>2015-05-10T06:28:31Z</time>
      </trkpt>
      <trkpt lat="45.36641" lon="4.61317">
        <ele>880</ele>
        <time>2015-05-10T06:28:33Z</time>
      </trkpt>
      <trkpt lat="45.36642" lon="4.6132">
        <ele>880</ele>
        <time>2015-05-10T06:28:35Z</time>
      </trkpt>
      <trkpt lat="45.36646" lon="4.61324">
        <ele>881</ele>
        <time>2015-05-10T06:28:37Z</time>
      </trkpt>
      <trkpt lat="45.3665" lon="4.61329">
        <ele>881</ele>
        <time>2015-05-10T06:28:40Z</time>
      </trkpt>
      <trkpt lat="45.36652" lon="4.61332">
        <ele>882</ele>
        <time>2015-05-10T06:28:42Z</time>
      </trkpt>
      <trkpt lat="45.36655" lon="4.61338">
        <ele>883</ele>
        <time>2015-05-10T06:28:45Z</time>
      </trkpt>
      <trkpt lat="45.36657" lon="4.61341">
        <ele>883</ele>
        <time>2015-05-10T06:28:47Z</time>
      </trkpt>
      <trkpt lat="45.36662" lon="4.61344">
        <ele>883</ele>
        <time>2015-05-10T06:28:50Z</time>
      </trkpt>
      <trkpt lat="45.36665" lon="4.61348">
        <ele>884</ele>
        <time>2015-05-10T06:28:52Z</time>
      </trkpt>
      <trkpt lat="45.36667" lon="4.61351">
        <ele>884</ele>
        <time>2015-05-10T06:28:54Z</time>
      </trkpt>
      <trkpt lat="45.3667" lon="4.61355">
        <ele>885</ele>
        <time>2015-05-10T06:28:57Z</time>
      </trkpt>
      <trkpt lat="45.36673" lon="4.61358">
        <ele>885</ele>
        <time>2015-05-10T06:29:00Z</time>
      </trkpt>
      <trkpt lat="45.36676" lon="4.61363">
        <ele>885</ele>
        <time>2015-05-10T06:29:03Z</time>
      </trkpt>
      <trkpt lat="45.36679" lon="4.61365">
        <ele>886</ele>
        <time>2015-05-10T06:29:05Z</time>
      </trkpt>
      <trkpt lat="45.36683" lon="4.61368">
        <ele>887</ele>
        <time>2015-05-10T06:29:07Z</time>
      </trkpt>
      <trkpt lat="45.36687" lon="4.61374">
        <ele>887</ele>
        <time>2015-05-10T06:29:10Z</time>
      </trkpt>
      <trkpt lat="45.36689" lon="4.61377">
        <ele>887</ele>
        <time>2015-05-10T06:29:12Z</time>
      </trkpt>
      <trkpt lat="45.36694" lon="4.61384">
        <ele>888</ele>
        <time>2015-05-10T06:29:15Z</time>
      </trkpt>
      <trkpt lat="45.36698" lon="4.6139">
        <ele>889</ele>
        <time>2015-05-10T06:29:18Z</time>
      </trkpt>
      <trkpt lat="45.36702" lon="4.61397">
        <ele>890</ele>
        <time>2015-05-10T06:29:21Z</time>
      </trkpt>
      <trkpt lat="45.36707" lon="4.61403">
        <ele>891</ele>
        <time>2015-05-10T06:29:24Z</time>
      </trkpt>
      <trkpt lat="45.3671" lon="4.61406">
        <ele>891</ele>
        <time>2015-05-10T06:29:26Z</time>
      </trkpt>
      <trkpt lat="45.36713" lon="4.61412">
        <ele>892</ele>
        <time>2015-05-10T06:29:29Z</time>
      </trkpt>
      <trkpt lat="45.36718" lon="4.61418">
        <ele>893</ele>
        <time>2015-05-10T06:29:32Z</time>
      </trkpt>
      <trkpt lat="45.36721" lon="4.61422">
        <ele>894</ele>
        <time>2015-05-10T06:29:34Z</time>
      </trkpt>
      <trkpt lat="45.36725" lon="4.61427">
        <ele>894</ele>
        <time>2015-05-10T06:29:36Z</time>
      </trkpt>
      <trkpt lat="45.3673" lon="4.61432">
        <ele>895</ele>
        <time>2015-05-10T06:29:39Z</time>
      </trkpt>
      <trkpt lat="45.36733" lon="4.61435">
        <ele>895</ele>
        <time>2015-05-10T06:29:41Z</time>
      </trkpt>
      <trkpt lat="45.36737" lon="4.61438">
        <ele>895</ele>
        <time>2015-05-10T06:29:43Z</time>
      </trkpt>
      <trkpt lat="45.3674" lon="4.61441">
        <ele>896</ele>
        <time>2015-05-10T06:29:45Z</time>
      </trkpt>
      <trkpt lat="45.36744" lon="4.61445">
        <ele>896</ele>
        <time>2015-05-10T06:29:48Z</time>
      </trkpt>
      <trkpt lat="45.36748" lon="4.61447">
        <ele>897</ele>
        <time>2015-05-10T06:29:50Z</time>
      </trkpt>
      <trkpt lat="45.36753" lon="4.6145">
        <ele>897</ele>
        <time>2015-05-10T06:29:53Z</time>
      </trkpt>
      <trkpt lat="45.36756" lon="4.61452">
        <ele>897</ele>
        <time>2015-05-10T06:29:55Z</time>
      </trkpt>
      <trkpt lat="45.36759" lon="4.61455">
        <ele>898</ele>
        <time>2015-05-10T06:29:57Z</time>
      </trkpt>
      <trkpt lat="45.36763" lon="4.6146">
        <ele>898</ele>
        <time>2015-05-10T06:30:00Z</time>
      </trkpt>
      <trkpt lat="45.36766" lon="4.61463">
        <ele>899</ele>
        <time>2015-05-10T06:30:02Z</time>
      </trkpt>
      <trkpt lat="45.36768" lon="4.61468">
        <ele>899</ele>
        <time>2015-05-10T06:30:04Z</time>
      </trkpt>
      <trkpt lat="45.3677" lon="4.61473">
        <ele>900</ele>
        <time>2015-05-10T06:30:06Z</time>
      </trkpt>
      <trkpt lat="45.36773" lon="4.61477">
        <ele>900</ele>
        <time>2015-05-10T06:30:08Z</time>
      </trkpt>
      <trkpt lat="45.36777" lon="4.61483">
        <ele>900</ele>
        <time>2015-05-10T06:30:11Z</time>
      </trkpt>
      <trkpt lat="45.36781" lon="4.6149">
        <ele>901</ele>
        <time>2015-05-10T06:30:14Z</time>
      </trkpt>
      <trkpt lat="45.36784" lon="4.61495">
        <ele>902</ele>
        <time>2015-05-10T06:30:16Z</time>
      </trkpt>
      <trkpt lat="45.36786" lon="4.61503">
        <ele>902</ele>
        <time>2015-05-10T06:30:19Z</time>
      </trkpt>
      <trkpt lat="45.36788" lon="4.61506">
        <ele>902</ele>
        <time>2015-05-10T06:30:21Z</time>
      </trkpt>
      <trkpt lat="45.36791" lon="4.61512">
        <ele>903</ele>
        <time>2015-05-10T06:30:24Z</time>
      </trkpt>
      <trkpt lat="45.36795" lon="4.61515">
        <ele>903</ele>
        <time>2015-05-10T06:30:26Z</time>
      </trkpt>
      <trkpt lat="45.36797" lon="4.61517">
        <ele>903</ele>
        <time>2015-05-10T06:30:28Z</time>
      </trkpt>
      <trkpt lat="45.368" lon="4.61523">
        <ele>904</ele>
        <time>2015-05-10T06:30:31Z</time>
      </trkpt>
      <trkpt lat="45.36801" lon="4.61527">
        <ele>904</ele>
        <time>2015-05-10T06:30:33Z</time>
      </trkpt>
      <trkpt lat="45.36805" lon="4.61534">
        <ele>905</ele>
        <time>2015-05-10T06:30:36Z</time>
      </trkpt>
      <trkpt lat="45.36807" lon="4.61538">
        <ele>905</ele>
        <time>2015-05-10T06:30:38Z</time>
      </trkpt>
      <trkpt lat="45.3681" lon="4.61542">
        <ele>906</ele>
        <time>2015-05-10T06:30:40Z</time>
      </trkpt>
      <trkpt lat="45.36812" lon="4.61546">
        <ele>906</ele>
        <time>2015-05-10T06:30:42Z</time>
      </trkpt>
      <trkpt lat="45.36813" lon="4.6155">
        <ele>907</ele>
        <time>2015-05-10T06:30:44Z</time>
      </trkpt>
      <trkpt lat="45.36816" lon="4.61556">
        <ele>907</ele>
        <time>2015-05-10T06:30:47Z</time>
      </trkpt>
      <trkpt lat="45.3682" lon="4.61564">
        <ele>908</ele>
        <time>2015-05-10T06:30:50Z</time>
      </trkpt>
      <trkpt lat="45.36822" lon="4.61569">
        <ele>908</ele>
        <time>2015-05-10T06:30:52Z</time>
      </trkpt>
      <trkpt lat="45.36825" lon="4.61574">
        <ele>908</ele>
        <time>2015-05-10T06:30:54Z</time>
      </trkpt>
      <trkpt lat="45.36827" lon="4.61582">
        <ele>909</ele>
        <time>2015-05-10T06:30:57Z</time>
      </trkpt>
      <trkpt lat="45.36829" lon="4.61587">
        <ele>909</ele>
        <time>2015-05-10T06:30:59Z</time>
      </trkpt>
      <trkpt lat="45.36831" lon="4.61592">
        <ele>910</ele>
        <time>2015-05-10T06:31:01Z</time>
      </trkpt>
      <trkpt lat="45.36833" lon="4.61596">
        <ele>910</ele>
        <time>2015-05-10T06:31:03Z</time>
      </trkpt>
      <trkpt lat="45.36837" lon="4.61602">
        <ele>911</ele>
        <time>2015-05-10T06:31:06Z</time>
      </trkpt>
      <trkpt lat="45.3684" lon="4.61604">
        <ele>911</ele>
        <time>2015-05-10T06:31:08Z</time>
      </trkpt>
      <trkpt lat="45.36843" lon="4.61609">
        <ele>911</ele>
        <time>2015-05-10T06:31:10Z</time>
      </trkpt>
      <trkpt lat="45.36847" lon="4.61613">
        <ele>912</ele>
        <time>2015-05-10T06:31:12Z</time>
      </trkpt>
      <trkpt lat="45.36851" lon="4.61619">
        <ele>912</ele>
        <time>2015-05-10T06:31:15Z</time>
      </trkpt>
      <trkpt lat="45.36853" lon="4.61623">
        <ele>912</ele>
        <time>2015-05-10T06:31:17Z</time>
      </trkpt>
      <trkpt lat="45.36856" lon="4.61631">
        <ele>912</ele>
        <time>2015-05-10T06:31:20Z</time>
      </trkpt>
      <trkpt lat="45.36859" lon="4.61636">
        <ele>913</ele>
        <time>2015-05-10T06:31:22Z</time>
      </trkpt>
      <trkpt lat="45.36863" lon="4.61643">
        <ele>913</ele>
        <time>2015-05-10T06:31:25Z</time>
      </trkpt>
      <trkpt lat="45.36866" lon="4.61648">
        <ele>913</ele>
        <time>2015-05-10T06:31:27Z</time>
      </trkpt>
      <trkpt lat="45.3687" lon="4.61652">
        <ele>914</ele>
        <time>2015-05-10T06:31:29Z</time>
      </trkpt>
      <trkpt lat="45.36874" lon="4.61658">
        <ele>914</ele>
        <time>2015-05-10T06:31:32Z</time>
      </trkpt>
      <trkpt lat="45.36878" lon="4.6166">
        <ele>914</ele>
        <time>2015-05-10T06:31:34Z</time>
      </trkpt>
      <trkpt lat="45.36885" lon="4.6166">
        <ele>914</ele>
        <time>2015-05-10T06:31:37Z</time>
      </trkpt>
      <trkpt lat="45.3689" lon="4.61659">
        <ele>914</ele>
        <time>2015-05-10T06:31:39Z</time>
      </trkpt>
      <trkpt lat="45.36897" lon="4.61656">
        <ele>914</ele>
        <time>2015-05-10T06:31:42Z</time>
      </trkpt>
      <trkpt lat="45.36904" lon="4.61652">
        <ele>914</ele>
        <time>2015-05-10T06:31:45Z</time>
      </trkpt>
      <trkpt lat="45.36908" lon="4.61649">
        <ele>914</ele>
        <time>2015-05-10T06:31:47Z</time>
      </trkpt>
      <trkpt lat="45.36913" lon="4.61645">
        <ele>914</ele>
        <time>2015-05-10T06:31:49Z</time>
      </trkpt>
      <trkpt lat="45.36917" lon="4.61641">
        <ele>914</ele>
        <time>2015-05-10T06:31:51Z</time>
      </trkpt>
      <trkpt lat="45.36923" lon="4.61634">
        <ele>914</ele>
        <time>2015-05-10T06:31:54Z</time>
      </trkpt>
      <trkpt lat="45.36927" lon="4.6163">
        <ele>914</ele>
        <time>2015-05-10T06:31:56Z</time>
      </trkpt>
      <trkpt lat="45.36932" lon="4.61626">
        <ele>913</ele>
        <time>2015-05-10T06:31:59Z</time>
      </trkpt>
      <trkpt lat="45.36939" lon="4.61622">
        <ele>914</ele>
        <time>2015-05-10T06:32:02Z</time>
      </trkpt>
      <trkpt lat="45.36945" lon="4.6162">
        <ele>914</ele>
        <time>2015-05-10T06:32:05Z</time>
      </trkpt>
      <trkpt lat="45.36951" lon="4.61618">
        <ele>915</ele>
        <time>2015-05-10T06:32:08Z</time>
      </trkpt>
      <trkpt lat="45.36955" lon="4.61617">
        <ele>915</ele>
        <time>2015-05-10T06:32:10Z</time>
      </trkpt>
      <trkpt lat="45.36959" lon="4.61616">
        <ele>915</ele>
        <time>2015-05-10T06:32:12Z</time>
      </trkpt>
      <trkpt lat="45.36963" lon="4.61615">
        <ele>915</ele>
        <time>2015-05-10T06:32:14Z</time>
      </trkpt>
      <trkpt lat="45.36969" lon="4.61613">
        <ele>915</ele>
        <time>2015-05-10T06:32:17Z</time>
      </trkpt>
      <trkpt lat="45.36975" lon="4.6161">
        <ele>916</ele>
        <time>2015-05-10T06:32:20Z</time>
      </trkpt>
      <trkpt lat="45.36982" lon="4.61608">
        <ele>916</ele>
        <time>2015-05-10T06:32:23Z</time>
      </trkpt>
      <trkpt lat="45.36985" lon="4.61607">
        <ele>917</ele>
        <time>2015-05-10T06:32:25Z</time>
      </trkpt>
      <trkpt lat="45.3699" lon="4.61606">
        <ele>917</ele>
        <time>2015-05-10T06:32:27Z</time>
      </trkpt>
      <trkpt lat="45.36995" lon="4.61604">
        <ele>918</ele>
        <time>2015-05-10T06:32:30Z</time>
      </trkpt>
      <trkpt lat="45.37" lon="4.61601">
        <ele>919</ele>
        <time>2015-05-10T06:32:33Z</time>
      </trkpt>
      <trkpt lat="45.37006" lon="4.616">
        <ele>919</ele>
        <time>2015-05-10T06:32:36Z</time>
      </trkpt>
      <trkpt lat="45.37009" lon="4.61599">
        <ele>920</ele>
        <time>2015-05-10T06:32:38Z</time>
      </trkpt>
      <trkpt lat="45.37014" lon="4.61598">
        <ele>921</ele>
        <time>2015-05-10T06:32:41Z</time>
      </trkpt>
      <trkpt lat="45.37018" lon="4.61598">
        <ele>921</ele>
        <time>2015-05-10T06:32:43Z</time>
      </trkpt>
      <trkpt lat="45.37023" lon="4.61598">
        <ele>922</ele>
        <time>2015-05-10T06:32:46Z</time>
      </trkpt>
      <trkpt lat="45.37027" lon="4.61598">
        <ele>922</ele>
        <time>2015-05-10T06:32:48Z</time>
      </trkpt>
      <trkpt lat="45.37029" lon="4.61598">
        <ele>923</ele>
        <time>2015-05-10T06:32:50Z</time>
      </trkpt>
      <trkpt lat="45.37032" lon="4.61598">
        <ele>923</ele>
        <time>2015-05-10T06:32:52Z</time>
      </trkpt>
      <trkpt lat="45.37033" lon="4.61599">
        <ele>924</ele>
        <time>2015-05-10T06:32:54Z</time>
      </trkpt>
      <trkpt lat="45.37037" lon="4.61602">
        <ele>924</ele>
        <time>2015-05-10T06:32:57Z</time>
      </trkpt>
      <trkpt lat="45.37041" lon="4.61605">
        <ele>924</ele>
        <time>2015-05-10T06:32:59Z</time>
      </trkpt>
      <trkpt lat="45.37046" lon="4.6161">
        <ele>925</ele>
        <time>2015-05-10T06:33:02Z</time>
      </trkpt>
      <trkpt lat="45.37049" lon="4.61615">
        <ele>926</ele>
        <time>2015-05-10T06:33:05Z</time>
      </trkpt>
      <trkpt lat="45.37053" lon="4.61618">
        <ele>926</ele>
        <time>2015-05-10T06:33:07Z</time>
      </trkpt>
      <trkpt lat="45.37057" lon="4.6162">
        <ele>927</ele>
        <time>2015-05-10T06:33:09Z</time>
      </trkpt>
      <trkpt lat="45.37061" lon="4.61623">
        <ele>927</ele>
        <time>2015-05-10T06:33:11Z</time>
      </trkpt>
      <trkpt lat="45.37066" lon="4.61627">
        <ele>927</ele>
        <time>2015-05-10T06:33:14Z</time>
      </trkpt>
      <trkpt lat="45.37071" lon="4.61633">
        <ele>927</ele>
        <time>2015-05-10T06:33:17Z</time>
      </trkpt>
      <trkpt lat="45.37074" lon="4.61637">
        <ele>928</ele>
        <time>2015-05-10T06:33:19Z</time>
      </trkpt>
      <trkpt lat="45.37078" lon="4.6164">
        <ele>928</ele>
        <time>2015-05-10T06:33:21Z</time>
      </trkpt>
      <trkpt lat="45.37083" lon="4.61643">
        <ele>929</ele>
        <time>2015-05-10T06:33:24Z</time>
      </trkpt>
      <trkpt lat="45.37086" lon="4.61645">
        <ele>929</ele>
        <time>2015-05-10T06:33:26Z</time>
      </trkpt>
      <trkpt lat="45.3709" lon="4.6165">
        <ele>930</ele>
        <time>2015-05-10T06:33:29Z</time>
      </trkpt>
      <trkpt lat="45.37093" lon="4.61654">
        <ele>930</ele>
        <time>2015-05-10T06:33:31Z</time>
      </trkpt>
      <trkpt lat="45.37097" lon="4.61657">
        <ele>930</ele>
        <time>2015-05-10T06:33:33Z</time>
      </trkpt>
      <trkpt lat="45.37102" lon="4.61661">
        <ele>931</ele>
        <time>2015-05-10T06:33:36Z</time>
      </trkpt>
      <trkpt lat="45.37105" lon="4.61664">
        <ele>932</ele>
        <time>2015-05-10T06:33:39Z</time>
      </trkpt>
      <trkpt lat="45.3711" lon="4.61668">
        <ele>933</ele>
        <time>2015-05-10T06:33:42Z</time>
      </trkpt>
      <trkpt lat="45.37112" lon="4.61669">
        <ele>933</ele>
        <time>2015-05-10T06:33:44Z</time>
      </trkpt>
      <trkpt lat="45.37114" lon="4.6167">
        <ele>934</ele>
        <time>2015-05-10T06:33:47Z</time>
      </trkpt>
      <trkpt lat="45.37116" lon="4.61671">
        <ele>935</ele>
        <time>2015-05-10T06:33:50Z</time>
      </trkpt>
      <trkpt lat="45.37119" lon="4.61672">
        <ele>936</ele>
        <time>2015-05-10T06:33:52Z</time>
      </trkpt>
      <trkpt lat="45.37121" lon="4.61674">
        <ele>936</ele>
        <time>2015-05-10T06:33:54Z</time>
      </trkpt>
      <trkpt lat="45.37123" lon="4.61676">
        <ele>936</ele>
        <time>2015-05-10T06:33:56Z</time>
      </trkpt>
      <trkpt lat="45.37128" lon="4.61677">
        <ele>937</ele>
        <time>2015-05-10T06:33:59Z</time>
      </trkpt>
      <trkpt lat="45.37132" lon="4.61678">
        <ele>938</ele>
        <time>2015-05-10T06:34:02Z</time>
      </trkpt>
      <trkpt lat="45.37135" lon="4.61679">
        <ele>938</ele>
        <time>2015-05-10T06:34:04Z</time>
      </trkpt>
      <trkpt lat="45.37137" lon="4.61679">
        <ele>938</ele>
        <time>2015-05-10T06:34:06Z</time>
      </trkpt>
      <trkpt lat="45.37141" lon="4.6168">
        <ele>938</ele>
        <time>2015-05-10T06:34:09Z</time>
      </trkpt>
      <trkpt lat="45.37143" lon="4.61681">
        <ele>939</ele>
        <time>2015-05-10T06:34:11Z</time>
      </trkpt>
      <trkpt lat="45.37146" lon="4.61681">
        <ele>939</ele>
        <time>2015-05-10T06:34:13Z</time>
      </trkpt>
      <trkpt lat="45.37148" lon="4.61682">
        <ele>939</ele>
        <time>2015-05-10T06:34:15Z</time>
      </trkpt>
      <trkpt lat="45.3715" lon="4.61682">
        <ele>939</ele>
        <time>2015-05-10T06:34:17Z</time>
      </trkpt>
      <trkpt lat="45.37152" lon="4.61683">
        <ele>940</ele>
        <time>2015-05-10T06:34:20Z</time>
      </trkpt>
      <trkpt lat="45.37154" lon="4.61684">
        <ele>941</ele>
        <time>2015-05-10T06:34:22Z</time>
      </trkpt>
      <trkpt lat="45.37157" lon="4.61685">
        <ele>942</ele>
        <time>2015-05-10T06:34:25Z</time>
      </trkpt>
      <trkpt lat="45.37159" lon="4.61686">
        <ele>942</ele>
        <time>2015-05-10T06:34:27Z</time>
      </trkpt>
      <trkpt lat="45.37161" lon="4.61686">
        <ele>942</ele>
        <time>2015-05-10T06:34:29Z</time>
      </trkpt>
      <trkpt lat="45.37164" lon="4.61686">
        <ele>943</ele>
        <time>2015-05-10T06:34:31Z</time>
      </trkpt>
      <trkpt lat="45.37167" lon="4.61686">
        <ele>943</ele>
        <time>2015-05-10T06:34:34Z</time>
      </trkpt>
      <trkpt lat="45.37169" lon="4.61687">
        <ele>943</ele>
        <time>2015-05-10T06:34:36Z</time>
      </trkpt>
      <trkpt lat="45.37171" lon="4.61686">
        <ele>944</ele>
        <time>2015-05-10T06:34:38Z</time>
      </trkpt>
      <trkpt lat="45.37173" lon="4.61686">
        <ele>944</ele>
        <time>2015-05-10T06:34:40Z</time>
      </trkpt>
      <trkpt lat="45.37177" lon="4.61687">
        <ele>945</ele>
        <time>2015-05-10T06:34:43Z</time>
      </trkpt>
      <trkpt lat="45.3718" lon="4.61687">
        <ele>945</ele>
        <time>2015-05-10T06:34:46Z</time>
      </trkpt>
      <trkpt lat="45.37182" lon="4.61688">
        <ele>946</ele>
        <time>2015-05-10T06:34:48Z</time>
      </trkpt>
      <trkpt lat="45.37184" lon="4.61689">
        <ele>946</ele>
        <time>2015-05-10T06:34:51Z</time>
      </trkpt>
      <trkpt lat="45.37186" lon="4.61689">
        <ele>946</ele>
        <time>2015-05-10T06:34:53Z</time>
      </trkpt>
      <trkpt lat="45.37188" lon="4.6169">
        <ele>947</ele>
        <time>2015-05-10T06:34:55Z</time>
      </trkpt>
      <trkpt lat="45.37192" lon="4.61691">
        <ele>947</ele>
        <time>2015-05-10T06:34:58Z</time>
      </trkpt>
      <trkpt lat="45.37194" lon="4.61692">
        <ele>948</ele>
        <time>2015-05-10T06:35:00Z</time>
      </trkpt>
      <trkpt lat="45.37196" lon="4.61692">
        <ele>948</ele>
        <time>2015-05-10T06:35:02Z</time>
      </trkpt>
      <trkpt lat="45.37197" lon="4.61692">
        <ele>949</ele>
        <time>2015-05-10T06:35:04Z</time>
      </trkpt>
      <trkpt lat="45.37199" lon="4.61692">
        <ele>949</ele>
        <time>2015-05-10T06:35:06Z</time>
      </trkpt>
      <trkpt lat="45.37202" lon="4.61694">
        <ele>949</ele>
        <time>2015-05-10T06:35:09Z</time>
      </trkpt>
      <trkpt lat="45.37204" lon="4.61695">
        <ele>950</ele>
        <time>2015-05-10T06:35:12Z</time>
      </trkpt>
      <trkpt lat="45.37206" lon="4.61697">
        <ele>950</ele>
        <time>2015-05-10T06:35:15Z</time>
      </trkpt>
      <trkpt lat="45.37208" lon="4.61698">
        <ele>950</ele>
        <time>2015-05-10T06:35:17Z</time>
      </trkpt>
      <trkpt lat="45.3721" lon="4.617">
        <ele>950</ele>
        <time>2015-05-10T06:35:20Z</time>
      </trkpt>
      <trkpt lat="45.37212" lon="4.61701">
        <ele>951</ele>
        <time>2015-05-10T06:35:22Z</time>
      </trkpt>
      <trkpt lat="45.37215" lon="4.61701">
        <ele>951</ele>
        <time>2015-05-10T06:35:24Z</time>
      </trkpt>
      <trkpt lat="45.37219" lon="4.61704">
        <ele>952</ele>
        <time>2015-05-10T06:35:27Z</time>
      </trkpt>
      <trkpt lat="45.37222" lon="4.61705">
        <ele>952</ele>
        <time>2015-05-10T06:35:30Z</time>
      </trkpt>
      <trkpt lat="45.37224" lon="4.61706">
        <ele>953</ele>
        <time>2015-05-10T06:35:32Z</time>
      </trkpt>
      <trkpt lat="45.37227" lon="4.61706">
        <ele>953</ele>
        <time>2015-05-10T06:35:35Z</time>
      </trkpt>
      <trkpt lat="45.37228" lon="4.61706">
        <ele>953</ele>
        <time>2015-05-10T06:35:37Z</time>
      </trkpt>
      <trkpt lat="45.3723" lon="4.61707">
        <ele>954</ele>
        <time>2015-05-10T06:35:39Z</time>
      </trkpt>
      <trkpt lat="45.37233" lon="4.61709">
        <ele>954</ele>
        <time>2015-05-10T06:35:42Z</time>
      </trkpt>
      <trkpt lat="45.37236" lon="4.61709">
        <ele>954</ele>
        <time>2015-05-10T06:35:44Z</time>
      </trkpt>
      <trkpt lat="45.37238" lon="4.61709">
        <ele>955</ele>
        <time>2015-05-10T06:35:47Z</time>
      </trkpt>
      <trkpt lat="45.3724" lon="4.6171">
        <ele>955</ele>
        <time>2015-05-10T06:35:49Z</time>
      </trkpt>
      <trkpt lat="45.37243" lon="4.61711">
        <ele>956</ele>
        <time>2015-05-10T06:35:52Z</time>
      </trkpt>
      <trkpt lat="45.37245" lon="4.61712">
        <ele>956</ele>
        <time>2015-05-10T06:35:54Z</time>
      </trkpt>
      <trkpt lat="45.37248" lon="4.61713">
        <ele>957</ele>
        <time>2015-05-10T06:35:56Z</time>
      </trkpt>
      <trkpt lat="45.37252" lon="4.61714">
        <ele>957</ele>
        <time>2015-05-10T06:35:59Z</time>
      </trkpt>
      <trkpt lat="45.37253" lon="4.61714">
        <ele>957</ele>
        <time>2015-05-10T06:36:01Z</time>
      </trkpt>
      <trkpt lat="45.37257" lon="4.61716">
        <ele>958</ele>
        <time>2015-05-10T06:36:04Z</time>
      </trkpt>
      <trkpt lat="45.3726" lon="4.61718">
        <ele>958</ele>
        <time>2015-05-10T06:36:07Z</time>
      </trkpt>
      <trkpt lat="45.37262" lon="4.61719">
        <ele>958</ele>
        <time>2015-05-10T06:36:09Z</time>
      </trkpt>
      <trkpt lat="45.37264" lon="4.61721">
        <ele>959</ele>
        <time>2015-05-10T06:36:12Z</time>
      </trkpt>
      <trkpt lat="45.37266" lon="4.61723">
        <ele>960</ele>
        <time>2015-05-10T06:36:15Z</time>
      </trkpt>
      <trkpt lat="45.37268" lon="4.61725">
        <ele>960</ele>
        <time>2015-05-10T06:36:17Z</time>
      </trkpt>
      <trkpt lat="45.37269" lon="4.61726">
        <ele>960</ele>
        <time>2015-05-10T06:36:19Z</time>
      </trkpt>
      <trkpt lat="45.37271" lon="4.61728">
        <ele>960</ele>
        <time>2015-05-10T06:36:21Z</time>
      </trkpt>
      <trkpt lat="45.37273" lon="4.61729">
        <ele>960</ele>
        <time>2015-05-10T06:36:23Z</time>
      </trkpt>
      <trkpt lat="45.37277" lon="4.61731">
        <ele>960</ele>
        <time>2015-05-10T06:36:26Z</time>
      </trkpt>
      <trkpt lat="45.37279" lon="4.61732">
        <ele>960</ele>
        <time>2015-05-10T06:36:28Z</time>
      </trkpt>
      <trkpt lat="45.37282" lon="4.61734">
        <ele>961</ele>
        <time>2015-05-10T06:36:31Z</time>
      </trkpt>
      <trkpt lat="45.37284" lon="4.61735">
        <ele>961</ele>
        <time>2015-05-10T06:36:33Z</time>
      </trkpt>
      <trkpt lat="45.37286" lon="4.61736">
        <ele>962</ele>
        <time>2015-05-10T06:36:36Z</time>
      </trkpt>
      <trkpt lat="45.37287" lon="4.61738">
        <ele>962</ele>
        <time>2015-05-10T06:36:38Z</time>
      </trkpt>
      <trkpt lat="45.37289" lon="4.61739">
        <ele>962</ele>
        <time>2015-05-10T06:36:40Z</time>
      </trkpt>
      <trkpt lat="45.37291" lon="4.61741">
        <ele>962</ele>
        <time>2015-05-10T06:36:43Z</time>
      </trkpt>
      <trkpt lat="45.37294" lon="4.61742">
        <ele>962</ele>
        <time>2015-05-10T06:36:46Z</time>
      </trkpt>
      <trkpt lat="45.37296" lon="4.61743">
        <ele>963</ele>
        <time>2015-05-10T06:36:49Z</time>
      </trkpt>
      <trkpt lat="45.37297" lon="4.61743">
        <ele>964</ele>
        <time>2015-05-10T06:36:51Z</time>
      </trkpt>
      <trkpt lat="45.37301" lon="4.61745">
        <ele>964</ele>
        <time>2015-05-10T06:36:54Z</time>
      </trkpt>
      <trkpt lat="45.37304" lon="4.61746">
        <ele>964</ele>
        <time>2015-05-10T06:36:56Z</time>
      </trkpt>
      <trkpt lat="45.37307" lon="4.61747">
        <ele>965</ele>
        <time>2015-05-10T06:36:59Z</time>
      </trkpt>
      <trkpt lat="45.3731" lon="4.61748">
        <ele>965</ele>
        <time>2015-05-10T06:37:02Z</time>
      </trkpt>
      <trkpt lat="45.37313" lon="4.61749">
        <ele>965</ele>
        <time>2015-05-10T06:37:05Z</time>
      </trkpt>
      <trkpt lat="45.37316" lon="4.6175">
        <ele>966</ele>
        <time>2015-05-10T06:37:07Z</time>
      </trkpt>
      <trkpt lat="45.3732" lon="4.61751">
        <ele>966</ele>
        <time>2015-05-10T06:37:10Z</time>
      </trkpt>
      <trkpt lat="45.37323" lon="4.61751">
        <ele>967</ele>
        <time>2015-05-10T06:37:12Z</time>
      </trkpt>
      <trkpt lat="45.37325" lon="4.61752">
        <ele>967</ele>
        <time>2015-05-10T06:37:14Z</time>
      </trkpt>
      <trkpt lat="45.37327" lon="4.61752">
        <ele>967</ele>
        <time>2015-05-10T06:37:16Z</time>
      </trkpt>
      <trkpt lat="45.3733" lon="4.61754">
        <ele>968</ele>
        <time>2015-05-10T06:37:18Z</time>
      </trkpt>
      <trkpt lat="45.37332" lon="4.61755">
        <ele>968</ele>
        <time>2015-05-10T06:37:20Z</time>
      </trkpt>
      <trkpt lat="45.37334" lon="4.61756">
        <ele>969</ele>
        <time>2015-05-10T06:37:22Z</time>
      </trkpt>
      <trkpt lat="45.37337" lon="4.61757">
        <ele>969</ele>
        <time>2015-05-10T06:37:25Z</time>
      </trkpt>
      <trkpt lat="45.37341" lon="4.61759">
        <ele>969</ele>
        <time>2015-05-10T06:37:28Z</time>
      </trkpt>
      <trkpt lat="45.37344" lon="4.6176">
        <ele>970</ele>
        <time>2015-05-10T06:37:31Z</time>
      </trkpt>
      <trkpt lat="45.37347" lon="4.61761">
        <ele>970</ele>
        <time>2015-05-10T06:37:33Z</time>
      </trkpt>
      <trkpt lat="45.37352" lon="4.61762">
        <ele>970</ele>
        <time>2015-05-10T06:37:36Z</time>
      </trkpt>
      <trkpt lat="45.37355" lon="4.61761">
        <ele>971</ele>
        <time>2015-05-10T06:37:38Z</time>
      </trkpt>
      <trkpt lat="45.3736" lon="4.61761">
        <ele>972</ele>
        <time>2015-05-10T06:37:41Z</time>
      </trkpt>
      <trkpt lat="45.37363" lon="4.61762">
        <ele>972</ele>
        <time>2015-05-10T06:37:43Z</time>
      </trkpt>
      <trkpt lat="45.37364" lon="4.61762">
        <ele>972</ele>
        <time>2015-05-10T06:37:45Z</time>
      </trkpt>
      <trkpt lat="45.37366" lon="4.61761">
        <ele>972</ele>
        <time>2015-05-10T06:37:47Z</time>
      </trkpt>
      <trkpt lat="45.3737" lon="4.61761">
        <ele>972</ele>
        <time>2015-05-10T06:37:50Z</time>
      </trkpt>
      <trkpt lat="45.37373" lon="4.6176">
        <ele>973</ele>
        <time>2015-05-10T06:37:53Z</time>
      </trkpt>
      <trkpt lat="45.37376" lon="4.6176">
        <ele>973</ele>
        <time>2015-05-10T06:37:55Z</time>
      </trkpt>
      <trkpt lat="45.37379" lon="4.6176">
        <ele>974</ele>
        <time>2015-05-10T06:37:58Z</time>
      </trkpt>
      <trkpt lat="45.3738" lon="4.61759">
        <ele>974</ele>
        <time>2015-05-10T06:38:00Z</time>
      </trkpt>
      <trkpt lat="45.37382" lon="4.61759">
        <ele>975</ele>
        <time>2015-05-10T06:38:02Z</time>
      </trkpt>
      <trkpt lat="45.37384" lon="4.61759">
        <ele>976</ele>
        <time>2015-05-10T06:38:04Z</time>
      </trkpt>
      <trkpt lat="45.37387" lon="4.61759">
        <ele>976</ele>
        <time>2015-05-10T06:38:07Z</time>
      </trkpt>
      <trkpt lat="45.37389" lon="4.61759">
        <ele>976</ele>
        <time>2015-05-10T06:38:09Z</time>
      </trkpt>
      <trkpt lat="45.37392" lon="4.61758">
        <ele>977</ele>
        <time>2015-05-10T06:38:12Z</time>
      </trkpt>
      <trkpt lat="45.37394" lon="4.61758">
        <ele>977</ele>
        <time>2015-05-10T06:38:14Z</time>
      </trkpt>
      <trkpt lat="45.37396" lon="4.61759">
        <ele>978</ele>
        <time>2015-05-10T06:38:17Z</time>
      </trkpt>
      <trkpt lat="45.37398" lon="4.61758">
        <ele>978</ele>
        <time>2015-05-10T06:38:19Z</time>
      </trkpt>
      <trkpt lat="45.37398" lon="4.61758">
        <ele>979</ele>
        <time>2015-05-10T06:38:21Z</time>
      </trkpt>
      <trkpt lat="45.374" lon="4.61757">
        <ele>979</ele>
        <time>2015-05-10T06:38:23Z</time>
      </trkpt>
      <trkpt lat="45.37403" lon="4.61756">
        <ele>980</ele>
        <time>2015-05-10T06:38:26Z</time>
      </trkpt>
      <trkpt lat="45.37405" lon="4.61754">
        <ele>980</ele>
        <time>2015-05-10T06:38:29Z</time>
      </trkpt>
      <trkpt lat="45.37407" lon="4.61753">
        <ele>981</ele>
        <time>2015-05-10T06:38:31Z</time>
      </trkpt>
      <trkpt lat="45.3741" lon="4.61753">
        <ele>981</ele>
        <time>2015-05-10T06:38:34Z</time>
      </trkpt>
      <trkpt lat="45.37411" lon="4.61752">
        <ele>982</ele>
        <time>2015-05-10T06:38:36Z</time>
      </trkpt>
      <trkpt lat="45.37414" lon="4.61751">
        <ele>982</ele>
        <time>2015-05-10T06:38:39Z</time>
      </trkpt>
      <trkpt lat="45.37417" lon="4.6175">
        <ele>983</ele>
        <time>2015-05-10T06:38:42Z</time>
      </trkpt>
      <trkpt lat="45.37419" lon="4.61749">
        <ele>984</ele>
        <time>2015-05-10T06:38:44Z</time>
      </trkpt>
      <trkpt lat="45.37421" lon="4.61748">
        <ele>984</ele>
        <time>2015-05-10T06:38:46Z</time>
      </trkpt>
      <trkpt lat="45.37423" lon="4.61748">
        <ele>984</ele>
        <time>2015-05-10T06:38:48Z</time>
      </trkpt>
      <trkpt lat="45.37425" lon="4.61748">
        <ele>985</ele>
        <time>2015-05-10T06:38:50Z</time>
      </trkpt>
      <trkpt lat="45.37428" lon="4.61747">
        <ele>985</ele>
        <time>2015-05-10T06:38:53Z</time>
      </trkpt>
      <trkpt lat="45.37431" lon="4.61745">
        <ele>986</ele>
        <time>2015-05-10T06:38:56Z</time>
      </trkpt>
      <trkpt lat="45.37434" lon="4.61745">
        <ele>987</ele>
        <time>2015-05-10T06:38:59Z</time>
      </trkpt>
      <trkpt lat="45.37436" lon="4.61745">
        <ele>987</ele>
        <time>2015-05-10T06:39:01Z</time>
      </trkpt>
      <trkpt lat="45.37438" lon="4.61745">
        <ele>988</ele>
        <time>2015-05-10T06:39:03Z</time>
      </trkpt>
      <trkpt lat="45.37441" lon="4.61744">
        <ele>988</ele>
        <time>2015-05-10T06:39:06Z</time>
      </trkpt>
      <trkpt lat="45.37442" lon="4.61744">
        <ele>989</ele>
        <time>2015-05-10T06:39:08Z</time>
      </trkpt>
      <trkpt lat="45.37445" lon="4.61744">
        <ele>989</ele>
        <time>2015-05-10T06:39:10Z</time>
      </trkpt>
      <trkpt lat="45.37447" lon="4.61745">
        <ele>990</ele>
        <time>2015-05-10T06:39:12Z</time>
      </trkpt>
      <trkpt lat="45.37449" lon="4.61745">
        <ele>990</ele>
        <time>2015-05-10T06:39:14Z</time>
      </trkpt>
      <trkpt lat="45.37453" lon="4.61745">
        <ele>990</ele>
        <time>2015-05-10T06:39:17Z</time>
      </trkpt>
      <trkpt lat="45.37456" lon="4.61746">
        <ele>990</ele>
        <time>2015-05-10T06:39:19Z</time>
      </trkpt>
      <trkpt lat="45.3746" lon="4.61746">
        <ele>990</ele>
        <time>2015-05-10T06:39:22Z</time>
      </trkpt>
      <trkpt lat="45.37464" lon="4.61747">
        <ele>991</ele>
        <time>2015-05-10T06:39:24Z</time>
      </trkpt>
      <trkpt lat="45.37468" lon="4.61747">
        <ele>991</ele>
        <time>2015-05-10T06:39:26Z</time>
      </trkpt>
      <trkpt lat="45.37471" lon="4.61746">
        <ele>991</ele>
        <time>2015-05-10T06:39:28Z</time>
      </trkpt>
      <trkpt lat="45.37472" lon="4.61747">
        <ele>992</ele>
        <time>2015-05-10T06:39:30Z</time>
      </trkpt>
      <trkpt lat="45.37475" lon="4.61747">
        <ele>992</ele>
        <time>2015-05-10T06:39:33Z</time>
      </trkpt>
      <trkpt lat="45.37476" lon="4.61748">
        <ele>992</ele>
        <time>2015-05-10T06:39:35Z</time>
      </trkpt>
      <trkpt lat="45.37477" lon="4.61747">
        <ele>993</ele>
        <time>2015-05-10T06:39:37Z</time>
      </trkpt>
      <trkpt lat="45.37479" lon="4.61747">
        <ele>994</ele>
        <time>2015-05-10T06:39:39Z</time>
      </trkpt>
      <trkpt lat="45.37482" lon="4.61746">
        <ele>994</ele>
        <time>2015-05-10T06:39:42Z</time>
      </trkpt>
      <trkpt lat="45.37486" lon="4.61747">
        <ele>994</ele>
        <time>2015-05-10T06:39:45Z</time>
      </trkpt>
      <trkpt lat="45.37488" lon="4.61747">
        <ele>995</ele>
        <time>2015-05-10T06:39:47Z</time>
      </trkpt>
      <trkpt lat="45.3749" lon="4.61747">
        <ele>995</ele>
        <time>2015-05-10T06:39:49Z</time>
      </trkpt>
      <trkpt lat="45.37495" lon="4.61748">
        <ele>996</ele>
        <time>2015-05-10T06:39:52Z</time>
      </trkpt>
      <trkpt lat="45.37498" lon="4.61748">
        <ele>996</ele>
        <time>2015-05-10T06:39:55Z</time>
      </trkpt>
      <trkpt lat="45.37501" lon="4.61746">
        <ele>997</ele>
        <time>2015-05-10T06:39:58Z</time>
      </trkpt>
      <trkpt lat="45.37505" lon="4.61745">
        <ele>998</ele>
        <time>2015-05-10T06:40:01Z</time>
      </trkpt>
      <trkpt lat="45.37507" lon="4.61744">
        <ele>998</ele>
        <time>2015-05-10T06:40:03Z</time>
      </trkpt>
      <trkpt lat="45.37509" lon="4.61744">
        <ele>998</ele>
        <time>2015-05-10T06:40:06Z</time>
      </trkpt>
      <trkpt lat="45.37511" lon="4.61744">
        <ele>998</ele>
        <time>2015-05-10T06:40:08Z</time>
      </trkpt>
      <trkpt lat="45.37513" lon="4.61743">
        <ele>999</ele>
        <time>2015-05-10T06:40:10Z</time>
      </trkpt>
      <trkpt lat="45.37516" lon="4.61743">
        <ele>1000</ele>
        <time>2015-05-10T06:40:13Z</time>
      </trkpt>
      <trkpt lat="45.37519" lon="4.61744">
        <ele>1001</ele>
        <time>2015-05-10T06:40:16Z</time>
      </trkpt>
      <trkpt lat="45.37521" lon="4.61744">
        <ele>1001</ele>
        <time>2015-05-10T06:40:18Z</time>
      </trkpt>
      <trkpt lat="45.37524" lon="4.61744">
        <ele>1002</ele>
        <time>2015-05-10T06:40:21Z</time>
      </trkpt>
      <trkpt lat="45.37526" lon="4.61743">
        <ele>1002</ele>
        <time>2015-05-10T06:40:23Z</time>
      </trkpt>
      <trkpt lat="45.37528" lon="4.61743">
        <ele>1002</ele>
        <time>2015-05-10T06:40:25Z</time>
      </trkpt>
      <trkpt lat="45.37531" lon="4.61743">
        <ele>1003</ele>
        <time>2015-05-10T06:40:27Z</time>
      </trkpt>
      <trkpt lat="45.37533" lon="4.61742">
        <ele>1003</ele>
        <time>2015-05-10T06:40:29Z</time>
      </trkpt>
      <trkpt lat="45.37535" lon="4.61741">
        <ele>1003</ele>
        <time>2015-05-10T06:40:31Z</time>
      </trkpt>
      <trkpt lat="45.37538" lon="4.6174">
        <ele>1004</ele>
        <time>2015-05-10T06:40:34Z</time>
      </trkpt>
      <trkpt lat="45.37539" lon="4.6174">
        <ele>1004</ele>
        <time>2015-05-10T06:40:36Z</time>
      </trkpt>
      <trkpt lat="45.37542" lon="4.6174">
        <ele>1005</ele>
        <time>2015-05-10T06:40:39Z</time>
      </trkpt>
      <trkpt lat="45.37544" lon="4.61739">
        <ele>1005</ele>
        <time>2015-05-10T06:40:41Z</time>
      </trkpt>
      <trkpt lat="45.37548" lon="4.61738">
        <ele>1005</ele>
        <time>2015-05-10T06:40:44Z</time>
      </trkpt>
      <trkpt lat="45.37552" lon="4.61737">
        <ele>1006</ele>
        <time>2015-05-10T06:40:47Z</time>
      </trkpt>
      <trkpt lat="45.37554" lon="4.61737">
        <ele>1007</ele>
        <time>2015-05-10T06:40:49Z</time>
      </trkpt>
      <trkpt lat="45.37558" lon="4.61737">
        <ele>1008</ele>
        <time>2015-05-10T06:40:52Z</time>
      </trkpt>
      <trkpt lat="45.3756" lon="4.61737">
        <ele>1008</ele>
        <time>2015-05-10T06:40:54Z</time>
      </trkpt>
      <trkpt lat="45.37563" lon="4.61737">
        <ele>1008</ele>
        <time>2015-05-10T06:40:57Z</time>
      </trkpt>
      <trkpt lat="45.37564" lon="4.61737">
        <ele>1009</ele>
        <time>2015-05-10T06:40:59Z</time>
      </trkpt>
      <trkpt lat="45.37566" lon="4.61736">
        <ele>1009</ele>
        <time>2015-05-10T06:41:01Z</time>
      </trkpt>
      <trkpt lat="45.37568" lon="4.61737">
        <ele>1009</ele>
        <time>2015-05-10T06:41:03Z</time>
      </trkpt>
      <trkpt lat="45.37571" lon="4.61736">
        <ele>1010</ele>
        <time>2015-05-10T06:41:06Z</time>
      </trkpt>
      <trkpt lat="45.37573" lon="4.61736">
        <ele>1011</ele>
        <time>2015-05-10T06:41:08Z</time>
      </trkpt>
      <trkpt lat="45.37575" lon="4.61736">
        <ele>1012</ele>
        <time>2015-05-10T06:41:11Z</time>
      </trkpt>
      <trkpt lat="45.37577" lon="4.61736">
        <ele>1012</ele>
        <time>2015-05-10T06:41:13Z</time>
      </trkpt>
      <trkpt lat="45.37579" lon="4.61735">
        <ele>1013</ele>
        <time>2015-05-10T06:41:15Z</time>
      </trkpt>
      <trkpt lat="45.37581" lon="4.61734">
        <ele>1013</ele>
        <time>2015-05-10T06:41:17Z</time>
      </trkpt>
      <trkpt lat="45.37583" lon="4.61733">
        <ele>1014</ele>
        <time>2015-05-10T06:41:19Z</time>
      </trkpt>
      <trkpt lat="45.37586" lon="4.6173">
        <ele>1014</ele>
        <time>2015-05-10T06:41:22Z</time>
      </trkpt>
      <trkpt lat="45.37588" lon="4.61728">
        <ele>1015</ele>
        <time>2015-05-10T06:41:25Z</time>
      </trkpt>
      <trkpt lat="45.3759" lon="4.61725">
        <ele>1016</ele>
        <time>2015-05-10T06:41:28Z</time>
      </trkpt>
      <trkpt lat="45.37592" lon="4.61723">
        <ele>1017</ele>
        <time>2015-05-10T06:41:31Z</time>
      </trkpt>
      <trkpt lat="45.37594" lon="4.61722">
        <ele>1017</ele>
        <time>2015-05-10T06:41:34Z</time>
      </trkpt>
      <trkpt lat="45.37595" lon="4.6172">
        <ele>1018</ele>
        <time>2015-05-10T06:41:36Z</time>
      </trkpt>
      <trkpt lat="45.37597" lon="4.61719">
        <ele>1018</ele>
        <time>2015-05-10T06:41:38Z</time>
      </trkpt>
      <trkpt lat="45.376" lon="4.61715">
        <ele>1019</ele>
        <time>2015-05-10T06:41:41Z</time>
      </trkpt>
      <trkpt lat="45.37602" lon="4.61712">
        <ele>1020</ele>
        <time>2015-05-10T06:41:43Z</time>
      </trkpt>
      <trkpt lat="45.37604" lon="4.61708">
        <ele>1021</ele>
        <time>2015-05-10T06:41:46Z</time>
      </trkpt>
      <trkpt lat="45.37605" lon="4.61706">
        <ele>1021</ele>
        <time>2015-05-10T06:41:48Z</time>
      </trkpt>
      <trkpt lat="45.37605" lon="4.61701">
        <ele>1022</ele>
        <time>2015-05-10T06:41:51Z</time>
      </trkpt>
      <trkpt lat="45.37606" lon="4.61699">
        <ele>1022</ele>
        <time>2015-05-10T06:41:53Z</time>
      </trkpt>
      <trkpt lat="45.37608" lon="4.61696">
        <ele>1023</ele>
        <time>2015-05-10T06:41:56Z</time>
      </trkpt>
      <trkpt lat="45.3761" lon="4.61693">
        <ele>1024</ele>
        <time>2015-05-10T06:41:58Z</time>
      </trkpt>
      <trkpt lat="45.37611" lon="4.61689">
        <ele>1024</ele>
        <time>2015-05-10T06:42:01Z</time>
      </trkpt>
      <trkpt lat="45.37614" lon="4.61686">
        <ele>1025</ele>
        <time>2015-05-10T06:42:04Z</time>
      </trkpt>
      <trkpt lat="45.37614" lon="4.61683">
        <ele>1024</ele>
        <time>2015-05-10T06:42:06Z</time>
      </trkpt>
      <trkpt lat="45.37616" lon="4.61681">
        <ele>1024</ele>
        <time>2015-05-10T06:42:08Z</time>
      </trkpt>
      <trkpt lat="45.37617" lon="4.61678">
        <ele>1024</ele>
        <time>2015-05-10T06:42:10Z</time>
      </trkpt>
      <trkpt lat="45.37619" lon="4.61677">
        <ele>1026</ele>
        <time>2015-05-10T06:42:12Z</time>
      </trkpt>
      <trkpt lat="45.37621" lon="4.61675">
        <ele>1027</ele>
        <time>2015-05-10T06:42:14Z</time>
      </trkpt>
      <trkpt lat="45.37624" lon="4.61672">
        <ele>1028</ele>
        <time>2015-05-10T06:42:17Z</time>
      </trkpt>
      <trkpt lat="45.37625" lon="4.6167">
        <ele>1028</ele>
        <time>2015-05-10T06:42:19Z</time>
      </trkpt>
      <trkpt lat="45.37627" lon="4.61667">
        <ele>1028</ele>
        <time>2015-05-10T06:42:22Z</time>
      </trkpt>
      <trkpt lat="45.37629" lon="4.61665">
        <ele>1029</ele>
        <time>2015-05-10T06:42:24Z</time>
      </trkpt>
      <trkpt lat="45.37632" lon="4.61663">
        <ele>1030</ele>
        <time>2015-05-10T06:42:27Z</time>
      </trkpt>
      <trkpt lat="45.37632" lon="4.6166">
        <ele>1030</ele>
        <time>2015-05-10T06:42:29Z</time>
      </trkpt>
      <trkpt lat="45.37634" lon="4.61656">
        <ele>1031</ele>
        <time>2015-05-10T06:42:32Z</time>
      </trkpt>
      <trkpt lat="45.37635" lon="4.61653">
        <ele>1031</ele>
        <time>2015-05-10T06:42:34Z</time>
      </trkpt>
      <trkpt lat="45.37635" lon="4.61648">
        <ele>1032</ele>
        <time>2015-05-10T06:42:37Z</time>
      </trkpt>
      <trkpt lat="45.37636" lon="4.61646">
        <ele>1032</ele>
        <time>2015-05-10T06:42:39Z</time>
      </trkpt>
      <trkpt lat="45.37637" lon="4.61641">
        <ele>1033</ele>
        <time>2015-05-10T06:42:42Z</time>
      </trkpt>
      <trkpt lat="45.37638" lon="4.61638">
        <ele>1034</ele>
        <time>2015-05-10T06:42:44Z</time>
      </trkpt>
      <trkpt lat="45.37639" lon="4.61634">
        <ele>1035</ele>
        <time>2015-05-10T06:42:47Z</time>
      </trkpt>
      <trkpt lat="45.3764" lon="4.61631">
        <ele>1035</ele>
        <time>2015-05-10T06:42:49Z</time>
      </trkpt>
      <trkpt lat="45.3764" lon="4.61628">
        <ele>1036</ele>
        <time>2015-05-10T06:42:51Z</time>
      </trkpt>
      <trkpt lat="45.37641" lon="4.61626">
        <ele>1036</ele>
        <time>2015-05-10T06:42:53Z</time>
      </trkpt>
      <trkpt lat="45.37642" lon="4.61622">
        <ele>1036</ele>
        <time>2015-05-10T06:42:56Z</time>
      </trkpt>
      <trkpt lat="45.37642" lon="4.61619">
        <ele>1036</ele>
        <time>2015-05-10T06:42:58Z</time>
      </trkpt>
      <trkpt lat="45.37643" lon="4.61615">
        <ele>1036</ele>
        <time>2015-05-10T06:43:01Z</time>
      </trkpt>
      <trkpt lat="45.37644" lon="4.61611">
        <ele>1037</ele>
        <time>2015-05-10T06:43:04Z</time>
      </trkpt>
      <trkpt lat="45.37646" lon="4.61608">
        <ele>1037</ele>
        <time>2015-05-10T06:43:07Z</time>
      </trkpt>
      <trkpt lat="45.37646" lon="4.61606">
        <ele>1039</ele>
        <time>2015-05-10T06:43:09Z</time>
      </trkpt>
      <trkpt lat="45.37647" lon="4.61602">
        <ele>1040</ele>
        <time>2015-05-10T06:43:12Z</time>
      </trkpt>
      <trkpt lat="45.37649" lon="4.61598">
        <ele>1040</ele>
        <time>2015-05-10T06:43:15Z</time>
      </trkpt>
      <trkpt lat="45.37651" lon="4.61596">
        <ele>1041</ele>
        <time>2015-05-10T06:43:17Z</time>
      </trkpt>
      <trkpt lat="45.37652" lon="4.61592">
        <ele>1041</ele>
        <time>2015-05-10T06:43:20Z</time>
      </trkpt>
      <trkpt lat="45.37653" lon="4.61589">
        <ele>1042</ele>
        <time>2015-05-10T06:43:22Z</time>
      </trkpt>
      <trkpt lat="45.37655" lon="4.61586">
        <ele>1043</ele>
        <time>2015-05-10T06:43:24Z</time>
      </trkpt>
      <trkpt lat="45.37656" lon="4.61583">
        <ele>1043</ele>
        <time>2015-05-10T06:43:26Z</time>
      </trkpt>
      <trkpt lat="45.37658" lon="4.6158">
        <ele>1044</ele>
        <time>2015-05-10T06:43:29Z</time>
      </trkpt>
      <trkpt lat="45.37659" lon="4.61577">
        <ele>1044</ele>
        <time>2015-05-10T06:43:31Z</time>
      </trkpt>
      <trkpt lat="45.37661" lon="4.61574">
        <ele>1044</ele>
        <time>2015-05-10T06:43:34Z</time>
      </trkpt>
      <trkpt lat="45.37663" lon="4.6157">
        <ele>1045</ele>
        <time>2015-05-10T06:43:37Z</time>
      </trkpt>
      <trkpt lat="45.37665" lon="4.61567">
        <ele>1045</ele>
        <time>2015-05-10T06:43:39Z</time>
      </trkpt>
      <trkpt lat="45.37667" lon="4.61561">
        <ele>1045</ele>
        <time>2015-05-10T06:43:42Z</time>
      </trkpt>
      <trkpt lat="45.37669" lon="4.61556">
        <ele>1046</ele>
        <time>2015-05-10T06:43:45Z</time>
      </trkpt>
      <trkpt lat="45.3767" lon="4.61554">
        <ele>1046</ele>
        <time>2015-05-10T06:43:47Z</time>
      </trkpt>
      <trkpt lat="45.37672" lon="4.6155">
        <ele>1047</ele>
        <time>2015-05-10T06:43:50Z</time>
      </trkpt>
      <trkpt lat="45.37674" lon="4.61545">
        <ele>1048</ele>
        <time>2015-05-10T06:43:53Z</time>
      </trkpt>
      <trkpt lat="45.37675" lon="4.61542">
        <ele>1048</ele>
        <time>2015-05-10T06:43:55Z</time>
      </trkpt>
      <trkpt lat="45.37676" lon="4.61538">
        <ele>1049</ele>
        <time>2015-05-10T06:43:57Z</time>
      </trkpt>
      <trkpt lat="45.37677" lon="4.61533">
        <ele>1049</ele>
        <time>2015-05-10T06:43:59Z</time>
      </trkpt>
      <trkpt lat="45.3768" lon="4.61526">
        <ele>1050</ele>
        <time>2015-05-10T06:44:02Z</time>
      </trkpt>
      <trkpt lat="45.37683" lon="4.61519">
        <ele>1051</ele>
        <time>2015-05-10T06:44:05Z</time>
      </trkpt>
      <trkpt lat="45.37685" lon="4.61517">
        <ele>1050</ele>
        <time>2015-05-10T06:44:07Z</time>
      </trkpt>
      <trkpt lat="45.37688" lon="4.61513">
        <ele>1051</ele>
        <time>2015-05-10T06:44:09Z</time>
      </trkpt>
      <trkpt lat="45.3769" lon="4.61508">
        <ele>1051</ele>
        <time>2015-05-10T06:44:11Z</time>
      </trkpt>
      <trkpt lat="45.37693" lon="4.61505">
        <ele>1051</ele>
        <time>2015-05-10T06:44:13Z</time>
      </trkpt>
      <trkpt lat="45.37696" lon="4.61501">
        <ele>1052</ele>
        <time>2015-05-10T06:44:15Z</time>
      </trkpt>
      <trkpt lat="45.37702" lon="4.61495">
        <ele>1053</ele>
        <time>2015-05-10T06:44:18Z</time>
      </trkpt>
      <trkpt lat="45.37708" lon="4.61489">
        <ele>1052</ele>
        <time>2015-05-10T06:44:21Z</time>
      </trkpt>
      <trkpt lat="45.37711" lon="4.61484">
        <ele>1052</ele>
        <time>2015-05-10T06:44:23Z</time>
      </trkpt>
      <trkpt lat="45.37717" lon="4.61479">
        <ele>1051</ele>
        <time>2015-05-10T06:44:26Z</time>
      </trkpt>
      <trkpt lat="45.37719" lon="4.61474">
        <ele>1052</ele>
        <time>2015-05-10T06:44:28Z</time>
      </trkpt>
      <trkpt lat="45.37723" lon="4.6147">
        <ele>1053</ele>
        <time>2015-05-10T06:44:30Z</time>
      </trkpt>
      <trkpt lat="45.37727" lon="4.61464">
        <ele>1054</ele>
        <time>2015-05-10T06:44:33Z</time>
      </trkpt>
      <trkpt lat="45.37733" lon="4.61461">
        <ele>1053</ele>
        <time>2015-05-10T06:44:36Z</time>
      </trkpt>
      <trkpt lat="45.3774" lon="4.61461">
        <ele>1053</ele>
        <time>2015-05-10T06:44:39Z</time>
      </trkpt>
      <trkpt lat="45.37743" lon="4.61461">
        <ele>1052</ele>
        <time>2015-05-10T06:44:41Z</time>
      </trkpt>
      <trkpt lat="45.3775" lon="4.61459">
        <ele>1052</ele>
        <time>2015-05-10T06:44:44Z</time>
      </trkpt>
      <trkpt lat="45.37756" lon="4.61457">
        <ele>1052</ele>
        <time>2015-05-10T06:44:47Z</time>
      </trkpt>
      <trkpt lat="45.37759" lon="4.61456">
        <ele>1051</ele>
        <time>2015-05-10T06:44:49Z</time>
      </trkpt>
      <trkpt lat="45.37764" lon="4.61456">
        <ele>1051</ele>
        <time>2015-05-10T06:44:52Z</time>
      </trkpt>
      <trkpt lat="45.37769" lon="4.61457">
        <ele>1050</ele>
        <time>2015-05-10T06:44:55Z</time>
      </trkpt>
      <trkpt lat="45.37772" lon="4.61457">
        <ele>1050</ele>
        <time>2015-05-10T06:44:57Z</time>
      </trkpt>
      <trkpt lat="45.37779" lon="4.61458">
        <ele>1050</ele>
        <time>2015-05-10T06:45:00Z</time>
      </trkpt>
      <trkpt lat="45.37783" lon="4.61459">
        <ele>1049</ele>
        <time>2015-05-10T06:45:02Z</time>
      </trkpt>
      <trkpt lat="45.3779" lon="4.61461">
        <ele>1049</ele>
        <time>2015-05-10T06:45:05Z</time>
      </trkpt>
      <trkpt lat="45.37796" lon="4.61463">
        <ele>1048</ele>
        <time>2015-05-10T06:45:08Z</time>
      </trkpt>
      <trkpt lat="45.37801" lon="4.61463">
        <ele>1047</ele>
        <time>2015-05-10T06:45:10Z</time>
      </trkpt>
      <trkpt lat="45.37804" lon="4.61461">
        <ele>1047</ele>
        <time>2015-05-10T06:45:12Z</time>
      </trkpt>
      <trkpt lat="45.3781" lon="4.61464">
        <ele>1047</ele>
        <time>2015-05-10T06:45:15Z</time>
      </trkpt>
      <trkpt lat="45.37815" lon="4.61465">
        <ele>1047</ele>
        <time>2015-05-10T06:45:18Z</time>
      </trkpt>
      <trkpt lat="45.3782" lon="4.61467">
        <ele>1047</ele>
        <time>2015-05-10T06:45:21Z</time>
      </trkpt>
      <trkpt lat="45.37828" lon="4.61467">
        <ele>1045</ele>
        <time>2015-05-10T06:45:24Z</time>
      </trkpt>
      <trkpt lat="45.37834" lon="4.61469">
        <ele>1045</ele>
        <time>2015-05-10T06:45:27Z</time>
      </trkpt>
      <trkpt lat="45.37839" lon="4.61471">
        <ele>1045</ele>
        <time>2015-05-10T06:45:30Z</time>
      </trkpt>
      <trkpt lat="45.37845" lon="4.61474">
        <ele>1046</ele>
        <time>2015-05-10T06:45:33Z</time>
      </trkpt>
      <trkpt lat="45.3785" lon="4.61476">
        <ele>1046</ele>
        <time>2015-05-10T06:45:35Z</time>
      </trkpt>
      <trkpt lat="45.3786" lon="4.6148">
        <ele>1045</ele>
        <time>2015-05-10T06:45:38Z</time>
      </trkpt>
      <trkpt lat="45.37867" lon="4.61481">
        <ele>1045</ele>
        <time>2015-05-10T06:45:41Z</time>
      </trkpt>
      <trkpt lat="45.37875" lon="4.61484">
        <ele>1044</ele>
        <time>2015-05-10T06:45:44Z</time>
      </trkpt>
      <trkpt lat="45.37879" lon="4.61487">
        <ele>1043</ele>
        <time>2015-05-10T06:45:46Z</time>
      </trkpt>
      <trkpt lat="45.37887" lon="4.6149">
        <ele>1042</ele>
        <time>2015-05-10T06:45:49Z</time>
      </trkpt>
      <trkpt lat="45.37892" lon="4.61493">
        <ele>1042</ele>
        <time>2015-05-10T06:45:51Z</time>
      </trkpt>
      <trkpt lat="45.37902" lon="4.61498">
        <ele>1042</ele>
        <time>2015-05-10T06:45:54Z</time>
      </trkpt>
      <trkpt lat="45.37906" lon="4.61503">
        <ele>1042</ele>
        <time>2015-05-10T06:45:56Z</time>
      </trkpt>
      <trkpt lat="45.37911" lon="4.61505">
        <ele>1042</ele>
        <time>2015-05-10T06:45:58Z</time>
      </trkpt>
      <trkpt lat="45.37917" lon="4.61508">
        <ele>1042</ele>
        <time>2015-05-10T06:46:01Z</time>
      </trkpt>
      <trkpt lat="45.37921" lon="4.61509">
        <ele>1042</ele>
        <time>2015-05-10T06:46:03Z</time>
      </trkpt>
      <trkpt lat="45.37928" lon="4.61511">
        <ele>1041</ele>
        <time>2015-05-10T06:46:06Z</time>
      </trkpt>
      <trkpt lat="45.37934" lon="4.61513">
        <ele>1041</ele>
        <time>2015-05-10T06:46:08Z</time>
      </trkpt>
      <trkpt lat="45.37939" lon="4.61515">
        <ele>1041</ele>
        <time>2015-05-10T06:46:10Z</time>
      </trkpt>
      <trkpt lat="45.37945" lon="4.61516">
        <ele>1041</ele>
        <time>2015-05-10T06:46:12Z</time>
      </trkpt>
      <trkpt lat="45.37952" lon="4.61514">
        <ele>1040</ele>
        <time>2015-05-10T06:46:14Z</time>
      </trkpt>
      <trkpt lat="45.37963" lon="4.61511">
        <ele>1040</ele>
        <time>2015-05-10T06:46:17Z</time>
      </trkpt>
      <trkpt lat="45.37971" lon="4.61509">
        <ele>1039</ele>
        <time>2015-05-10T06:46:20Z</time>
      </trkpt>
      <trkpt lat="45.37977" lon="4.61507">
        <ele>1039</ele>
        <time>2015-05-10T06:46:22Z</time>
      </trkpt>
      <trkpt lat="45.37985" lon="4.61504">
        <ele>1039</ele>
        <time>2015-05-10T06:46:25Z</time>
      </trkpt>
      <trkpt lat="45.37991" lon="4.615">
        <ele>1039</ele>
        <time>2015-05-10T06:46:27Z</time>
      </trkpt>
      <trkpt lat="45.37999" lon="4.61498">
        <ele>1038</ele>
        <time>2015-05-10T06:46:30Z</time>
      </trkpt>
      <trkpt lat="45.38007" lon="4.61495">
        <ele>1039</ele>
        <time>2015-05-10T06:46:33Z</time>
      </trkpt>
      <trkpt lat="45.38016" lon="4.61492">
        <ele>1040</ele>
        <time>2015-05-10T06:46:36Z</time>
      </trkpt>
      <trkpt lat="45.3802" lon="4.61491">
        <ele>1041</ele>
        <time>2015-05-10T06:46:38Z</time>
      </trkpt>
      <trkpt lat="45.38025" lon="4.61491">
        <ele>1041</ele>
        <time>2015-05-10T06:46:40Z</time>
      </trkpt>
      <trkpt lat="45.38029" lon="4.61489">
        <ele>1041</ele>
        <time>2015-05-10T06:46:43Z</time>
      </trkpt>
      <trkpt lat="45.38034" lon="4.61488">
        <ele>1042</ele>
        <time>2015-05-10T06:46:46Z</time>
      </trkpt>
      <trkpt lat="45.38039" lon="4.61485">
        <ele>1043</ele>
        <time>2015-05-10T06:46:49Z</time>
      </trkpt>
      <trkpt lat="45.38042" lon="4.61483">
        <ele>1044</ele>
        <time>2015-05-10T06:46:51Z</time>
      </trkpt>
      <trkpt lat="45.38044" lon="4.61483">
        <ele>1044</ele>
        <time>2015-05-10T06:46:53Z</time>
      </trkpt>
      <trkpt lat="45.38052" lon="4.61481">
        <ele>1045</ele>
        <time>2015-05-10T06:46:56Z</time>
      </trkpt>
      <trkpt lat="45.38056" lon="4.6148">
        <ele>1045</ele>
        <time>2015-05-10T06:46:58Z</time>
      </trkpt>
      <trkpt lat="45.3806" lon="4.61478">
        <ele>1045</ele>
        <time>2015-05-10T06:47:01Z</time>
      </trkpt>
      <trkpt lat="45.38065" lon="4.61476">
        <ele>1046</ele>
        <time>2015-05-10T06:47:03Z</time>
      </trkpt>
      <trkpt lat="45.38072" lon="4.61475">
        <ele>1046</ele>
        <time>2015-05-10T06:47:05Z</time>
      </trkpt>
      <trkpt lat="45.38076" lon="4.61475">
        <ele>1046</ele>
        <time>2015-05-10T06:47:07Z</time>
      </trkpt>
      <trkpt lat="45.38083" lon="4.61473">
        <ele>1047</ele>
        <time>2015-05-10T06:47:10Z</time>
      </trkpt>
      <trkpt lat="45.38088" lon="4.61473">
        <ele>1047</ele>
        <time>2015-05-10T06:47:12Z</time>
      </trkpt>
      <trkpt lat="45.38092" lon="4.61472">
        <ele>1047</ele>
        <time>2015-05-10T06:47:14Z</time>
      </trkpt>
      <trkpt lat="45.38095" lon="4.6147">
        <ele>1047</ele>
        <time>2015-05-10T06:47:16Z</time>
      </trkpt>
      <trkpt lat="45.38099" lon="4.61468">
        <ele>1048</ele>
        <time>2015-05-10T06:47:18Z</time>
      </trkpt>
      <trkpt lat="45.38105" lon="4.61466">
        <ele>1048</ele>
        <time>2015-05-10T06:47:21Z</time>
      </trkpt>
      <trkpt lat="45.38108" lon="4.61463">
        <ele>1048</ele>
        <time>2015-05-10T06:47:23Z</time>
      </trkpt>
      <trkpt lat="45.38113" lon="4.61462">
        <ele>1049</ele>
        <time>2015-05-10T06:47:26Z</time>
      </trkpt>
      <trkpt lat="45.38115" lon="4.61462">
        <ele>1050</ele>
        <time>2015-05-10T06:47:28Z</time>
      </trkpt>
      <trkpt lat="45.38118" lon="4.61462">
        <ele>1050</ele>
        <time>2015-05-10T06:47:30Z</time>
      </trkpt>
      <trkpt lat="45.38122" lon="4.61461">
        <ele>1051</ele>
        <time>2015-05-10T06:47:33Z</time>
      </trkpt>
      <trkpt lat="45.38125" lon="4.61461">
        <ele>1052</ele>
        <time>2015-05-10T06:47:35Z</time>
      </trkpt>
      <trkpt lat="45.38131" lon="4.6146">
        <ele>1052</ele>
        <time>2015-05-10T06:47:38Z</time>
      </trkpt>
      <trkpt lat="45.38134" lon="4.61459">
        <ele>1053</ele>
        <time>2015-05-10T06:47:40Z</time>
      </trkpt>
      <trkpt lat="45.38138" lon="4.6146">
        <ele>1054</ele>
        <time>2015-05-10T06:47:43Z</time>
      </trkpt>
      <trkpt lat="45.3814" lon="4.6146">
        <ele>1055</ele>
        <time>2015-05-10T06:47:45Z</time>
      </trkpt>
      <trkpt lat="45.38144" lon="4.6146">
        <ele>1056</ele>
        <time>2015-05-10T06:47:48Z</time>
      </trkpt>
      <trkpt lat="45.38147" lon="4.6146">
        <ele>1056</ele>
        <time>2015-05-10T06:47:50Z</time>
      </trkpt>
      <trkpt lat="45.38149" lon="4.61461">
        <ele>1056</ele>
        <time>2015-05-10T06:47:52Z</time>
      </trkpt>
      <trkpt lat="45.38174" lon="4.61464">
        <ele>1058</ele>
        <time>2015-05-10T06:47:54Z</time>
      </trkpt>
      <trkpt lat="45.38178" lon="4.61462">
        <ele>1059</ele>
        <time>2015-05-10T06:47:57Z</time>
      </trkpt>
      <trkpt lat="45.3818" lon="4.6146">
        <ele>1059</ele>
        <time>2015-05-10T06:47:59Z</time>
      </trkpt>
      <trkpt lat="45.38185" lon="4.61458">
        <ele>1060</ele>
        <time>2015-05-10T06:48:02Z</time>
      </trkpt>
      <trkpt lat="45.38188" lon="4.61458">
        <ele>1059</ele>
        <time>2015-05-10T06:48:05Z</time>
      </trkpt>
      <trkpt lat="45.38191" lon="4.61459">
        <ele>1059</ele>
        <time>2015-05-10T06:48:07Z</time>
      </trkpt>
      <trkpt lat="45.38195" lon="4.61459">
        <ele>1060</ele>
        <time>2015-05-10T06:48:10Z</time>
      </trkpt>
      <trkpt lat="45.38197" lon="4.6146">
        <ele>1061</ele>
        <time>2015-05-10T06:48:12Z</time>
      </trkpt>
      <trkpt lat="45.38199" lon="4.61459">
        <ele>1061</ele>
        <time>2015-05-10T06:48:14Z</time>
      </trkpt>
      <trkpt lat="45.38203" lon="4.61457">
        <ele>1062</ele>
        <time>2015-05-10T06:48:17Z</time>
      </trkpt>
      <trkpt lat="45.38206" lon="4.61456">
        <ele>1063</ele>
        <time>2015-05-10T06:48:19Z</time>
      </trkpt>
      <trkpt lat="45.38211" lon="4.61453">
        <ele>1063</ele>
        <time>2015-05-10T06:48:22Z</time>
      </trkpt>
      <trkpt lat="45.38215" lon="4.61452">
        <ele>1063</ele>
        <time>2015-05-10T06:48:24Z</time>
      </trkpt>
      <trkpt lat="45.38219" lon="4.61453">
        <ele>1063</ele>
        <time>2015-05-10T06:48:26Z</time>
      </trkpt>
      <trkpt lat="45.38225" lon="4.61454">
        <ele>1063</ele>
        <time>2015-05-10T06:48:29Z</time>
      </trkpt>
      <trkpt lat="45.3823" lon="4.61455">
        <ele>1063</ele>
        <time>2015-05-10T06:48:31Z</time>
      </trkpt>
      <trkpt lat="45.38237" lon="4.61451">
        <ele>1063</ele>
        <time>2015-05-10T06:48:34Z</time>
      </trkpt>
      <trkpt lat="45.38242" lon="4.6145">
        <ele>1063</ele>
        <time>2015-05-10T06:48:36Z</time>
      </trkpt>
      <trkpt lat="45.3825" lon="4.6145">
        <ele>1063</ele>
        <time>2015-05-10T06:48:39Z</time>
      </trkpt>
      <trkpt lat="45.38254" lon="4.61447">
        <ele>1063</ele>
        <time>2015-05-10T06:48:41Z</time>
      </trkpt>
      <trkpt lat="45.38259" lon="4.61446">
        <ele>1063</ele>
        <time>2015-05-10T06:48:43Z</time>
      </trkpt>
      <trkpt lat="45.38263" lon="4.61448">
        <ele>1064</ele>
        <time>2015-05-10T06:48:45Z</time>
      </trkpt>
      <trkpt lat="45.38267" lon="4.6145">
        <ele>1064</ele>
        <time>2015-05-10T06:48:47Z</time>
      </trkpt>
      <trkpt lat="45.38272" lon="4.61451">
        <ele>1064</ele>
        <time>2015-05-10T06:48:49Z</time>
      </trkpt>
      <trkpt lat="45.38279" lon="4.61451">
        <ele>1064</ele>
        <time>2015-05-10T06:48:52Z</time>
      </trkpt>
      <trkpt lat="45.38283" lon="4.61452">
        <ele>1064</ele>
        <time>2015-05-10T06:48:54Z</time>
      </trkpt>
      <trkpt lat="45.3829" lon="4.61452">
        <ele>1064</ele>
        <time>2015-05-10T06:48:57Z</time>
      </trkpt>
      <trkpt lat="45.38293" lon="4.61451">
        <ele>1064</ele>
        <time>2015-05-10T06:48:59Z</time>
      </trkpt>
      <trkpt lat="45.38299" lon="4.61453">
        <ele>1064</ele>
        <time>2015-05-10T06:49:02Z</time>
      </trkpt>
      <trkpt lat="45.38304" lon="4.61456">
        <ele>1064</ele>
        <time>2015-05-10T06:49:05Z</time>
      </trkpt>
      <trkpt lat="45.38308" lon="4.61456">
        <ele>1064</ele>
        <time>2015-05-10T06:49:07Z</time>
      </trkpt>
      <trkpt lat="45.38311" lon="4.61457">
        <ele>1064</ele>
        <time>2015-05-10T06:49:09Z</time>
      </trkpt>
      <trkpt lat="45.38316" lon="4.61456">
        <ele>1063</ele>
        <time>2015-05-10T06:49:12Z</time>
      </trkpt>
      <trkpt lat="45.3832" lon="4.61456">
        <ele>1063</ele>
        <time>2015-05-10T06:49:14Z</time>
      </trkpt>
      <trkpt lat="45.38323" lon="4.61458">
        <ele>1063</ele>
        <time>2015-05-10T06:49:16Z</time>
      </trkpt>
      <trkpt lat="45.3833" lon="4.61459">
        <ele>1063</ele>
        <time>2015-05-10T06:49:19Z</time>
      </trkpt>
      <trkpt lat="45.38338" lon="4.61454">
        <ele>1062</ele>
        <time>2015-05-10T06:49:22Z</time>
      </trkpt>
      <trkpt lat="45.38342" lon="4.61453">
        <ele>1062</ele>
        <time>2015-05-10T06:49:24Z</time>
      </trkpt>
      <trkpt lat="45.38347" lon="4.61456">
        <ele>1061</ele>
        <time>2015-05-10T06:49:27Z</time>
      </trkpt>
      <trkpt lat="45.38352" lon="4.61458">
        <ele>1060</ele>
        <time>2015-05-10T06:49:30Z</time>
      </trkpt>
      <trkpt lat="45.38357" lon="4.6146">
        <ele>1060</ele>
        <time>2015-05-10T06:49:33Z</time>
      </trkpt>
      <trkpt lat="45.38361" lon="4.61464">
        <ele>1060</ele>
        <time>2015-05-10T06:49:35Z</time>
      </trkpt>
      <trkpt lat="45.38368" lon="4.6147">
        <ele>1060</ele>
        <time>2015-05-10T06:49:38Z</time>
      </trkpt>
      <trkpt lat="45.38373" lon="4.61475">
        <ele>1060</ele>
        <time>2015-05-10T06:49:41Z</time>
      </trkpt>
      <trkpt lat="45.38378" lon="4.61478">
        <ele>1061</ele>
        <time>2015-05-10T06:49:43Z</time>
      </trkpt>
      <trkpt lat="45.38385" lon="4.6148">
        <ele>1061</ele>
        <time>2015-05-10T06:49:46Z</time>
      </trkpt>
      <trkpt lat="45.38391" lon="4.61481">
        <ele>1062</ele>
        <time>2015-05-10T06:49:48Z</time>
      </trkpt>
      <trkpt lat="45.38397" lon="4.61481">
        <ele>1062</ele>
        <time>2015-05-10T06:49:50Z</time>
      </trkpt>
      <trkpt lat="45.38405" lon="4.61482">
        <ele>1061</ele>
        <time>2015-05-10T06:49:53Z</time>
      </trkpt>
      <trkpt lat="45.38411" lon="4.61482">
        <ele>1061</ele>
        <time>2015-05-10T06:49:55Z</time>
      </trkpt>
      <trkpt lat="45.38416" lon="4.61483">
        <ele>1061</ele>
        <time>2015-05-10T06:49:58Z</time>
      </trkpt>
      <trkpt lat="45.3842" lon="4.61484">
        <ele>1060</ele>
        <time>2015-05-10T06:50:00Z</time>
      </trkpt>
      <trkpt lat="45.38427" lon="4.61484">
        <ele>1060</ele>
        <time>2015-05-10T06:50:03Z</time>
      </trkpt>
      <trkpt lat="45.38434" lon="4.61485">
        <ele>1060</ele>
        <time>2015-05-10T06:50:06Z</time>
      </trkpt>
      <trkpt lat="45.38439" lon="4.61487">
        <ele>1060</ele>
        <time>2015-05-10T06:50:08Z</time>
      </trkpt>
      <trkpt lat="45.38444" lon="4.61488">
        <ele>1060</ele>
        <time>2015-05-10T06:50:10Z</time>
      </trkpt>
      <trkpt lat="45.3845" lon="4.61491">
        <ele>1060</ele>
        <time>2015-05-10T06:50:13Z</time>
      </trkpt>
      <trkpt lat="45.38454" lon="4.61491">
        <ele>1060</ele>
        <time>2015-05-10T06:50:15Z</time>
      </trkpt>
      <trkpt lat="45.38458" lon="4.61492">
        <ele>1060</ele>
        <time>2015-05-10T06:50:17Z</time>
      </trkpt>
      <trkpt lat="45.38462" lon="4.61493">
        <ele>1059</ele>
        <time>2015-05-10T06:50:19Z</time>
      </trkpt>
      <trkpt lat="45.38467" lon="4.61497">
        <ele>1059</ele>
        <time>2015-05-10T06:50:21Z</time>
      </trkpt>
      <trkpt lat="45.38472" lon="4.61506">
        <ele>1058</ele>
        <time>2015-05-10T06:50:24Z</time>
      </trkpt>
      <trkpt lat="45.38478" lon="4.61513">
        <ele>1058</ele>
        <time>2015-05-10T06:50:27Z</time>
      </trkpt>
      <trkpt lat="45.38482" lon="4.61517">
        <ele>1058</ele>
        <time>2015-05-10T06:50:29Z</time>
      </trkpt>
      <trkpt lat="45.38487" lon="4.61521">
        <ele>1059</ele>
        <time>2015-05-10T06:50:31Z</time>
      </trkpt>
      <trkpt lat="45.38492" lon="4.61524">
        <ele>1059</ele>
        <time>2015-05-10T06:50:33Z</time>
      </trkpt>
      <trkpt lat="45.38495" lon="4.61532">
        <ele>1059</ele>
        <time>2015-05-10T06:50:36Z</time>
      </trkpt>
      <trkpt lat="45.38498" lon="4.61538">
        <ele>1060</ele>
        <time>2015-05-10T06:50:38Z</time>
      </trkpt>
      <trkpt lat="45.38501" lon="4.61545">
        <ele>1061</ele>
        <time>2015-05-10T06:50:40Z</time>
      </trkpt>
      <trkpt lat="45.38504" lon="4.61551">
        <ele>1061</ele>
        <time>2015-05-10T06:50:42Z</time>
      </trkpt>
      <trkpt lat="45.38509" lon="4.61559">
        <ele>1062</ele>
        <time>2015-05-10T06:50:45Z</time>
      </trkpt>
      <trkpt lat="45.38511" lon="4.61565">
        <ele>1062</ele>
        <time>2015-05-10T06:50:47Z</time>
      </trkpt>
      <trkpt lat="45.38512" lon="4.61572">
        <ele>1062</ele>
        <time>2015-05-10T06:50:49Z</time>
      </trkpt>
      <trkpt lat="45.38513" lon="4.61582">
        <ele>1062</ele>
        <time>2015-05-10T06:50:52Z</time>
      </trkpt>
      <trkpt lat="45.38513" lon="4.61588">
        <ele>1062</ele>
        <time>2015-05-10T06:50:54Z</time>
      </trkpt>
      <trkpt lat="45.38515" lon="4.61596">
        <ele>1062</ele>
        <time>2015-05-10T06:50:57Z</time>
      </trkpt>
      <trkpt lat="45.38515" lon="4.61598">
        <ele>1062</ele>
        <time>2015-05-10T06:50:59Z</time>
      </trkpt>
      <trkpt lat="45.38516" lon="4.61601">
        <ele>1062</ele>
        <time>2015-05-10T06:51:02Z</time>
      </trkpt>
      <trkpt lat="45.38517" lon="4.61604">
        <ele>1061</ele>
        <time>2015-05-10T06:51:05Z</time>
      </trkpt>
      <trkpt lat="45.38517" lon="4.61606">
        <ele>1060</ele>
        <time>2015-05-10T06:51:07Z</time>
      </trkpt>
      <trkpt lat="45.38517" lon="4.61609">
        <ele>1059</ele>
        <time>2015-05-10T06:51:10Z</time>
      </trkpt>
      <trkpt lat="45.38519" lon="4.61612">
        <ele>1058</ele>
        <time>2015-05-10T06:51:12Z</time>
      </trkpt>
      <trkpt lat="45.38521" lon="4.61617">
        <ele>1057</ele>
        <time>2015-05-10T06:51:14Z</time>
      </trkpt>
      <trkpt lat="45.38524" lon="4.61623">
        <ele>1057</ele>
        <time>2015-05-10T06:51:17Z</time>
      </trkpt>
      <trkpt lat="45.38525" lon="4.61629">
        <ele>1057</ele>
        <time>2015-05-10T06:51:19Z</time>
      </trkpt>
      <trkpt lat="45.38528" lon="4.61637">
        <ele>1056</ele>
        <time>2015-05-10T06:51:22Z</time>
      </trkpt>
      <trkpt lat="45.3853" lon="4.61642">
        <ele>1056</ele>
        <time>2015-05-10T06:51:24Z</time>
      </trkpt>
      <trkpt lat="45.38532" lon="4.61647">
        <ele>1056</ele>
        <time>2015-05-10T06:51:26Z</time>
      </trkpt>
      <trkpt lat="45.38536" lon="4.61654">
        <ele>1057</ele>
        <time>2015-05-10T06:51:29Z</time>
      </trkpt>
      <trkpt lat="45.38538" lon="4.61664">
        <ele>1057</ele>
        <time>2015-05-10T06:51:32Z</time>
      </trkpt>
      <trkpt lat="45.38539" lon="4.61672">
        <ele>1058</ele>
        <time>2015-05-10T06:51:34Z</time>
      </trkpt>
      <trkpt lat="45.38541" lon="4.61682">
        <ele>1057</ele>
        <time>2015-05-10T06:51:37Z</time>
      </trkpt>
      <trkpt lat="45.38542" lon="4.61689">
        <ele>1057</ele>
        <time>2015-05-10T06:51:39Z</time>
      </trkpt>
      <trkpt lat="45.38541" lon="4.61699">
        <ele>1057</ele>
        <time>2015-05-10T06:51:42Z</time>
      </trkpt>
      <trkpt lat="45.38541" lon="4.61706">
        <ele>1057</ele>
        <time>2015-05-10T06:51:44Z</time>
      </trkpt>
      <trkpt lat="45.38541" lon="4.61717">
        <ele>1056</ele>
        <time>2015-05-10T06:51:47Z</time>
      </trkpt>
      <trkpt lat="45.38541" lon="4.61721">
        <ele>1056</ele>
        <time>2015-05-10T06:51:49Z</time>
      </trkpt>
      <trkpt lat="45.38541" lon="4.61725">
        <ele>1055</ele>
        <time>2015-05-10T06:51:52Z</time>
      </trkpt>
      <trkpt lat="45.38541" lon="4.61733">
        <ele>1054</ele>
        <time>2015-05-10T06:51:55Z</time>
      </trkpt>
      <trkpt lat="45.38545" lon="4.61743">
        <ele>1053</ele>
        <time>2015-05-10T06:51:58Z</time>
      </trkpt>
      <trkpt lat="45.38546" lon="4.61748">
        <ele>1052</ele>
        <time>2015-05-10T06:52:00Z</time>
      </trkpt>
      <trkpt lat="45.3855" lon="4.61755">
        <ele>1052</ele>
        <time>2015-05-10T06:52:03Z</time>
      </trkpt>
      <trkpt lat="45.38553" lon="4.61764">
        <ele>1052</ele>
        <time>2015-05-10T06:52:06Z</time>
      </trkpt>
      <trkpt lat="45.38556" lon="4.61771">
        <ele>1052</ele>
        <time>2015-05-10T06:52:08Z</time>
      </trkpt>
      <trkpt lat="45.38558" lon="4.61777">
        <ele>1052</ele>
        <time>2015-05-10T06:52:11Z</time>
      </trkpt>
      <trkpt lat="45.38559" lon="4.61783">
        <ele>1052</ele>
        <time>2015-05-10T06:52:13Z</time>
      </trkpt>
      <trkpt lat="45.3856" lon="4.61789">
        <ele>1051</ele>
        <time>2015-05-10T06:52:15Z</time>
      </trkpt>
      <trkpt lat="45.38563" lon="4.61793">
        <ele>1050</ele>
        <time>2015-05-10T06:52:17Z</time>
      </trkpt>
      <trkpt lat="45.38567" lon="4.61799">
        <ele>1049</ele>
        <time>2015-05-10T06:52:20Z</time>
      </trkpt>
      <trkpt lat="45.3857" lon="4.61802">
        <ele>1049</ele>
        <time>2015-05-10T06:52:22Z</time>
      </trkpt>
      <trkpt lat="45.38572" lon="4.61806">
        <ele>1048</ele>
        <time>2015-05-10T06:52:24Z</time>
      </trkpt>
      <trkpt lat="45.38578" lon="4.61809">
        <ele>1048</ele>
        <time>2015-05-10T06:52:27Z</time>
      </trkpt>
      <trkpt lat="45.38581" lon="4.61815">
        <ele>1048</ele>
        <time>2015-05-10T06:52:29Z</time>
      </trkpt>
      <trkpt lat="45.38586" lon="4.6182">
        <ele>1047</ele>
        <time>2015-05-10T06:52:32Z</time>
      </trkpt>
      <trkpt lat="45.38588" lon="4.61823">
        <ele>1047</ele>
        <time>2015-05-10T06:52:34Z</time>
      </trkpt>
      <trkpt lat="45.3859" lon="4.61826">
        <ele>1047</ele>
        <time>2015-05-10T06:52:36Z</time>
      </trkpt>
      <trkpt lat="45.38593" lon="4.61828">
        <ele>1047</ele>
        <time>2015-05-10T06:52:38Z</time>
      </trkpt>
      <trkpt lat="45.38594" lon="4.6183">
        <ele>1047</ele>
        <time>2015-05-10T06:52:40Z</time>
      </trkpt>
      <trkpt lat="45.38596" lon="4.61832">
        <ele>1046</ele>
        <time>2015-05-10T06:52:42Z</time>
      </trkpt>
      <trkpt lat="45.38598" lon="4.61835">
        <ele>1046</ele>
        <time>2015-05-10T06:52:44Z</time>
      </trkpt>
      <trkpt lat="45.38602" lon="4.61838">
        <ele>1045</ele>
        <time>2015-05-10T06:52:47Z</time>
      </trkpt>
      <trkpt lat="45.38604" lon="4.61841">
        <ele>1045</ele>
        <time>2015-05-10T06:52:49Z</time>
      </trkpt>
      <trkpt lat="45.38609" lon="4.61845">
        <ele>1045</ele>
        <time>2015-05-10T06:52:52Z</time>
      </trkpt>
      <trkpt lat="45.38611" lon="4.61846">
        <ele>1046</ele>
        <time>2015-05-10T06:52:54Z</time>
      </trkpt>
      <trkpt lat="45.38616" lon="4.61847">
        <ele>1046</ele>
        <time>2015-05-10T06:52:57Z</time>
      </trkpt>
      <trkpt lat="45.3862" lon="4.6185">
        <ele>1046</ele>
        <time>2015-05-10T06:52:59Z</time>
      </trkpt>
      <trkpt lat="45.38623" lon="4.61854">
        <ele>1047</ele>
        <time>2015-05-10T06:53:02Z</time>
      </trkpt>
      <trkpt lat="45.38627" lon="4.61858">
        <ele>1046</ele>
        <time>2015-05-10T06:53:04Z</time>
      </trkpt>
      <trkpt lat="45.38633" lon="4.61862">
        <ele>1047</ele>
        <time>2015-05-10T06:53:07Z</time>
      </trkpt>
      <trkpt lat="45.38638" lon="4.61864">
        <ele>1046</ele>
        <time>2015-05-10T06:53:09Z</time>
      </trkpt>
      <trkpt lat="45.38644" lon="4.61865">
        <ele>1046</ele>
        <time>2015-05-10T06:53:12Z</time>
      </trkpt>
      <trkpt lat="45.38648" lon="4.61866">
        <ele>1046</ele>
        <time>2015-05-10T06:53:14Z</time>
      </trkpt>
      <trkpt lat="45.38652" lon="4.61867">
        <ele>1047</ele>
        <time>2015-05-10T06:53:16Z</time>
      </trkpt>
      <trkpt lat="45.38655" lon="4.61871">
        <ele>1047</ele>
        <time>2015-05-10T06:53:18Z</time>
      </trkpt>
      <trkpt lat="45.3866" lon="4.61874">
        <ele>1047</ele>
        <time>2015-05-10T06:53:20Z</time>
      </trkpt>
      <trkpt lat="45.38666" lon="4.61878">
        <ele>1047</ele>
        <time>2015-05-10T06:53:23Z</time>
      </trkpt>
      <trkpt lat="45.3867" lon="4.6188">
        <ele>1047</ele>
        <time>2015-05-10T06:53:25Z</time>
      </trkpt>
      <trkpt lat="45.38676" lon="4.61881">
        <ele>1047</ele>
        <time>2015-05-10T06:53:28Z</time>
      </trkpt>
      <trkpt lat="45.38681" lon="4.61883">
        <ele>1047</ele>
        <time>2015-05-10T06:53:31Z</time>
      </trkpt>
      <trkpt lat="45.38685" lon="4.61883">
        <ele>1048</ele>
        <time>2015-05-10T06:53:33Z</time>
      </trkpt>
      <trkpt lat="45.38689" lon="4.61887">
        <ele>1048</ele>
        <time>2015-05-10T06:53:36Z</time>
      </trkpt>
      <trkpt lat="45.38692" lon="4.61891">
        <ele>1048</ele>
        <time>2015-05-10T06:53:38Z</time>
      </trkpt>
      <trkpt lat="45.38696" lon="4.61895">
        <ele>1048</ele>
        <time>2015-05-10T06:53:40Z</time>
      </trkpt>
      <trkpt lat="45.38699" lon="4.61897">
        <ele>1048</ele>
        <time>2015-05-10T06:53:42Z</time>
      </trkpt>
      <trkpt lat="45.38702" lon="4.61901">
        <ele>1048</ele>
        <time>2015-05-10T06:53:44Z</time>
      </trkpt>
      <trkpt lat="45.38707" lon="4.61906">
        <ele>1047</ele>
        <time>2015-05-10T06:53:47Z</time>
      </trkpt>
      <trkpt lat="45.3871" lon="4.61909">
        <ele>1047</ele>
        <time>2015-05-10T06:53:49Z</time>
      </trkpt>
      <trkpt lat="45.38714" lon="4.61912">
        <ele>1046</ele>
        <time>2015-05-10T06:53:51Z</time>
      </trkpt>
      <trkpt lat="45.38718" lon="4.61915">
        <ele>1045</ele>
        <time>2015-05-10T06:53:54Z</time>
      </trkpt>
      <trkpt lat="45.3872" lon="4.61916">
        <ele>1045</ele>
        <time>2015-05-10T06:53:56Z</time>
      </trkpt>
      <trkpt lat="45.38722" lon="4.61918">
        <ele>1044</ele>
        <time>2015-05-10T06:53:58Z</time>
      </trkpt>
      <trkpt lat="45.38724" lon="4.6192">
        <ele>1044</ele>
        <time>2015-05-10T06:54:00Z</time>
      </trkpt>
      <trkpt lat="45.38725" lon="4.61923">
        <ele>1044</ele>
        <time>2015-05-10T06:54:02Z</time>
      </trkpt>
      <trkpt lat="45.38727" lon="4.61926">
        <ele>1044</ele>
        <time>2015-05-10T06:54:04Z</time>
      </trkpt>
      <trkpt lat="45.3873" lon="4.61929">
        <ele>1044</ele>
        <time>2015-05-10T06:54:07Z</time>
      </trkpt>
      <trkpt lat="45.38733" lon="4.61931">
        <ele>1044</ele>
        <time>2015-05-10T06:54:09Z</time>
      </trkpt>
      <trkpt lat="45.38734" lon="4.61933">
        <ele>1044</ele>
        <time>2015-05-10T06:54:11Z</time>
      </trkpt>
      <trkpt lat="45.38736" lon="4.61935">
        <ele>1044</ele>
        <time>2015-05-10T06:54:13Z</time>
      </trkpt>
      <trkpt lat="45.38738" lon="4.61937">
        <ele>1044</ele>
        <time>2015-05-10T06:54:15Z</time>
      </trkpt>
      <trkpt lat="45.38739" lon="4.61938">
        <ele>1045</ele>
        <time>2015-05-10T06:54:17Z</time>
      </trkpt>
      <trkpt lat="45.38742" lon="4.61942">
        <ele>1045</ele>
        <time>2015-05-10T06:54:20Z</time>
      </trkpt>
      <trkpt lat="45.38744" lon="4.61944">
        <ele>1045</ele>
        <time>2015-05-10T06:54:22Z</time>
      </trkpt>
      <trkpt lat="45.38747" lon="4.61946">
        <ele>1045</ele>
        <time>2015-05-10T06:54:24Z</time>
      </trkpt>
      <trkpt lat="45.38749" lon="4.6195">
        <ele>1045</ele>
        <time>2015-05-10T06:54:27Z</time>
      </trkpt>
      <trkpt lat="45.38751" lon="4.61951">
        <ele>1045</ele>
        <time>2015-05-10T06:54:29Z</time>
      </trkpt>
      <trkpt lat="45.38754" lon="4.61953">
        <ele>1045</ele>
        <time>2015-05-10T06:54:31Z</time>
      </trkpt>
      <trkpt lat="45.38755" lon="4.61955">
        <ele>1045</ele>
        <time>2015-05-10T06:54:33Z</time>
      </trkpt>
      <trkpt lat="45.38758" lon="4.61959">
        <ele>1044</ele>
        <time>2015-05-10T06:54:36Z</time>
      </trkpt>
      <trkpt lat="45.3876" lon="4.61963">
        <ele>1044</ele>
        <time>2015-05-10T06:54:38Z</time>
      </trkpt>
      <trkpt lat="45.38764" lon="4.61968">
        <ele>1044</ele>
        <time>2015-05-10T06:54:41Z</time>
      </trkpt>
      <trkpt lat="45.38767" lon="4.61971">
        <ele>1045</ele>
        <time>2015-05-10T06:54:44Z</time>
      </trkpt>
      <trkpt lat="45.3877" lon="4.61973">
        <ele>1044</ele>
        <time>2015-05-10T06:54:46Z</time>
      </trkpt>
      <trkpt lat="45.38773" lon="4.61977">
        <ele>1044</ele>
        <time>2015-05-10T06:54:48Z</time>
      </trkpt>
      <trkpt lat="45.38778" lon="4.61981">
        <ele>1044</ele>
        <time>2015-05-10T06:54:51Z</time>
      </trkpt>
      <trkpt lat="45.38783" lon="4.61988">
        <ele>1044</ele>
        <time>2015-05-10T06:54:54Z</time>
      </trkpt>
      <trkpt lat="45.38785" lon="4.61993">
        <ele>1044</ele>
        <time>2015-05-10T06:54:57Z</time>
      </trkpt>
      <trkpt lat="45.38788" lon="4.61997">
        <ele>1043</ele>
        <time>2015-05-10T06:54:59Z</time>
      </trkpt>
      <trkpt lat="45.38792" lon="4.62001">
        <ele>1043</ele>
        <time>2015-05-10T06:55:02Z</time>
      </trkpt>
      <trkpt lat="45.38795" lon="4.62005">
        <ele>1043</ele>
        <time>2015-05-10T06:55:05Z</time>
      </trkpt>
      <trkpt lat="45.38798" lon="4.62008">
        <ele>1042</ele>
        <time>2015-05-10T06:55:08Z</time>
      </trkpt>
      <trkpt lat="45.388" lon="4.62012">
        <ele>1042</ele>
        <time>2015-05-10T06:55:11Z</time>
      </trkpt>
      <trkpt lat="45.38802" lon="4.62017">
        <ele>1042</ele>
        <time>2015-05-10T06:55:14Z</time>
      </trkpt>
      <trkpt lat="45.38803" lon="4.62022">
        <ele>1043</ele>
        <time>2015-05-10T06:55:16Z</time>
      </trkpt>
      <trkpt lat="45.38805" lon="4.62028">
        <ele>1043</ele>
        <time>2015-05-10T06:55:18Z</time>
      </trkpt>
      <trkpt lat="45.38808" lon="4.62033">
        <ele>1043</ele>
        <time>2015-05-10T06:55:21Z</time>
      </trkpt>
      <trkpt lat="45.38812" lon="4.62037">
        <ele>1042</ele>
        <time>2015-05-10T06:55:24Z</time>
      </trkpt>
      <trkpt lat="45.38816" lon="4.6204">
        <ele>1042</ele>
        <time>2015-05-10T06:55:27Z</time>
      </trkpt>
      <trkpt lat="45.38818" lon="4.62044">
        <ele>1041</ele>
        <time>2015-05-10T06:55:30Z</time>
      </trkpt>
      <trkpt lat="45.3882" lon="4.62046">
        <ele>1041</ele>
        <time>2015-05-10T06:55:32Z</time>
      </trkpt>
      <trkpt lat="45.38823" lon="4.62049">
        <ele>1041</ele>
        <time>2015-05-10T06:55:35Z</time>
      </trkpt>
      <trkpt lat="45.38825" lon="4.6205">
        <ele>1041</ele>
        <time>2015-05-10T06:55:37Z</time>
      </trkpt>
      <trkpt lat="45.38828" lon="4.6205">
        <ele>1041</ele>
        <time>2015-05-10T06:55:40Z</time>
      </trkpt>
      <trkpt lat="45.38831" lon="4.62052">
        <ele>1041</ele>
        <time>2015-05-10T06:55:42Z</time>
      </trkpt>
      <trkpt lat="45.38833" lon="4.62053">
        <ele>1041</ele>
        <time>2015-05-10T06:55:44Z</time>
      </trkpt>
      <trkpt lat="45.38834" lon="4.62055">
        <ele>1042</ele>
        <time>2015-05-10T06:55:46Z</time>
      </trkpt>
      <trkpt lat="45.38835" lon="4.62057">
        <ele>1042</ele>
        <time>2015-05-10T06:55:49Z</time>
      </trkpt>
      <trkpt lat="45.38836" lon="4.6206">
        <ele>1041</ele>
        <time>2015-05-10T06:55:52Z</time>
      </trkpt>
      <trkpt lat="45.38838" lon="4.62063">
        <ele>1040</ele>
        <time>2015-05-10T06:55:55Z</time>
      </trkpt>
      <trkpt lat="45.3884" lon="4.62065">
        <ele>1039</ele>
        <time>2015-05-10T06:55:57Z</time>
      </trkpt>
      <trkpt lat="45.38845" lon="4.62068">
        <ele>1039</ele>
        <time>2015-05-10T06:56:00Z</time>
      </trkpt>
      <trkpt lat="45.38847" lon="4.6207">
        <ele>1038</ele>
        <time>2015-05-10T06:56:02Z</time>
      </trkpt>
      <trkpt lat="45.38849" lon="4.62072">
        <ele>1038</ele>
        <time>2015-05-10T06:56:04Z</time>
      </trkpt>
      <trkpt lat="45.3885" lon="4.62074">
        <ele>1038</ele>
        <time>2015-05-10T06:56:07Z</time>
      </trkpt>
      <trkpt lat="45.38853" lon="4.62076">
        <ele>1038</ele>
        <time>2015-05-10T06:56:10Z</time>
      </trkpt>
      <trkpt lat="45.38855" lon="4.62078">
        <ele>1037</ele>
        <time>2015-05-10T06:56:12Z</time>
      </trkpt>
      <trkpt lat="45.38856" lon="4.6208">
        <ele>1036</ele>
        <time>2015-05-10T06:56:14Z</time>
      </trkpt>
      <trkpt lat="45.38858" lon="4.62082">
        <ele>1036</ele>
        <time>2015-05-10T06:56:16Z</time>
      </trkpt>
      <trkpt lat="45.3886" lon="4.62083">
        <ele>1036</ele>
        <time>2015-05-10T06:56:18Z</time>
      </trkpt>
      <trkpt lat="45.38863" lon="4.62085">
        <ele>1036</ele>
        <time>2015-05-10T06:56:21Z</time>
      </trkpt>
      <trkpt lat="45.38865" lon="4.62087">
        <ele>1035</ele>
        <time>2015-05-10T06:56:23Z</time>
      </trkpt>
      <trkpt lat="45.38867" lon="4.62089">
        <ele>1035</ele>
        <time>2015-05-10T06:56:26Z</time>
      </trkpt>
      <trkpt lat="45.38868" lon="4.62091">
        <ele>1035</ele>
        <time>2015-05-10T06:56:28Z</time>
      </trkpt>
      <trkpt lat="45.3887" lon="4.62093">
        <ele>1034</ele>
        <time>2015-05-10T06:56:30Z</time>
      </trkpt>
      <trkpt lat="45.38872" lon="4.62097">
        <ele>1034</ele>
        <time>2015-05-10T06:56:33Z</time>
      </trkpt>
      <trkpt lat="45.38875" lon="4.62101">
        <ele>1034</ele>
        <time>2015-05-10T06:56:36Z</time>
      </trkpt>
      <trkpt lat="45.38879" lon="4.62104">
        <ele>1033</ele>
        <time>2015-05-10T06:56:38Z</time>
      </trkpt>
      <trkpt lat="45.38882" lon="4.62106">
        <ele>1034</ele>
        <time>2015-05-10T06:56:40Z</time>
      </trkpt>
      <trkpt lat="45.38887" lon="4.6211">
        <ele>1034</ele>
        <time>2015-05-10T06:56:43Z</time>
      </trkpt>
      <trkpt lat="45.38889" lon="4.62113">
        <ele>1034</ele>
        <time>2015-05-10T06:56:45Z</time>
      </trkpt>
      <trkpt lat="45.38892" lon="4.62116">
        <ele>1035</ele>
        <time>2015-05-10T06:56:48Z</time>
      </trkpt>
      <trkpt lat="45.38895" lon="4.62118">
        <ele>1036</ele>
        <time>2015-05-10T06:56:50Z</time>
      </trkpt>
      <trkpt lat="45.38897" lon="4.62116">
        <ele>1036</ele>
        <time>2015-05-10T06:56:53Z</time>
      </trkpt>
      <trkpt lat="45.38898" lon="4.62115">
        <ele>1036</ele>
        <time>2015-05-10T06:56:55Z</time>
      </trkpt>
      <trkpt lat="45.38897" lon="4.62113">
        <ele>1036</ele>
        <time>2015-05-10T06:56:57Z</time>
      </trkpt>
      <trkpt lat="45.38897" lon="4.62109">
        <ele>1037</ele>
        <time>2015-05-10T06:57:00Z</time>
      </trkpt>
      <trkpt lat="45.38898" lon="4.62107">
        <ele>1037</ele>
        <time>2015-05-10T06:57:02Z</time>
      </trkpt>
      <trkpt lat="45.38898" lon="4.62105">
        <ele>1037</ele>
        <time>2015-05-10T06:57:05Z</time>
      </trkpt>
      <trkpt lat="45.38898" lon="4.62102">
        <ele>1037</ele>
        <time>2015-05-10T06:57:07Z</time>
      </trkpt>
      <trkpt lat="45.38898" lon="4.62099">
        <ele>1038</ele>
        <time>2015-05-10T06:57:09Z</time>
      </trkpt>
      <trkpt lat="45.38898" lon="4.62096">
        <ele>1039</ele>
        <time>2015-05-10T06:57:11Z</time>
      </trkpt>
      <trkpt lat="45.38897" lon="4.62092">
        <ele>1039</ele>
        <time>2015-05-10T06:57:14Z</time>
      </trkpt>
      <trkpt lat="45.38895" lon="4.62089">
        <ele>1039</ele>
        <time>2015-05-10T06:57:16Z</time>
      </trkpt>
      <trkpt lat="45.38896" lon="4.62086">
        <ele>1039</ele>
        <time>2015-05-10T06:57:18Z</time>
      </trkpt>
      <trkpt lat="45.38897" lon="4.62083">
        <ele>1040</ele>
        <time>2015-05-10T06:57:20Z</time>
      </trkpt>
      <trkpt lat="45.38897" lon="4.6208">
        <ele>1040</ele>
        <time>2015-05-10T06:57:23Z</time>
      </trkpt>
      <trkpt lat="45.38896" lon="4.62077">
        <ele>1040</ele>
        <time>2015-05-10T06:57:25Z</time>
      </trkpt>
      <trkpt lat="45.38897" lon="4.62075">
        <ele>1041</ele>
        <time>2015-05-10T06:57:27Z</time>
      </trkpt>
      <trkpt lat="45.38898" lon="4.62071">
        <ele>1042</ele>
        <time>2015-05-10T06:57:30Z</time>
      </trkpt>
      <trkpt lat="45.38899" lon="4.62068">
        <ele>1043</ele>
        <time>2015-05-10T06:57:33Z</time>
      </trkpt>
      <trkpt lat="45.389" lon="4.62066">
        <ele>1043</ele>
        <time>2015-05-10T06:57:35Z</time>
      </trkpt>
      <trkpt lat="45.389" lon="4.62062">
        <ele>1044</ele>
        <time>2015-05-10T06:57:38Z</time>
      </trkpt>
      <trkpt lat="45.38901" lon="4.6206">
        <ele>1044</ele>
        <time>2015-05-10T06:57:40Z</time>
      </trkpt>
      <trkpt lat="45.38902" lon="4.62057">
        <ele>1044</ele>
        <time>2015-05-10T06:57:43Z</time>
      </trkpt>
      <trkpt lat="45.38904" lon="4.62055">
        <ele>1044</ele>
        <time>2015-05-10T06:57:45Z</time>
      </trkpt>
      <trkpt lat="45.38906" lon="4.62052">
        <ele>1043</ele>
        <time>2015-05-10T06:57:47Z</time>
      </trkpt>
      <trkpt lat="45.38908" lon="4.6205">
        <ele>1043</ele>
        <time>2015-05-10T06:57:49Z</time>
      </trkpt>
      <trkpt lat="45.38911" lon="4.62046">
        <ele>1042</ele>
        <time>2015-05-10T06:57:52Z</time>
      </trkpt>
      <trkpt lat="45.38913" lon="4.62043">
        <ele>1042</ele>
        <time>2015-05-10T06:57:54Z</time>
      </trkpt>
      <trkpt lat="45.38916" lon="4.62041">
        <ele>1041</ele>
        <time>2015-05-10T06:57:57Z</time>
      </trkpt>
      <trkpt lat="45.38918" lon="4.62038">
        <ele>1040</ele>
        <time>2015-05-10T06:57:59Z</time>
      </trkpt>
      <trkpt lat="45.38921" lon="4.62037">
        <ele>1038</ele>
        <time>2015-05-10T06:58:02Z</time>
      </trkpt>
      <trkpt lat="45.38924" lon="4.62032">
        <ele>1037</ele>
        <time>2015-05-10T06:58:05Z</time>
      </trkpt>
      <trkpt lat="45.38926" lon="4.6203">
        <ele>1036</ele>
        <time>2015-05-10T06:58:07Z</time>
      </trkpt>
      <trkpt lat="45.38927" lon="4.62024">
        <ele>1034</ele>
        <time>2015-05-10T06:58:10Z</time>
      </trkpt>
      <trkpt lat="45.38927" lon="4.6202">
        <ele>1034</ele>
        <time>2015-05-10T06:58:12Z</time>
      </trkpt>
      <trkpt lat="45.38927" lon="4.62014">
        <ele>1034</ele>
        <time>2015-05-10T06:58:15Z</time>
      </trkpt>
      <trkpt lat="45.3893" lon="4.6201">
        <ele>1035</ele>
        <time>2015-05-10T06:58:17Z</time>
      </trkpt>
      <trkpt lat="45.38931" lon="4.62006">
        <ele>1036</ele>
        <time>2015-05-10T06:58:20Z</time>
      </trkpt>
      <trkpt lat="45.38931" lon="4.62002">
        <ele>1037</ele>
        <time>2015-05-10T06:58:22Z</time>
      </trkpt>
      <trkpt lat="45.38931" lon="4.61997">
        <ele>1037</ele>
        <time>2015-05-10T06:58:25Z</time>
      </trkpt>
      <trkpt lat="45.38932" lon="4.61994">
        <ele>1037</ele>
        <time>2015-05-10T06:58:27Z</time>
      </trkpt>
      <trkpt lat="45.38932" lon="4.61989">
        <ele>1037</ele>
        <time>2015-05-10T06:58:30Z</time>
      </trkpt>
      <trkpt lat="45.38932" lon="4.61987">
        <ele>1037</ele>
        <time>2015-05-10T06:58:32Z</time>
      </trkpt>
      <trkpt lat="45.38933" lon="4.6198">
        <ele>1037</ele>
        <time>2015-05-10T06:58:35Z</time>
      </trkpt>
      <trkpt lat="45.38936" lon="4.61973">
        <ele>1036</ele>
        <time>2015-05-10T06:58:37Z</time>
      </trkpt>
      <trkpt lat="45.38939" lon="4.61969">
        <ele>1037</ele>
        <time>2015-05-10T06:58:39Z</time>
      </trkpt>
      <trkpt lat="45.38939" lon="4.61963">
        <ele>1036</ele>
        <time>2015-05-10T06:58:41Z</time>
      </trkpt>
      <trkpt lat="45.3894" lon="4.61957">
        <ele>1037</ele>
        <time>2015-05-10T06:58:44Z</time>
      </trkpt>
      <trkpt lat="45.38941" lon="4.61951">
        <ele>1037</ele>
        <time>2015-05-10T06:58:46Z</time>
      </trkpt>
      <trkpt lat="45.38941" lon="4.61944">
        <ele>1036</ele>
        <time>2015-05-10T06:58:48Z</time>
      </trkpt>
      <trkpt lat="45.38941" lon="4.61939">
        <ele>1036</ele>
        <time>2015-05-10T06:58:50Z</time>
      </trkpt>
      <trkpt lat="45.38942" lon="4.61934">
        <ele>1036</ele>
        <time>2015-05-10T06:58:52Z</time>
      </trkpt>
      <trkpt lat="45.38941" lon="4.61927">
        <ele>1036</ele>
        <time>2015-05-10T06:58:55Z</time>
      </trkpt>
      <trkpt lat="45.3894" lon="4.61924">
        <ele>1037</ele>
        <time>2015-05-10T06:58:57Z</time>
      </trkpt>
      <trkpt lat="45.38939" lon="4.6192">
        <ele>1037</ele>
        <time>2015-05-10T06:58:59Z</time>
      </trkpt>
      <trkpt lat="45.38937" lon="4.61917">
        <ele>1038</ele>
        <time>2015-05-10T06:59:01Z</time>
      </trkpt>
      <trkpt lat="45.38936" lon="4.6191">
        <ele>1038</ele>
        <time>2015-05-10T06:59:04Z</time>
      </trkpt>
      <trkpt lat="45.38936" lon="4.61906">
        <ele>1038</ele>
        <time>2015-05-10T06:59:06Z</time>
      </trkpt>
      <trkpt lat="45.38936" lon="4.61902">
        <ele>1038</ele>
        <time>2015-05-10T06:59:08Z</time>
      </trkpt>
      <trkpt lat="45.38937" lon="4.61896">
        <ele>1039</ele>
        <time>2015-05-10T06:59:11Z</time>
      </trkpt>
      <trkpt lat="45.38937" lon="4.61892">
        <ele>1039</ele>
        <time>2015-05-10T06:59:14Z</time>
      </trkpt>
      <trkpt lat="45.38937" lon="4.61889">
        <ele>1039</ele>
        <time>2015-05-10T06:59:16Z</time>
      </trkpt>
      <trkpt lat="45.38937" lon="4.61886">
        <ele>1040</ele>
        <time>2015-05-10T06:59:19Z</time>
      </trkpt>
      <trkpt lat="45.38937" lon="4.61883">
        <ele>1040</ele>
        <time>2015-05-10T06:59:21Z</time>
      </trkpt>
      <trkpt lat="45.38936" lon="4.61881">
        <ele>1040</ele>
        <time>2015-05-10T06:59:23Z</time>
      </trkpt>
      <trkpt lat="45.38937" lon="4.61876">
        <ele>1040</ele>
        <time>2015-05-10T06:59:26Z</time>
      </trkpt>
      <trkpt lat="45.38938" lon="4.61871">
        <ele>1040</ele>
        <time>2015-05-10T06:59:28Z</time>
      </trkpt>
      <trkpt lat="45.38939" lon="4.61863">
        <ele>1040</ele>
        <time>2015-05-10T06:59:31Z</time>
      </trkpt>
      <trkpt lat="45.3894" lon="4.61858">
        <ele>1040</ele>
        <time>2015-05-10T06:59:33Z</time>
      </trkpt>
      <trkpt lat="45.38942" lon="4.61849">
        <ele>1041</ele>
        <time>2015-05-10T06:59:36Z</time>
      </trkpt>
      <trkpt lat="45.38943" lon="4.6184">
        <ele>1041</ele>
        <time>2015-05-10T06:59:39Z</time>
      </trkpt>
      <trkpt lat="45.38943" lon="4.61833">
        <ele>1041</ele>
        <time>2015-05-10T06:59:41Z</time>
      </trkpt>
      <trkpt lat="45.38945" lon="4.61827">
        <ele>1041</ele>
        <time>2015-05-10T06:59:43Z</time>
      </trkpt>
      <trkpt lat="45.38946" lon="4.61821">
        <ele>1041</ele>
        <time>2015-05-10T06:59:45Z</time>
      </trkpt>
      <trkpt lat="45.38948" lon="4.61811">
        <ele>1041</ele>
        <time>2015-05-10T06:59:48Z</time>
      </trkpt>
      <trkpt lat="45.3895" lon="4.61801">
        <ele>1042</ele>
        <time>2015-05-10T06:59:51Z</time>
      </trkpt>
      <trkpt lat="45.38952" lon="4.61794">
        <ele>1042</ele>
        <time>2015-05-10T06:59:53Z</time>
      </trkpt>
      <trkpt lat="45.38957" lon="4.61784">
        <ele>1041</ele>
        <time>2015-05-10T06:59:56Z</time>
      </trkpt>
      <trkpt lat="45.38958" lon="4.6178">
        <ele>1041</ele>
        <time>2015-05-10T06:59:58Z</time>
      </trkpt>
      <trkpt lat="45.38956" lon="4.61777">
        <ele>1041</ele>
        <time>2015-05-10T07:00:00Z</time>
      </trkpt>
      <trkpt lat="45.38953" lon="4.61776">
        <ele>1041</ele>
        <time>2015-05-10T07:00:03Z</time>
      </trkpt>
      <trkpt lat="45.38952" lon="4.61776">
        <ele>1042</ele>
        <time>2015-05-10T07:00:05Z</time>
      </trkpt>
      <trkpt lat="45.38951" lon="4.61775">
        <ele>1042</ele>
        <time>2015-05-10T07:00:07Z</time>
      </trkpt>
      <trkpt lat="45.38948" lon="4.61774">
        <ele>1043</ele>
        <time>2015-05-10T07:00:10Z</time>
      </trkpt>
      <trkpt lat="45.38948" lon="4.61773">
        <ele>1044</ele>
        <time>2015-05-10T07:00:12Z</time>
      </trkpt>
      <trkpt lat="45.38947" lon="4.61772">
        <ele>1045</ele>
        <time>2015-05-10T07:00:14Z</time>
      </trkpt>
      <trkpt lat="45.38945" lon="4.61771">
        <ele>1045</ele>
        <time>2015-05-10T07:00:17Z</time>
      </trkpt>
      <trkpt lat="45.38943" lon="4.61769">
        <ele>1046</ele>
        <time>2015-05-10T07:00:20Z</time>
      </trkpt>
      <trkpt lat="45.38942" lon="4.61768">
        <ele>1047</ele>
        <time>2015-05-10T07:00:22Z</time>
      </trkpt>
      <trkpt lat="45.3894" lon="4.61766">
        <ele>1047</ele>
        <time>2015-05-10T07:00:25Z</time>
      </trkpt>
      <trkpt lat="45.38939" lon="4.61764">
        <ele>1048</ele>
        <time>2015-05-10T07:00:27Z</time>
      </trkpt>
      <trkpt lat="45.38938" lon="4.61762">
        <ele>1049</ele>
        <time>2015-05-10T07:00:30Z</time>
      </trkpt>
      <trkpt lat="45.38937" lon="4.61761">
        <ele>1050</ele>
        <time>2015-05-10T07:00:33Z</time>
      </trkpt>
      <trkpt lat="45.38936" lon="4.6176">
        <ele>1050</ele>
        <time>2015-05-10T07:00:35Z</time>
      </trkpt>
      <trkpt lat="45.38935" lon="4.61757">
        <ele>1051</ele>
        <time>2015-05-10T07:00:38Z</time>
      </trkpt>
      <trkpt lat="45.38934" lon="4.61755">
        <ele>1051</ele>
        <time>2015-05-10T07:00:40Z</time>
      </trkpt>
      <trkpt lat="45.38933" lon="4.61752">
        <ele>1052</ele>
        <time>2015-05-10T07:00:43Z</time>
      </trkpt>
      <trkpt lat="45.38933" lon="4.61751">
        <ele>1052</ele>
        <time>2015-05-10T07:00:45Z</time>
      </trkpt>
      <trkpt lat="45.38932" lon="4.6175">
        <ele>1053</ele>
        <time>2015-05-10T07:00:47Z</time>
      </trkpt>
      <trkpt lat="45.38931" lon="4.61748">
        <ele>1053</ele>
        <time>2015-05-10T07:00:49Z</time>
      </trkpt>
      <trkpt lat="45.38931" lon="4.61747">
        <ele>1054</ele>
        <time>2015-05-10T07:00:51Z</time>
      </trkpt>
      <trkpt lat="45.3893" lon="4.61746">
        <ele>1054</ele>
        <time>2015-05-10T07:00:54Z</time>
      </trkpt>
      <trkpt lat="45.3893" lon="4.61743">
        <ele>1055</ele>
        <time>2015-05-10T07:00:57Z</time>
      </trkpt>
      <trkpt lat="45.38929" lon="4.61741">
        <ele>1055</ele>
        <time>2015-05-10T07:00:59Z</time>
      </trkpt>
      <trkpt lat="45.38928" lon="4.61739">
        <ele>1056</ele>
        <time>2015-05-10T07:01:01Z</time>
      </trkpt>
      <trkpt lat="45.38927" lon="4.61737">
        <ele>1057</ele>
        <time>2015-05-10T07:01:04Z</time>
      </trkpt>
      <trkpt lat="45.38927" lon="4.61735">
        <ele>1058</ele>
        <time>2015-05-10T07:01:06Z</time>
      </trkpt>
      <trkpt lat="45.38927" lon="4.61733">
        <ele>1058</ele>
        <time>2015-05-10T07:01:09Z</time>
      </trkpt>
      <trkpt lat="45.38926" lon="4.61731">
        <ele>1058</ele>
        <time>2015-05-10T07:01:11Z</time>
      </trkpt>
      <trkpt lat="45.38925" lon="4.61729">
        <ele>1059</ele>
        <time>2015-05-10T07:01:13Z</time>
      </trkpt>
      <trkpt lat="45.38924" lon="4.61728">
        <ele>1059</ele>
        <time>2015-05-10T07:01:15Z</time>
      </trkpt>
      <trkpt lat="45.38924" lon="4.61725">
        <ele>1060</ele>
        <time>2015-05-10T07:01:18Z</time>
      </trkpt>
      <trkpt lat="45.38923" lon="4.61724">
        <ele>1061</ele>
        <time>2015-05-10T07:01:20Z</time>
      </trkpt>
      <trkpt lat="45.38921" lon="4.61723">
        <ele>1061</ele>
        <time>2015-05-10T07:01:22Z</time>
      </trkpt>
      <trkpt lat="45.38919" lon="4.61721">
        <ele>1062</ele>
        <time>2015-05-10T07:01:25Z</time>
      </trkpt>
      <trkpt lat="45.38918" lon="4.6172">
        <ele>1062</ele>
        <time>2015-05-10T07:01:27Z</time>
      </trkpt>
      <trkpt lat="45.38918" lon="4.61718">
        <ele>1063</ele>
        <time>2015-05-10T07:01:29Z</time>
      </trkpt>
      <trkpt lat="45.38916" lon="4.61716">
        <ele>1064</ele>
        <time>2015-05-10T07:01:32Z</time>
      </trkpt>
      <trkpt lat="45.38916" lon="4.61713">
        <ele>1065</ele>
        <time>2015-05-10T07:01:35Z</time>
      </trkpt>
      <trkpt lat="45.38916" lon="4.61713">
        <ele>1065</ele>
        <time>2015-05-10T07:01:37Z</time>
      </trkpt>
      <trkpt lat="45.38915" lon="4.61712">
        <ele>1065</ele>
        <time>2015-05-10T07:01:39Z</time>
      </trkpt>
      <trkpt lat="45.38913" lon="4.61711">
        <ele>1066</ele>
        <time>2015-05-10T07:01:42Z</time>
      </trkpt>
      <trkpt lat="45.38912" lon="4.61709">
        <ele>1067</ele>
        <time>2015-05-10T07:01:45Z</time>
      </trkpt>
      <trkpt lat="45.38911" lon="4.61707">
        <ele>1067</ele>
        <time>2015-05-10T07:01:48Z</time>
      </trkpt>
      <trkpt lat="45.38911" lon="4.61705">
        <ele>1068</ele>
        <time>2015-05-10T07:01:51Z</time>
      </trkpt>
      <trkpt lat="45.3891" lon="4.61703">
        <ele>1069</ele>
        <time>2015-05-10T07:01:54Z</time>
      </trkpt>
      <trkpt lat="45.38908" lon="4.61701">
        <ele>1070</ele>
        <time>2015-05-10T07:01:57Z</time>
      </trkpt>
      <trkpt lat="45.38907" lon="4.617">
        <ele>1070</ele>
        <time>2015-05-10T07:01:59Z</time>
      </trkpt>
      <trkpt lat="45.38906" lon="4.61698">
        <ele>1071</ele>
        <time>2015-05-10T07:02:01Z</time>
      </trkpt>
      <trkpt lat="45.38906" lon="4.61694">
        <ele>1071</ele>
        <time>2015-05-10T07:02:04Z</time>
      </trkpt>
      <trkpt lat="45.38904" lon="4.61693">
        <ele>1072</ele>
        <time>2015-05-10T07:02:06Z</time>
      </trkpt>
      <trkpt lat="45.38903" lon="4.61691">
        <ele>1072</ele>
        <time>2015-05-10T07:02:09Z</time>
      </trkpt>
      <trkpt lat="45.38902" lon="4.61689">
        <ele>1073</ele>
        <time>2015-05-10T07:02:11Z</time>
      </trkpt>
      <trkpt lat="45.38902" lon="4.61687">
        <ele>1074</ele>
        <time>2015-05-10T07:02:14Z</time>
      </trkpt>
      <trkpt lat="45.389" lon="4.61686">
        <ele>1074</ele>
        <time>2015-05-10T07:02:16Z</time>
      </trkpt>
      <trkpt lat="45.38898" lon="4.61683">
        <ele>1075</ele>
        <time>2015-05-10T07:02:19Z</time>
      </trkpt>
      <trkpt lat="45.38899" lon="4.61682">
        <ele>1075</ele>
        <time>2015-05-10T07:02:21Z</time>
      </trkpt>
      <trkpt lat="45.38899" lon="4.61678">
        <ele>1076</ele>
        <time>2015-05-10T07:02:24Z</time>
      </trkpt>
      <trkpt lat="45.38899" lon="4.61675">
        <ele>1076</ele>
        <time>2015-05-10T07:02:27Z</time>
      </trkpt>
      <trkpt lat="45.389" lon="4.61672">
        <ele>1077</ele>
        <time>2015-05-10T07:02:30Z</time>
      </trkpt>
      <trkpt lat="45.389" lon="4.6167">
        <ele>1077</ele>
        <time>2015-05-10T07:02:32Z</time>
      </trkpt>
      <trkpt lat="45.389" lon="4.61666">
        <ele>1078</ele>
        <time>2015-05-10T07:02:35Z</time>
      </trkpt>
      <trkpt lat="45.38898" lon="4.61663">
        <ele>1079</ele>
        <time>2015-05-10T07:02:38Z</time>
      </trkpt>
      <trkpt lat="45.38897" lon="4.6166">
        <ele>1079</ele>
        <time>2015-05-10T07:02:40Z</time>
      </trkpt>
      <trkpt lat="45.38897" lon="4.61658">
        <ele>1080</ele>
        <time>2015-05-10T07:02:42Z</time>
      </trkpt>
      <trkpt lat="45.38896" lon="4.61656">
        <ele>1080</ele>
        <time>2015-05-10T07:02:44Z</time>
      </trkpt>
      <trkpt lat="45.38894" lon="4.61654">
        <ele>1080</ele>
        <time>2015-05-10T07:02:46Z</time>
      </trkpt>
      <trkpt lat="45.38893" lon="4.61652">
        <ele>1081</ele>
        <time>2015-05-10T07:02:48Z</time>
      </trkpt>
      <trkpt lat="45.38892" lon="4.6165">
        <ele>1082</ele>
        <time>2015-05-10T07:02:50Z</time>
      </trkpt>
      <trkpt lat="45.38892" lon="4.61646">
        <ele>1082</ele>
        <time>2015-05-10T07:02:53Z</time>
      </trkpt>
      <trkpt lat="45.38892" lon="4.61641">
        <ele>1083</ele>
        <time>2015-05-10T07:02:56Z</time>
      </trkpt>
      <trkpt lat="45.38891" lon="4.61636">
        <ele>1083</ele>
        <time>2015-05-10T07:02:59Z</time>
      </trkpt>
      <trkpt lat="45.3889" lon="4.61632">
        <ele>1084</ele>
        <time>2015-05-10T07:03:02Z</time>
      </trkpt>
      <trkpt lat="45.3889" lon="4.61629">
        <ele>1084</ele>
        <time>2015-05-10T07:03:04Z</time>
      </trkpt>
      <trkpt lat="45.38889" lon="4.61625">
        <ele>1085</ele>
        <time>2015-05-10T07:03:07Z</time>
      </trkpt>
      <trkpt lat="45.3889" lon="4.61622">
        <ele>1086</ele>
        <time>2015-05-10T07:03:09Z</time>
      </trkpt>
      <trkpt lat="45.38891" lon="4.61618">
        <ele>1086</ele>
        <time>2015-05-10T07:03:12Z</time>
      </trkpt>
      <trkpt lat="45.38892" lon="4.61615">
        <ele>1087</ele>
        <time>2015-05-10T07:03:15Z</time>
      </trkpt>
      <trkpt lat="45.38895" lon="4.61612">
        <ele>1087</ele>
        <time>2015-05-10T07:03:18Z</time>
      </trkpt>
      <trkpt lat="45.38897" lon="4.61609">
        <ele>1087</ele>
        <time>2015-05-10T07:03:20Z</time>
      </trkpt>
      <trkpt lat="45.389" lon="4.61606">
        <ele>1087</ele>
        <time>2015-05-10T07:03:23Z</time>
      </trkpt>
      <trkpt lat="45.38901" lon="4.61604">
        <ele>1087</ele>
        <time>2015-05-10T07:03:25Z</time>
      </trkpt>
      <trkpt lat="45.38903" lon="4.61602">
        <ele>1088</ele>
        <time>2015-05-10T07:03:28Z</time>
      </trkpt>
      <trkpt lat="45.38905" lon="4.616">
        <ele>1089</ele>
        <time>2015-05-10T07:03:31Z</time>
      </trkpt>
      <trkpt lat="45.38906" lon="4.61598">
        <ele>1090</ele>
        <time>2015-05-10T07:03:33Z</time>
      </trkpt>
      <trkpt lat="45.38907" lon="4.61595">
        <ele>1090</ele>
        <time>2015-05-10T07:03:35Z</time>
      </trkpt>
      <trkpt lat="45.3891" lon="4.61592">
        <ele>1090</ele>
        <time>2015-05-10T07:03:38Z</time>
      </trkpt>
      <trkpt lat="45.38911" lon="4.61589">
        <ele>1089</ele>
        <time>2015-05-10T07:03:40Z</time>
      </trkpt>
      <trkpt lat="45.38914" lon="4.61584">
        <ele>1089</ele>
        <time>2015-05-10T07:03:43Z</time>
      </trkpt>
      <trkpt lat="45.38918" lon="4.61581">
        <ele>1090</ele>
        <time>2015-05-10T07:03:46Z</time>
      </trkpt>
      <trkpt lat="45.38919" lon="4.61578">
        <ele>1090</ele>
        <time>2015-05-10T07:03:48Z</time>
      </trkpt>
      <trkpt lat="45.38923" lon="4.61574">
        <ele>1092</ele>
        <time>2015-05-10T07:03:51Z</time>
      </trkpt>
      <trkpt lat="45.38926" lon="4.61572">
        <ele>1092</ele>
        <time>2015-05-10T07:03:53Z</time>
      </trkpt>
      <trkpt lat="45.38929" lon="4.61569">
        <ele>1092</ele>
        <time>2015-05-10T07:03:56Z</time>
      </trkpt>
      <trkpt lat="45.38931" lon="4.61566">
        <ele>1092</ele>
        <time>2015-05-10T07:03:58Z</time>
      </trkpt>
      <trkpt lat="45.38935" lon="4.6156">
        <ele>1092</ele>
        <time>2015-05-10T07:04:01Z</time>
      </trkpt>
      <trkpt lat="45.38938" lon="4.61557">
        <ele>1093</ele>
        <time>2015-05-10T07:04:03Z</time>
      </trkpt>
      <trkpt lat="45.38943" lon="4.61553">
        <ele>1094</ele>
        <time>2015-05-10T07:04:06Z</time>
      </trkpt>
      <trkpt lat="45.38946" lon="4.61549">
        <ele>1094</ele>
        <time>2015-05-10T07:04:08Z</time>
      </trkpt>
      <trkpt lat="45.38949" lon="4.61546">
        <ele>1095</ele>
        <time>2015-05-10T07:04:10Z</time>
      </trkpt>
      <trkpt lat="45.38952" lon="4.61543">
        <ele>1096</ele>
        <time>2015-05-10T07:04:12Z</time>
      </trkpt>
      <trkpt lat="45.38956" lon="4.6154">
        <ele>1096</ele>
        <time>2015-05-10T07:04:15Z</time>
      </trkpt>
      <trkpt lat="45.38959" lon="4.61536">
        <ele>1097</ele>
        <time>2015-05-10T07:04:17Z</time>
      </trkpt>
      <trkpt lat="45.38962" lon="4.61532">
        <ele>1098</ele>
        <time>2015-05-10T07:04:20Z</time>
      </trkpt>
      <trkpt lat="45.38964" lon="4.61528">
        <ele>1098</ele>
        <time>2015-05-10T07:04:22Z</time>
      </trkpt>
      <trkpt lat="45.38968" lon="4.61524">
        <ele>1099</ele>
        <time>2015-05-10T07:04:25Z</time>
      </trkpt>
      <trkpt lat="45.38972" lon="4.6152">
        <ele>1099</ele>
        <time>2015-05-10T07:04:28Z</time>
      </trkpt>
      <trkpt lat="45.38975" lon="4.61517">
        <ele>1100</ele>
        <time>2015-05-10T07:04:30Z</time>
      </trkpt>
      <trkpt lat="45.38979" lon="4.61513">
        <ele>1101</ele>
        <time>2015-05-10T07:04:33Z</time>
      </trkpt>
      <trkpt lat="45.38983" lon="4.61509">
        <ele>1101</ele>
        <time>2015-05-10T07:04:36Z</time>
      </trkpt>
      <trkpt lat="45.38985" lon="4.61506">
        <ele>1102</ele>
        <time>2015-05-10T07:04:38Z</time>
      </trkpt>
      <trkpt lat="45.38989" lon="4.61502">
        <ele>1102</ele>
        <time>2015-05-10T07:04:41Z</time>
      </trkpt>
      <trkpt lat="45.38991" lon="4.615">
        <ele>1103</ele>
        <time>2015-05-10T07:04:43Z</time>
      </trkpt>
      <trkpt lat="45.38992" lon="4.61498">
        <ele>1103</ele>
        <time>2015-05-10T07:04:45Z</time>
      </trkpt>
      <trkpt lat="45.38995" lon="4.61494">
        <ele>1104</ele>
        <time>2015-05-10T07:04:48Z</time>
      </trkpt>
      <trkpt lat="45.38997" lon="4.61492">
        <ele>1104</ele>
        <time>2015-05-10T07:04:51Z</time>
      </trkpt>
      <trkpt lat="45.38999" lon="4.6149">
        <ele>1105</ele>
        <time>2015-05-10T07:04:53Z</time>
      </trkpt>
      <trkpt lat="45.39002" lon="4.61487">
        <ele>1106</ele>
        <time>2015-05-10T07:04:56Z</time>
      </trkpt>
      <trkpt lat="45.39005" lon="4.61485">
        <ele>1107</ele>
        <time>2015-05-10T07:04:59Z</time>
      </trkpt>
      <trkpt lat="45.39006" lon="4.61484">
        <ele>1107</ele>
        <time>2015-05-10T07:05:01Z</time>
      </trkpt>
      <trkpt lat="45.39009" lon="4.61482">
        <ele>1108</ele>
        <time>2015-05-10T07:05:04Z</time>
      </trkpt>
      <trkpt lat="45.39013" lon="4.61477">
        <ele>1108</ele>
        <time>2015-05-10T07:05:07Z</time>
      </trkpt>
      <trkpt lat="45.39016" lon="4.61475">
        <ele>1108</ele>
        <time>2015-05-10T07:05:09Z</time>
      </trkpt>
      <trkpt lat="45.39018" lon="4.61473">
        <ele>1109</ele>
        <time>2015-05-10T07:05:12Z</time>
      </trkpt>
      <trkpt lat="45.39019" lon="4.61471">
        <ele>1110</ele>
        <time>2015-05-10T07:05:14Z</time>
      </trkpt>
      <trkpt lat="45.3902" lon="4.61469">
        <ele>1110</ele>
        <time>2015-05-10T07:05:17Z</time>
      </trkpt>
      <trkpt lat="45.39022" lon="4.61467">
        <ele>1111</ele>
        <time>2015-05-10T07:05:19Z</time>
      </trkpt>
      <trkpt lat="45.39023" lon="4.61465">
        <ele>1111</ele>
        <time>2015-05-10T07:05:21Z</time>
      </trkpt>
      <trkpt lat="45.39024" lon="4.61464">
        <ele>1111</ele>
        <time>2015-05-10T07:05:23Z</time>
      </trkpt>
      <trkpt lat="45.39026" lon="4.61462">
        <ele>1112</ele>
        <time>2015-05-10T07:05:26Z</time>
      </trkpt>
      <trkpt lat="45.39027" lon="4.61461">
        <ele>1113</ele>
        <time>2015-05-10T07:05:28Z</time>
      </trkpt>
      <trkpt lat="45.39028" lon="4.6146">
        <ele>1114</ele>
        <time>2015-05-10T07:05:30Z</time>
      </trkpt>
      <trkpt lat="45.39029" lon="4.61458">
        <ele>1114</ele>
        <time>2015-05-10T07:05:32Z</time>
      </trkpt>
      <trkpt lat="45.39031" lon="4.61457">
        <ele>1114</ele>
        <time>2015-05-10T07:05:35Z</time>
      </trkpt>
      <trkpt lat="45.39032" lon="4.61456">
        <ele>1115</ele>
        <time>2015-05-10T07:05:37Z</time>
      </trkpt>
      <trkpt lat="45.39035" lon="4.61454">
        <ele>1116</ele>
        <time>2015-05-10T07:05:40Z</time>
      </trkpt>
      <trkpt lat="45.39036" lon="4.61453">
        <ele>1116</ele>
        <time>2015-05-10T07:05:42Z</time>
      </trkpt>
      <trkpt lat="45.39037" lon="4.61451">
        <ele>1117</ele>
        <time>2015-05-10T07:05:45Z</time>
      </trkpt>
      <trkpt lat="45.39039" lon="4.6145">
        <ele>1117</ele>
        <time>2015-05-10T07:05:47Z</time>
      </trkpt>
      <trkpt lat="45.3904" lon="4.61449">
        <ele>1118</ele>
        <time>2015-05-10T07:05:49Z</time>
      </trkpt>
      <trkpt lat="45.39043" lon="4.61447">
        <ele>1118</ele>
        <time>2015-05-10T07:05:52Z</time>
      </trkpt>
      <trkpt lat="45.39044" lon="4.61446">
        <ele>1119</ele>
        <time>2015-05-10T07:05:54Z</time>
      </trkpt>
      <trkpt lat="45.39046" lon="4.61443">
        <ele>1119</ele>
        <time>2015-05-10T07:05:57Z</time>
      </trkpt>
      <trkpt lat="45.39047" lon="4.61441">
        <ele>1120</ele>
        <time>2015-05-10T07:06:00Z</time>
      </trkpt>
      <trkpt lat="45.39048" lon="4.61439">
        <ele>1120</ele>
        <time>2015-05-10T07:06:03Z</time>
      </trkpt>
      <trkpt lat="45.39049" lon="4.61437">
        <ele>1121</ele>
        <time>2015-05-10T07:06:05Z</time>
      </trkpt>
      <trkpt lat="45.3905" lon="4.61435">
        <ele>1121</ele>
        <time>2015-05-10T07:06:07Z</time>
      </trkpt>
      <trkpt lat="45.39052" lon="4.61433">
        <ele>1121</ele>
        <time>2015-05-10T07:06:10Z</time>
      </trkpt>
      <trkpt lat="45.39053" lon="4.61432">
        <ele>1122</ele>
        <time>2015-05-10T07:06:12Z</time>
      </trkpt>
      <trkpt lat="45.39055" lon="4.6143">
        <ele>1122</ele>
        <time>2015-05-10T07:06:14Z</time>
      </trkpt>
      <trkpt lat="45.39056" lon="4.61428">
        <ele>1123</ele>
        <time>2015-05-10T07:06:16Z</time>
      </trkpt>
      <trkpt lat="45.39058" lon="4.61427">
        <ele>1124</ele>
        <time>2015-05-10T07:06:18Z</time>
      </trkpt>
      <trkpt lat="45.3906" lon="4.61425">
        <ele>1125</ele>
        <time>2015-05-10T07:06:21Z</time>
      </trkpt>
      <trkpt lat="45.39061" lon="4.61423">
        <ele>1125</ele>
        <time>2015-05-10T07:06:23Z</time>
      </trkpt>
      <trkpt lat="45.39062" lon="4.61422">
        <ele>1125</ele>
        <time>2015-05-10T07:06:25Z</time>
      </trkpt>
      <trkpt lat="45.39063" lon="4.61421">
        <ele>1126</ele>
        <time>2015-05-10T07:06:27Z</time>
      </trkpt>
      <trkpt lat="45.39065" lon="4.61419">
        <ele>1126</ele>
        <time>2015-05-10T07:06:30Z</time>
      </trkpt>
      <trkpt lat="45.39067" lon="4.61417">
        <ele>1127</ele>
        <time>2015-05-10T07:06:32Z</time>
      </trkpt>
      <trkpt lat="45.39069" lon="4.61414">
        <ele>1128</ele>
        <time>2015-05-10T07:06:35Z</time>
      </trkpt>
      <trkpt lat="45.3907" lon="4.61413">
        <ele>1128</ele>
        <time>2015-05-10T07:06:37Z</time>
      </trkpt>
      <trkpt lat="45.39072" lon="4.61411">
        <ele>1129</ele>
        <time>2015-05-10T07:06:39Z</time>
      </trkpt>
      <trkpt lat="45.39073" lon="4.6141">
        <ele>1129</ele>
        <time>2015-05-10T07:06:41Z</time>
      </trkpt>
      <trkpt lat="45.39074" lon="4.61407">
        <ele>1130</ele>
        <time>2015-05-10T07:06:43Z</time>
      </trkpt>
      <trkpt lat="45.39075" lon="4.61406">
        <ele>1130</ele>
        <time>2015-05-10T07:06:45Z</time>
      </trkpt>
      <trkpt lat="45.39077" lon="4.61404">
        <ele>1131</ele>
        <time>2015-05-10T07:06:48Z</time>
      </trkpt>
      <trkpt lat="45.39078" lon="4.61402">
        <ele>1132</ele>
        <time>2015-05-10T07:06:50Z</time>
      </trkpt>
      <trkpt lat="45.39079" lon="4.61401">
        <ele>1132</ele>
        <time>2015-05-10T07:06:52Z</time>
      </trkpt>
      <trkpt lat="45.3908" lon="4.61399">
        <ele>1133</ele>
        <time>2015-05-10T07:06:54Z</time>
      </trkpt>
      <trkpt lat="45.39082" lon="4.61398">
        <ele>1133</ele>
        <time>2015-05-10T07:06:56Z</time>
      </trkpt>
      <trkpt lat="45.39083" lon="4.61396">
        <ele>1134</ele>
        <time>2015-05-10T07:06:58Z</time>
      </trkpt>
      <trkpt lat="45.39084" lon="4.61395">
        <ele>1134</ele>
        <time>2015-05-10T07:07:00Z</time>
      </trkpt>
      <trkpt lat="45.39085" lon="4.61394">
        <ele>1135</ele>
        <time>2015-05-10T07:07:03Z</time>
      </trkpt>
      <trkpt lat="45.39087" lon="4.61393">
        <ele>1135</ele>
        <time>2015-05-10T07:07:05Z</time>
      </trkpt>
      <trkpt lat="45.39089" lon="4.61393">
        <ele>1136</ele>
        <time>2015-05-10T07:07:08Z</time>
      </trkpt>
      <trkpt lat="45.39091" lon="4.61392">
        <ele>1136</ele>
        <time>2015-05-10T07:07:10Z</time>
      </trkpt>
      <trkpt lat="45.39092" lon="4.61391">
        <ele>1136</ele>
        <time>2015-05-10T07:07:12Z</time>
      </trkpt>
      <trkpt lat="45.39094" lon="4.61389">
        <ele>1137</ele>
        <time>2015-05-10T07:07:15Z</time>
      </trkpt>
      <trkpt lat="45.39096" lon="4.61388">
        <ele>1137</ele>
        <time>2015-05-10T07:07:17Z</time>
      </trkpt>
      <trkpt lat="45.39097" lon="4.61388">
        <ele>1138</ele>
        <time>2015-05-10T07:07:19Z</time>
      </trkpt>
      <trkpt lat="45.39098" lon="4.61387">
        <ele>1138</ele>
        <time>2015-05-10T07:07:21Z</time>
      </trkpt>
      <trkpt lat="45.39099" lon="4.61385">
        <ele>1139</ele>
        <time>2015-05-10T07:07:23Z</time>
      </trkpt>
      <trkpt lat="45.391" lon="4.61384">
        <ele>1139</ele>
        <time>2015-05-10T07:07:26Z</time>
      </trkpt>
      <trkpt lat="45.39101" lon="4.61382">
        <ele>1140</ele>
        <time>2015-05-10T07:07:28Z</time>
      </trkpt>
      <trkpt lat="45.39103" lon="4.61381">
        <ele>1141</ele>
        <time>2015-05-10T07:07:31Z</time>
      </trkpt>
      <trkpt lat="45.39104" lon="4.61379">
        <ele>1142</ele>
        <time>2015-05-10T07:07:33Z</time>
      </trkpt>
      <trkpt lat="45.39105" lon="4.61377">
        <ele>1142</ele>
        <time>2015-05-10T07:07:35Z</time>
      </trkpt>
      <trkpt lat="45.39106" lon="4.61377">
        <ele>1143</ele>
        <time>2015-05-10T07:07:37Z</time>
      </trkpt>
      <trkpt lat="45.39107" lon="4.61374">
        <ele>1144</ele>
        <time>2015-05-10T07:07:40Z</time>
      </trkpt>
      <trkpt lat="45.39107" lon="4.61372">
        <ele>1144</ele>
        <time>2015-05-10T07:07:42Z</time>
      </trkpt>
      <trkpt lat="45.39108" lon="4.6137">
        <ele>1145</ele>
        <time>2015-05-10T07:07:45Z</time>
      </trkpt>
      <trkpt lat="45.3911" lon="4.61366">
        <ele>1146</ele>
        <time>2015-05-10T07:07:48Z</time>
      </trkpt>
      <trkpt lat="45.39111" lon="4.61365">
        <ele>1147</ele>
        <time>2015-05-10T07:07:51Z</time>
      </trkpt>
      <trkpt lat="45.39112" lon="4.61363">
        <ele>1147</ele>
        <time>2015-05-10T07:07:54Z</time>
      </trkpt>
      <trkpt lat="45.39114" lon="4.61361">
        <ele>1148</ele>
        <time>2015-05-10T07:07:57Z</time>
      </trkpt>
      <trkpt lat="45.39114" lon="4.6136">
        <ele>1149</ele>
        <time>2015-05-10T07:07:59Z</time>
      </trkpt>
      <trkpt lat="45.39115" lon="4.61359">
        <ele>1149</ele>
        <time>2015-05-10T07:08:01Z</time>
      </trkpt>
      <trkpt lat="45.39116" lon="4.61357">
        <ele>1150</ele>
        <time>2015-05-10T07:08:03Z</time>
      </trkpt>
      <trkpt lat="45.39117" lon="4.61355">
        <ele>1150</ele>
        <time>2015-05-10T07:08:06Z</time>
      </trkpt>
      <trkpt lat="45.39117" lon="4.61352">
        <ele>1151</ele>
        <time>2015-05-10T07:08:09Z</time>
      </trkpt>
      <trkpt lat="45.39118" lon="4.61351">
        <ele>1152</ele>
        <time>2015-05-10T07:08:11Z</time>
      </trkpt>
      <trkpt lat="45.39119" lon="4.61349">
        <ele>1153</ele>
        <time>2015-05-10T07:08:14Z</time>
      </trkpt>
      <trkpt lat="45.39119" lon="4.61348">
        <ele>1153</ele>
        <time>2015-05-10T07:08:16Z</time>
      </trkpt>
      <trkpt lat="45.39121" lon="4.61348">
        <ele>1154</ele>
        <time>2015-05-10T07:08:19Z</time>
      </trkpt>
      <trkpt lat="45.39122" lon="4.61347">
        <ele>1154</ele>
        <time>2015-05-10T07:08:22Z</time>
      </trkpt>
      <trkpt lat="45.39122" lon="4.61346">
        <ele>1154</ele>
        <time>2015-05-10T07:08:24Z</time>
      </trkpt>
      <trkpt lat="45.39124" lon="4.61345">
        <ele>1155</ele>
        <time>2015-05-10T07:08:26Z</time>
      </trkpt>
      <trkpt lat="45.39125" lon="4.61345">
        <ele>1155</ele>
        <time>2015-05-10T07:08:28Z</time>
      </trkpt>
      <trkpt lat="45.39126" lon="4.61343">
        <ele>1156</ele>
        <time>2015-05-10T07:08:30Z</time>
      </trkpt>
      <trkpt lat="45.39128" lon="4.61343">
        <ele>1157</ele>
        <time>2015-05-10T07:08:33Z</time>
      </trkpt>
      <trkpt lat="45.3913" lon="4.61341">
        <ele>1157</ele>
        <time>2015-05-10T07:08:36Z</time>
      </trkpt>
      <trkpt lat="45.39132" lon="4.61341">
        <ele>1157</ele>
        <time>2015-05-10T07:08:38Z</time>
      </trkpt>
      <trkpt lat="45.39133" lon="4.61339">
        <ele>1158</ele>
        <time>2015-05-10T07:08:40Z</time>
      </trkpt>
      <trkpt lat="45.39136" lon="4.61337">
        <ele>1159</ele>
        <time>2015-05-10T07:08:43Z</time>
      </trkpt>
      <trkpt lat="45.39138" lon="4.61336">
        <ele>1160</ele>
        <time>2015-05-10T07:08:45Z</time>
      </trkpt>
      <trkpt lat="45.39139" lon="4.61335">
        <ele>1160</ele>
        <time>2015-05-10T07:08:47Z</time>
      </trkpt>
      <trkpt lat="45.3914" lon="4.61333">
        <ele>1160</ele>
        <time>2015-05-10T07:08:49Z</time>
      </trkpt>
      <trkpt lat="45.39141" lon="4.61332">
        <ele>1161</ele>
        <time>2015-05-10T07:08:51Z</time>
      </trkpt>
      <trkpt lat="45.39142" lon="4.6133">
        <ele>1161</ele>
        <time>2015-05-10T07:08:54Z</time>
      </trkpt>
      <trkpt lat="45.39143" lon="4.61328">
        <ele>1162</ele>
        <time>2015-05-10T07:08:56Z</time>
      </trkpt>
      <trkpt lat="45.39144" lon="4.61325">
        <ele>1163</ele>
        <time>2015-05-10T07:08:59Z</time>
      </trkpt>
      <trkpt lat="45.39145" lon="4.61324">
        <ele>1163</ele>
        <time>2015-05-10T07:09:01Z</time>
      </trkpt>
      <trkpt lat="45.39147" lon="4.61322">
        <ele>1163</ele>
        <time>2015-05-10T07:09:04Z</time>
      </trkpt>
      <trkpt lat="45.39148" lon="4.61322">
        <ele>1164</ele>
        <time>2015-05-10T07:09:06Z</time>
      </trkpt>
      <trkpt lat="45.39148" lon="4.61321">
        <ele>1165</ele>
        <time>2015-05-10T07:09:08Z</time>
      </trkpt>
      <trkpt lat="45.39149" lon="4.6132">
        <ele>1165</ele>
        <time>2015-05-10T07:09:10Z</time>
      </trkpt>
      <trkpt lat="45.3915" lon="4.61319">
        <ele>1166</ele>
        <time>2015-05-10T07:09:12Z</time>
      </trkpt>
      <trkpt lat="45.39152" lon="4.61319">
        <ele>1166</ele>
        <time>2015-05-10T07:09:15Z</time>
      </trkpt>
      <trkpt lat="45.39153" lon="4.6132">
        <ele>1166</ele>
        <time>2015-05-10T07:09:17Z</time>
      </trkpt>
      <trkpt lat="45.39154" lon="4.6132">
        <ele>1167</ele>
        <time>2015-05-10T07:09:19Z</time>
      </trkpt>
      <trkpt lat="45.39155" lon="4.6132">
        <ele>1167</ele>
        <time>2015-05-10T07:09:21Z</time>
      </trkpt>
      <trkpt lat="45.39157" lon="4.61319">
        <ele>1168</ele>
        <time>2015-05-10T07:09:24Z</time>
      </trkpt>
      <trkpt lat="45.39158" lon="4.61319">
        <ele>1168</ele>
        <time>2015-05-10T07:09:26Z</time>
      </trkpt>
      <trkpt lat="45.39159" lon="4.61318">
        <ele>1169</ele>
        <time>2015-05-10T07:09:28Z</time>
      </trkpt>
      <trkpt lat="45.3916" lon="4.61315">
        <ele>1169</ele>
        <time>2015-05-10T07:09:31Z</time>
      </trkpt>
      <trkpt lat="45.3916" lon="4.61314">
        <ele>1170</ele>
        <time>2015-05-10T07:09:33Z</time>
      </trkpt>
      <trkpt lat="45.39162" lon="4.61312">
        <ele>1171</ele>
        <time>2015-05-10T07:09:36Z</time>
      </trkpt>
      <trkpt lat="45.39163" lon="4.61311">
        <ele>1171</ele>
        <time>2015-05-10T07:09:38Z</time>
      </trkpt>
      <trkpt lat="45.39164" lon="4.61311">
        <ele>1172</ele>
        <time>2015-05-10T07:09:40Z</time>
      </trkpt>
      <trkpt lat="45.39165" lon="4.6131">
        <ele>1172</ele>
        <time>2015-05-10T07:09:42Z</time>
      </trkpt>
      <trkpt lat="45.39166" lon="4.61309">
        <ele>1172</ele>
        <time>2015-05-10T07:09:44Z</time>
      </trkpt>
      <trkpt lat="45.39167" lon="4.61307">
        <ele>1173</ele>
        <time>2015-05-10T07:09:47Z</time>
      </trkpt>
      <trkpt lat="45.39169" lon="4.61305">
        <ele>1173</ele>
        <time>2015-05-10T07:09:49Z</time>
      </trkpt>
      <trkpt lat="45.3917" lon="4.61304">
        <ele>1174</ele>
        <time>2015-05-10T07:09:51Z</time>
      </trkpt>
      <trkpt lat="45.39171" lon="4.61303">
        <ele>1175</ele>
        <time>2015-05-10T07:09:54Z</time>
      </trkpt>
      <trkpt lat="45.39172" lon="4.61303">
        <ele>1175</ele>
        <time>2015-05-10T07:09:56Z</time>
      </trkpt>
      <trkpt lat="45.39174" lon="4.61302">
        <ele>1176</ele>
        <time>2015-05-10T07:09:58Z</time>
      </trkpt>
      <trkpt lat="45.39175" lon="4.613">
        <ele>1176</ele>
        <time>2015-05-10T07:10:00Z</time>
      </trkpt>
      <trkpt lat="45.39176" lon="4.61299">
        <ele>1176</ele>
        <time>2015-05-10T07:10:02Z</time>
      </trkpt>
      <trkpt lat="45.39177" lon="4.61298">
        <ele>1177</ele>
        <time>2015-05-10T07:10:05Z</time>
      </trkpt>
      <trkpt lat="45.39179" lon="4.61295">
        <ele>1178</ele>
        <time>2015-05-10T07:10:08Z</time>
      </trkpt>
      <trkpt lat="45.3918" lon="4.61294">
        <ele>1178</ele>
        <time>2015-05-10T07:10:10Z</time>
      </trkpt>
      <trkpt lat="45.39182" lon="4.61293">
        <ele>1179</ele>
        <time>2015-05-10T07:10:12Z</time>
      </trkpt>
      <trkpt lat="45.39183" lon="4.61292">
        <ele>1179</ele>
        <time>2015-05-10T07:10:14Z</time>
      </trkpt>
      <trkpt lat="45.39184" lon="4.61292">
        <ele>1179</ele>
        <time>2015-05-10T07:10:16Z</time>
      </trkpt>
      <trkpt lat="45.39185" lon="4.61292">
        <ele>1180</ele>
        <time>2015-05-10T07:10:18Z</time>
      </trkpt>
      <trkpt lat="45.39187" lon="4.61292">
        <ele>1180</ele>
        <time>2015-05-10T07:10:21Z</time>
      </trkpt>
      <trkpt lat="45.39189" lon="4.61292">
        <ele>1181</ele>
        <time>2015-05-10T07:10:24Z</time>
      </trkpt>
      <trkpt lat="45.39191" lon="4.61292">
        <ele>1182</ele>
        <time>2015-05-10T07:10:26Z</time>
      </trkpt>
      <trkpt lat="45.39193" lon="4.61293">
        <ele>1183</ele>
        <time>2015-05-10T07:10:29Z</time>
      </trkpt>
      <trkpt lat="45.39195" lon="4.61293">
        <ele>1183</ele>
        <time>2015-05-10T07:10:32Z</time>
      </trkpt>
      <trkpt lat="45.39196" lon="4.61292">
        <ele>1184</ele>
        <time>2015-05-10T07:10:34Z</time>
      </trkpt>
      <trkpt lat="45.39198" lon="4.61292">
        <ele>1184</ele>
        <time>2015-05-10T07:10:37Z</time>
      </trkpt>
      <trkpt lat="45.39199" lon="4.61292">
        <ele>1185</ele>
        <time>2015-05-10T07:10:39Z</time>
      </trkpt>
      <trkpt lat="45.39201" lon="4.61292">
        <ele>1185</ele>
        <time>2015-05-10T07:10:41Z</time>
      </trkpt>
      <trkpt lat="45.39202" lon="4.61291">
        <ele>1185</ele>
        <time>2015-05-10T07:10:44Z</time>
      </trkpt>
      <trkpt lat="45.39203" lon="4.61292">
        <ele>1186</ele>
        <time>2015-05-10T07:10:46Z</time>
      </trkpt>
      <trkpt lat="45.39204" lon="4.61291">
        <ele>1186</ele>
        <time>2015-05-10T07:10:48Z</time>
      </trkpt>
      <trkpt lat="45.39206" lon="4.61289">
        <ele>1187</ele>
        <time>2015-05-10T07:10:51Z</time>
      </trkpt>
      <trkpt lat="45.39208" lon="4.61287">
        <ele>1188</ele>
        <time>2015-05-10T07:10:54Z</time>
      </trkpt>
      <trkpt lat="45.39209" lon="4.61286">
        <ele>1189</ele>
        <time>2015-05-10T07:10:56Z</time>
      </trkpt>
      <trkpt lat="45.3921" lon="4.61284">
        <ele>1189</ele>
        <time>2015-05-10T07:10:59Z</time>
      </trkpt>
      <trkpt lat="45.39212" lon="4.61284">
        <ele>1189</ele>
        <time>2015-05-10T07:11:01Z</time>
      </trkpt>
      <trkpt lat="45.39213" lon="4.61284">
        <ele>1190</ele>
        <time>2015-05-10T07:11:03Z</time>
      </trkpt>
      <trkpt lat="45.39214" lon="4.61284">
        <ele>1190</ele>
        <time>2015-05-10T07:11:06Z</time>
      </trkpt>
      <trkpt lat="45.39216" lon="4.61284">
        <ele>1191</ele>
        <time>2015-05-10T07:11:08Z</time>
      </trkpt>
      <trkpt lat="45.39217" lon="4.61284">
        <ele>1191</ele>
        <time>2015-05-10T07:11:10Z</time>
      </trkpt>
      <trkpt lat="45.39218" lon="4.61283">
        <ele>1192</ele>
        <time>2015-05-10T07:11:12Z</time>
      </trkpt>
      <trkpt lat="45.3922" lon="4.61282">
        <ele>1192</ele>
        <time>2015-05-10T07:11:14Z</time>
      </trkpt>
      <trkpt lat="45.39221" lon="4.6128">
        <ele>1193</ele>
        <time>2015-05-10T07:11:17Z</time>
      </trkpt>
      <trkpt lat="45.39223" lon="4.61278">
        <ele>1193</ele>
        <time>2015-05-10T07:11:19Z</time>
      </trkpt>
      <trkpt lat="45.39224" lon="4.61276">
        <ele>1193</ele>
        <time>2015-05-10T07:11:21Z</time>
      </trkpt>
      <trkpt lat="45.39225" lon="4.61274">
        <ele>1194</ele>
        <time>2015-05-10T07:11:23Z</time>
      </trkpt>
      <trkpt lat="45.39226" lon="4.61272">
        <ele>1195</ele>
        <time>2015-05-10T07:11:26Z</time>
      </trkpt>
      <trkpt lat="45.39227" lon="4.61271">
        <ele>1195</ele>
        <time>2015-05-10T07:11:28Z</time>
      </trkpt>
      <trkpt lat="45.39229" lon="4.61269">
        <ele>1196</ele>
        <time>2015-05-10T07:11:31Z</time>
      </trkpt>
      <trkpt lat="45.39231" lon="4.61267">
        <ele>1196</ele>
        <time>2015-05-10T07:11:33Z</time>
      </trkpt>
      <trkpt lat="45.39233" lon="4.61266">
        <ele>1197</ele>
        <time>2015-05-10T07:11:36Z</time>
      </trkpt>
      <trkpt lat="45.39233" lon="4.61264">
        <ele>1198</ele>
        <time>2015-05-10T07:11:38Z</time>
      </trkpt>
      <trkpt lat="45.39235" lon="4.61262">
        <ele>1198</ele>
        <time>2015-05-10T07:11:41Z</time>
      </trkpt>
      <trkpt lat="45.39236" lon="4.61262">
        <ele>1199</ele>
        <time>2015-05-10T07:11:43Z</time>
      </trkpt>
      <trkpt lat="45.39236" lon="4.6126">
        <ele>1199</ele>
        <time>2015-05-10T07:11:46Z</time>
      </trkpt>
      <trkpt lat="45.39238" lon="4.61257">
        <ele>1200</ele>
        <time>2015-05-10T07:11:49Z</time>
      </trkpt>
      <trkpt lat="45.39239" lon="4.61256">
        <ele>1200</ele>
        <time>2015-05-10T07:11:51Z</time>
      </trkpt>
      <trkpt lat="45.3924" lon="4.61254">
        <ele>1200</ele>
        <time>2015-05-10T07:11:53Z</time>
      </trkpt>
      <trkpt lat="45.39241" lon="4.61253">
        <ele>1201</ele>
        <time>2015-05-10T07:11:55Z</time>
      </trkpt>
      <trkpt lat="45.39241" lon="4.61251">
        <ele>1201</ele>
        <time>2015-05-10T07:11:57Z</time>
      </trkpt>
      <trkpt lat="45.39242" lon="4.6125">
        <ele>1201</ele>
        <time>2015-05-10T07:12:00Z</time>
      </trkpt>
      <trkpt lat="45.39243" lon="4.61248">
        <ele>1202</ele>
        <time>2015-05-10T07:12:02Z</time>
      </trkpt>
      <trkpt lat="45.39243" lon="4.61247">
        <ele>1203</ele>
        <time>2015-05-10T07:12:04Z</time>
      </trkpt>
      <trkpt lat="45.39244" lon="4.61246">
        <ele>1203</ele>
        <time>2015-05-10T07:12:07Z</time>
      </trkpt>
      <trkpt lat="45.39245" lon="4.61245">
        <ele>1204</ele>
        <time>2015-05-10T07:12:09Z</time>
      </trkpt>
      <trkpt lat="45.39246" lon="4.61243">
        <ele>1204</ele>
        <time>2015-05-10T07:12:12Z</time>
      </trkpt>
      <trkpt lat="45.39248" lon="4.61241">
        <ele>1205</ele>
        <time>2015-05-10T07:12:15Z</time>
      </trkpt>
      <trkpt lat="45.39248" lon="4.6124">
        <ele>1205</ele>
        <time>2015-05-10T07:12:17Z</time>
      </trkpt>
      <trkpt lat="45.39249" lon="4.61238">
        <ele>1206</ele>
        <time>2015-05-10T07:12:20Z</time>
      </trkpt>
      <trkpt lat="45.3925" lon="4.61237">
        <ele>1207</ele>
        <time>2015-05-10T07:12:22Z</time>
      </trkpt>
      <trkpt lat="45.39251" lon="4.61237">
        <ele>1207</ele>
        <time>2015-05-10T07:12:25Z</time>
      </trkpt>
      <trkpt lat="45.39251" lon="4.61235">
        <ele>1208</ele>
        <time>2015-05-10T07:12:27Z</time>
      </trkpt>
      <trkpt lat="45.39251" lon="4.61233">
        <ele>1208</ele>
        <time>2015-05-10T07:12:29Z</time>
      </trkpt>
      <trkpt lat="45.39252" lon="4.61231">
        <ele>1209</ele>
        <time>2015-05-10T07:12:32Z</time>
      </trkpt>
      <trkpt lat="45.39253" lon="4.61229">
        <ele>1209</ele>
        <time>2015-05-10T07:12:35Z</time>
      </trkpt>
      <trkpt lat="45.39254" lon="4.61228">
        <ele>1209</ele>
        <time>2015-05-10T07:12:37Z</time>
      </trkpt>
      <trkpt lat="45.39254" lon="4.61228">
        <ele>1210</ele>
        <time>2015-05-10T07:12:39Z</time>
      </trkpt>
      <trkpt lat="45.39256" lon="4.61226">
        <ele>1210</ele>
        <time>2015-05-10T07:12:42Z</time>
      </trkpt>
      <trkpt lat="45.39257" lon="4.61225">
        <ele>1211</ele>
        <time>2015-05-10T07:12:44Z</time>
      </trkpt>
      <trkpt lat="45.39258" lon="4.61225">
        <ele>1211</ele>
        <time>2015-05-10T07:12:46Z</time>
      </trkpt>
      <trkpt lat="45.39259" lon="4.61225">
        <ele>1212</ele>
        <time>2015-05-10T07:12:48Z</time>
      </trkpt>
      <trkpt lat="45.3926" lon="4.61223">
        <ele>1213</ele>
        <time>2015-05-10T07:12:51Z</time>
      </trkpt>
      <trkpt lat="45.39261" lon="4.61222">
        <ele>1213</ele>
        <time>2015-05-10T07:12:53Z</time>
      </trkpt>
      <trkpt lat="45.39264" lon="4.61221">
        <ele>1214</ele>
        <time>2015-05-10T07:12:55Z</time>
      </trkpt>
      <trkpt lat="45.39266" lon="4.6122">
        <ele>1214</ele>
        <time>2015-05-10T07:12:58Z</time>
      </trkpt>
      <trkpt lat="45.39268" lon="4.61219">
        <ele>1214</ele>
        <time>2015-05-10T07:13:00Z</time>
      </trkpt>
      <trkpt lat="45.3927" lon="4.6122">
        <ele>1214</ele>
        <time>2015-05-10T07:13:02Z</time>
      </trkpt>
      <trkpt lat="45.39271" lon="4.6122">
        <ele>1214</ele>
        <time>2015-05-10T07:13:04Z</time>
      </trkpt>
      <trkpt lat="45.39271" lon="4.6122">
        <ele>1214</ele>
        <time>2015-05-10T07:13:06Z</time>
      </trkpt>
      <trkpt lat="45.39272" lon="4.61221">
        <ele>1214</ele>
        <time>2015-05-10T07:13:09Z</time>
      </trkpt>
      <trkpt lat="45.39272" lon="4.61221">
        <ele>1215</ele>
        <time>2015-05-10T07:13:12Z</time>
      </trkpt>
      <trkpt lat="45.39272" lon="4.6122">
        <ele>1215</ele>
        <time>2015-05-10T07:13:14Z</time>
      </trkpt>
      <trkpt lat="45.39272" lon="4.6122">
        <ele>1215</ele>
        <time>2015-05-10T07:13:17Z</time>
      </trkpt>
      <trkpt lat="45.39272" lon="4.6122">
        <ele>1215</ele>
        <time>2015-05-10T07:13:21Z</time>
      </trkpt>
      <trkpt lat="45.39272" lon="4.6122">
        <ele>1215</ele>
        <time>2015-05-10T07:13:24Z</time>
      </trkpt>
      <trkpt lat="45.39272" lon="4.6122">
        <ele>1215</ele>
        <time>2015-05-10T07:13:27Z</time>
      </trkpt>
      <trkpt lat="45.39272" lon="4.61219">
        <ele>1215</ele>
        <time>2015-05-10T07:13:29Z</time>
      </trkpt>
      <trkpt lat="45.39272" lon="4.61219">
        <ele>1215</ele>
        <time>2015-05-10T07:13:32Z</time>
      </trkpt>
      <trkpt lat="45.39279" lon="4.61219">
        <ele>1213</ele>
        <time>2015-05-10T07:13:34Z</time>
      </trkpt>
      <trkpt lat="45.39281" lon="4.61221">
        <ele>1212</ele>
        <time>2015-05-10T07:13:36Z</time>
      </trkpt>
      <trkpt lat="45.39283" lon="4.61223">
        <ele>1212</ele>
        <time>2015-05-10T07:13:38Z</time>
      </trkpt>
      <trkpt lat="45.39285" lon="4.61224">
        <ele>1212</ele>
        <time>2015-05-10T07:13:40Z</time>
      </trkpt>
      <trkpt lat="45.39286" lon="4.61227">
        <ele>1212</ele>
        <time>2015-05-10T07:13:42Z</time>
      </trkpt>
      <trkpt lat="45.39287" lon="4.61229">
        <ele>1211</ele>
        <time>2015-05-10T07:13:44Z</time>
      </trkpt>
      <trkpt lat="45.3929" lon="4.61231">
        <ele>1210</ele>
        <time>2015-05-10T07:13:47Z</time>
      </trkpt>
      <trkpt lat="45.39292" lon="4.61234">
        <ele>1209</ele>
        <time>2015-05-10T07:13:50Z</time>
      </trkpt>
      <trkpt lat="45.39293" lon="4.61236">
        <ele>1208</ele>
        <time>2015-05-10T07:13:52Z</time>
      </trkpt>
      <trkpt lat="45.39294" lon="4.61238">
        <ele>1207</ele>
        <time>2015-05-10T07:13:54Z</time>
      </trkpt>
      <trkpt lat="45.39294" lon="4.61241">
        <ele>1206</ele>
        <time>2015-05-10T07:13:57Z</time>
      </trkpt>
      <trkpt lat="45.39295" lon="4.61243">
        <ele>1205</ele>
        <time>2015-05-10T07:13:59Z</time>
      </trkpt>
      <trkpt lat="45.39297" lon="4.61245">
        <ele>1205</ele>
        <time>2015-05-10T07:14:01Z</time>
      </trkpt>
      <trkpt lat="45.39299" lon="4.61247">
        <ele>1204</ele>
        <time>2015-05-10T07:14:04Z</time>
      </trkpt>
      <trkpt lat="45.39301" lon="4.61248">
        <ele>1204</ele>
        <time>2015-05-10T07:14:07Z</time>
      </trkpt>
      <trkpt lat="45.39303" lon="4.61249">
        <ele>1202</ele>
        <time>2015-05-10T07:14:10Z</time>
      </trkpt>
      <trkpt lat="45.39305" lon="4.61249">
        <ele>1202</ele>
        <time>2015-05-10T07:14:12Z</time>
      </trkpt>
      <trkpt lat="45.39306" lon="4.61253">
        <ele>1201</ele>
        <time>2015-05-10T07:14:15Z</time>
      </trkpt>
      <trkpt lat="45.39307" lon="4.61254">
        <ele>1201</ele>
        <time>2015-05-10T07:14:17Z</time>
      </trkpt>
      <trkpt lat="45.39307" lon="4.61257">
        <ele>1200</ele>
        <time>2015-05-10T07:14:20Z</time>
      </trkpt>
      <trkpt lat="45.39308" lon="4.61259">
        <ele>1199</ele>
        <time>2015-05-10T07:14:22Z</time>
      </trkpt>
      <trkpt lat="45.39308" lon="4.61261">
        <ele>1199</ele>
        <time>2015-05-10T07:14:24Z</time>
      </trkpt>
      <trkpt lat="45.39308" lon="4.61267">
        <ele>1198</ele>
        <time>2015-05-10T07:14:27Z</time>
      </trkpt>
      <trkpt lat="45.39309" lon="4.61269">
        <ele>1198</ele>
        <time>2015-05-10T07:14:29Z</time>
      </trkpt>
      <trkpt lat="45.3931" lon="4.6127">
        <ele>1197</ele>
        <time>2015-05-10T07:14:31Z</time>
      </trkpt>
      <trkpt lat="45.39311" lon="4.61272">
        <ele>1197</ele>
        <time>2015-05-10T07:14:33Z</time>
      </trkpt>
      <trkpt lat="45.39312" lon="4.61273">
        <ele>1197</ele>
        <time>2015-05-10T07:14:36Z</time>
      </trkpt>
      <trkpt lat="45.39314" lon="4.61272">
        <ele>1196</ele>
        <time>2015-05-10T07:14:38Z</time>
      </trkpt>
      <trkpt lat="45.39317" lon="4.61273">
        <ele>1195</ele>
        <time>2015-05-10T07:14:41Z</time>
      </trkpt>
      <trkpt lat="45.39318" lon="4.61276">
        <ele>1194</ele>
        <time>2015-05-10T07:14:43Z</time>
      </trkpt>
      <trkpt lat="45.39318" lon="4.61279">
        <ele>1193</ele>
        <time>2015-05-10T07:14:45Z</time>
      </trkpt>
      <trkpt lat="45.39321" lon="4.6128">
        <ele>1193</ele>
        <time>2015-05-10T07:14:47Z</time>
      </trkpt>
      <trkpt lat="45.39325" lon="4.6128">
        <ele>1191</ele>
        <time>2015-05-10T07:14:50Z</time>
      </trkpt>
      <trkpt lat="45.39328" lon="4.61281">
        <ele>1191</ele>
        <time>2015-05-10T07:14:53Z</time>
      </trkpt>
      <trkpt lat="45.39331" lon="4.61281">
        <ele>1190</ele>
        <time>2015-05-10T07:14:55Z</time>
      </trkpt>
      <trkpt lat="45.39335" lon="4.61282">
        <ele>1189</ele>
        <time>2015-05-10T07:14:58Z</time>
      </trkpt>
      <trkpt lat="45.39339" lon="4.61284">
        <ele>1188</ele>
        <time>2015-05-10T07:15:00Z</time>
      </trkpt>
      <trkpt lat="45.39343" lon="4.61291">
        <ele>1187</ele>
        <time>2015-05-10T07:15:03Z</time>
      </trkpt>
      <trkpt lat="45.39346" lon="4.61293">
        <ele>1186</ele>
        <time>2015-05-10T07:15:05Z</time>
      </trkpt>
      <trkpt lat="45.39349" lon="4.61293">
        <ele>1185</ele>
        <time>2015-05-10T07:15:07Z</time>
      </trkpt>
      <trkpt lat="45.39355" lon="4.61294">
        <ele>1184</ele>
        <time>2015-05-10T07:15:10Z</time>
      </trkpt>
      <trkpt lat="45.39358" lon="4.61295">
        <ele>1183</ele>
        <time>2015-05-10T07:15:12Z</time>
      </trkpt>
      <trkpt lat="45.3936" lon="4.61296">
        <ele>1183</ele>
        <time>2015-05-10T07:15:15Z</time>
      </trkpt>
      <trkpt lat="45.39363" lon="4.61297">
        <ele>1182</ele>
        <time>2015-05-10T07:15:17Z</time>
      </trkpt>
      <trkpt lat="45.39367" lon="4.61298">
        <ele>1181</ele>
        <time>2015-05-10T07:15:19Z</time>
      </trkpt>
      <trkpt lat="45.39373" lon="4.61298">
        <ele>1181</ele>
        <time>2015-05-10T07:15:22Z</time>
      </trkpt>
      <trkpt lat="45.39377" lon="4.61297">
        <ele>1180</ele>
        <time>2015-05-10T07:15:24Z</time>
      </trkpt>
      <trkpt lat="45.39383" lon="4.61296">
        <ele>1180</ele>
        <time>2015-05-10T07:15:27Z</time>
      </trkpt>
      <trkpt lat="45.39387" lon="4.61296">
        <ele>1180</ele>
        <time>2015-05-10T07:15:29Z</time>
      </trkpt>
      <trkpt lat="45.3939" lon="4.61298">
        <ele>1179</ele>
        <time>2015-05-10T07:15:31Z</time>
      </trkpt>
      <trkpt lat="45.39395" lon="4.613">
        <ele>1178</ele>
        <time>2015-05-10T07:15:34Z</time>
      </trkpt>
      <trkpt lat="45.394" lon="4.61302">
        <ele>1176</ele>
        <time>2015-05-10T07:15:37Z</time>
      </trkpt>
      <trkpt lat="45.39403" lon="4.61302">
        <ele>1175</ele>
        <time>2015-05-10T07:15:39Z</time>
      </trkpt>
      <trkpt lat="45.39407" lon="4.61306">
        <ele>1174</ele>
        <time>2015-05-10T07:15:42Z</time>
      </trkpt>
      <trkpt lat="45.39411" lon="4.61306">
        <ele>1173</ele>
        <time>2015-05-10T07:15:45Z</time>
      </trkpt>
      <trkpt lat="45.39415" lon="4.61307">
        <ele>1172</ele>
        <time>2015-05-10T07:15:47Z</time>
      </trkpt>
      <trkpt lat="45.39419" lon="4.61308">
        <ele>1171</ele>
        <time>2015-05-10T07:15:50Z</time>
      </trkpt>
      <trkpt lat="45.39422" lon="4.61308">
        <ele>1170</ele>
        <time>2015-05-10T07:15:52Z</time>
      </trkpt>
      <trkpt lat="45.39427" lon="4.61309">
        <ele>1168</ele>
        <time>2015-05-10T07:15:55Z</time>
      </trkpt>
      <trkpt lat="45.3943" lon="4.6131">
        <ele>1167</ele>
        <time>2015-05-10T07:15:57Z</time>
      </trkpt>
      <trkpt lat="45.39435" lon="4.61311">
        <ele>1167</ele>
        <time>2015-05-10T07:16:00Z</time>
      </trkpt>
      <trkpt lat="45.39439" lon="4.61311">
        <ele>1166</ele>
        <time>2015-05-10T07:16:02Z</time>
      </trkpt>
      <trkpt lat="45.39443" lon="4.61311">
        <ele>1166</ele>
        <time>2015-05-10T07:16:05Z</time>
      </trkpt>
      <trkpt lat="45.39449" lon="4.61313">
        <ele>1164</ele>
        <time>2015-05-10T07:16:08Z</time>
      </trkpt>
      <trkpt lat="45.39453" lon="4.61312">
        <ele>1164</ele>
        <time>2015-05-10T07:16:10Z</time>
      </trkpt>
      <trkpt lat="45.39457" lon="4.61312">
        <ele>1163</ele>
        <time>2015-05-10T07:16:12Z</time>
      </trkpt>
      <trkpt lat="45.39462" lon="4.61314">
        <ele>1162</ele>
        <time>2015-05-10T07:16:15Z</time>
      </trkpt>
      <trkpt lat="45.39467" lon="4.61314">
        <ele>1162</ele>
        <time>2015-05-10T07:16:17Z</time>
      </trkpt>
      <trkpt lat="45.39472" lon="4.61317">
        <ele>1161</ele>
        <time>2015-05-10T07:16:20Z</time>
      </trkpt>
      <trkpt lat="45.39476" lon="4.61317">
        <ele>1160</ele>
        <time>2015-05-10T07:16:22Z</time>
      </trkpt>
      <trkpt lat="45.39479" lon="4.61318">
        <ele>1159</ele>
        <time>2015-05-10T07:16:24Z</time>
      </trkpt>
      <trkpt lat="45.39483" lon="4.61319">
        <ele>1158</ele>
        <time>2015-05-10T07:16:26Z</time>
      </trkpt>
      <trkpt lat="45.39486" lon="4.61317">
        <ele>1157</ele>
        <time>2015-05-10T07:16:28Z</time>
      </trkpt>
      <trkpt lat="45.3949" lon="4.61315">
        <ele>1157</ele>
        <time>2015-05-10T07:16:30Z</time>
      </trkpt>
      <trkpt lat="45.39496" lon="4.61311">
        <ele>1156</ele>
        <time>2015-05-10T07:16:33Z</time>
      </trkpt>
      <trkpt lat="45.39502" lon="4.61307">
        <ele>1156</ele>
        <time>2015-05-10T07:16:35Z</time>
      </trkpt>
      <trkpt lat="45.39507" lon="4.61307">
        <ele>1155</ele>
        <time>2015-05-10T07:16:37Z</time>
      </trkpt>
      <trkpt lat="45.39512" lon="4.61307">
        <ele>1155</ele>
        <time>2015-05-10T07:16:39Z</time>
      </trkpt>
      <trkpt lat="45.39518" lon="4.61308">
        <ele>1154</ele>
        <time>2015-05-10T07:16:42Z</time>
      </trkpt>
      <trkpt lat="45.39522" lon="4.61308">
        <ele>1154</ele>
        <time>2015-05-10T07:16:44Z</time>
      </trkpt>
      <trkpt lat="45.39529" lon="4.6131">
        <ele>1152</ele>
        <time>2015-05-10T07:16:47Z</time>
      </trkpt>
      <trkpt lat="45.39534" lon="4.61314">
        <ele>1151</ele>
        <time>2015-05-10T07:16:50Z</time>
      </trkpt>
      <trkpt lat="45.39537" lon="4.61317">
        <ele>1150</ele>
        <time>2015-05-10T07:16:52Z</time>
      </trkpt>
      <trkpt lat="45.3954" lon="4.6132">
        <ele>1150</ele>
        <time>2015-05-10T07:16:54Z</time>
      </trkpt>
      <trkpt lat="45.39543" lon="4.61324">
        <ele>1149</ele>
        <time>2015-05-10T07:16:56Z</time>
      </trkpt>
      <trkpt lat="45.3955" lon="4.61328">
        <ele>1149</ele>
        <time>2015-05-10T07:16:59Z</time>
      </trkpt>
      <trkpt lat="45.39554" lon="4.6133">
        <ele>1148</ele>
        <time>2015-05-10T07:17:01Z</time>
      </trkpt>
      <trkpt lat="45.39561" lon="4.61333">
        <ele>1147</ele>
        <time>2015-05-10T07:17:04Z</time>
      </trkpt>
      <trkpt lat="45.39565" lon="4.61333">
        <ele>1146</ele>
        <time>2015-05-10T07:17:06Z</time>
      </trkpt>
      <trkpt lat="45.39571" lon="4.61335">
        <ele>1145</ele>
        <time>2015-05-10T07:17:09Z</time>
      </trkpt>
      <trkpt lat="45.39575" lon="4.61336">
        <ele>1145</ele>
        <time>2015-05-10T07:17:12Z</time>
      </trkpt>
      <trkpt lat="45.39579" lon="4.61339">
        <ele>1144</ele>
        <time>2015-05-10T07:17:14Z</time>
      </trkpt>
      <trkpt lat="45.39583" lon="4.61341">
        <ele>1143</ele>
        <time>2015-05-10T07:17:16Z</time>
      </trkpt>
      <trkpt lat="45.39587" lon="4.61344">
        <ele>1142</ele>
        <time>2015-05-10T07:17:18Z</time>
      </trkpt>
      <trkpt lat="45.39592" lon="4.61345">
        <ele>1141</ele>
        <time>2015-05-10T07:17:20Z</time>
      </trkpt>
      <trkpt lat="45.39598" lon="4.61348">
        <ele>1139</ele>
        <time>2015-05-10T07:17:23Z</time>
      </trkpt>
      <trkpt lat="45.39604" lon="4.61351">
        <ele>1138</ele>
        <time>2015-05-10T07:17:26Z</time>
      </trkpt>
      <trkpt lat="45.39608" lon="4.61353">
        <ele>1138</ele>
        <time>2015-05-10T07:17:28Z</time>
      </trkpt>
      <trkpt lat="45.39613" lon="4.61354">
        <ele>1137</ele>
        <time>2015-05-10T07:17:30Z</time>
      </trkpt>
      <trkpt lat="45.39617" lon="4.61354">
        <ele>1137</ele>
        <time>2015-05-10T07:17:32Z</time>
      </trkpt>
      <trkpt lat="45.39624" lon="4.61358">
        <ele>1137</ele>
        <time>2015-05-10T07:17:35Z</time>
      </trkpt>
      <trkpt lat="45.39628" lon="4.6136">
        <ele>1136</ele>
        <time>2015-05-10T07:17:37Z</time>
      </trkpt>
      <trkpt lat="45.39634" lon="4.61361">
        <ele>1136</ele>
        <time>2015-05-10T07:17:40Z</time>
      </trkpt>
      <trkpt lat="45.39641" lon="4.61363">
        <ele>1136</ele>
        <time>2015-05-10T07:17:43Z</time>
      </trkpt>
      <trkpt lat="45.39647" lon="4.61364">
        <ele>1135</ele>
        <time>2015-05-10T07:17:45Z</time>
      </trkpt>
      <trkpt lat="45.39653" lon="4.61366">
        <ele>1135</ele>
        <time>2015-05-10T07:17:47Z</time>
      </trkpt>
      <trkpt lat="45.39661" lon="4.61368">
        <ele>1135</ele>
        <time>2015-05-10T07:17:50Z</time>
      </trkpt>
      <trkpt lat="45.39668" lon="4.61365">
        <ele>1135</ele>
        <time>2015-05-10T07:17:53Z</time>
      </trkpt>
      <trkpt lat="45.39672" lon="4.61364">
        <ele>1135</ele>
        <time>2015-05-10T07:17:55Z</time>
      </trkpt>
      <trkpt lat="45.3968" lon="4.61367">
        <ele>1134</ele>
        <time>2015-05-10T07:17:58Z</time>
      </trkpt>
      <trkpt lat="45.39684" lon="4.6137">
        <ele>1133</ele>
        <time>2015-05-10T07:18:00Z</time>
      </trkpt>
      <trkpt lat="45.39688" lon="4.61373">
        <ele>1133</ele>
        <time>2015-05-10T07:18:02Z</time>
      </trkpt>
      <trkpt lat="45.39693" lon="4.61375">
        <ele>1133</ele>
        <time>2015-05-10T07:18:04Z</time>
      </trkpt>
      <trkpt lat="45.39701" lon="4.61376">
        <ele>1133</ele>
        <time>2015-05-10T07:18:07Z</time>
      </trkpt>
      <trkpt lat="45.39706" lon="4.61376">
        <ele>1133</ele>
        <time>2015-05-10T07:18:09Z</time>
      </trkpt>
      <trkpt lat="45.39713" lon="4.61378">
        <ele>1133</ele>
        <time>2015-05-10T07:18:12Z</time>
      </trkpt>
      <trkpt lat="45.39719" lon="4.6138">
        <ele>1133</ele>
        <time>2015-05-10T07:18:14Z</time>
      </trkpt>
      <trkpt lat="45.39725" lon="4.61383">
        <ele>1133</ele>
        <time>2015-05-10T07:18:16Z</time>
      </trkpt>
      <trkpt lat="45.39729" lon="4.61385">
        <ele>1133</ele>
        <time>2015-05-10T07:18:18Z</time>
      </trkpt>
      <trkpt lat="45.39734" lon="4.61386">
        <ele>1133</ele>
        <time>2015-05-10T07:18:20Z</time>
      </trkpt>
      <trkpt lat="45.3974" lon="4.61387">
        <ele>1133</ele>
        <time>2015-05-10T07:18:23Z</time>
      </trkpt>
      <trkpt lat="45.39745" lon="4.61387">
        <ele>1133</ele>
        <time>2015-05-10T07:18:25Z</time>
      </trkpt>
      <trkpt lat="45.39751" lon="4.61385">
        <ele>1133</ele>
        <time>2015-05-10T07:18:28Z</time>
      </trkpt>
      <trkpt lat="45.39756" lon="4.61385">
        <ele>1134</ele>
        <time>2015-05-10T07:18:30Z</time>
      </trkpt>
      <trkpt lat="45.39763" lon="4.61385">
        <ele>1133</ele>
        <time>2015-05-10T07:18:33Z</time>
      </trkpt>
      <trkpt lat="45.39767" lon="4.61385">
        <ele>1133</ele>
        <time>2015-05-10T07:18:35Z</time>
      </trkpt>
      <trkpt lat="45.39774" lon="4.61386">
        <ele>1133</ele>
        <time>2015-05-10T07:18:38Z</time>
      </trkpt>
      <trkpt lat="45.3978" lon="4.6139">
        <ele>1132</ele>
        <time>2015-05-10T07:18:41Z</time>
      </trkpt>
      <trkpt lat="45.39783" lon="4.61392">
        <ele>1132</ele>
        <time>2015-05-10T07:18:43Z</time>
      </trkpt>
      <trkpt lat="45.39787" lon="4.61395">
        <ele>1131</ele>
        <time>2015-05-10T07:18:45Z</time>
      </trkpt>
      <trkpt lat="45.39793" lon="4.61398">
        <ele>1131</ele>
        <time>2015-05-10T07:18:48Z</time>
      </trkpt>
      <trkpt lat="45.39798" lon="4.61401">
        <ele>1130</ele>
        <time>2015-05-10T07:18:50Z</time>
      </trkpt>
      <trkpt lat="45.39802" lon="4.61404">
        <ele>1129</ele>
        <time>2015-05-10T07:18:52Z</time>
      </trkpt>
      <trkpt lat="45.39806" lon="4.61407">
        <ele>1128</ele>
        <time>2015-05-10T07:18:54Z</time>
      </trkpt>
      <trkpt lat="45.39811" lon="4.61411">
        <ele>1127</ele>
        <time>2015-05-10T07:18:56Z</time>
      </trkpt>
      <trkpt lat="45.39814" lon="4.61413">
        <ele>1127</ele>
        <time>2015-05-10T07:18:58Z</time>
      </trkpt>
      <trkpt lat="45.3982" lon="4.61418">
        <ele>1127</ele>
        <time>2015-05-10T07:19:01Z</time>
      </trkpt>
      <trkpt lat="45.39824" lon="4.6142">
        <ele>1127</ele>
        <time>2015-05-10T07:19:03Z</time>
      </trkpt>
      <trkpt lat="45.3983" lon="4.61423">
        <ele>1127</ele>
        <time>2015-05-10T07:19:06Z</time>
      </trkpt>
      <trkpt lat="45.39834" lon="4.61425">
        <ele>1127</ele>
        <time>2015-05-10T07:19:08Z</time>
      </trkpt>
      <trkpt lat="45.39838" lon="4.61427">
        <ele>1128</ele>
        <time>2015-05-10T07:19:10Z</time>
      </trkpt>
      <trkpt lat="45.39845" lon="4.61431">
        <ele>1127</ele>
        <time>2015-05-10T07:19:13Z</time>
      </trkpt>
      <trkpt lat="45.39849" lon="4.61434">
        <ele>1127</ele>
        <time>2015-05-10T07:19:15Z</time>
      </trkpt>
      <trkpt lat="45.39855" lon="4.61438">
        <ele>1127</ele>
        <time>2015-05-10T07:19:18Z</time>
      </trkpt>
      <trkpt lat="45.3986" lon="4.6144">
        <ele>1127</ele>
        <time>2015-05-10T07:19:20Z</time>
      </trkpt>
      <trkpt lat="45.39868" lon="4.61444">
        <ele>1127</ele>
        <time>2015-05-10T07:19:23Z</time>
      </trkpt>
      <trkpt lat="45.39872" lon="4.61447">
        <ele>1127</ele>
        <time>2015-05-10T07:19:25Z</time>
      </trkpt>
      <trkpt lat="45.39877" lon="4.6145">
        <ele>1126</ele>
        <time>2015-05-10T07:19:27Z</time>
      </trkpt>
      <trkpt lat="45.39883" lon="4.61457">
        <ele>1126</ele>
        <time>2015-05-10T07:19:30Z</time>
      </trkpt>
      <trkpt lat="45.39888" lon="4.61461">
        <ele>1125</ele>
        <time>2015-05-10T07:19:32Z</time>
      </trkpt>
      <trkpt lat="45.39893" lon="4.61468">
        <ele>1125</ele>
        <time>2015-05-10T07:19:35Z</time>
      </trkpt>
      <trkpt lat="45.39896" lon="4.61473">
        <ele>1125</ele>
        <time>2015-05-10T07:19:37Z</time>
      </trkpt>
      <trkpt lat="45.39901" lon="4.6148">
        <ele>1124</ele>
        <time>2015-05-10T07:19:40Z</time>
      </trkpt>
      <trkpt lat="45.39907" lon="4.61486">
        <ele>1124</ele>
        <time>2015-05-10T07:19:43Z</time>
      </trkpt>
      <trkpt lat="45.39911" lon="4.6149">
        <ele>1124</ele>
        <time>2015-05-10T07:19:45Z</time>
      </trkpt>
      <trkpt lat="45.39917" lon="4.61497">
        <ele>1124</ele>
        <time>2015-05-10T07:19:48Z</time>
      </trkpt>
      <trkpt lat="45.39921" lon="4.615">
        <ele>1124</ele>
        <time>2015-05-10T07:19:50Z</time>
      </trkpt>
      <trkpt lat="45.39926" lon="4.61502">
        <ele>1123</ele>
        <time>2015-05-10T07:19:52Z</time>
      </trkpt>
      <trkpt lat="45.39929" lon="4.61506">
        <ele>1123</ele>
        <time>2015-05-10T07:19:55Z</time>
      </trkpt>
      <trkpt lat="45.39932" lon="4.61508">
        <ele>1123</ele>
        <time>2015-05-10T07:19:57Z</time>
      </trkpt>
      <trkpt lat="45.39939" lon="4.61511">
        <ele>1121</ele>
        <time>2015-05-10T07:20:00Z</time>
      </trkpt>
      <trkpt lat="45.39944" lon="4.61514">
        <ele>1121</ele>
        <time>2015-05-10T07:20:02Z</time>
      </trkpt>
      <trkpt lat="45.39948" lon="4.61517">
        <ele>1121</ele>
        <time>2015-05-10T07:20:04Z</time>
      </trkpt>
      <trkpt lat="45.39952" lon="4.6152">
        <ele>1121</ele>
        <time>2015-05-10T07:20:06Z</time>
      </trkpt>
      <trkpt lat="45.39959" lon="4.61522">
        <ele>1120</ele>
        <time>2015-05-10T07:20:09Z</time>
      </trkpt>
      <trkpt lat="45.39965" lon="4.61522">
        <ele>1120</ele>
        <time>2015-05-10T07:20:11Z</time>
      </trkpt>
      <trkpt lat="45.3997" lon="4.61523">
        <ele>1120</ele>
        <time>2015-05-10T07:20:13Z</time>
      </trkpt>
      <trkpt lat="45.39978" lon="4.61525">
        <ele>1120</ele>
        <time>2015-05-10T07:20:16Z</time>
      </trkpt>
      <trkpt lat="45.39983" lon="4.61529">
        <ele>1120</ele>
        <time>2015-05-10T07:20:18Z</time>
      </trkpt>
      <trkpt lat="45.39991" lon="4.61534">
        <ele>1119</ele>
        <time>2015-05-10T07:20:21Z</time>
      </trkpt>
      <trkpt lat="45.39996" lon="4.61539">
        <ele>1118</ele>
        <time>2015-05-10T07:20:23Z</time>
      </trkpt>
      <trkpt lat="45.40001" lon="4.61545">
        <ele>1118</ele>
        <time>2015-05-10T07:20:25Z</time>
      </trkpt>
      <trkpt lat="45.40009" lon="4.61549">
        <ele>1117</ele>
        <time>2015-05-10T07:20:28Z</time>
      </trkpt>
      <trkpt lat="45.40014" lon="4.61547">
        <ele>1116</ele>
        <time>2015-05-10T07:20:30Z</time>
      </trkpt>
      <trkpt lat="45.40021" lon="4.61544">
        <ele>1116</ele>
        <time>2015-05-10T07:20:32Z</time>
      </trkpt>
      <trkpt lat="45.40026" lon="4.61541">
        <ele>1115</ele>
        <time>2015-05-10T07:20:35Z</time>
      </trkpt>
      <trkpt lat="45.40033" lon="4.61538">
        <ele>1115</ele>
        <time>2015-05-10T07:20:38Z</time>
      </trkpt>
      <trkpt lat="45.4004" lon="4.61536">
        <ele>1115</ele>
        <time>2015-05-10T07:20:41Z</time>
      </trkpt>
      <trkpt lat="45.40047" lon="4.61532">
        <ele>1115</ele>
        <time>2015-05-10T07:20:44Z</time>
      </trkpt>
      <trkpt lat="45.40052" lon="4.61529">
        <ele>1115</ele>
        <time>2015-05-10T07:20:47Z</time>
      </trkpt>
      <trkpt lat="45.40059" lon="4.61525">
        <ele>1115</ele>
        <time>2015-05-10T07:20:50Z</time>
      </trkpt>
      <trkpt lat="45.40065" lon="4.61521">
        <ele>1114</ele>
        <time>2015-05-10T07:20:53Z</time>
      </trkpt>
      <trkpt lat="45.4007" lon="4.61519">
        <ele>1114</ele>
        <time>2015-05-10T07:20:55Z</time>
      </trkpt>
      <trkpt lat="45.40078" lon="4.61516">
        <ele>1113</ele>
        <time>2015-05-10T07:20:58Z</time>
      </trkpt>
      <trkpt lat="45.40086" lon="4.61512">
        <ele>1113</ele>
        <time>2015-05-10T07:21:01Z</time>
      </trkpt>
      <trkpt lat="45.40095" lon="4.61507">
        <ele>1113</ele>
        <time>2015-05-10T07:21:04Z</time>
      </trkpt>
      <trkpt lat="45.401" lon="4.61504">
        <ele>1112</ele>
        <time>2015-05-10T07:21:06Z</time>
      </trkpt>
      <trkpt lat="45.40104" lon="4.61501">
        <ele>1112</ele>
        <time>2015-05-10T07:21:08Z</time>
      </trkpt>
      <trkpt lat="45.40108" lon="4.61497">
        <ele>1112</ele>
        <time>2015-05-10T07:21:10Z</time>
      </trkpt>
      <trkpt lat="45.40115" lon="4.61491">
        <ele>1113</ele>
        <time>2015-05-10T07:21:13Z</time>
      </trkpt>
      <trkpt lat="45.40122" lon="4.61485">
        <ele>1113</ele>
        <time>2015-05-10T07:21:16Z</time>
      </trkpt>
      <trkpt lat="45.40131" lon="4.6148">
        <ele>1113</ele>
        <time>2015-05-10T07:21:19Z</time>
      </trkpt>
      <trkpt lat="45.40136" lon="4.61476">
        <ele>1112</ele>
        <time>2015-05-10T07:21:21Z</time>
      </trkpt>
      <trkpt lat="45.40142" lon="4.61472">
        <ele>1113</ele>
        <time>2015-05-10T07:21:23Z</time>
      </trkpt>
      <trkpt lat="45.4015" lon="4.61466">
        <ele>1112</ele>
        <time>2015-05-10T07:21:26Z</time>
      </trkpt>
      <trkpt lat="45.40156" lon="4.61462">
        <ele>1113</ele>
        <time>2015-05-10T07:21:28Z</time>
      </trkpt>
      <trkpt lat="45.40165" lon="4.61457">
        <ele>1113</ele>
        <time>2015-05-10T07:21:31Z</time>
      </trkpt>
      <trkpt lat="45.40171" lon="4.61454">
        <ele>1113</ele>
        <time>2015-05-10T07:21:33Z</time>
      </trkpt>
      <trkpt lat="45.40177" lon="4.61451">
        <ele>1113</ele>
        <time>2015-05-10T07:21:35Z</time>
      </trkpt>
      <trkpt lat="45.40183" lon="4.6145">
        <ele>1114</ele>
        <time>2015-05-10T07:21:37Z</time>
      </trkpt>
      <trkpt lat="45.40188" lon="4.61448">
        <ele>1114</ele>
        <time>2015-05-10T07:21:39Z</time>
      </trkpt>
      <trkpt lat="45.40193" lon="4.61447">
        <ele>1114</ele>
        <time>2015-05-10T07:21:41Z</time>
      </trkpt>
      <trkpt lat="45.40198" lon="4.61446">
        <ele>1114</ele>
        <time>2015-05-10T07:21:43Z</time>
      </trkpt>
      <trkpt lat="45.40204" lon="4.61443">
        <ele>1115</ele>
        <time>2015-05-10T07:21:46Z</time>
      </trkpt>
      <trkpt lat="45.40208" lon="4.61443">
        <ele>1115</ele>
        <time>2015-05-10T07:21:48Z</time>
      </trkpt>
      <trkpt lat="45.40213" lon="4.61442">
        <ele>1115</ele>
        <time>2015-05-10T07:21:50Z</time>
      </trkpt>
      <trkpt lat="45.40216" lon="4.61439">
        <ele>1115</ele>
        <time>2015-05-10T07:21:52Z</time>
      </trkpt>
      <trkpt lat="45.40223" lon="4.61434">
        <ele>1116</ele>
        <time>2015-05-10T07:21:55Z</time>
      </trkpt>
      <trkpt lat="45.40231" lon="4.61428">
        <ele>1117</ele>
        <time>2015-05-10T07:21:58Z</time>
      </trkpt>
      <trkpt lat="45.40239" lon="4.61425">
        <ele>1118</ele>
        <time>2015-05-10T07:22:01Z</time>
      </trkpt>
      <trkpt lat="45.40247" lon="4.61423">
        <ele>1117</ele>
        <time>2015-05-10T07:22:04Z</time>
      </trkpt>
      <trkpt lat="45.40256" lon="4.61422">
        <ele>1118</ele>
        <time>2015-05-10T07:22:07Z</time>
      </trkpt>
      <trkpt lat="45.40261" lon="4.61423">
        <ele>1117</ele>
        <time>2015-05-10T07:22:09Z</time>
      </trkpt>
      <trkpt lat="45.4027" lon="4.61422">
        <ele>1118</ele>
        <time>2015-05-10T07:22:12Z</time>
      </trkpt>
      <trkpt lat="45.40276" lon="4.61422">
        <ele>1118</ele>
        <time>2015-05-10T07:22:14Z</time>
      </trkpt>
      <trkpt lat="45.40285" lon="4.61422">
        <ele>1118</ele>
        <time>2015-05-10T07:22:17Z</time>
      </trkpt>
      <trkpt lat="45.4029" lon="4.61422">
        <ele>1118</ele>
        <time>2015-05-10T07:22:19Z</time>
      </trkpt>
      <trkpt lat="45.40298" lon="4.61422">
        <ele>1118</ele>
        <time>2015-05-10T07:22:22Z</time>
      </trkpt>
      <trkpt lat="45.40304" lon="4.61422">
        <ele>1118</ele>
        <time>2015-05-10T07:22:24Z</time>
      </trkpt>
      <trkpt lat="45.40309" lon="4.61422">
        <ele>1118</ele>
        <time>2015-05-10T07:22:26Z</time>
      </trkpt>
      <trkpt lat="45.40315" lon="4.61422">
        <ele>1118</ele>
        <time>2015-05-10T07:22:28Z</time>
      </trkpt>
      <trkpt lat="45.4032" lon="4.61421">
        <ele>1118</ele>
        <time>2015-05-10T07:22:30Z</time>
      </trkpt>
      <trkpt lat="45.40327" lon="4.61421">
        <ele>1118</ele>
        <time>2015-05-10T07:22:33Z</time>
      </trkpt>
      <trkpt lat="45.40331" lon="4.61421">
        <ele>1118</ele>
        <time>2015-05-10T07:22:35Z</time>
      </trkpt>
      <trkpt lat="45.40336" lon="4.61421">
        <ele>1118</ele>
        <time>2015-05-10T07:22:37Z</time>
      </trkpt>
      <trkpt lat="45.40343" lon="4.6142">
        <ele>1119</ele>
        <time>2015-05-10T07:22:40Z</time>
      </trkpt>
      <trkpt lat="45.40348" lon="4.6142">
        <ele>1118</ele>
        <time>2015-05-10T07:22:42Z</time>
      </trkpt>
      <trkpt lat="45.40353" lon="4.6142">
        <ele>1118</ele>
        <time>2015-05-10T07:22:44Z</time>
      </trkpt>
      <trkpt lat="45.40358" lon="4.61419">
        <ele>1118</ele>
        <time>2015-05-10T07:22:46Z</time>
      </trkpt>
      <trkpt lat="45.40363" lon="4.61418">
        <ele>1118</ele>
        <time>2015-05-10T07:22:48Z</time>
      </trkpt>
      <trkpt lat="45.40368" lon="4.61418">
        <ele>1118</ele>
        <time>2015-05-10T07:22:50Z</time>
      </trkpt>
      <trkpt lat="45.40376" lon="4.61417">
        <ele>1118</ele>
        <time>2015-05-10T07:22:53Z</time>
      </trkpt>
      <trkpt lat="45.40384" lon="4.61415">
        <ele>1118</ele>
        <time>2015-05-10T07:22:56Z</time>
      </trkpt>
      <trkpt lat="45.40389" lon="4.61414">
        <ele>1119</ele>
        <time>2015-05-10T07:22:58Z</time>
      </trkpt>
      <trkpt lat="45.40397" lon="4.61411">
        <ele>1119</ele>
        <time>2015-05-10T07:23:01Z</time>
      </trkpt>
      <trkpt lat="45.40403" lon="4.6141">
        <ele>1119</ele>
        <time>2015-05-10T07:23:03Z</time>
      </trkpt>
      <trkpt lat="45.40408" lon="4.6141">
        <ele>1119</ele>
        <time>2015-05-10T07:23:05Z</time>
      </trkpt>
      <trkpt lat="45.40414" lon="4.6141">
        <ele>1118</ele>
        <time>2015-05-10T07:23:07Z</time>
      </trkpt>
      <trkpt lat="45.40422" lon="4.61408">
        <ele>1117</ele>
        <time>2015-05-10T07:23:10Z</time>
      </trkpt>
      <trkpt lat="45.40427" lon="4.61405">
        <ele>1117</ele>
        <time>2015-05-10T07:23:12Z</time>
      </trkpt>
      <trkpt lat="45.40435" lon="4.61403">
        <ele>1116</ele>
        <time>2015-05-10T07:23:15Z</time>
      </trkpt>
      <trkpt lat="45.40442" lon="4.61404">
        <ele>1115</ele>
        <time>2015-05-10T07:23:18Z</time>
      </trkpt>
      <trkpt lat="45.40446" lon="4.61406">
        <ele>1114</ele>
        <time>2015-05-10T07:23:20Z</time>
      </trkpt>
      <trkpt lat="45.40452" lon="4.61406">
        <ele>1112</ele>
        <time>2015-05-10T07:23:23Z</time>
      </trkpt>
      <trkpt lat="45.40456" lon="4.61407">
        <ele>1112</ele>
        <time>2015-05-10T07:23:25Z</time>
      </trkpt>
      <trkpt lat="45.4046" lon="4.61406">
        <ele>1111</ele>
        <time>2015-05-10T07:23:27Z</time>
      </trkpt>
      <trkpt lat="45.40467" lon="4.61406">
        <ele>1109</ele>
        <time>2015-05-10T07:23:30Z</time>
      </trkpt>
      <trkpt lat="45.40471" lon="4.61408">
        <ele>1108</ele>
        <time>2015-05-10T07:23:32Z</time>
      </trkpt>
      <trkpt lat="45.40477" lon="4.6141">
        <ele>1106</ele>
        <time>2015-05-10T07:23:35Z</time>
      </trkpt>
      <trkpt lat="45.40481" lon="4.61411">
        <ele>1105</ele>
        <time>2015-05-10T07:23:37Z</time>
      </trkpt>
      <trkpt lat="45.40485" lon="4.61411">
        <ele>1104</ele>
        <time>2015-05-10T07:23:39Z</time>
      </trkpt>
      <trkpt lat="45.40492" lon="4.61411">
        <ele>1104</ele>
        <time>2015-05-10T07:23:42Z</time>
      </trkpt>
      <trkpt lat="45.40497" lon="4.6141">
        <ele>1103</ele>
        <time>2015-05-10T07:23:44Z</time>
      </trkpt>
      <trkpt lat="45.40503" lon="4.61411">
        <ele>1102</ele>
        <time>2015-05-10T07:23:46Z</time>
      </trkpt>
      <trkpt lat="45.40511" lon="4.61412">
        <ele>1100</ele>
        <time>2015-05-10T07:23:49Z</time>
      </trkpt>
      <trkpt lat="45.40517" lon="4.61413">
        <ele>1099</ele>
        <time>2015-05-10T07:23:51Z</time>
      </trkpt>
      <trkpt lat="45.40522" lon="4.61413">
        <ele>1099</ele>
        <time>2015-05-10T07:23:53Z</time>
      </trkpt>
      <trkpt lat="45.40529" lon="4.61417">
        <ele>1098</ele>
        <time>2015-05-10T07:23:56Z</time>
      </trkpt>
      <trkpt lat="45.40536" lon="4.61418">
        <ele>1097</ele>
        <time>2015-05-10T07:23:59Z</time>
      </trkpt>
      <trkpt lat="45.40541" lon="4.61418">
        <ele>1097</ele>
        <time>2015-05-10T07:24:01Z</time>
      </trkpt>
      <trkpt lat="45.40549" lon="4.61416">
        <ele>1096</ele>
        <time>2015-05-10T07:24:04Z</time>
      </trkpt>
      <trkpt lat="45.40557" lon="4.61415">
        <ele>1095</ele>
        <time>2015-05-10T07:24:07Z</time>
      </trkpt>
      <trkpt lat="45.40562" lon="4.61414">
        <ele>1094</ele>
        <time>2015-05-10T07:24:09Z</time>
      </trkpt>
      <trkpt lat="45.40567" lon="4.6141">
        <ele>1093</ele>
        <time>2015-05-10T07:24:11Z</time>
      </trkpt>
      <trkpt lat="45.40571" lon="4.61409">
        <ele>1092</ele>
        <time>2015-05-10T07:24:13Z</time>
      </trkpt>
      <trkpt lat="45.40575" lon="4.61407">
        <ele>1092</ele>
        <time>2015-05-10T07:24:15Z</time>
      </trkpt>
      <trkpt lat="45.40581" lon="4.61406">
        <ele>1091</ele>
        <time>2015-05-10T07:24:18Z</time>
      </trkpt>
      <trkpt lat="45.40585" lon="4.61408">
        <ele>1089</ele>
        <time>2015-05-10T07:24:20Z</time>
      </trkpt>
      <trkpt lat="45.40591" lon="4.61412">
        <ele>1088</ele>
        <time>2015-05-10T07:24:23Z</time>
      </trkpt>
      <trkpt lat="45.40594" lon="4.61413">
        <ele>1088</ele>
        <time>2015-05-10T07:24:25Z</time>
      </trkpt>
      <trkpt lat="45.406" lon="4.61414">
        <ele>1087</ele>
        <time>2015-05-10T07:24:28Z</time>
      </trkpt>
      <trkpt lat="45.40606" lon="4.61414">
        <ele>1085</ele>
        <time>2015-05-10T07:24:31Z</time>
      </trkpt>
      <trkpt lat="45.40611" lon="4.61416">
        <ele>1084</ele>
        <time>2015-05-10T07:24:33Z</time>
      </trkpt>
      <trkpt lat="45.40615" lon="4.61418">
        <ele>1083</ele>
        <time>2015-05-10T07:24:35Z</time>
      </trkpt>
      <trkpt lat="45.40622" lon="4.61418">
        <ele>1082</ele>
        <time>2015-05-10T07:24:38Z</time>
      </trkpt>
      <trkpt lat="45.40629" lon="4.61417">
        <ele>1080</ele>
        <time>2015-05-10T07:24:41Z</time>
      </trkpt>
      <trkpt lat="45.40634" lon="4.61416">
        <ele>1079</ele>
        <time>2015-05-10T07:24:43Z</time>
      </trkpt>
      <trkpt lat="45.40641" lon="4.61416">
        <ele>1078</ele>
        <time>2015-05-10T07:24:46Z</time>
      </trkpt>
      <trkpt lat="45.40649" lon="4.61418">
        <ele>1077</ele>
        <time>2015-05-10T07:24:49Z</time>
      </trkpt>
      <trkpt lat="45.40654" lon="4.61419">
        <ele>1076</ele>
        <time>2015-05-10T07:24:51Z</time>
      </trkpt>
      <trkpt lat="45.40661" lon="4.61421">
        <ele>1076</ele>
        <time>2015-05-10T07:24:54Z</time>
      </trkpt>
      <trkpt lat="45.40666" lon="4.61422">
        <ele>1075</ele>
        <time>2015-05-10T07:24:56Z</time>
      </trkpt>
      <trkpt lat="45.40671" lon="4.61422">
        <ele>1075</ele>
        <time>2015-05-10T07:24:58Z</time>
      </trkpt>
      <trkpt lat="45.4068" lon="4.61422">
        <ele>1074</ele>
        <time>2015-05-10T07:25:01Z</time>
      </trkpt>
      <trkpt lat="45.40686" lon="4.61421">
        <ele>1074</ele>
        <time>2015-05-10T07:25:03Z</time>
      </trkpt>
      <trkpt lat="45.40691" lon="4.6142">
        <ele>1074</ele>
        <time>2015-05-10T07:25:05Z</time>
      </trkpt>
      <trkpt lat="45.40697" lon="4.6142">
        <ele>1073</ele>
        <time>2015-05-10T07:25:07Z</time>
      </trkpt>
      <trkpt lat="45.40703" lon="4.6142">
        <ele>1073</ele>
        <time>2015-05-10T07:25:09Z</time>
      </trkpt>
      <trkpt lat="45.40708" lon="4.61419">
        <ele>1073</ele>
        <time>2015-05-10T07:25:11Z</time>
      </trkpt>
      <trkpt lat="45.40712" lon="4.61419">
        <ele>1072</ele>
        <time>2015-05-10T07:25:13Z</time>
      </trkpt>
      <trkpt lat="45.40719" lon="4.61417">
        <ele>1072</ele>
        <time>2015-05-10T07:25:16Z</time>
      </trkpt>
      <trkpt lat="45.40723" lon="4.61416">
        <ele>1073</ele>
        <time>2015-05-10T07:25:18Z</time>
      </trkpt>
      <trkpt lat="45.4073" lon="4.61414">
        <ele>1074</ele>
        <time>2015-05-10T07:25:21Z</time>
      </trkpt>
      <trkpt lat="45.40734" lon="4.61412">
        <ele>1074</ele>
        <time>2015-05-10T07:25:23Z</time>
      </trkpt>
      <trkpt lat="45.40738" lon="4.6141">
        <ele>1075</ele>
        <time>2015-05-10T07:25:25Z</time>
      </trkpt>
      <trkpt lat="45.40742" lon="4.61408">
        <ele>1075</ele>
        <time>2015-05-10T07:25:27Z</time>
      </trkpt>
      <trkpt lat="45.40747" lon="4.61405">
        <ele>1075</ele>
        <time>2015-05-10T07:25:29Z</time>
      </trkpt>
      <trkpt lat="45.40752" lon="4.61402">
        <ele>1075</ele>
        <time>2015-05-10T07:25:32Z</time>
      </trkpt>
      <trkpt lat="45.40757" lon="4.614">
        <ele>1075</ele>
        <time>2015-05-10T07:25:34Z</time>
      </trkpt>
      <trkpt lat="45.40761" lon="4.61398">
        <ele>1075</ele>
        <time>2015-05-10T07:25:36Z</time>
      </trkpt>
      <trkpt lat="45.40768" lon="4.61394">
        <ele>1076</ele>
        <time>2015-05-10T07:25:39Z</time>
      </trkpt>
      <trkpt lat="45.40772" lon="4.61392">
        <ele>1076</ele>
        <time>2015-05-10T07:25:41Z</time>
      </trkpt>
      <trkpt lat="45.40778" lon="4.61387">
        <ele>1076</ele>
        <time>2015-05-10T07:25:44Z</time>
      </trkpt>
      <trkpt lat="45.40783" lon="4.61384">
        <ele>1077</ele>
        <time>2015-05-10T07:25:46Z</time>
      </trkpt>
      <trkpt lat="45.40787" lon="4.6138">
        <ele>1077</ele>
        <time>2015-05-10T07:25:48Z</time>
      </trkpt>
      <trkpt lat="45.40793" lon="4.61374">
        <ele>1078</ele>
        <time>2015-05-10T07:25:51Z</time>
      </trkpt>
      <trkpt lat="45.40798" lon="4.6137">
        <ele>1078</ele>
        <time>2015-05-10T07:25:53Z</time>
      </trkpt>
      <trkpt lat="45.40802" lon="4.61365">
        <ele>1079</ele>
        <time>2015-05-10T07:25:55Z</time>
      </trkpt>
      <trkpt lat="45.40807" lon="4.6136">
        <ele>1079</ele>
        <time>2015-05-10T07:25:57Z</time>
      </trkpt>
      <trkpt lat="45.40813" lon="4.61352">
        <ele>1079</ele>
        <time>2015-05-10T07:26:00Z</time>
      </trkpt>
      <trkpt lat="45.40817" lon="4.61348">
        <ele>1079</ele>
        <time>2015-05-10T07:26:02Z</time>
      </trkpt>
      <trkpt lat="45.40822" lon="4.61339">
        <ele>1079</ele>
        <time>2015-05-10T07:26:05Z</time>
      </trkpt>
      <trkpt lat="45.40829" lon="4.61331">
        <ele>1079</ele>
        <time>2015-05-10T07:26:08Z</time>
      </trkpt>
      <trkpt lat="45.40832" lon="4.61326">
        <ele>1079</ele>
        <time>2015-05-10T07:26:10Z</time>
      </trkpt>
      <trkpt lat="45.40839" lon="4.61318">
        <ele>1079</ele>
        <time>2015-05-10T07:26:13Z</time>
      </trkpt>
      <trkpt lat="45.40843" lon="4.61314">
        <ele>1078</ele>
        <time>2015-05-10T07:26:15Z</time>
      </trkpt>
      <trkpt lat="45.4085" lon="4.61307">
        <ele>1079</ele>
        <time>2015-05-10T07:26:18Z</time>
      </trkpt>
      <trkpt lat="45.40856" lon="4.61301">
        <ele>1079</ele>
        <time>2015-05-10T07:26:21Z</time>
      </trkpt>
      <trkpt lat="45.40861" lon="4.61297">
        <ele>1079</ele>
        <time>2015-05-10T07:26:23Z</time>
      </trkpt>
      <trkpt lat="45.40868" lon="4.61289">
        <ele>1078</ele>
        <time>2015-05-10T07:26:26Z</time>
      </trkpt>
      <trkpt lat="45.40872" lon="4.61284">
        <ele>1078</ele>
        <time>2015-05-10T07:26:28Z</time>
      </trkpt>
      <trkpt lat="45.40878" lon="4.61276">
        <ele>1078</ele>
        <time>2015-05-10T07:26:31Z</time>
      </trkpt>
      <trkpt lat="45.40881" lon="4.61271">
        <ele>1079</ele>
        <time>2015-05-10T07:26:33Z</time>
      </trkpt>
      <trkpt lat="45.40888" lon="4.61264">
        <ele>1079</ele>
        <time>2015-05-10T07:26:36Z</time>
      </trkpt>
      <trkpt lat="45.40894" lon="4.61255">
        <ele>1078</ele>
        <time>2015-05-10T07:26:39Z</time>
      </trkpt>
      <trkpt lat="45.40898" lon="4.61249">
        <ele>1078</ele>
        <time>2015-05-10T07:26:41Z</time>
      </trkpt>
      <trkpt lat="45.40904" lon="4.6124">
        <ele>1077</ele>
        <time>2015-05-10T07:26:44Z</time>
      </trkpt>
      <trkpt lat="45.40907" lon="4.61234">
        <ele>1076</ele>
        <time>2015-05-10T07:26:46Z</time>
      </trkpt>
      <trkpt lat="45.40912" lon="4.61224">
        <ele>1076</ele>
        <time>2015-05-10T07:26:49Z</time>
      </trkpt>
      <trkpt lat="45.40916" lon="4.61218">
        <ele>1075</ele>
        <time>2015-05-10T07:26:51Z</time>
      </trkpt>
      <trkpt lat="45.40923" lon="4.61209">
        <ele>1074</ele>
        <time>2015-05-10T07:26:54Z</time>
      </trkpt>
      <trkpt lat="45.40929" lon="4.61202">
        <ele>1073</ele>
        <time>2015-05-10T07:26:57Z</time>
      </trkpt>
      <trkpt lat="45.40934" lon="4.61198">
        <ele>1072</ele>
        <time>2015-05-10T07:26:59Z</time>
      </trkpt>
      <trkpt lat="45.40939" lon="4.61194">
        <ele>1072</ele>
        <time>2015-05-10T07:27:01Z</time>
      </trkpt>
      <trkpt lat="45.40946" lon="4.61187">
        <ele>1071</ele>
        <time>2015-05-10T07:27:04Z</time>
      </trkpt>
      <trkpt lat="45.40951" lon="4.61183">
        <ele>1071</ele>
        <time>2015-05-10T07:27:06Z</time>
      </trkpt>
      <trkpt lat="45.40958" lon="4.61177">
        <ele>1070</ele>
        <time>2015-05-10T07:27:09Z</time>
      </trkpt>
      <trkpt lat="45.40962" lon="4.61174">
        <ele>1070</ele>
        <time>2015-05-10T07:27:11Z</time>
      </trkpt>
      <trkpt lat="45.40969" lon="4.61167">
        <ele>1070</ele>
        <time>2015-05-10T07:27:14Z</time>
      </trkpt>
      <trkpt lat="45.40975" lon="4.61164">
        <ele>1069</ele>
        <time>2015-05-10T07:27:16Z</time>
      </trkpt>
      <trkpt lat="45.40981" lon="4.61161">
        <ele>1067</ele>
        <time>2015-05-10T07:27:18Z</time>
      </trkpt>
      <trkpt lat="45.40989" lon="4.61156">
        <ele>1067</ele>
        <time>2015-05-10T07:27:21Z</time>
      </trkpt>
      <trkpt lat="45.40993" lon="4.61152">
        <ele>1067</ele>
        <time>2015-05-10T07:27:23Z</time>
      </trkpt>
      <trkpt lat="45.40997" lon="4.61148">
        <ele>1067</ele>
        <time>2015-05-10T07:27:25Z</time>
      </trkpt>
      <trkpt lat="45.41002" lon="4.61143">
        <ele>1067</ele>
        <time>2015-05-10T07:27:27Z</time>
      </trkpt>
      <trkpt lat="45.41009" lon="4.61137">
        <ele>1066</ele>
        <time>2015-05-10T07:27:30Z</time>
      </trkpt>
      <trkpt lat="45.41014" lon="4.61132">
        <ele>1065</ele>
        <time>2015-05-10T07:27:32Z</time>
      </trkpt>
      <trkpt lat="45.41021" lon="4.61125">
        <ele>1064</ele>
        <time>2015-05-10T07:27:35Z</time>
      </trkpt>
      <trkpt lat="45.41025" lon="4.61119">
        <ele>1064</ele>
        <time>2015-05-10T07:27:37Z</time>
      </trkpt>
      <trkpt lat="45.41033" lon="4.61111">
        <ele>1064</ele>
        <time>2015-05-10T07:27:40Z</time>
      </trkpt>
      <trkpt lat="45.41037" lon="4.61106">
        <ele>1063</ele>
        <time>2015-05-10T07:27:42Z</time>
      </trkpt>
      <trkpt lat="45.41042" lon="4.61101">
        <ele>1063</ele>
        <time>2015-05-10T07:27:44Z</time>
      </trkpt>
      <trkpt lat="45.41048" lon="4.61093">
        <ele>1062</ele>
        <time>2015-05-10T07:27:47Z</time>
      </trkpt>
      <trkpt lat="45.41052" lon="4.61088">
        <ele>1062</ele>
        <time>2015-05-10T07:27:49Z</time>
      </trkpt>
      <trkpt lat="45.41058" lon="4.61079">
        <ele>1061</ele>
        <time>2015-05-10T07:27:52Z</time>
      </trkpt>
      <trkpt lat="45.41061" lon="4.61073">
        <ele>1061</ele>
        <time>2015-05-10T07:27:54Z</time>
      </trkpt>
      <trkpt lat="45.41066" lon="4.61065">
        <ele>1059</ele>
        <time>2015-05-10T07:27:57Z</time>
      </trkpt>
      <trkpt lat="45.41071" lon="4.61059">
        <ele>1059</ele>
        <time>2015-05-10T07:27:59Z</time>
      </trkpt>
      <trkpt lat="45.41076" lon="4.61053">
        <ele>1058</ele>
        <time>2015-05-10T07:28:01Z</time>
      </trkpt>
      <trkpt lat="45.41079" lon="4.61047">
        <ele>1058</ele>
        <time>2015-05-10T07:28:03Z</time>
      </trkpt>
      <trkpt lat="45.41086" lon="4.61039">
        <ele>1058</ele>
        <time>2015-05-10T07:28:06Z</time>
      </trkpt>
      <trkpt lat="45.41089" lon="4.61034">
        <ele>1057</ele>
        <time>2015-05-10T07:28:08Z</time>
      </trkpt>
      <trkpt lat="45.41095" lon="4.61026">
        <ele>1057</ele>
        <time>2015-05-10T07:28:11Z</time>
      </trkpt>
      <trkpt lat="45.41098" lon="4.61019">
        <ele>1057</ele>
        <time>2015-05-10T07:28:13Z</time>
      </trkpt>
      <trkpt lat="45.41103" lon="4.61007">
        <ele>1056</ele>
        <time>2015-05-10T07:28:16Z</time>
      </trkpt>
      <trkpt lat="45.41106" lon="4.61001">
        <ele>1055</ele>
        <time>2015-05-10T07:28:18Z</time>
      </trkpt>
      <trkpt lat="45.41109" lon="4.6099">
        <ele>1055</ele>
        <time>2015-05-10T07:28:21Z</time>
      </trkpt>
      <trkpt lat="45.41112" lon="4.60984">
        <ele>1055</ele>
        <time>2015-05-10T07:28:23Z</time>
      </trkpt>
      <trkpt lat="45.41115" lon="4.60972">
        <ele>1054</ele>
        <time>2015-05-10T07:28:26Z</time>
      </trkpt>
      <trkpt lat="45.41119" lon="4.60963">
        <ele>1053</ele>
        <time>2015-05-10T07:28:29Z</time>
      </trkpt>
      <trkpt lat="45.41122" lon="4.60955">
        <ele>1052</ele>
        <time>2015-05-10T07:28:31Z</time>
      </trkpt>
      <trkpt lat="45.41124" lon="4.60948">
        <ele>1052</ele>
        <time>2015-05-10T07:28:33Z</time>
      </trkpt>
      <trkpt lat="45.41127" lon="4.60935">
        <ele>1051</ele>
        <time>2015-05-10T07:28:36Z</time>
      </trkpt>
      <trkpt lat="45.41129" lon="4.60928">
        <ele>1050</ele>
        <time>2015-05-10T07:28:38Z</time>
      </trkpt>
      <trkpt lat="45.41132" lon="4.6092">
        <ele>1049</ele>
        <time>2015-05-10T07:28:41Z</time>
      </trkpt>
      <trkpt lat="45.41133" lon="4.60912">
        <ele>1049</ele>
        <time>2015-05-10T07:28:43Z</time>
      </trkpt>
      <trkpt lat="45.41134" lon="4.60905">
        <ele>1048</ele>
        <time>2015-05-10T07:28:45Z</time>
      </trkpt>
      <trkpt lat="45.41136" lon="4.60894">
        <ele>1048</ele>
        <time>2015-05-10T07:28:48Z</time>
      </trkpt>
      <trkpt lat="45.41138" lon="4.60888">
        <ele>1047</ele>
        <time>2015-05-10T07:28:50Z</time>
      </trkpt>
      <trkpt lat="45.4114" lon="4.60881">
        <ele>1046</ele>
        <time>2015-05-10T07:28:52Z</time>
      </trkpt>
      <trkpt lat="45.41142" lon="4.60869">
        <ele>1045</ele>
        <time>2015-05-10T07:28:55Z</time>
      </trkpt>
      <trkpt lat="45.41144" lon="4.60858">
        <ele>1044</ele>
        <time>2015-05-10T07:28:58Z</time>
      </trkpt>
      <trkpt lat="45.41146" lon="4.60845">
        <ele>1044</ele>
        <time>2015-05-10T07:29:01Z</time>
      </trkpt>
      <trkpt lat="45.41148" lon="4.60839">
        <ele>1043</ele>
        <time>2015-05-10T07:29:03Z</time>
      </trkpt>
      <trkpt lat="45.4115" lon="4.60831">
        <ele>1043</ele>
        <time>2015-05-10T07:29:05Z</time>
      </trkpt>
      <trkpt lat="45.41152" lon="4.60824">
        <ele>1042</ele>
        <time>2015-05-10T07:29:07Z</time>
      </trkpt>
      <trkpt lat="45.41155" lon="4.60816">
        <ele>1042</ele>
        <time>2015-05-10T07:29:10Z</time>
      </trkpt>
      <trkpt lat="45.41157" lon="4.6081">
        <ele>1041</ele>
        <time>2015-05-10T07:29:12Z</time>
      </trkpt>
      <trkpt lat="45.41161" lon="4.60803">
        <ele>1040</ele>
        <time>2015-05-10T07:29:14Z</time>
      </trkpt>
      <trkpt lat="45.41166" lon="4.60793">
        <ele>1039</ele>
        <time>2015-05-10T07:29:17Z</time>
      </trkpt>
      <trkpt lat="45.41169" lon="4.60782">
        <ele>1038</ele>
        <time>2015-05-10T07:29:20Z</time>
      </trkpt>
      <trkpt lat="45.41172" lon="4.60775">
        <ele>1038</ele>
        <time>2015-05-10T07:29:22Z</time>
      </trkpt>
      <trkpt lat="45.41177" lon="4.60766">
        <ele>1037</ele>
        <time>2015-05-10T07:29:25Z</time>
      </trkpt>
      <trkpt lat="45.41181" lon="4.60759">
        <ele>1037</ele>
        <time>2015-05-10T07:29:27Z</time>
      </trkpt>
      <trkpt lat="45.41187" lon="4.60751">
        <ele>1036</ele>
        <time>2015-05-10T07:29:30Z</time>
      </trkpt>
      <trkpt lat="45.41191" lon="4.60747">
        <ele>1035</ele>
        <time>2015-05-10T07:29:32Z</time>
      </trkpt>
      <trkpt lat="45.41197" lon="4.60745">
        <ele>1033</ele>
        <time>2015-05-10T07:29:35Z</time>
      </trkpt>
      <trkpt lat="45.41201" lon="4.60742">
        <ele>1032</ele>
        <time>2015-05-10T07:29:37Z</time>
      </trkpt>
      <trkpt lat="45.41205" lon="4.60737">
        <ele>1031</ele>
        <time>2015-05-10T07:29:39Z</time>
      </trkpt>
      <trkpt lat="45.41208" lon="4.60732">
        <ele>1030</ele>
        <time>2015-05-10T07:29:41Z</time>
      </trkpt>
      <trkpt lat="45.41213" lon="4.60726">
        <ele>1028</ele>
        <time>2015-05-10T07:29:44Z</time>
      </trkpt>
      <trkpt lat="45.41217" lon="4.60723">
        <ele>1027</ele>
        <time>2015-05-10T07:29:46Z</time>
      </trkpt>
      <trkpt lat="45.41221" lon="4.60719">
        <ele>1026</ele>
        <time>2015-05-10T07:29:49Z</time>
      </trkpt>
      <trkpt lat="45.41227" lon="4.60714">
        <ele>1025</ele>
        <time>2015-05-10T07:29:52Z</time>
      </trkpt>
      <trkpt lat="45.41232" lon="4.6071">
        <ele>1023</ele>
        <time>2015-05-10T07:29:55Z</time>
      </trkpt>
      <trkpt lat="45.41236" lon="4.60707">
        <ele>1021</ele>
        <time>2015-05-10T07:29:58Z</time>
      </trkpt>
      <trkpt lat="45.41242" lon="4.60704">
        <ele>1019</ele>
        <time>2015-05-10T07:30:01Z</time>
      </trkpt>
      <trkpt lat="45.41245" lon="4.60701">
        <ele>1018</ele>
        <time>2015-05-10T07:30:03Z</time>
      </trkpt>
      <trkpt lat="45.41247" lon="4.60698">
        <ele>1017</ele>
        <time>2015-05-10T07:30:05Z</time>
      </trkpt>
      <trkpt lat="45.41252" lon="4.60696">
        <ele>1016</ele>
        <time>2015-05-10T07:30:08Z</time>
      </trkpt>
      <trkpt lat="45.41257" lon="4.60694">
        <ele>1015</ele>
        <time>2015-05-10T07:30:11Z</time>
      </trkpt>
      <trkpt lat="45.41262" lon="4.60693">
        <ele>1014</ele>
        <time>2015-05-10T07:30:13Z</time>
      </trkpt>
      <trkpt lat="45.41265" lon="4.60693">
        <ele>1013</ele>
        <time>2015-05-10T07:30:15Z</time>
      </trkpt>
      <trkpt lat="45.41272" lon="4.60693">
        <ele>1012</ele>
        <time>2015-05-10T07:30:18Z</time>
      </trkpt>
      <trkpt lat="45.41276" lon="4.60694">
        <ele>1011</ele>
        <time>2015-05-10T07:30:20Z</time>
      </trkpt>
      <trkpt lat="45.41284" lon="4.60697">
        <ele>1010</ele>
        <time>2015-05-10T07:30:23Z</time>
      </trkpt>
      <trkpt lat="45.41291" lon="4.60703">
        <ele>1009</ele>
        <time>2015-05-10T07:30:26Z</time>
      </trkpt>
      <trkpt lat="45.413" lon="4.60705">
        <ele>1009</ele>
        <time>2015-05-10T07:30:29Z</time>
      </trkpt>
      <trkpt lat="45.41306" lon="4.60708">
        <ele>1008</ele>
        <time>2015-05-10T07:30:31Z</time>
      </trkpt>
      <trkpt lat="45.41314" lon="4.60711">
        <ele>1007</ele>
        <time>2015-05-10T07:30:34Z</time>
      </trkpt>
      <trkpt lat="45.41321" lon="4.60715">
        <ele>1007</ele>
        <time>2015-05-10T07:30:37Z</time>
      </trkpt>
      <trkpt lat="45.41327" lon="4.60719">
        <ele>1007</ele>
        <time>2015-05-10T07:30:39Z</time>
      </trkpt>
      <trkpt lat="45.41333" lon="4.60722">
        <ele>1007</ele>
        <time>2015-05-10T07:30:41Z</time>
      </trkpt>
      <trkpt lat="45.4134" lon="4.60725">
        <ele>1007</ele>
        <time>2015-05-10T07:30:44Z</time>
      </trkpt>
      <trkpt lat="45.4135" lon="4.60729">
        <ele>1006</ele>
        <time>2015-05-10T07:30:47Z</time>
      </trkpt>
      <trkpt lat="45.41359" lon="4.60732">
        <ele>1005</ele>
        <time>2015-05-10T07:30:50Z</time>
      </trkpt>
      <trkpt lat="45.41365" lon="4.60733">
        <ele>1005</ele>
        <time>2015-05-10T07:30:52Z</time>
      </trkpt>
      <trkpt lat="45.41375" lon="4.60732">
        <ele>1003</ele>
        <time>2015-05-10T07:30:55Z</time>
      </trkpt>
      <trkpt lat="45.41382" lon="4.60733">
        <ele>1003</ele>
        <time>2015-05-10T07:30:57Z</time>
      </trkpt>
      <trkpt lat="45.41391" lon="4.60735">
        <ele>1002</ele>
        <time>2015-05-10T07:31:00Z</time>
      </trkpt>
      <trkpt lat="45.41398" lon="4.60737">
        <ele>1002</ele>
        <time>2015-05-10T07:31:02Z</time>
      </trkpt>
      <trkpt lat="45.41408" lon="4.60739">
        <ele>1002</ele>
        <time>2015-05-10T07:31:05Z</time>
      </trkpt>
      <trkpt lat="45.41414" lon="4.6074">
        <ele>1002</ele>
        <time>2015-05-10T07:31:07Z</time>
      </trkpt>
      <trkpt lat="45.41422" lon="4.60738">
        <ele>1000</ele>
        <time>2015-05-10T07:31:10Z</time>
      </trkpt>
      <trkpt lat="45.41426" lon="4.60739">
        <ele>1000</ele>
        <time>2015-05-10T07:31:12Z</time>
      </trkpt>
      <trkpt lat="45.41432" lon="4.60739">
        <ele>999</ele>
        <time>2015-05-10T07:31:14Z</time>
      </trkpt>
      <trkpt lat="45.41438" lon="4.60738">
        <ele>998</ele>
        <time>2015-05-10T07:31:16Z</time>
      </trkpt>
      <trkpt lat="45.41447" lon="4.60738">
        <ele>997</ele>
        <time>2015-05-10T07:31:19Z</time>
      </trkpt>
      <trkpt lat="45.41451" lon="4.60739">
        <ele>997</ele>
        <time>2015-05-10T07:31:21Z</time>
      </trkpt>
      <trkpt lat="45.4146" lon="4.60739">
        <ele>996</ele>
        <time>2015-05-10T07:31:24Z</time>
      </trkpt>
      <trkpt lat="45.41469" lon="4.6074">
        <ele>996</ele>
        <time>2015-05-10T07:31:27Z</time>
      </trkpt>
      <trkpt lat="45.41477" lon="4.60738">
        <ele>995</ele>
        <time>2015-05-10T07:31:30Z</time>
      </trkpt>
      <trkpt lat="45.41483" lon="4.60738">
        <ele>994</ele>
        <time>2015-05-10T07:31:32Z</time>
      </trkpt>
      <trkpt lat="45.41489" lon="4.60738">
        <ele>994</ele>
        <time>2015-05-10T07:31:34Z</time>
      </trkpt>
      <trkpt lat="45.41494" lon="4.60738">
        <ele>993</ele>
        <time>2015-05-10T07:31:36Z</time>
      </trkpt>
      <trkpt lat="45.41503" lon="4.60738">
        <ele>992</ele>
        <time>2015-05-10T07:31:39Z</time>
      </trkpt>
      <trkpt lat="45.41508" lon="4.60738">
        <ele>992</ele>
        <time>2015-05-10T07:31:41Z</time>
      </trkpt>
      <trkpt lat="45.41516" lon="4.60737">
        <ele>991</ele>
        <time>2015-05-10T07:31:44Z</time>
      </trkpt>
      <trkpt lat="45.41521" lon="4.60736">
        <ele>991</ele>
        <time>2015-05-10T07:31:46Z</time>
      </trkpt>
      <trkpt lat="45.41527" lon="4.60734">
        <ele>990</ele>
        <time>2015-05-10T07:31:48Z</time>
      </trkpt>
      <trkpt lat="45.41534" lon="4.60732">
        <ele>988</ele>
        <time>2015-05-10T07:31:51Z</time>
      </trkpt>
      <trkpt lat="45.41539" lon="4.60731">
        <ele>988</ele>
        <time>2015-05-10T07:31:53Z</time>
      </trkpt>
      <trkpt lat="45.41546" lon="4.6073">
        <ele>986</ele>
        <time>2015-05-10T07:31:56Z</time>
      </trkpt>
      <trkpt lat="45.41551" lon="4.60729">
        <ele>986</ele>
        <time>2015-05-10T07:31:58Z</time>
      </trkpt>
      <trkpt lat="45.41555" lon="4.60728">
        <ele>985</ele>
        <time>2015-05-10T07:32:00Z</time>
      </trkpt>
      <trkpt lat="45.41562" lon="4.60725">
        <ele>984</ele>
        <time>2015-05-10T07:32:03Z</time>
      </trkpt>
      <trkpt lat="45.41567" lon="4.60724">
        <ele>984</ele>
        <time>2015-05-10T07:32:05Z</time>
      </trkpt>
      <trkpt lat="45.41573" lon="4.60723">
        <ele>984</ele>
        <time>2015-05-10T07:32:07Z</time>
      </trkpt>
      <trkpt lat="45.41581" lon="4.60721">
        <ele>983</ele>
        <time>2015-05-10T07:32:10Z</time>
      </trkpt>
      <trkpt lat="45.41587" lon="4.6072">
        <ele>983</ele>
        <time>2015-05-10T07:32:12Z</time>
      </trkpt>
      <trkpt lat="45.41593" lon="4.60719">
        <ele>983</ele>
        <time>2015-05-10T07:32:14Z</time>
      </trkpt>
      <trkpt lat="45.41601" lon="4.60715">
        <ele>983</ele>
        <time>2015-05-10T07:32:17Z</time>
      </trkpt>
      <trkpt lat="45.41607" lon="4.60715">
        <ele>982</ele>
        <time>2015-05-10T07:32:19Z</time>
      </trkpt>
      <trkpt lat="45.41616" lon="4.60716">
        <ele>981</ele>
        <time>2015-05-10T07:32:22Z</time>
      </trkpt>
      <trkpt lat="45.41624" lon="4.60717">
        <ele>980</ele>
        <time>2015-05-10T07:32:25Z</time>
      </trkpt>
      <trkpt lat="45.41632" lon="4.60717">
        <ele>979</ele>
        <time>2015-05-10T07:32:28Z</time>
      </trkpt>
      <trkpt lat="45.41641" lon="4.60718">
        <ele>978</ele>
        <time>2015-05-10T07:32:31Z</time>
      </trkpt>
      <trkpt lat="45.41647" lon="4.60719">
        <ele>977</ele>
        <time>2015-05-10T07:32:33Z</time>
      </trkpt>
      <trkpt lat="45.41656" lon="4.6072">
        <ele>976</ele>
        <time>2015-05-10T07:32:36Z</time>
      </trkpt>
      <trkpt lat="45.41661" lon="4.60722">
        <ele>976</ele>
        <time>2015-05-10T07:32:38Z</time>
      </trkpt>
      <trkpt lat="45.41668" lon="4.60725">
        <ele>975</ele>
        <time>2015-05-10T07:32:40Z</time>
      </trkpt>
      <trkpt lat="45.41673" lon="4.60727">
        <ele>974</ele>
        <time>2015-05-10T07:32:42Z</time>
      </trkpt>
      <trkpt lat="45.41683" lon="4.60729">
        <ele>974</ele>
        <time>2015-05-10T07:32:45Z</time>
      </trkpt>
      <trkpt lat="45.41692" lon="4.60732">
        <ele>973</ele>
        <time>2015-05-10T07:32:48Z</time>
      </trkpt>
      <trkpt lat="45.41699" lon="4.60735">
        <ele>973</ele>
        <time>2015-05-10T07:32:50Z</time>
      </trkpt>
      <trkpt lat="45.41706" lon="4.60738">
        <ele>972</ele>
        <time>2015-05-10T07:32:52Z</time>
      </trkpt>
      <trkpt lat="45.41715" lon="4.60742">
        <ele>972</ele>
        <time>2015-05-10T07:32:55Z</time>
      </trkpt>
      <trkpt lat="45.41722" lon="4.60746">
        <ele>972</ele>
        <time>2015-05-10T07:32:57Z</time>
      </trkpt>
      <trkpt lat="45.41732" lon="4.60752">
        <ele>971</ele>
        <time>2015-05-10T07:33:00Z</time>
      </trkpt>
      <trkpt lat="45.41736" lon="4.60757">
        <ele>971</ele>
        <time>2015-05-10T07:33:02Z</time>
      </trkpt>
      <trkpt lat="45.41744" lon="4.60765">
        <ele>970</ele>
        <time>2015-05-10T07:33:05Z</time>
      </trkpt>
      <trkpt lat="45.41749" lon="4.6077">
        <ele>969</ele>
        <time>2015-05-10T07:33:07Z</time>
      </trkpt>
      <trkpt lat="45.41754" lon="4.60777">
        <ele>968</ele>
        <time>2015-05-10T07:33:10Z</time>
      </trkpt>
      <trkpt lat="45.41758" lon="4.60782">
        <ele>968</ele>
        <time>2015-05-10T07:33:12Z</time>
      </trkpt>
      <trkpt lat="45.41766" lon="4.60789">
        <ele>967</ele>
        <time>2015-05-10T07:33:15Z</time>
      </trkpt>
      <trkpt lat="45.4177" lon="4.60793">
        <ele>967</ele>
        <time>2015-05-10T07:33:17Z</time>
      </trkpt>
      <trkpt lat="45.41774" lon="4.60798">
        <ele>967</ele>
        <time>2015-05-10T07:33:19Z</time>
      </trkpt>
      <trkpt lat="45.41781" lon="4.60807">
        <ele>966</ele>
        <time>2015-05-10T07:33:22Z</time>
      </trkpt>
      <trkpt lat="45.41785" lon="4.60812">
        <ele>965</ele>
        <time>2015-05-10T07:33:24Z</time>
      </trkpt>
      <trkpt lat="45.41791" lon="4.60822">
        <ele>965</ele>
        <time>2015-05-10T07:33:27Z</time>
      </trkpt>
      <trkpt lat="45.41796" lon="4.60831">
        <ele>965</ele>
        <time>2015-05-10T07:33:30Z</time>
      </trkpt>
      <trkpt lat="45.41802" lon="4.6084">
        <ele>965</ele>
        <time>2015-05-10T07:33:33Z</time>
      </trkpt>
      <trkpt lat="45.41805" lon="4.60847">
        <ele>965</ele>
        <time>2015-05-10T07:33:35Z</time>
      </trkpt>
      <trkpt lat="45.41809" lon="4.60858">
        <ele>965</ele>
        <time>2015-05-10T07:33:38Z</time>
      </trkpt>
      <trkpt lat="45.41812" lon="4.60871">
        <ele>965</ele>
        <time>2015-05-10T07:33:41Z</time>
      </trkpt>
      <trkpt lat="45.41814" lon="4.60879">
        <ele>965</ele>
        <time>2015-05-10T07:33:43Z</time>
      </trkpt>
      <trkpt lat="45.41817" lon="4.6089">
        <ele>965</ele>
        <time>2015-05-10T07:33:46Z</time>
      </trkpt>
      <trkpt lat="45.4182" lon="4.60901">
        <ele>964</ele>
        <time>2015-05-10T07:33:49Z</time>
      </trkpt>
      <trkpt lat="45.41822" lon="4.6091">
        <ele>964</ele>
        <time>2015-05-10T07:33:51Z</time>
      </trkpt>
      <trkpt lat="45.41823" lon="4.60918">
        <ele>964</ele>
        <time>2015-05-10T07:33:53Z</time>
      </trkpt>
      <trkpt lat="45.41826" lon="4.60929">
        <ele>963</ele>
        <time>2015-05-10T07:33:56Z</time>
      </trkpt>
      <trkpt lat="45.41826" lon="4.60936">
        <ele>962</ele>
        <time>2015-05-10T07:33:58Z</time>
      </trkpt>
      <trkpt lat="45.41827" lon="4.60945">
        <ele>962</ele>
        <time>2015-05-10T07:34:00Z</time>
      </trkpt>
      <trkpt lat="45.41828" lon="4.60953">
        <ele>961</ele>
        <time>2015-05-10T07:34:02Z</time>
      </trkpt>
      <trkpt lat="45.41827" lon="4.60961">
        <ele>961</ele>
        <time>2015-05-10T07:34:04Z</time>
      </trkpt>
      <trkpt lat="45.41828" lon="4.60974">
        <ele>961</ele>
        <time>2015-05-10T07:34:07Z</time>
      </trkpt>
      <trkpt lat="45.41828" lon="4.60982">
        <ele>962</ele>
        <time>2015-05-10T07:34:09Z</time>
      </trkpt>
      <trkpt lat="45.41829" lon="4.60994">
        <ele>962</ele>
        <time>2015-05-10T07:34:12Z</time>
      </trkpt>
      <trkpt lat="45.41828" lon="4.61002">
        <ele>963</ele>
        <time>2015-05-10T07:34:14Z</time>
      </trkpt>
      <trkpt lat="45.41827" lon="4.61014">
        <ele>963</ele>
        <time>2015-05-10T07:34:17Z</time>
      </trkpt>
      <trkpt lat="45.41828" lon="4.61022">
        <ele>963</ele>
        <time>2015-05-10T07:34:19Z</time>
      </trkpt>
      <trkpt lat="45.41828" lon="4.61031">
        <ele>963</ele>
        <time>2015-05-10T07:34:21Z</time>
      </trkpt>
      <trkpt lat="45.41829" lon="4.61039">
        <ele>963</ele>
        <time>2015-05-10T07:34:23Z</time>
      </trkpt>
      <trkpt lat="45.4183" lon="4.61047">
        <ele>963</ele>
        <time>2015-05-10T07:34:25Z</time>
      </trkpt>
      <trkpt lat="45.41831" lon="4.61059">
        <ele>963</ele>
        <time>2015-05-10T07:34:28Z</time>
      </trkpt>
      <trkpt lat="45.41832" lon="4.61069">
        <ele>962</ele>
        <time>2015-05-10T07:34:31Z</time>
      </trkpt>
      <trkpt lat="45.41834" lon="4.61076">
        <ele>962</ele>
        <time>2015-05-10T07:34:33Z</time>
      </trkpt>
      <trkpt lat="45.41834" lon="4.61082">
        <ele>962</ele>
        <time>2015-05-10T07:34:35Z</time>
      </trkpt>
      <trkpt lat="45.41835" lon="4.61092">
        <ele>962</ele>
        <time>2015-05-10T07:34:38Z</time>
      </trkpt>
      <trkpt lat="45.41835" lon="4.61099">
        <ele>963</ele>
        <time>2015-05-10T07:34:40Z</time>
      </trkpt>
      <trkpt lat="45.41836" lon="4.61111">
        <ele>963</ele>
        <time>2015-05-10T07:34:43Z</time>
      </trkpt>
      <trkpt lat="45.41838" lon="4.61122">
        <ele>963</ele>
        <time>2015-05-10T07:34:46Z</time>
      </trkpt>
      <trkpt lat="45.41839" lon="4.61129">
        <ele>964</ele>
        <time>2015-05-10T07:34:48Z</time>
      </trkpt>
      <trkpt lat="45.4184" lon="4.61136">
        <ele>964</ele>
        <time>2015-05-10T07:34:50Z</time>
      </trkpt>
      <trkpt lat="45.41843" lon="4.61148">
        <ele>965</ele>
        <time>2015-05-10T07:34:53Z</time>
      </trkpt>
      <trkpt lat="45.41844" lon="4.61155">
        <ele>965</ele>
        <time>2015-05-10T07:34:55Z</time>
      </trkpt>
      <trkpt lat="45.41846" lon="4.61167">
        <ele>965</ele>
        <time>2015-05-10T07:34:58Z</time>
      </trkpt>
      <trkpt lat="45.41848" lon="4.61174">
        <ele>965</ele>
        <time>2015-05-10T07:35:00Z</time>
      </trkpt>
      <trkpt lat="45.4185" lon="4.61182">
        <ele>965</ele>
        <time>2015-05-10T07:35:02Z</time>
      </trkpt>
      <trkpt lat="45.41852" lon="4.61188">
        <ele>965</ele>
        <time>2015-05-10T07:35:04Z</time>
      </trkpt>
      <trkpt lat="45.41854" lon="4.61199">
        <ele>964</ele>
        <time>2015-05-10T07:35:07Z</time>
      </trkpt>
      <trkpt lat="45.41856" lon="4.61206">
        <ele>965</ele>
        <time>2015-05-10T07:35:09Z</time>
      </trkpt>
      <trkpt lat="45.41858" lon="4.61214">
        <ele>965</ele>
        <time>2015-05-10T07:35:11Z</time>
      </trkpt>
      <trkpt lat="45.4186" lon="4.61221">
        <ele>965</ele>
        <time>2015-05-10T07:35:13Z</time>
      </trkpt>
      <trkpt lat="45.41862" lon="4.61232">
        <ele>965</ele>
        <time>2015-05-10T07:35:16Z</time>
      </trkpt>
      <trkpt lat="45.41865" lon="4.61242">
        <ele>966</ele>
        <time>2015-05-10T07:35:19Z</time>
      </trkpt>
      <trkpt lat="45.41868" lon="4.61252">
        <ele>966</ele>
        <time>2015-05-10T07:35:22Z</time>
      </trkpt>
      <trkpt lat="45.4187" lon="4.6126">
        <ele>967</ele>
        <time>2015-05-10T07:35:24Z</time>
      </trkpt>
      <trkpt lat="45.41872" lon="4.61266">
        <ele>967</ele>
        <time>2015-05-10T07:35:26Z</time>
      </trkpt>
      <trkpt lat="45.41875" lon="4.61276">
        <ele>967</ele>
        <time>2015-05-10T07:35:29Z</time>
      </trkpt>
      <trkpt lat="45.41878" lon="4.61286">
        <ele>967</ele>
        <time>2015-05-10T07:35:32Z</time>
      </trkpt>
      <trkpt lat="45.4188" lon="4.61293">
        <ele>967</ele>
        <time>2015-05-10T07:35:34Z</time>
      </trkpt>
      <trkpt lat="45.41881" lon="4.613">
        <ele>967</ele>
        <time>2015-05-10T07:35:36Z</time>
      </trkpt>
      <trkpt lat="45.41883" lon="4.61311">
        <ele>967</ele>
        <time>2015-05-10T07:35:39Z</time>
      </trkpt>
      <trkpt lat="45.41885" lon="4.61318">
        <ele>967</ele>
        <time>2015-05-10T07:35:41Z</time>
      </trkpt>
      <trkpt lat="45.41887" lon="4.61329">
        <ele>967</ele>
        <time>2015-05-10T07:35:44Z</time>
      </trkpt>
      <trkpt lat="45.41888" lon="4.61336">
        <ele>967</ele>
        <time>2015-05-10T07:35:46Z</time>
      </trkpt>
      <trkpt lat="45.4189" lon="4.61343">
        <ele>967</ele>
        <time>2015-05-10T07:35:48Z</time>
      </trkpt>
      <trkpt lat="45.41892" lon="4.61354">
        <ele>968</ele>
        <time>2015-05-10T07:35:51Z</time>
      </trkpt>
      <trkpt lat="45.41892" lon="4.61361">
        <ele>968</ele>
        <time>2015-05-10T07:35:53Z</time>
      </trkpt>
      <trkpt lat="45.41893" lon="4.61368">
        <ele>968</ele>
        <time>2015-05-10T07:35:55Z</time>
      </trkpt>
      <trkpt lat="45.41897" lon="4.61378">
        <ele>969</ele>
        <time>2015-05-10T07:35:58Z</time>
      </trkpt>
      <trkpt lat="45.41899" lon="4.61385">
        <ele>969</ele>
        <time>2015-05-10T07:36:00Z</time>
      </trkpt>
      <trkpt lat="45.41902" lon="4.61392">
        <ele>969</ele>
        <time>2015-05-10T07:36:02Z</time>
      </trkpt>
      <trkpt lat="45.41904" lon="4.61398">
        <ele>969</ele>
        <time>2015-05-10T07:36:04Z</time>
      </trkpt>
      <trkpt lat="45.41908" lon="4.61408">
        <ele>969</ele>
        <time>2015-05-10T07:36:07Z</time>
      </trkpt>
      <trkpt lat="45.41911" lon="4.61414">
        <ele>969</ele>
        <time>2015-05-10T07:36:09Z</time>
      </trkpt>
      <trkpt lat="45.41913" lon="4.61421">
        <ele>969</ele>
        <time>2015-05-10T07:36:11Z</time>
      </trkpt>
      <trkpt lat="45.41916" lon="4.61428">
        <ele>969</ele>
        <time>2015-05-10T07:36:13Z</time>
      </trkpt>
      <trkpt lat="45.41919" lon="4.61437">
        <ele>969</ele>
        <time>2015-05-10T07:36:16Z</time>
      </trkpt>
      <trkpt lat="45.41922" lon="4.61444">
        <ele>969</ele>
        <time>2015-05-10T07:36:18Z</time>
      </trkpt>
      <trkpt lat="45.41925" lon="4.61452">
        <ele>969</ele>
        <time>2015-05-10T07:36:21Z</time>
      </trkpt>
      <trkpt lat="45.41928" lon="4.61462">
        <ele>969</ele>
        <time>2015-05-10T07:36:24Z</time>
      </trkpt>
      <trkpt lat="45.4193" lon="4.61473">
        <ele>969</ele>
        <time>2015-05-10T07:36:27Z</time>
      </trkpt>
      <trkpt lat="45.41933" lon="4.61482">
        <ele>969</ele>
        <time>2015-05-10T07:36:30Z</time>
      </trkpt>
      <trkpt lat="45.41936" lon="4.61491">
        <ele>970</ele>
        <time>2015-05-10T07:36:33Z</time>
      </trkpt>
      <trkpt lat="45.41938" lon="4.61498">
        <ele>970</ele>
        <time>2015-05-10T07:36:35Z</time>
      </trkpt>
      <trkpt lat="45.4194" lon="4.61505">
        <ele>971</ele>
        <time>2015-05-10T07:36:37Z</time>
      </trkpt>
      <trkpt lat="45.41941" lon="4.61512">
        <ele>972</ele>
        <time>2015-05-10T07:36:39Z</time>
      </trkpt>
      <trkpt lat="45.41942" lon="4.61523">
        <ele>972</ele>
        <time>2015-05-10T07:36:42Z</time>
      </trkpt>
      <trkpt lat="45.41943" lon="4.61533">
        <ele>972</ele>
        <time>2015-05-10T07:36:45Z</time>
      </trkpt>
      <trkpt lat="45.41943" lon="4.61544">
        <ele>972</ele>
        <time>2015-05-10T07:36:48Z</time>
      </trkpt>
      <trkpt lat="45.41942" lon="4.61551">
        <ele>971</ele>
        <time>2015-05-10T07:36:50Z</time>
      </trkpt>
      <trkpt lat="45.41941" lon="4.61563">
        <ele>972</ele>
        <time>2015-05-10T07:36:53Z</time>
      </trkpt>
      <trkpt lat="45.41941" lon="4.6157">
        <ele>972</ele>
        <time>2015-05-10T07:36:55Z</time>
      </trkpt>
      <trkpt lat="45.41941" lon="4.61581">
        <ele>972</ele>
        <time>2015-05-10T07:36:58Z</time>
      </trkpt>
      <trkpt lat="45.41941" lon="4.61588">
        <ele>972</ele>
        <time>2015-05-10T07:37:00Z</time>
      </trkpt>
      <trkpt lat="45.41941" lon="4.61594">
        <ele>972</ele>
        <time>2015-05-10T07:37:02Z</time>
      </trkpt>
      <trkpt lat="45.41941" lon="4.61602">
        <ele>971</ele>
        <time>2015-05-10T07:37:04Z</time>
      </trkpt>
      <trkpt lat="45.41938" lon="4.61612">
        <ele>972</ele>
        <time>2015-05-10T07:37:07Z</time>
      </trkpt>
      <trkpt lat="45.41938" lon="4.61619">
        <ele>971</ele>
        <time>2015-05-10T07:37:09Z</time>
      </trkpt>
      <trkpt lat="45.41936" lon="4.61628">
        <ele>972</ele>
        <time>2015-05-10T07:37:12Z</time>
      </trkpt>
      <trkpt lat="45.41934" lon="4.61636">
        <ele>972</ele>
        <time>2015-05-10T07:37:14Z</time>
      </trkpt>
      <trkpt lat="45.4193" lon="4.61646">
        <ele>972</ele>
        <time>2015-05-10T07:37:17Z</time>
      </trkpt>
      <trkpt lat="45.41928" lon="4.61651">
        <ele>972</ele>
        <time>2015-05-10T07:37:19Z</time>
      </trkpt>
      <trkpt lat="45.41924" lon="4.61659">
        <ele>972</ele>
        <time>2015-05-10T07:37:22Z</time>
      </trkpt>
      <trkpt lat="45.41921" lon="4.61664">
        <ele>972</ele>
        <time>2015-05-10T07:37:24Z</time>
      </trkpt>
      <trkpt lat="45.41918" lon="4.61672">
        <ele>971</ele>
        <time>2015-05-10T07:37:27Z</time>
      </trkpt>
      <trkpt lat="45.41916" lon="4.6168">
        <ele>971</ele>
        <time>2015-05-10T07:37:29Z</time>
      </trkpt>
      <trkpt lat="45.4191" lon="4.61692">
        <ele>970</ele>
        <time>2015-05-10T07:37:32Z</time>
      </trkpt>
      <trkpt lat="45.41906" lon="4.61702">
        <ele>969</ele>
        <time>2015-05-10T07:37:35Z</time>
      </trkpt>
      <trkpt lat="45.41902" lon="4.6171">
        <ele>968</ele>
        <time>2015-05-10T07:37:38Z</time>
      </trkpt>
      <trkpt lat="45.41899" lon="4.61716">
        <ele>967</ele>
        <time>2015-05-10T07:37:40Z</time>
      </trkpt>
      <trkpt lat="45.41896" lon="4.61722">
        <ele>966</ele>
        <time>2015-05-10T07:37:43Z</time>
      </trkpt>
      <trkpt lat="45.41897" lon="4.61724">
        <ele>966</ele>
        <time>2015-05-10T07:37:45Z</time>
      </trkpt>
      <trkpt lat="45.41901" lon="4.61723">
        <ele>965</ele>
        <time>2015-05-10T07:37:47Z</time>
      </trkpt>
      <trkpt lat="45.41905" lon="4.61724">
        <ele>964</ele>
        <time>2015-05-10T07:37:49Z</time>
      </trkpt>
      <trkpt lat="45.4191" lon="4.61725">
        <ele>962</ele>
        <time>2015-05-10T07:37:52Z</time>
      </trkpt>
      <trkpt lat="45.41914" lon="4.61725">
        <ele>961</ele>
        <time>2015-05-10T07:37:54Z</time>
      </trkpt>
      <trkpt lat="45.41917" lon="4.61725">
        <ele>959</ele>
        <time>2015-05-10T07:37:56Z</time>
      </trkpt>
      <trkpt lat="45.41922" lon="4.61727">
        <ele>958</ele>
        <time>2015-05-10T07:37:58Z</time>
      </trkpt>
      <trkpt lat="45.41928" lon="4.61728">
        <ele>957</ele>
        <time>2015-05-10T07:38:01Z</time>
      </trkpt>
      <trkpt lat="45.41933" lon="4.61728">
        <ele>955</ele>
        <time>2015-05-10T07:38:03Z</time>
      </trkpt>
      <trkpt lat="45.4194" lon="4.61729">
        <ele>954</ele>
        <time>2015-05-10T07:38:06Z</time>
      </trkpt>
      <trkpt lat="45.41944" lon="4.61729">
        <ele>952</ele>
        <time>2015-05-10T07:38:08Z</time>
      </trkpt>
      <trkpt lat="45.41949" lon="4.61731">
        <ele>949</ele>
        <time>2015-05-10T07:38:11Z</time>
      </trkpt>
      <trkpt lat="45.41954" lon="4.61731">
        <ele>947</ele>
        <time>2015-05-10T07:38:14Z</time>
      </trkpt>
      <trkpt lat="45.41959" lon="4.61732">
        <ele>945</ele>
        <time>2015-05-10T07:38:17Z</time>
      </trkpt>
      <trkpt lat="45.41967" lon="4.6173">
        <ele>943</ele>
        <time>2015-05-10T07:38:20Z</time>
      </trkpt>
      <trkpt lat="45.41972" lon="4.61729">
        <ele>942</ele>
        <time>2015-05-10T07:38:22Z</time>
      </trkpt>
      <trkpt lat="45.41976" lon="4.61729">
        <ele>941</ele>
        <time>2015-05-10T07:38:24Z</time>
      </trkpt>
      <trkpt lat="45.41977" lon="4.61734">
        <ele>939</ele>
        <time>2015-05-10T07:38:26Z</time>
      </trkpt>
      <trkpt lat="45.41976" lon="4.61738">
        <ele>938</ele>
        <time>2015-05-10T07:38:28Z</time>
      </trkpt>
      <trkpt lat="45.41974" lon="4.61746">
        <ele>937</ele>
        <time>2015-05-10T07:38:31Z</time>
      </trkpt>
      <trkpt lat="45.41973" lon="4.61751">
        <ele>935</ele>
        <time>2015-05-10T07:38:33Z</time>
      </trkpt>
      <trkpt lat="45.41973" lon="4.61755">
        <ele>934</ele>
        <time>2015-05-10T07:38:35Z</time>
      </trkpt>
      <trkpt lat="45.41976" lon="4.61759">
        <ele>932</ele>
        <time>2015-05-10T07:38:37Z</time>
      </trkpt>
      <trkpt lat="45.41979" lon="4.61762">
        <ele>931</ele>
        <time>2015-05-10T07:38:39Z</time>
      </trkpt>
      <trkpt lat="45.41983" lon="4.61766">
        <ele>928</ele>
        <time>2015-05-10T07:38:42Z</time>
      </trkpt>
      <trkpt lat="45.41986" lon="4.61768">
        <ele>927</ele>
        <time>2015-05-10T07:38:44Z</time>
      </trkpt>
      <trkpt lat="45.4199" lon="4.6177">
        <ele>926</ele>
        <time>2015-05-10T07:38:46Z</time>
      </trkpt>
      <trkpt lat="45.41991" lon="4.6177">
        <ele>924</ele>
        <time>2015-05-10T07:38:48Z</time>
      </trkpt>
      <trkpt lat="45.41997" lon="4.6177">
        <ele>923</ele>
        <time>2015-05-10T07:38:51Z</time>
      </trkpt>
      <trkpt lat="45.42002" lon="4.6177">
        <ele>922</ele>
        <time>2015-05-10T07:38:53Z</time>
      </trkpt>
      <trkpt lat="45.42007" lon="4.61769">
        <ele>921</ele>
        <time>2015-05-10T07:38:55Z</time>
      </trkpt>
      <trkpt lat="45.42011" lon="4.6177">
        <ele>920</ele>
        <time>2015-05-10T07:38:57Z</time>
      </trkpt>
      <trkpt lat="45.42015" lon="4.6177">
        <ele>918</ele>
        <time>2015-05-10T07:38:59Z</time>
      </trkpt>
      <trkpt lat="45.4202" lon="4.61771">
        <ele>917</ele>
        <time>2015-05-10T07:39:01Z</time>
      </trkpt>
      <trkpt lat="45.42028" lon="4.61768">
        <ele>914</ele>
        <time>2015-05-10T07:39:04Z</time>
      </trkpt>
      <trkpt lat="45.42033" lon="4.61766">
        <ele>913</ele>
        <time>2015-05-10T07:39:06Z</time>
      </trkpt>
      <trkpt lat="45.42041" lon="4.61764">
        <ele>912</ele>
        <time>2015-05-10T07:39:09Z</time>
      </trkpt>
      <trkpt lat="45.42047" lon="4.61762">
        <ele>911</ele>
        <time>2015-05-10T07:39:11Z</time>
      </trkpt>
      <trkpt lat="45.42053" lon="4.6176">
        <ele>909</ele>
        <time>2015-05-10T07:39:13Z</time>
      </trkpt>
      <trkpt lat="45.42057" lon="4.61757">
        <ele>908</ele>
        <time>2015-05-10T07:39:15Z</time>
      </trkpt>
      <trkpt lat="45.42062" lon="4.61754">
        <ele>907</ele>
        <time>2015-05-10T07:39:17Z</time>
      </trkpt>
      <trkpt lat="45.42067" lon="4.61752">
        <ele>905</ele>
        <time>2015-05-10T07:39:19Z</time>
      </trkpt>
      <trkpt lat="45.42072" lon="4.6175">
        <ele>904</ele>
        <time>2015-05-10T07:39:21Z</time>
      </trkpt>
      <trkpt lat="45.42079" lon="4.61746">
        <ele>903</ele>
        <time>2015-05-10T07:39:24Z</time>
      </trkpt>
      <trkpt lat="45.42085" lon="4.61744">
        <ele>903</ele>
        <time>2015-05-10T07:39:26Z</time>
      </trkpt>
      <trkpt lat="45.4209" lon="4.61742">
        <ele>902</ele>
        <time>2015-05-10T07:39:28Z</time>
      </trkpt>
      <trkpt lat="45.42097" lon="4.61739">
        <ele>900</ele>
        <time>2015-05-10T07:39:31Z</time>
      </trkpt>
      <trkpt lat="45.42102" lon="4.61736">
        <ele>899</ele>
        <time>2015-05-10T07:39:33Z</time>
      </trkpt>
      <trkpt lat="45.42107" lon="4.61733">
        <ele>898</ele>
        <time>2015-05-10T07:39:35Z</time>
      </trkpt>
      <trkpt lat="45.42112" lon="4.61732">
        <ele>898</ele>
        <time>2015-05-10T07:39:37Z</time>
      </trkpt>
      <trkpt lat="45.42119" lon="4.61727">
        <ele>896</ele>
        <time>2015-05-10T07:39:40Z</time>
      </trkpt>
      <trkpt lat="45.42123" lon="4.61725">
        <ele>895</ele>
        <time>2015-05-10T07:39:42Z</time>
      </trkpt>
      <trkpt lat="45.42129" lon="4.61723">
        <ele>894</ele>
        <time>2015-05-10T07:39:44Z</time>
      </trkpt>
      <trkpt lat="45.42137" lon="4.61721">
        <ele>892</ele>
        <time>2015-05-10T07:39:47Z</time>
      </trkpt>
      <trkpt lat="45.42144" lon="4.61717">
        <ele>891</ele>
        <time>2015-05-10T07:39:50Z</time>
      </trkpt>
      <trkpt lat="45.42151" lon="4.61716">
        <ele>889</ele>
        <time>2015-05-10T07:39:53Z</time>
      </trkpt>
      <trkpt lat="45.42156" lon="4.61716">
        <ele>888</ele>
        <time>2015-05-10T07:39:55Z</time>
      </trkpt>
      <trkpt lat="45.4216" lon="4.61716">
        <ele>887</ele>
        <time>2015-05-10T07:39:57Z</time>
      </trkpt>
      <trkpt lat="45.42166" lon="4.61715">
        <ele>885</ele>
        <time>2015-05-10T07:40:00Z</time>
      </trkpt>
      <trkpt lat="45.42171" lon="4.61714">
        <ele>884</ele>
        <time>2015-05-10T07:40:02Z</time>
      </trkpt>
      <trkpt lat="45.42177" lon="4.61715">
        <ele>882</ele>
        <time>2015-05-10T07:40:05Z</time>
      </trkpt>
      <trkpt lat="45.42184" lon="4.61717">
        <ele>880</ele>
        <time>2015-05-10T07:40:08Z</time>
      </trkpt>
      <trkpt lat="45.42188" lon="4.61718">
        <ele>879</ele>
        <time>2015-05-10T07:40:10Z</time>
      </trkpt>
      <trkpt lat="45.42192" lon="4.61717">
        <ele>877</ele>
        <time>2015-05-10T07:40:12Z</time>
      </trkpt>
      <trkpt lat="45.42199" lon="4.61717">
        <ele>875</ele>
        <time>2015-05-10T07:40:15Z</time>
      </trkpt>
      <trkpt lat="45.42207" lon="4.61713">
        <ele>872</ele>
        <time>2015-05-10T07:40:18Z</time>
      </trkpt>
      <trkpt lat="45.42212" lon="4.61709">
        <ele>870</ele>
        <time>2015-05-10T07:40:21Z</time>
      </trkpt>
      <trkpt lat="45.42216" lon="4.61705">
        <ele>869</ele>
        <time>2015-05-10T07:40:23Z</time>
      </trkpt>
      <trkpt lat="45.42221" lon="4.61702">
        <ele>868</ele>
        <time>2015-05-10T07:40:26Z</time>
      </trkpt>
      <trkpt lat="45.42227" lon="4.617">
        <ele>866</ele>
        <time>2015-05-10T07:40:29Z</time>
      </trkpt>
      <trkpt lat="45.42231" lon="4.61698">
        <ele>865</ele>
        <time>2015-05-10T07:40:31Z</time>
      </trkpt>
      <trkpt lat="45.42234" lon="4.61699">
        <ele>864</ele>
        <time>2015-05-10T07:40:33Z</time>
      </trkpt>
      <trkpt lat="45.4224" lon="4.61698">
        <ele>862</ele>
        <time>2015-05-10T07:40:36Z</time>
      </trkpt>
      <trkpt lat="45.42244" lon="4.61698">
        <ele>861</ele>
        <time>2015-05-10T07:40:38Z</time>
      </trkpt>
      <trkpt lat="45.4225" lon="4.61698">
        <ele>859</ele>
        <time>2015-05-10T07:40:41Z</time>
      </trkpt>
      <trkpt lat="45.42255" lon="4.61698">
        <ele>857</ele>
        <time>2015-05-10T07:40:43Z</time>
      </trkpt>
      <trkpt lat="45.4226" lon="4.61698">
        <ele>856</ele>
        <time>2015-05-10T07:40:45Z</time>
      </trkpt>
      <trkpt lat="45.42265" lon="4.617">
        <ele>854</ele>
        <time>2015-05-10T07:40:47Z</time>
      </trkpt>
      <trkpt lat="45.42269" lon="4.61703">
        <ele>852</ele>
        <time>2015-05-10T07:40:50Z</time>
      </trkpt>
      <trkpt lat="45.42274" lon="4.61706">
        <ele>851</ele>
        <time>2015-05-10T07:40:53Z</time>
      </trkpt>
      <trkpt lat="45.4228" lon="4.6171">
        <ele>848</ele>
        <time>2015-05-10T07:40:56Z</time>
      </trkpt>
      <trkpt lat="45.42284" lon="4.61713">
        <ele>847</ele>
        <time>2015-05-10T07:40:58Z</time>
      </trkpt>
      <trkpt lat="45.42289" lon="4.61713">
        <ele>846</ele>
        <time>2015-05-10T07:41:00Z</time>
      </trkpt>
      <trkpt lat="45.42297" lon="4.61711">
        <ele>844</ele>
        <time>2015-05-10T07:41:03Z</time>
      </trkpt>
      <trkpt lat="45.42302" lon="4.61709">
        <ele>843</ele>
        <time>2015-05-10T07:41:05Z</time>
      </trkpt>
      <trkpt lat="45.4231" lon="4.61706">
        <ele>842</ele>
        <time>2015-05-10T07:41:08Z</time>
      </trkpt>
      <trkpt lat="45.42315" lon="4.61705">
        <ele>841</ele>
        <time>2015-05-10T07:41:10Z</time>
      </trkpt>
      <trkpt lat="45.42322" lon="4.61704">
        <ele>838</ele>
        <time>2015-05-10T07:41:13Z</time>
      </trkpt>
      <trkpt lat="45.42328" lon="4.61702">
        <ele>836</ele>
        <time>2015-05-10T07:41:16Z</time>
      </trkpt>
      <trkpt lat="45.42334" lon="4.61701">
        <ele>835</ele>
        <time>2015-05-10T07:41:19Z</time>
      </trkpt>
      <trkpt lat="45.42338" lon="4.61701">
        <ele>834</ele>
        <time>2015-05-10T07:41:21Z</time>
      </trkpt>
      <trkpt lat="45.42341" lon="4.61699">
        <ele>832</ele>
        <time>2015-05-10T07:41:24Z</time>
      </trkpt>
      <trkpt lat="45.42347" lon="4.617">
        <ele>830</ele>
        <time>2015-05-10T07:41:27Z</time>
      </trkpt>
      <trkpt lat="45.4235" lon="4.617">
        <ele>829</ele>
        <time>2015-05-10T07:41:29Z</time>
      </trkpt>
      <trkpt lat="45.42353" lon="4.617">
        <ele>827</ele>
        <time>2015-05-10T07:41:31Z</time>
      </trkpt>
      <trkpt lat="45.4236" lon="4.61699">
        <ele>826</ele>
        <time>2015-05-10T07:41:34Z</time>
      </trkpt>
      <trkpt lat="45.42365" lon="4.61698">
        <ele>824</ele>
        <time>2015-05-10T07:41:36Z</time>
      </trkpt>
      <trkpt lat="45.42373" lon="4.61696">
        <ele>822</ele>
        <time>2015-05-10T07:41:39Z</time>
      </trkpt>
      <trkpt lat="45.42382" lon="4.61696">
        <ele>820</ele>
        <time>2015-05-10T07:41:42Z</time>
      </trkpt>
      <trkpt lat="45.42387" lon="4.61698">
        <ele>819</ele>
        <time>2015-05-10T07:41:44Z</time>
      </trkpt>
      <trkpt lat="45.42393" lon="4.61699">
        <ele>818</ele>
        <time>2015-05-10T07:41:46Z</time>
      </trkpt>
      <trkpt lat="45.424" lon="4.61702">
        <ele>817</ele>
        <time>2015-05-10T07:41:49Z</time>
      </trkpt>
      <trkpt lat="45.42405" lon="4.61706">
        <ele>815</ele>
        <time>2015-05-10T07:41:51Z</time>
      </trkpt>
      <trkpt lat="45.42413" lon="4.61711">
        <ele>815</ele>
        <time>2015-05-10T07:41:54Z</time>
      </trkpt>
      <trkpt lat="45.4242" lon="4.61717">
        <ele>814</ele>
        <time>2015-05-10T07:41:57Z</time>
      </trkpt>
      <trkpt lat="45.42424" lon="4.6172">
        <ele>813</ele>
        <time>2015-05-10T07:41:59Z</time>
      </trkpt>
      <trkpt lat="45.42429" lon="4.61721">
        <ele>813</ele>
        <time>2015-05-10T07:42:01Z</time>
      </trkpt>
      <trkpt lat="45.42438" lon="4.61724">
        <ele>811</ele>
        <time>2015-05-10T07:42:04Z</time>
      </trkpt>
      <trkpt lat="45.42444" lon="4.61724">
        <ele>810</ele>
        <time>2015-05-10T07:42:06Z</time>
      </trkpt>
      <trkpt lat="45.42453" lon="4.61725">
        <ele>809</ele>
        <time>2015-05-10T07:42:09Z</time>
      </trkpt>
      <trkpt lat="45.42459" lon="4.61724">
        <ele>808</ele>
        <time>2015-05-10T07:42:11Z</time>
      </trkpt>
      <trkpt lat="45.42465" lon="4.61723">
        <ele>807</ele>
        <time>2015-05-10T07:42:13Z</time>
      </trkpt>
      <trkpt lat="45.42473" lon="4.6172">
        <ele>806</ele>
        <time>2015-05-10T07:42:16Z</time>
      </trkpt>
      <trkpt lat="45.42479" lon="4.6172">
        <ele>806</ele>
        <time>2015-05-10T07:42:18Z</time>
      </trkpt>
      <trkpt lat="45.42484" lon="4.61723">
        <ele>806</ele>
        <time>2015-05-10T07:42:20Z</time>
      </trkpt>
      <trkpt lat="45.42486" lon="4.61724">
        <ele>806</ele>
        <time>2015-05-10T07:42:22Z</time>
      </trkpt>
      <trkpt lat="45.42487" lon="4.61724">
        <ele>805</ele>
        <time>2015-05-10T07:42:24Z</time>
      </trkpt>
      <trkpt lat="45.42488" lon="4.61724">
        <ele>805</ele>
        <time>2015-05-10T07:42:26Z</time>
      </trkpt>
      <trkpt lat="45.42529" lon="4.61735">
        <ele>805</ele>
        <time>2015-05-10T07:42:29Z</time>
      </trkpt>
      <trkpt lat="45.42532" lon="4.6173">
        <ele>805</ele>
        <time>2015-05-10T07:42:32Z</time>
      </trkpt>
      <trkpt lat="45.42535" lon="4.61727">
        <ele>806</ele>
        <time>2015-05-10T07:42:34Z</time>
      </trkpt>
      <trkpt lat="45.42539" lon="4.6172">
        <ele>806</ele>
        <time>2015-05-10T07:42:37Z</time>
      </trkpt>
      <trkpt lat="45.42543" lon="4.61714">
        <ele>805</ele>
        <time>2015-05-10T07:42:39Z</time>
      </trkpt>
      <trkpt lat="45.42548" lon="4.61708">
        <ele>804</ele>
        <time>2015-05-10T07:42:41Z</time>
      </trkpt>
      <trkpt lat="45.42551" lon="4.61704">
        <ele>803</ele>
        <time>2015-05-10T07:42:44Z</time>
      </trkpt>
      <trkpt lat="45.42555" lon="4.617">
        <ele>803</ele>
        <time>2015-05-10T07:42:46Z</time>
      </trkpt>
      <trkpt lat="45.42561" lon="4.61695">
        <ele>803</ele>
        <time>2015-05-10T07:42:48Z</time>
      </trkpt>
      <trkpt lat="45.42564" lon="4.61691">
        <ele>803</ele>
        <time>2015-05-10T07:42:51Z</time>
      </trkpt>
      <trkpt lat="45.42568" lon="4.61688">
        <ele>802</ele>
        <time>2015-05-10T07:42:53Z</time>
      </trkpt>
      <trkpt lat="45.42573" lon="4.61684">
        <ele>801</ele>
        <time>2015-05-10T07:42:55Z</time>
      </trkpt>
      <trkpt lat="45.42582" lon="4.6168">
        <ele>801</ele>
        <time>2015-05-10T07:42:58Z</time>
      </trkpt>
      <trkpt lat="45.42587" lon="4.61676">
        <ele>801</ele>
        <time>2015-05-10T07:43:00Z</time>
      </trkpt>
      <trkpt lat="45.42593" lon="4.61673">
        <ele>802</ele>
        <time>2015-05-10T07:43:02Z</time>
      </trkpt>
      <trkpt lat="45.42601" lon="4.61667">
        <ele>802</ele>
        <time>2015-05-10T07:43:05Z</time>
      </trkpt>
      <trkpt lat="45.42606" lon="4.61662">
        <ele>802</ele>
        <time>2015-05-10T07:43:07Z</time>
      </trkpt>
      <trkpt lat="45.42613" lon="4.61656">
        <ele>801</ele>
        <time>2015-05-10T07:43:10Z</time>
      </trkpt>
      <trkpt lat="45.42621" lon="4.6165">
        <ele>800</ele>
        <time>2015-05-10T07:43:13Z</time>
      </trkpt>
      <trkpt lat="45.42627" lon="4.61647">
        <ele>799</ele>
        <time>2015-05-10T07:43:15Z</time>
      </trkpt>
      <trkpt lat="45.42631" lon="4.61644">
        <ele>799</ele>
        <time>2015-05-10T07:43:17Z</time>
      </trkpt>
      <trkpt lat="45.42638" lon="4.61639">
        <ele>800</ele>
        <time>2015-05-10T07:43:19Z</time>
      </trkpt>
      <trkpt lat="45.42644" lon="4.61636">
        <ele>799</ele>
        <time>2015-05-10T07:43:21Z</time>
      </trkpt>
      <trkpt lat="45.42649" lon="4.61633">
        <ele>799</ele>
        <time>2015-05-10T07:43:24Z</time>
      </trkpt>
      <trkpt lat="45.42657" lon="4.61628">
        <ele>798</ele>
        <time>2015-05-10T07:43:26Z</time>
      </trkpt>
      <trkpt lat="45.42663" lon="4.61623">
        <ele>798</ele>
        <time>2015-05-10T07:43:29Z</time>
      </trkpt>
      <trkpt lat="45.42668" lon="4.61622">
        <ele>798</ele>
        <time>2015-05-10T07:43:31Z</time>
      </trkpt>
      <trkpt lat="45.42675" lon="4.61616">
        <ele>798</ele>
        <time>2015-05-10T07:43:33Z</time>
      </trkpt>
      <trkpt lat="45.42681" lon="4.61612">
        <ele>797</ele>
        <time>2015-05-10T07:43:35Z</time>
      </trkpt>
      <trkpt lat="45.42685" lon="4.61608">
        <ele>797</ele>
        <time>2015-05-10T07:43:37Z</time>
      </trkpt>
      <trkpt lat="45.4269" lon="4.61604">
        <ele>796</ele>
        <time>2015-05-10T07:43:40Z</time>
      </trkpt>
      <trkpt lat="45.42695" lon="4.61604">
        <ele>795</ele>
        <time>2015-05-10T07:43:42Z</time>
      </trkpt>
      <trkpt lat="45.42699" lon="4.61601">
        <ele>795</ele>
        <time>2015-05-10T07:43:44Z</time>
      </trkpt>
      <trkpt lat="45.42706" lon="4.61596">
        <ele>795</ele>
        <time>2015-05-10T07:43:47Z</time>
      </trkpt>
      <trkpt lat="45.42709" lon="4.61592">
        <ele>794</ele>
        <time>2015-05-10T07:43:49Z</time>
      </trkpt>
      <trkpt lat="45.42714" lon="4.61587">
        <ele>795</ele>
        <time>2015-05-10T07:43:51Z</time>
      </trkpt>
      <trkpt lat="45.42719" lon="4.61584">
        <ele>794</ele>
        <time>2015-05-10T07:43:54Z</time>
      </trkpt>
      <trkpt lat="45.42727" lon="4.6158">
        <ele>793</ele>
        <time>2015-05-10T07:43:57Z</time>
      </trkpt>
      <trkpt lat="45.42731" lon="4.61575">
        <ele>793</ele>
        <time>2015-05-10T07:43:59Z</time>
      </trkpt>
      <trkpt lat="45.42736" lon="4.61571">
        <ele>793</ele>
        <time>2015-05-10T07:44:01Z</time>
      </trkpt>
      <trkpt lat="45.42743" lon="4.61563">
        <ele>792</ele>
        <time>2015-05-10T07:44:04Z</time>
      </trkpt>
      <trkpt lat="45.42751" lon="4.61555">
        <ele>792</ele>
        <time>2015-05-10T07:44:06Z</time>
      </trkpt>
      <trkpt lat="45.42755" lon="4.61551">
        <ele>791</ele>
        <time>2015-05-10T07:44:09Z</time>
      </trkpt>
      <trkpt lat="45.42762" lon="4.61545">
        <ele>791</ele>
        <time>2015-05-10T07:44:11Z</time>
      </trkpt>
      <trkpt lat="45.42769" lon="4.61539">
        <ele>790</ele>
        <time>2015-05-10T07:44:14Z</time>
      </trkpt>
      <trkpt lat="45.42773" lon="4.61534">
        <ele>789</ele>
        <time>2015-05-10T07:44:17Z</time>
      </trkpt>
      <trkpt lat="45.42779" lon="4.61528">
        <ele>789</ele>
        <time>2015-05-10T07:44:19Z</time>
      </trkpt>
      <trkpt lat="45.42783" lon="4.61523">
        <ele>789</ele>
        <time>2015-05-10T07:44:22Z</time>
      </trkpt>
      <trkpt lat="45.42788" lon="4.61513">
        <ele>789</ele>
        <time>2015-05-10T07:44:25Z</time>
      </trkpt>
      <trkpt lat="45.42796" lon="4.61504">
        <ele>788</ele>
        <time>2015-05-10T07:44:27Z</time>
      </trkpt>
      <trkpt lat="45.428" lon="4.61499">
        <ele>788</ele>
        <time>2015-05-10T07:44:30Z</time>
      </trkpt>
      <trkpt lat="45.42804" lon="4.61494">
        <ele>786</ele>
        <time>2015-05-10T07:44:32Z</time>
      </trkpt>
      <trkpt lat="45.42808" lon="4.61489">
        <ele>786</ele>
        <time>2015-05-10T07:44:34Z</time>
      </trkpt>
      <trkpt lat="45.42813" lon="4.61481">
        <ele>785</ele>
        <time>2015-05-10T07:44:37Z</time>
      </trkpt>
      <trkpt lat="45.42818" lon="4.6147">
        <ele>784</ele>
        <time>2015-05-10T07:44:39Z</time>
      </trkpt>
      <trkpt lat="45.42822" lon="4.61462">
        <ele>784</ele>
        <time>2015-05-10T07:44:42Z</time>
      </trkpt>
      <trkpt lat="45.42827" lon="4.61452">
        <ele>784</ele>
        <time>2015-05-10T07:44:44Z</time>
      </trkpt>
      <trkpt lat="45.4283" lon="4.61445">
        <ele>783</ele>
        <time>2015-05-10T07:44:47Z</time>
      </trkpt>
      <trkpt lat="45.42835" lon="4.61436">
        <ele>783</ele>
        <time>2015-05-10T07:44:50Z</time>
      </trkpt>
      <trkpt lat="45.42839" lon="4.61426">
        <ele>782</ele>
        <time>2015-05-10T07:44:52Z</time>
      </trkpt>
      <trkpt lat="45.42842" lon="4.6142">
        <ele>782</ele>
        <time>2015-05-10T07:44:55Z</time>
      </trkpt>
      <trkpt lat="45.42846" lon="4.61409">
        <ele>781</ele>
        <time>2015-05-10T07:44:58Z</time>
      </trkpt>
      <trkpt lat="45.42847" lon="4.61401">
        <ele>781</ele>
        <time>2015-05-10T07:45:00Z</time>
      </trkpt>
      <trkpt lat="45.42851" lon="4.61388">
        <ele>781</ele>
        <time>2015-05-10T07:45:02Z</time>
      </trkpt>
      <trkpt lat="45.42855" lon="4.61381">
        <ele>780</ele>
        <time>2015-05-10T07:45:05Z</time>
      </trkpt>
      <trkpt lat="45.42857" lon="4.61374">
        <ele>780</ele>
        <time>2015-05-10T07:45:07Z</time>
      </trkpt>
      <trkpt lat="45.42861" lon="4.61362">
        <ele>778</ele>
        <time>2015-05-10T07:45:09Z</time>
      </trkpt>
      <trkpt lat="45.42864" lon="4.61354">
        <ele>778</ele>
        <time>2015-05-10T07:45:12Z</time>
      </trkpt>
      <trkpt lat="45.42866" lon="4.61346">
        <ele>777</ele>
        <time>2015-05-10T07:45:14Z</time>
      </trkpt>
      <trkpt lat="45.42869" lon="4.61334">
        <ele>776</ele>
        <time>2015-05-10T07:45:16Z</time>
      </trkpt>
      <trkpt lat="45.42871" lon="4.61327">
        <ele>776</ele>
        <time>2015-05-10T07:45:18Z</time>
      </trkpt>
      <trkpt lat="45.42874" lon="4.61316">
        <ele>775</ele>
        <time>2015-05-10T07:45:21Z</time>
      </trkpt>
      <trkpt lat="45.42876" lon="4.61308">
        <ele>774</ele>
        <time>2015-05-10T07:45:23Z</time>
      </trkpt>
      <trkpt lat="45.4288" lon="4.61302">
        <ele>773</ele>
        <time>2015-05-10T07:45:25Z</time>
      </trkpt>
      <trkpt lat="45.42883" lon="4.61295">
        <ele>773</ele>
        <time>2015-05-10T07:45:28Z</time>
      </trkpt>
      <trkpt lat="45.42886" lon="4.61284">
        <ele>772</ele>
        <time>2015-05-10T07:45:31Z</time>
      </trkpt>
      <trkpt lat="45.42888" lon="4.61278">
        <ele>772</ele>
        <time>2015-05-10T07:45:33Z</time>
      </trkpt>
      <trkpt lat="45.42892" lon="4.61267">
        <ele>772</ele>
        <time>2015-05-10T07:45:35Z</time>
      </trkpt>
      <trkpt lat="45.42894" lon="4.6126">
        <ele>771</ele>
        <time>2015-05-10T07:45:37Z</time>
      </trkpt>
      <trkpt lat="45.42896" lon="4.61253">
        <ele>770</ele>
        <time>2015-05-10T07:45:40Z</time>
      </trkpt>
      <trkpt lat="45.429" lon="4.61244">
        <ele>769</ele>
        <time>2015-05-10T07:45:43Z</time>
      </trkpt>
      <trkpt lat="45.42904" lon="4.61234">
        <ele>768</ele>
        <time>2015-05-10T07:45:46Z</time>
      </trkpt>
      <trkpt lat="45.42908" lon="4.61223">
        <ele>766</ele>
        <time>2015-05-10T07:45:48Z</time>
      </trkpt>
      <trkpt lat="45.42914" lon="4.61215">
        <ele>765</ele>
        <time>2015-05-10T07:45:52Z</time>
      </trkpt>
      <trkpt lat="45.42919" lon="4.61205">
        <ele>764</ele>
        <time>2015-05-10T07:45:54Z</time>
      </trkpt>
      <trkpt lat="45.42922" lon="4.61197">
        <ele>763</ele>
        <time>2015-05-10T07:45:57Z</time>
      </trkpt>
      <trkpt lat="45.42926" lon="4.61189">
        <ele>763</ele>
        <time>2015-05-10T07:45:59Z</time>
      </trkpt>
      <trkpt lat="45.4293" lon="4.61179">
        <ele>762</ele>
        <time>2015-05-10T07:46:02Z</time>
      </trkpt>
      <trkpt lat="45.42934" lon="4.61173">
        <ele>761</ele>
        <time>2015-05-10T07:46:04Z</time>
      </trkpt>
      <trkpt lat="45.4294" lon="4.61164">
        <ele>760</ele>
        <time>2015-05-10T07:46:06Z</time>
      </trkpt>
      <trkpt lat="45.42944" lon="4.61156">
        <ele>759</ele>
        <time>2015-05-10T07:46:09Z</time>
      </trkpt>
      <trkpt lat="45.42946" lon="4.61147">
        <ele>758</ele>
        <time>2015-05-10T07:46:11Z</time>
      </trkpt>
      <trkpt lat="45.4295" lon="4.61135">
        <ele>756</ele>
        <time>2015-05-10T07:46:13Z</time>
      </trkpt>
      <trkpt lat="45.42952" lon="4.61127">
        <ele>755</ele>
        <time>2015-05-10T07:46:15Z</time>
      </trkpt>
      <trkpt lat="45.42955" lon="4.6112">
        <ele>754</ele>
        <time>2015-05-10T07:46:17Z</time>
      </trkpt>
      <trkpt lat="45.42958" lon="4.61113">
        <ele>754</ele>
        <time>2015-05-10T07:46:19Z</time>
      </trkpt>
      <trkpt lat="45.42961" lon="4.61104">
        <ele>754</ele>
        <time>2015-05-10T07:46:23Z</time>
      </trkpt>
      <trkpt lat="45.42963" lon="4.61097">
        <ele>754</ele>
        <time>2015-05-10T07:46:25Z</time>
      </trkpt>
      <trkpt lat="45.42965" lon="4.61085">
        <ele>753</ele>
        <time>2015-05-10T07:46:28Z</time>
      </trkpt>
      <trkpt lat="45.42968" lon="4.61078">
        <ele>753</ele>
        <time>2015-05-10T07:46:30Z</time>
      </trkpt>
      <trkpt lat="45.42971" lon="4.61069">
        <ele>751</ele>
        <time>2015-05-10T07:46:32Z</time>
      </trkpt>
      <trkpt lat="45.42973" lon="4.61062">
        <ele>750</ele>
        <time>2015-05-10T07:46:34Z</time>
      </trkpt>
      <trkpt lat="45.42974" lon="4.61055">
        <ele>750</ele>
        <time>2015-05-10T07:46:36Z</time>
      </trkpt>
      <trkpt lat="45.42976" lon="4.61048">
        <ele>750</ele>
        <time>2015-05-10T07:46:39Z</time>
      </trkpt>
      <trkpt lat="45.42978" lon="4.61037">
        <ele>749</ele>
        <time>2015-05-10T07:46:42Z</time>
      </trkpt>
      <trkpt lat="45.42979" lon="4.61025">
        <ele>748</ele>
        <time>2015-05-10T07:46:45Z</time>
      </trkpt>
      <trkpt lat="45.42979" lon="4.61011">
        <ele>747</ele>
        <time>2015-05-10T07:46:47Z</time>
      </trkpt>
      <trkpt lat="45.42979" lon="4.61002">
        <ele>746</ele>
        <time>2015-05-10T07:46:50Z</time>
      </trkpt>
      <trkpt lat="45.4298" lon="4.6099">
        <ele>746</ele>
        <time>2015-05-10T07:46:53Z</time>
      </trkpt>
      <trkpt lat="45.42981" lon="4.6098">
        <ele>745</ele>
        <time>2015-05-10T07:46:55Z</time>
      </trkpt>
      <trkpt lat="45.42984" lon="4.60973">
        <ele>744</ele>
        <time>2015-05-10T07:46:57Z</time>
      </trkpt>
      <trkpt lat="45.42985" lon="4.60967">
        <ele>743</ele>
        <time>2015-05-10T07:47:00Z</time>
      </trkpt>
      <trkpt lat="45.42987" lon="4.60956">
        <ele>742</ele>
        <time>2015-05-10T07:47:02Z</time>
      </trkpt>
      <trkpt lat="45.42989" lon="4.6095">
        <ele>741</ele>
        <time>2015-05-10T07:47:04Z</time>
      </trkpt>
      <trkpt lat="45.4299" lon="4.60942">
        <ele>740</ele>
        <time>2015-05-10T07:47:06Z</time>
      </trkpt>
      <trkpt lat="45.42992" lon="4.60935">
        <ele>739</ele>
        <time>2015-05-10T07:47:08Z</time>
      </trkpt>
      <trkpt lat="45.42993" lon="4.60923">
        <ele>738</ele>
        <time>2015-05-10T07:47:12Z</time>
      </trkpt>
      <trkpt lat="45.42995" lon="4.60912">
        <ele>737</ele>
        <time>2015-05-10T07:47:15Z</time>
      </trkpt>
      <trkpt lat="45.42996" lon="4.60904">
        <ele>736</ele>
        <time>2015-05-10T07:47:17Z</time>
      </trkpt>
      <trkpt lat="45.42997" lon="4.60891">
        <ele>735</ele>
        <time>2015-05-10T07:47:19Z</time>
      </trkpt>
      <trkpt lat="45.42998" lon="4.60884">
        <ele>734</ele>
        <time>2015-05-10T07:47:22Z</time>
      </trkpt>
      <trkpt lat="45.43" lon="4.60876">
        <ele>733</ele>
        <time>2015-05-10T07:47:24Z</time>
      </trkpt>
      <trkpt lat="45.43002" lon="4.60864">
        <ele>732</ele>
        <time>2015-05-10T07:47:26Z</time>
      </trkpt>
      <trkpt lat="45.43003" lon="4.60856">
        <ele>731</ele>
        <time>2015-05-10T07:47:29Z</time>
      </trkpt>
      <trkpt lat="45.43004" lon="4.60848">
        <ele>730</ele>
        <time>2015-05-10T07:47:31Z</time>
      </trkpt>
      <trkpt lat="45.43005" lon="4.6084">
        <ele>730</ele>
        <time>2015-05-10T07:47:33Z</time>
      </trkpt>
      <trkpt lat="45.43008" lon="4.60829">
        <ele>729</ele>
        <time>2015-05-10T07:47:35Z</time>
      </trkpt>
      <trkpt lat="45.4301" lon="4.60822">
        <ele>728</ele>
        <time>2015-05-10T07:47:38Z</time>
      </trkpt>
      <trkpt lat="45.43014" lon="4.60812">
        <ele>726</ele>
        <time>2015-05-10T07:47:40Z</time>
      </trkpt>
      <trkpt lat="45.43016" lon="4.60806">
        <ele>725</ele>
        <time>2015-05-10T07:47:42Z</time>
      </trkpt>
      <trkpt lat="45.43018" lon="4.608">
        <ele>724</ele>
        <time>2015-05-10T07:47:45Z</time>
      </trkpt>
      <trkpt lat="45.4302" lon="4.60792">
        <ele>724</ele>
        <time>2015-05-10T07:47:47Z</time>
      </trkpt>
      <trkpt lat="45.43021" lon="4.60781">
        <ele>723</ele>
        <time>2015-05-10T07:47:49Z</time>
      </trkpt>
      <trkpt lat="45.43024" lon="4.60771">
        <ele>722</ele>
        <time>2015-05-10T07:47:53Z</time>
      </trkpt>
      <trkpt lat="45.43024" lon="4.60761">
        <ele>721</ele>
        <time>2015-05-10T07:47:56Z</time>
      </trkpt>
      <trkpt lat="45.43025" lon="4.60748">
        <ele>720</ele>
        <time>2015-05-10T07:47:58Z</time>
      </trkpt>
      <trkpt lat="45.43027" lon="4.60741">
        <ele>720</ele>
        <time>2015-05-10T07:48:01Z</time>
      </trkpt>
      <trkpt lat="45.43029" lon="4.60734">
        <ele>719</ele>
        <time>2015-05-10T07:48:03Z</time>
      </trkpt>
      <trkpt lat="45.43032" lon="4.60724">
        <ele>718</ele>
        <time>2015-05-10T07:48:05Z</time>
      </trkpt>
      <trkpt lat="45.43034" lon="4.60713">
        <ele>716</ele>
        <time>2015-05-10T07:48:08Z</time>
      </trkpt>
      <trkpt lat="45.43035" lon="4.60705">
        <ele>715</ele>
        <time>2015-05-10T07:48:10Z</time>
      </trkpt>
      <trkpt lat="45.43037" lon="4.60698">
        <ele>714</ele>
        <time>2015-05-10T07:48:12Z</time>
      </trkpt>
      <trkpt lat="45.43038" lon="4.60687">
        <ele>713</ele>
        <time>2015-05-10T07:48:15Z</time>
      </trkpt>
      <trkpt lat="45.43039" lon="4.60681">
        <ele>712</ele>
        <time>2015-05-10T07:48:17Z</time>
      </trkpt>
      <trkpt lat="45.43039" lon="4.60674">
        <ele>712</ele>
        <time>2015-05-10T07:48:20Z</time>
      </trkpt>
      <trkpt lat="45.43041" lon="4.60662">
        <ele>711</ele>
        <time>2015-05-10T07:48:22Z</time>
      </trkpt>
      <trkpt lat="45.43043" lon="4.60655">
        <ele>710</ele>
        <time>2015-05-10T07:48:25Z</time>
      </trkpt>
      <trkpt lat="45.43045" lon="4.60647">
        <ele>709</ele>
        <time>2015-05-10T07:48:27Z</time>
      </trkpt>
      <trkpt lat="45.43047" lon="4.60636">
        <ele>707</ele>
        <time>2015-05-10T07:48:29Z</time>
      </trkpt>
      <trkpt lat="45.4305" lon="4.60629">
        <ele>707</ele>
        <time>2015-05-10T07:48:32Z</time>
      </trkpt>
      <trkpt lat="45.43052" lon="4.60617">
        <ele>707</ele>
        <time>2015-05-10T07:48:34Z</time>
      </trkpt>
      <trkpt lat="45.43055" lon="4.60609">
        <ele>706</ele>
        <time>2015-05-10T07:48:36Z</time>
      </trkpt>
      <trkpt lat="45.43057" lon="4.606">
        <ele>706</ele>
        <time>2015-05-10T07:48:39Z</time>
      </trkpt>
      <trkpt lat="45.4306" lon="4.60588">
        <ele>705</ele>
        <time>2015-05-10T07:48:41Z</time>
      </trkpt>
      <trkpt lat="45.43062" lon="4.60577">
        <ele>704</ele>
        <time>2015-05-10T07:48:44Z</time>
      </trkpt>
      <trkpt lat="45.43063" lon="4.60568">
        <ele>703</ele>
        <time>2015-05-10T07:48:47Z</time>
      </trkpt>
      <trkpt lat="45.43065" lon="4.60556">
        <ele>702</ele>
        <time>2015-05-10T07:48:49Z</time>
      </trkpt>
      <trkpt lat="45.43066" lon="4.60545">
        <ele>701</ele>
        <time>2015-05-10T07:48:52Z</time>
      </trkpt>
      <trkpt lat="45.43067" lon="4.60537">
        <ele>700</ele>
        <time>2015-05-10T07:48:54Z</time>
      </trkpt>
      <trkpt lat="45.43068" lon="4.60529">
        <ele>699</ele>
        <time>2015-05-10T07:48:57Z</time>
      </trkpt>
      <trkpt lat="45.43069" lon="4.60518">
        <ele>698</ele>
        <time>2015-05-10T07:49:00Z</time>
      </trkpt>
      <trkpt lat="45.43069" lon="4.60509">
        <ele>698</ele>
        <time>2015-05-10T07:49:02Z</time>
      </trkpt>
      <trkpt lat="45.4307" lon="4.60497">
        <ele>697</ele>
        <time>2015-05-10T07:49:04Z</time>
      </trkpt>
      <trkpt lat="45.43071" lon="4.60485">
        <ele>696</ele>
        <time>2015-05-10T07:49:07Z</time>
      </trkpt>
      <trkpt lat="45.43072" lon="4.60478">
        <ele>696</ele>
        <time>2015-05-10T07:49:10Z</time>
      </trkpt>
      <trkpt lat="45.43073" lon="4.6047">
        <ele>695</ele>
        <time>2015-05-10T07:49:12Z</time>
      </trkpt>
      <trkpt lat="45.43073" lon="4.60458">
        <ele>694</ele>
        <time>2015-05-10T07:49:14Z</time>
      </trkpt>
      <trkpt lat="45.43074" lon="4.60447">
        <ele>693</ele>
        <time>2015-05-10T07:49:17Z</time>
      </trkpt>
      <trkpt lat="45.43073" lon="4.60438">
        <ele>692</ele>
        <time>2015-05-10T07:49:20Z</time>
      </trkpt>
      <trkpt lat="45.43074" lon="4.60425">
        <ele>691</ele>
        <time>2015-05-10T07:49:22Z</time>
      </trkpt>
      <trkpt lat="45.43073" lon="4.60412">
        <ele>690</ele>
        <time>2015-05-10T07:49:25Z</time>
      </trkpt>
      <trkpt lat="45.43073" lon="4.60403">
        <ele>689</ele>
        <time>2015-05-10T07:49:28Z</time>
      </trkpt>
      <trkpt lat="45.43074" lon="4.60391">
        <ele>688</ele>
        <time>2015-05-10T07:49:30Z</time>
      </trkpt>
      <trkpt lat="45.43075" lon="4.60382">
        <ele>688</ele>
        <time>2015-05-10T07:49:33Z</time>
      </trkpt>
      <trkpt lat="45.43076" lon="4.60372">
        <ele>689</ele>
        <time>2015-05-10T07:49:36Z</time>
      </trkpt>
      <trkpt lat="45.43078" lon="4.60362">
        <ele>688</ele>
        <time>2015-05-10T07:49:38Z</time>
      </trkpt>
      <trkpt lat="45.43079" lon="4.60353">
        <ele>688</ele>
        <time>2015-05-10T07:49:40Z</time>
      </trkpt>
      <trkpt lat="45.4308" lon="4.60345">
        <ele>687</ele>
        <time>2015-05-10T07:49:42Z</time>
      </trkpt>
      <trkpt lat="45.43081" lon="4.60338">
        <ele>686</ele>
        <time>2015-05-10T07:49:45Z</time>
      </trkpt>
      <trkpt lat="45.43083" lon="4.60328">
        <ele>686</ele>
        <time>2015-05-10T07:49:47Z</time>
      </trkpt>
      <trkpt lat="45.43084" lon="4.60318">
        <ele>686</ele>
        <time>2015-05-10T07:49:51Z</time>
      </trkpt>
      <trkpt lat="45.43086" lon="4.60306">
        <ele>686</ele>
        <time>2015-05-10T07:49:53Z</time>
      </trkpt>
      <trkpt lat="45.43087" lon="4.60298">
        <ele>685</ele>
        <time>2015-05-10T07:49:56Z</time>
      </trkpt>
      <trkpt lat="45.43087" lon="4.60285">
        <ele>684</ele>
        <time>2015-05-10T07:49:59Z</time>
      </trkpt>
      <trkpt lat="45.43087" lon="4.60275">
        <ele>684</ele>
        <time>2015-05-10T07:50:01Z</time>
      </trkpt>
      <trkpt lat="45.43087" lon="4.60268">
        <ele>684</ele>
        <time>2015-05-10T07:50:04Z</time>
      </trkpt>
      <trkpt lat="45.43086" lon="4.60259">
        <ele>683</ele>
        <time>2015-05-10T07:50:06Z</time>
      </trkpt>
      <trkpt lat="45.43085" lon="4.60251">
        <ele>683</ele>
        <time>2015-05-10T07:50:09Z</time>
      </trkpt>
      <trkpt lat="45.43085" lon="4.60239">
        <ele>683</ele>
        <time>2015-05-10T07:50:11Z</time>
      </trkpt>
      <trkpt lat="45.43085" lon="4.60228">
        <ele>681</ele>
        <time>2015-05-10T07:50:14Z</time>
      </trkpt>
      <trkpt lat="45.43084" lon="4.60219">
        <ele>680</ele>
        <time>2015-05-10T07:50:16Z</time>
      </trkpt>
      <trkpt lat="45.43083" lon="4.60206">
        <ele>679</ele>
        <time>2015-05-10T07:50:19Z</time>
      </trkpt>
      <trkpt lat="45.43082" lon="4.60197">
        <ele>679</ele>
        <time>2015-05-10T07:50:22Z</time>
      </trkpt>
      <trkpt lat="45.43081" lon="4.60185">
        <ele>678</ele>
        <time>2015-05-10T07:50:24Z</time>
      </trkpt>
      <trkpt lat="45.43079" lon="4.60174">
        <ele>676</ele>
        <time>2015-05-10T07:50:27Z</time>
      </trkpt>
      <trkpt lat="45.43079" lon="4.60167">
        <ele>675</ele>
        <time>2015-05-10T07:50:30Z</time>
      </trkpt>
      <trkpt lat="45.43079" lon="4.60158">
        <ele>674</ele>
        <time>2015-05-10T07:50:32Z</time>
      </trkpt>
      <trkpt lat="45.43078" lon="4.6015">
        <ele>673</ele>
        <time>2015-05-10T07:50:34Z</time>
      </trkpt>
      <trkpt lat="45.43076" lon="4.60138">
        <ele>673</ele>
        <time>2015-05-10T07:50:36Z</time>
      </trkpt>
      <trkpt lat="45.43074" lon="4.60127">
        <ele>672</ele>
        <time>2015-05-10T07:50:39Z</time>
      </trkpt>
      <trkpt lat="45.43072" lon="4.6012">
        <ele>672</ele>
        <time>2015-05-10T07:50:42Z</time>
      </trkpt>
      <trkpt lat="45.4307" lon="4.60107">
        <ele>670</ele>
        <time>2015-05-10T07:50:44Z</time>
      </trkpt>
      <trkpt lat="45.43069" lon="4.60094">
        <ele>669</ele>
        <time>2015-05-10T07:50:47Z</time>
      </trkpt>
      <trkpt lat="45.43068" lon="4.60085">
        <ele>669</ele>
        <time>2015-05-10T07:50:50Z</time>
      </trkpt>
      <trkpt lat="45.43066" lon="4.60072">
        <ele>669</ele>
        <time>2015-05-10T07:50:52Z</time>
      </trkpt>
      <trkpt lat="45.43063" lon="4.60058">
        <ele>668</ele>
        <time>2015-05-10T07:50:55Z</time>
      </trkpt>
      <trkpt lat="45.43061" lon="4.6005">
        <ele>667</ele>
        <time>2015-05-10T07:50:58Z</time>
      </trkpt>
      <trkpt lat="45.43059" lon="4.60036">
        <ele>667</ele>
        <time>2015-05-10T07:51:01Z</time>
      </trkpt>
      <trkpt lat="45.43059" lon="4.60029">
        <ele>666</ele>
        <time>2015-05-10T07:51:03Z</time>
      </trkpt>
      <trkpt lat="45.43058" lon="4.60022">
        <ele>666</ele>
        <time>2015-05-10T07:51:05Z</time>
      </trkpt>
      <trkpt lat="45.43058" lon="4.60009">
        <ele>665</ele>
        <time>2015-05-10T07:51:07Z</time>
      </trkpt>
      <trkpt lat="45.43057" lon="4.6">
        <ele>664</ele>
        <time>2015-05-10T07:51:10Z</time>
      </trkpt>
      <trkpt lat="45.43057" lon="4.59987">
        <ele>664</ele>
        <time>2015-05-10T07:51:12Z</time>
      </trkpt>
      <trkpt lat="45.43057" lon="4.59979">
        <ele>664</ele>
        <time>2015-05-10T07:51:14Z</time>
      </trkpt>
      <trkpt lat="45.43057" lon="4.59971">
        <ele>663</ele>
        <time>2015-05-10T07:51:16Z</time>
      </trkpt>
      <trkpt lat="45.43056" lon="4.59959">
        <ele>663</ele>
        <time>2015-05-10T07:51:19Z</time>
      </trkpt>
      <trkpt lat="45.43056" lon="4.5995">
        <ele>662</ele>
        <time>2015-05-10T07:51:22Z</time>
      </trkpt>
      <trkpt lat="45.43055" lon="4.59937">
        <ele>660</ele>
        <time>2015-05-10T07:51:24Z</time>
      </trkpt>
      <trkpt lat="45.43055" lon="4.59929">
        <ele>659</ele>
        <time>2015-05-10T07:51:27Z</time>
      </trkpt>
      <trkpt lat="45.43055" lon="4.59922">
        <ele>659</ele>
        <time>2015-05-10T07:51:29Z</time>
      </trkpt>
      <trkpt lat="45.43053" lon="4.5991">
        <ele>659</ele>
        <time>2015-05-10T07:51:31Z</time>
      </trkpt>
      <trkpt lat="45.43053" lon="4.59902">
        <ele>659</ele>
        <time>2015-05-10T07:51:34Z</time>
      </trkpt>
      <trkpt lat="45.43051" lon="4.59891">
        <ele>658</ele>
        <time>2015-05-10T07:51:36Z</time>
      </trkpt>
      <trkpt lat="45.4305" lon="4.59879">
        <ele>657</ele>
        <time>2015-05-10T07:51:39Z</time>
      </trkpt>
      <trkpt lat="45.4305" lon="4.5987">
        <ele>657</ele>
        <time>2015-05-10T07:51:42Z</time>
      </trkpt>
      <trkpt lat="45.4305" lon="4.59858">
        <ele>657</ele>
        <time>2015-05-10T07:51:44Z</time>
      </trkpt>
      <trkpt lat="45.4305" lon="4.59849">
        <ele>657</ele>
        <time>2015-05-10T07:51:46Z</time>
      </trkpt>
      <trkpt lat="45.4305" lon="4.59841">
        <ele>656</ele>
        <time>2015-05-10T07:51:49Z</time>
      </trkpt>
      <trkpt lat="45.43049" lon="4.59829">
        <ele>655</ele>
        <time>2015-05-10T07:51:52Z</time>
      </trkpt>
      <trkpt lat="45.43048" lon="4.59821">
        <ele>655</ele>
        <time>2015-05-10T07:51:54Z</time>
      </trkpt>
      <trkpt lat="45.43047" lon="4.59809">
        <ele>654</ele>
        <time>2015-05-10T07:51:56Z</time>
      </trkpt>
      <trkpt lat="45.43047" lon="4.59803">
        <ele>653</ele>
        <time>2015-05-10T07:51:59Z</time>
      </trkpt>
      <trkpt lat="45.43047" lon="4.59792">
        <ele>651</ele>
        <time>2015-05-10T07:52:02Z</time>
      </trkpt>
      <trkpt lat="45.43048" lon="4.59778">
        <ele>651</ele>
        <time>2015-05-10T07:52:04Z</time>
      </trkpt>
      <trkpt lat="45.43048" lon="4.59767">
        <ele>651</ele>
        <time>2015-05-10T07:52:07Z</time>
      </trkpt>
      <trkpt lat="45.43047" lon="4.59756">
        <ele>651</ele>
        <time>2015-05-10T07:52:10Z</time>
      </trkpt>
      <trkpt lat="45.43046" lon="4.59745">
        <ele>650</ele>
        <time>2015-05-10T07:52:12Z</time>
      </trkpt>
      <trkpt lat="45.43046" lon="4.59735">
        <ele>650</ele>
        <time>2015-05-10T07:52:14Z</time>
      </trkpt>
      <trkpt lat="45.43045" lon="4.59721">
        <ele>649</ele>
        <time>2015-05-10T07:52:17Z</time>
      </trkpt>
      <trkpt lat="45.43045" lon="4.59707">
        <ele>648</ele>
        <time>2015-05-10T07:52:19Z</time>
      </trkpt>
      <trkpt lat="45.43045" lon="4.59694">
        <ele>647</ele>
        <time>2015-05-10T07:52:22Z</time>
      </trkpt>
      <trkpt lat="45.43044" lon="4.59686">
        <ele>646</ele>
        <time>2015-05-10T07:52:25Z</time>
      </trkpt>
      <trkpt lat="45.43043" lon="4.59671">
        <ele>645</ele>
        <time>2015-05-10T07:52:27Z</time>
      </trkpt>
      <trkpt lat="45.43042" lon="4.59656">
        <ele>645</ele>
        <time>2015-05-10T07:52:30Z</time>
      </trkpt>
      <trkpt lat="45.43042" lon="4.59645">
        <ele>644</ele>
        <time>2015-05-10T07:52:32Z</time>
      </trkpt>
      <trkpt lat="45.43042" lon="4.59635">
        <ele>644</ele>
        <time>2015-05-10T07:52:35Z</time>
      </trkpt>
      <trkpt lat="45.43041" lon="4.59626">
        <ele>644</ele>
        <time>2015-05-10T07:52:37Z</time>
      </trkpt>
      <trkpt lat="45.43041" lon="4.59614">
        <ele>643</ele>
        <time>2015-05-10T07:52:39Z</time>
      </trkpt>
      <trkpt lat="45.43041" lon="4.59605">
        <ele>642</ele>
        <time>2015-05-10T07:52:41Z</time>
      </trkpt>
      <trkpt lat="45.43041" lon="4.5959">
        <ele>641</ele>
        <time>2015-05-10T07:52:44Z</time>
      </trkpt>
      <trkpt lat="45.43042" lon="4.5958">
        <ele>640</ele>
        <time>2015-05-10T07:52:46Z</time>
      </trkpt>
      <trkpt lat="45.43044" lon="4.59566">
        <ele>639</ele>
        <time>2015-05-10T07:52:49Z</time>
      </trkpt>
      <trkpt lat="45.43044" lon="4.59558">
        <ele>638</ele>
        <time>2015-05-10T07:52:52Z</time>
      </trkpt>
      <trkpt lat="45.43045" lon="4.59544">
        <ele>637</ele>
        <time>2015-05-10T07:52:54Z</time>
      </trkpt>
      <trkpt lat="45.43048" lon="4.59531">
        <ele>636</ele>
        <time>2015-05-10T07:52:57Z</time>
      </trkpt>
      <trkpt lat="45.43049" lon="4.59523">
        <ele>635</ele>
        <time>2015-05-10T07:52:59Z</time>
      </trkpt>
      <trkpt lat="45.4305" lon="4.59511">
        <ele>635</ele>
        <time>2015-05-10T07:53:02Z</time>
      </trkpt>
      <trkpt lat="45.4305" lon="4.59503">
        <ele>634</ele>
        <time>2015-05-10T07:53:05Z</time>
      </trkpt>
      <trkpt lat="45.4305" lon="4.59491">
        <ele>633</ele>
        <time>2015-05-10T07:53:07Z</time>
      </trkpt>
      <trkpt lat="45.43051" lon="4.59482">
        <ele>633</ele>
        <time>2015-05-10T07:53:10Z</time>
      </trkpt>
      <trkpt lat="45.43052" lon="4.59469">
        <ele>630</ele>
        <time>2015-05-10T07:53:12Z</time>
      </trkpt>
      <trkpt lat="45.43053" lon="4.5946">
        <ele>629</ele>
        <time>2015-05-10T07:53:14Z</time>
      </trkpt>
      <trkpt lat="45.43055" lon="4.59452">
        <ele>628</ele>
        <time>2015-05-10T07:53:17Z</time>
      </trkpt>
      <trkpt lat="45.43056" lon="4.59444">
        <ele>627</ele>
        <time>2015-05-10T07:53:19Z</time>
      </trkpt>
      <trkpt lat="45.43058" lon="4.59435">
        <ele>628</ele>
        <time>2015-05-10T07:53:21Z</time>
      </trkpt>
      <trkpt lat="45.43063" lon="4.59422">
        <ele>627</ele>
        <time>2015-05-10T07:53:24Z</time>
      </trkpt>
      <trkpt lat="45.43066" lon="4.5941">
        <ele>625</ele>
        <time>2015-05-10T07:53:27Z</time>
      </trkpt>
      <trkpt lat="45.43069" lon="4.594">
        <ele>623</ele>
        <time>2015-05-10T07:53:30Z</time>
      </trkpt>
      <trkpt lat="45.43068" lon="4.59394">
        <ele>622</ele>
        <time>2015-05-10T07:53:32Z</time>
      </trkpt>
      <trkpt lat="45.43062" lon="4.59394">
        <ele>621</ele>
        <time>2015-05-10T07:53:34Z</time>
      </trkpt>
      <trkpt lat="45.43057" lon="4.59398">
        <ele>621</ele>
        <time>2015-05-10T07:53:37Z</time>
      </trkpt>
      <trkpt lat="45.43054" lon="4.59401">
        <ele>621</ele>
        <time>2015-05-10T07:53:39Z</time>
      </trkpt>
      <trkpt lat="45.43048" lon="4.59408">
        <ele>621</ele>
        <time>2015-05-10T07:53:41Z</time>
      </trkpt>
      <trkpt lat="45.43044" lon="4.59417">
        <ele>621</ele>
        <time>2015-05-10T07:53:44Z</time>
      </trkpt>
      <trkpt lat="45.4304" lon="4.59425">
        <ele>620</ele>
        <time>2015-05-10T07:53:47Z</time>
      </trkpt>
      <trkpt lat="45.43035" lon="4.59435">
        <ele>619</ele>
        <time>2015-05-10T07:53:50Z</time>
      </trkpt>
      <trkpt lat="45.43031" lon="4.59445">
        <ele>618</ele>
        <time>2015-05-10T07:53:53Z</time>
      </trkpt>
      <trkpt lat="45.43027" lon="4.59455">
        <ele>618</ele>
        <time>2015-05-10T07:53:55Z</time>
      </trkpt>
      <trkpt lat="45.43023" lon="4.59467">
        <ele>618</ele>
        <time>2015-05-10T07:53:58Z</time>
      </trkpt>
      <trkpt lat="45.43021" lon="4.59475">
        <ele>618</ele>
        <time>2015-05-10T07:54:01Z</time>
      </trkpt>
      <trkpt lat="45.43017" lon="4.59486">
        <ele>617</ele>
        <time>2015-05-10T07:54:04Z</time>
      </trkpt>
      <trkpt lat="45.43015" lon="4.59494">
        <ele>617</ele>
        <time>2015-05-10T07:54:06Z</time>
      </trkpt>
      <trkpt lat="45.43013" lon="4.59507">
        <ele>617</ele>
        <time>2015-05-10T07:54:08Z</time>
      </trkpt>
      <trkpt lat="45.43012" lon="4.59516">
        <ele>616</ele>
        <time>2015-05-10T07:54:11Z</time>
      </trkpt>
      <trkpt lat="45.43009" lon="4.5953">
        <ele>616</ele>
        <time>2015-05-10T07:54:14Z</time>
      </trkpt>
      <trkpt lat="45.43008" lon="4.59538">
        <ele>615</ele>
        <time>2015-05-10T07:54:16Z</time>
      </trkpt>
      <trkpt lat="45.43004" lon="4.59547">
        <ele>615</ele>
        <time>2015-05-10T07:54:19Z</time>
      </trkpt>
      <trkpt lat="45.43001" lon="4.5954">
        <ele>614</ele>
        <time>2015-05-10T07:54:21Z</time>
      </trkpt>
      <trkpt lat="45.43" lon="4.59533">
        <ele>613</ele>
        <time>2015-05-10T07:54:24Z</time>
      </trkpt>
      <trkpt lat="45.42998" lon="4.59524">
        <ele>612</ele>
        <time>2015-05-10T07:54:26Z</time>
      </trkpt>
      <trkpt lat="45.42998" lon="4.59518">
        <ele>611</ele>
        <time>2015-05-10T07:54:29Z</time>
      </trkpt>
      <trkpt lat="45.42999" lon="4.59508">
        <ele>610</ele>
        <time>2015-05-10T07:54:32Z</time>
      </trkpt>
      <trkpt lat="45.42996" lon="4.59495">
        <ele>608</ele>
        <time>2015-05-10T07:54:34Z</time>
      </trkpt>
      <trkpt lat="45.42992" lon="4.59484">
        <ele>606</ele>
        <time>2015-05-10T07:54:37Z</time>
      </trkpt>
      <trkpt lat="45.42989" lon="4.59475">
        <ele>605</ele>
        <time>2015-05-10T07:54:40Z</time>
      </trkpt>
      <trkpt lat="45.42988" lon="4.59463">
        <ele>603</ele>
        <time>2015-05-10T07:54:42Z</time>
      </trkpt>
      <trkpt lat="45.42986" lon="4.59455">
        <ele>602</ele>
        <time>2015-05-10T07:54:45Z</time>
      </trkpt>
      <trkpt lat="45.42981" lon="4.59444">
        <ele>600</ele>
        <time>2015-05-10T07:54:47Z</time>
      </trkpt>
      <trkpt lat="45.42981" lon="4.59435">
        <ele>598</ele>
        <time>2015-05-10T07:54:50Z</time>
      </trkpt>
      <trkpt lat="45.42979" lon="4.59424">
        <ele>597</ele>
        <time>2015-05-10T07:54:52Z</time>
      </trkpt>
      <trkpt lat="45.42978" lon="4.59415">
        <ele>596</ele>
        <time>2015-05-10T07:54:55Z</time>
      </trkpt>
      <trkpt lat="45.42977" lon="4.59407">
        <ele>595</ele>
        <time>2015-05-10T07:54:57Z</time>
      </trkpt>
      <trkpt lat="45.42975" lon="4.59395">
        <ele>594</ele>
        <time>2015-05-10T07:54:59Z</time>
      </trkpt>
      <trkpt lat="45.42974" lon="4.59388">
        <ele>593</ele>
        <time>2015-05-10T07:55:02Z</time>
      </trkpt>
      <trkpt lat="45.42973" lon="4.59373">
        <ele>591</ele>
        <time>2015-05-10T07:55:04Z</time>
      </trkpt>
      <trkpt lat="45.42971" lon="4.59361">
        <ele>590</ele>
        <time>2015-05-10T07:55:07Z</time>
      </trkpt>
      <trkpt lat="45.4297" lon="4.59355">
        <ele>589</ele>
        <time>2015-05-10T07:55:09Z</time>
      </trkpt>
      <trkpt lat="45.42969" lon="4.59346">
        <ele>588</ele>
        <time>2015-05-10T07:55:12Z</time>
      </trkpt>
      <trkpt lat="45.42965" lon="4.59335">
        <ele>586</ele>
        <time>2015-05-10T07:55:14Z</time>
      </trkpt>
      <trkpt lat="45.42962" lon="4.59325">
        <ele>585</ele>
        <time>2015-05-10T07:55:17Z</time>
      </trkpt>
      <trkpt lat="45.42956" lon="4.59313">
        <ele>584</ele>
        <time>2015-05-10T07:55:19Z</time>
      </trkpt>
      <trkpt lat="45.42953" lon="4.59307">
        <ele>583</ele>
        <time>2015-05-10T07:55:22Z</time>
      </trkpt>
      <trkpt lat="45.42949" lon="4.593">
        <ele>581</ele>
        <time>2015-05-10T07:55:24Z</time>
      </trkpt>
      <trkpt lat="45.42947" lon="4.59294">
        <ele>580</ele>
        <time>2015-05-10T07:55:26Z</time>
      </trkpt>
      <trkpt lat="45.42941" lon="4.59282">
        <ele>579</ele>
        <time>2015-05-10T07:55:28Z</time>
      </trkpt>
      <trkpt lat="45.42936" lon="4.59275">
        <ele>579</ele>
        <time>2015-05-10T07:55:31Z</time>
      </trkpt>
      <trkpt lat="45.4293" lon="4.59263">
        <ele>578</ele>
        <time>2015-05-10T07:55:33Z</time>
      </trkpt>
      <trkpt lat="45.42923" lon="4.59251">
        <ele>578</ele>
        <time>2015-05-10T07:55:36Z</time>
      </trkpt>
      <trkpt lat="45.42916" lon="4.5924">
        <ele>577</ele>
        <time>2015-05-10T07:55:40Z</time>
      </trkpt>
      <trkpt lat="45.4291" lon="4.59234">
        <ele>577</ele>
        <time>2015-05-10T07:55:42Z</time>
      </trkpt>
      <trkpt lat="45.42905" lon="4.59229">
        <ele>576</ele>
        <time>2015-05-10T07:55:44Z</time>
      </trkpt>
      <trkpt lat="45.42898" lon="4.59223">
        <ele>575</ele>
        <time>2015-05-10T07:55:46Z</time>
      </trkpt>
      <trkpt lat="45.42893" lon="4.59219">
        <ele>574</ele>
        <time>2015-05-10T07:55:48Z</time>
      </trkpt>
      <trkpt lat="45.42884" lon="4.59211">
        <ele>573</ele>
        <time>2015-05-10T07:55:51Z</time>
      </trkpt>
      <trkpt lat="45.42878" lon="4.59206">
        <ele>572</ele>
        <time>2015-05-10T07:55:53Z</time>
      </trkpt>
      <trkpt lat="45.42873" lon="4.59199">
        <ele>571</ele>
        <time>2015-05-10T07:55:55Z</time>
      </trkpt>
      <trkpt lat="45.4287" lon="4.59193">
        <ele>570</ele>
        <time>2015-05-10T07:55:57Z</time>
      </trkpt>
      <trkpt lat="45.42869" lon="4.59185">
        <ele>569</ele>
        <time>2015-05-10T07:56:00Z</time>
      </trkpt>
      <trkpt lat="45.42868" lon="4.59175">
        <ele>569</ele>
        <time>2015-05-10T07:56:02Z</time>
      </trkpt>
      <trkpt lat="45.42869" lon="4.59162">
        <ele>567</ele>
        <time>2015-05-10T07:56:04Z</time>
      </trkpt>
      <trkpt lat="45.42871" lon="4.59153">
        <ele>566</ele>
        <time>2015-05-10T07:56:06Z</time>
      </trkpt>
      <trkpt lat="45.42874" lon="4.59145">
        <ele>565</ele>
        <time>2015-05-10T07:56:08Z</time>
      </trkpt>
      <trkpt lat="45.42876" lon="4.59137">
        <ele>565</ele>
        <time>2015-05-10T07:56:10Z</time>
      </trkpt>
      <trkpt lat="45.42878" lon="4.59131">
        <ele>564</ele>
        <time>2015-05-10T07:56:12Z</time>
      </trkpt>
      <trkpt lat="45.42881" lon="4.59122">
        <ele>563</ele>
        <time>2015-05-10T07:56:14Z</time>
      </trkpt>
      <trkpt lat="45.42883" lon="4.59114">
        <ele>563</ele>
        <time>2015-05-10T07:56:16Z</time>
      </trkpt>
      <trkpt lat="45.42884" lon="4.59104">
        <ele>562</ele>
        <time>2015-05-10T07:56:19Z</time>
      </trkpt>
      <trkpt lat="45.42883" lon="4.59092">
        <ele>561</ele>
        <time>2015-05-10T07:56:21Z</time>
      </trkpt>
      <trkpt lat="45.42884" lon="4.59081">
        <ele>561</ele>
        <time>2015-05-10T07:56:23Z</time>
      </trkpt>
      <trkpt lat="45.42883" lon="4.5907">
        <ele>560</ele>
        <time>2015-05-10T07:56:26Z</time>
      </trkpt>
      <trkpt lat="45.42881" lon="4.59055">
        <ele>558</ele>
        <time>2015-05-10T07:56:28Z</time>
      </trkpt>
      <trkpt lat="45.42881" lon="4.59042">
        <ele>556</ele>
        <time>2015-05-10T07:56:32Z</time>
      </trkpt>
      <trkpt lat="45.42882" lon="4.59028">
        <ele>554</ele>
        <time>2015-05-10T07:56:34Z</time>
      </trkpt>
      <trkpt lat="45.42883" lon="4.59019">
        <ele>552</ele>
        <time>2015-05-10T07:56:37Z</time>
      </trkpt>
      <trkpt lat="45.42884" lon="4.59011">
        <ele>552</ele>
        <time>2015-05-10T07:56:39Z</time>
      </trkpt>
      <trkpt lat="45.42886" lon="4.58999">
        <ele>550</ele>
        <time>2015-05-10T07:56:41Z</time>
      </trkpt>
      <trkpt lat="45.42887" lon="4.58987">
        <ele>549</ele>
        <time>2015-05-10T07:56:44Z</time>
      </trkpt>
      <trkpt lat="45.42889" lon="4.58977">
        <ele>547</ele>
        <time>2015-05-10T07:56:47Z</time>
      </trkpt>
      <trkpt lat="45.4289" lon="4.58966">
        <ele>545</ele>
        <time>2015-05-10T07:56:50Z</time>
      </trkpt>
      <trkpt lat="45.42891" lon="4.58953">
        <ele>542</ele>
        <time>2015-05-10T07:56:53Z</time>
      </trkpt>
      <trkpt lat="45.42891" lon="4.58938">
        <ele>540</ele>
        <time>2015-05-10T07:56:56Z</time>
      </trkpt>
      <trkpt lat="45.42891" lon="4.58922">
        <ele>539</ele>
        <time>2015-05-10T07:56:58Z</time>
      </trkpt>
      <trkpt lat="45.42891" lon="4.58913">
        <ele>539</ele>
        <time>2015-05-10T07:57:01Z</time>
      </trkpt>
      <trkpt lat="45.4289" lon="4.58898">
        <ele>537</ele>
        <time>2015-05-10T07:57:03Z</time>
      </trkpt>
      <trkpt lat="45.42889" lon="4.58884">
        <ele>535</ele>
        <time>2015-05-10T07:57:06Z</time>
      </trkpt>
      <trkpt lat="45.42888" lon="4.58874">
        <ele>534</ele>
        <time>2015-05-10T07:57:09Z</time>
      </trkpt>
      <trkpt lat="45.42889" lon="4.58862">
        <ele>533</ele>
        <time>2015-05-10T07:57:11Z</time>
      </trkpt>
      <trkpt lat="45.42891" lon="4.58855">
        <ele>532</ele>
        <time>2015-05-10T07:57:14Z</time>
      </trkpt>
      <trkpt lat="45.42895" lon="4.58843">
        <ele>530</ele>
        <time>2015-05-10T07:57:17Z</time>
      </trkpt>
      <trkpt lat="45.42897" lon="4.58832">
        <ele>527</ele>
        <time>2015-05-10T07:57:19Z</time>
      </trkpt>
      <trkpt lat="45.42896" lon="4.58824">
        <ele>526</ele>
        <time>2015-05-10T07:57:21Z</time>
      </trkpt>
      <trkpt lat="45.42893" lon="4.58817">
        <ele>524</ele>
        <time>2015-05-10T07:57:24Z</time>
      </trkpt>
      <trkpt lat="45.4289" lon="4.5881">
        <ele>523</ele>
        <time>2015-05-10T07:57:26Z</time>
      </trkpt>
      <trkpt lat="45.42884" lon="4.58801">
        <ele>522</ele>
        <time>2015-05-10T07:57:28Z</time>
      </trkpt>
      <trkpt lat="45.42881" lon="4.58796">
        <ele>520</ele>
        <time>2015-05-10T07:57:31Z</time>
      </trkpt>
      <trkpt lat="45.42875" lon="4.5879">
        <ele>519</ele>
        <time>2015-05-10T07:57:33Z</time>
      </trkpt>
      <trkpt lat="45.42867" lon="4.58782">
        <ele>517</ele>
        <time>2015-05-10T07:57:37Z</time>
      </trkpt>
      <trkpt lat="45.42859" lon="4.58776">
        <ele>515</ele>
        <time>2015-05-10T07:57:39Z</time>
      </trkpt>
      <trkpt lat="45.42854" lon="4.58773">
        <ele>513</ele>
        <time>2015-05-10T07:57:41Z</time>
      </trkpt>
      <trkpt lat="45.42849" lon="4.58769">
        <ele>512</ele>
        <time>2015-05-10T07:57:44Z</time>
      </trkpt>
      <trkpt lat="45.42839" lon="4.58766">
        <ele>511</ele>
        <time>2015-05-10T07:57:46Z</time>
      </trkpt>
      <trkpt lat="45.42833" lon="4.58762">
        <ele>510</ele>
        <time>2015-05-10T07:57:48Z</time>
      </trkpt>
      <trkpt lat="45.42828" lon="4.58763">
        <ele>510</ele>
        <time>2015-05-10T07:57:50Z</time>
      </trkpt>
      <trkpt lat="45.4282" lon="4.58768">
        <ele>508</ele>
        <time>2015-05-10T07:57:53Z</time>
      </trkpt>
      <trkpt lat="45.42814" lon="4.58769">
        <ele>507</ele>
        <time>2015-05-10T07:57:55Z</time>
      </trkpt>
      <trkpt lat="45.42806" lon="4.58769">
        <ele>504</ele>
        <time>2015-05-10T07:57:58Z</time>
      </trkpt>
      <trkpt lat="45.42803" lon="4.58769">
        <ele>503</ele>
        <time>2015-05-10T07:58:00Z</time>
      </trkpt>
      <trkpt lat="45.428" lon="4.58768">
        <ele>502</ele>
        <time>2015-05-10T07:58:03Z</time>
      </trkpt>
      <trkpt lat="45.42795" lon="4.58763">
        <ele>501</ele>
        <time>2015-05-10T07:58:05Z</time>
      </trkpt>
      <trkpt lat="45.42794" lon="4.58753">
        <ele>500</ele>
        <time>2015-05-10T07:58:07Z</time>
      </trkpt>
      <trkpt lat="45.42794" lon="4.58745">
        <ele>499</ele>
        <time>2015-05-10T07:58:09Z</time>
      </trkpt>
      <trkpt lat="45.42792" lon="4.58735">
        <ele>496</ele>
        <time>2015-05-10T07:58:13Z</time>
      </trkpt>
      <trkpt lat="45.42791" lon="4.58723">
        <ele>494</ele>
        <time>2015-05-10T07:58:16Z</time>
      </trkpt>
      <trkpt lat="45.42792" lon="4.58711">
        <ele>492</ele>
        <time>2015-05-10T07:58:18Z</time>
      </trkpt>
      <trkpt lat="45.42794" lon="4.58706">
        <ele>490</ele>
        <time>2015-05-10T07:58:21Z</time>
      </trkpt>
      <trkpt lat="45.42793" lon="4.58698">
        <ele>489</ele>
        <time>2015-05-10T07:58:23Z</time>
      </trkpt>
      <trkpt lat="45.42793" lon="4.58688">
        <ele>487</ele>
        <time>2015-05-10T07:58:26Z</time>
      </trkpt>
      <trkpt lat="45.42795" lon="4.58674">
        <ele>485</ele>
        <time>2015-05-10T07:58:28Z</time>
      </trkpt>
      <trkpt lat="45.42797" lon="4.58663">
        <ele>482</ele>
        <time>2015-05-10T07:58:31Z</time>
      </trkpt>
      <trkpt lat="45.428" lon="4.58655">
        <ele>481</ele>
        <time>2015-05-10T07:58:33Z</time>
      </trkpt>
      <trkpt lat="45.42802" lon="4.58646">
        <ele>479</ele>
        <time>2015-05-10T07:58:36Z</time>
      </trkpt>
      <trkpt lat="45.42806" lon="4.58635">
        <ele>477</ele>
        <time>2015-05-10T07:58:38Z</time>
      </trkpt>
      <trkpt lat="45.42811" lon="4.58623">
        <ele>475</ele>
        <time>2015-05-10T07:58:41Z</time>
      </trkpt>
      <trkpt lat="45.42815" lon="4.58616">
        <ele>473</ele>
        <time>2015-05-10T07:58:44Z</time>
      </trkpt>
      <trkpt lat="45.42818" lon="4.58609">
        <ele>472</ele>
        <time>2015-05-10T07:58:46Z</time>
      </trkpt>
      <trkpt lat="45.42823" lon="4.58595">
        <ele>470</ele>
        <time>2015-05-10T07:58:48Z</time>
      </trkpt>
      <trkpt lat="45.42826" lon="4.58587">
        <ele>469</ele>
        <time>2015-05-10T07:58:50Z</time>
      </trkpt>
      <trkpt lat="45.42832" lon="4.58578">
        <ele>467</ele>
        <time>2015-05-10T07:58:53Z</time>
      </trkpt>
      <trkpt lat="45.42838" lon="4.58574">
        <ele>466</ele>
        <time>2015-05-10T07:58:56Z</time>
      </trkpt>
      <trkpt lat="45.42844" lon="4.58568">
        <ele>463</ele>
        <time>2015-05-10T07:58:59Z</time>
      </trkpt>
      <trkpt lat="45.42839" lon="4.58557">
        <ele>461</ele>
        <time>2015-05-10T07:59:02Z</time>
      </trkpt>
      <trkpt lat="45.4283" lon="4.58557">
        <ele>459</ele>
        <time>2015-05-10T07:59:04Z</time>
      </trkpt>
      <trkpt lat="45.42825" lon="4.58557">
        <ele>458</ele>
        <time>2015-05-10T07:59:06Z</time>
      </trkpt>
      <trkpt lat="45.42819" lon="4.5856">
        <ele>457</ele>
        <time>2015-05-10T07:59:08Z</time>
      </trkpt>
      <trkpt lat="45.42812" lon="4.58563">
        <ele>456</ele>
        <time>2015-05-10T07:59:10Z</time>
      </trkpt>
      <trkpt lat="45.42807" lon="4.58565">
        <ele>454</ele>
        <time>2015-05-10T07:59:12Z</time>
      </trkpt>
      <trkpt lat="45.42796" lon="4.58568">
        <ele>451</ele>
        <time>2015-05-10T07:59:15Z</time>
      </trkpt>
      <trkpt lat="45.42786" lon="4.58571">
        <ele>449</ele>
        <time>2015-05-10T07:59:18Z</time>
      </trkpt>
      <trkpt lat="45.42775" lon="4.58571">
        <ele>448</ele>
        <time>2015-05-10T07:59:21Z</time>
      </trkpt>
      <trkpt lat="45.42765" lon="4.58573">
        <ele>447</ele>
        <time>2015-05-10T07:59:24Z</time>
      </trkpt>
      <trkpt lat="45.42756" lon="4.58576">
        <ele>445</ele>
        <time>2015-05-10T07:59:27Z</time>
      </trkpt>
      <trkpt lat="45.42748" lon="4.58583">
        <ele>443</ele>
        <time>2015-05-10T07:59:30Z</time>
      </trkpt>
      <trkpt lat="45.42743" lon="4.58587">
        <ele>442</ele>
        <time>2015-05-10T07:59:32Z</time>
      </trkpt>
      <trkpt lat="45.42738" lon="4.58589">
        <ele>441</ele>
        <time>2015-05-10T07:59:35Z</time>
      </trkpt>
      <trkpt lat="45.42736" lon="4.58591">
        <ele>440</ele>
        <time>2015-05-10T07:59:36Z</time>
      </trkpt>
    </trkseg>
  </trk>
</gpx>